LH424 / D-AIHT 7700 Squawk Report (21st of May, 2022)

Aircraft A346 Reg No. D-AIHT Age 14 years old
Model A340 Jet engines 4 First flight 03-04-08
Registered 18-04-18 Rollout 06-02-08 Delivered 30-04-08
Construction No. 846 Line No. N/A Series 642
ADSHEX 3C6514 Airline name Lufthansa Owner N/A
Airfield based Frankfurt-Main~Hessen~D First tracked N/A

Flight history for D-AIHT

Route Flight No Date Playback
???? LH9916 2022-06-28 11:32:00
John F Kennedy Intl (JFK) - Munich Airport (MUC) LH411 2022-06-27 06:25:00
Munich Airport (MUC) - John F Kennedy Intl (JFK) LH410 2022-06-26 22:22:00
Logan International Airport (BOS) - Munich Airport (MUC) LH425 2022-06-26 07:47:00
Munich Airport (MUC) - Logan International Airport (BOS) LH424 2022-06-25 22:34:00
Logan International Airport (BOS) - Munich Airport (MUC) LH425 2022-06-25 08:51:00
Munich Airport (MUC) - Logan International Airport (BOS) LH424 2022-06-25 01:30:00
Los Angeles Intl (LAX) - Munich Airport (MUC) LH453 2022-06-24 11:28:00
Munich Airport (MUC) - Los Angeles Intl (LAX) LH452 2022-06-24 00:26:00
Logan International Airport (BOS) - Munich Airport (MUC) LH425 2022-06-23 07:53:00
Munich Airport (MUC) - Logan International Airport (BOS) LH424 2022-06-22 22:32:00
Los Angeles Intl (LAX) - Munich Airport (MUC) LH453 2022-06-22 11:15:00
Munich Airport (MUC) - Los Angeles Intl (LAX) LH452 2022-06-21 22:27:00
John F Kennedy Intl (JFK) - Munich Airport (MUC) LH411 2022-06-21 10:15:00
Munich Airport (MUC) - John F Kennedy Intl (JFK) LH410 2022-06-20 19:45:00
Logan International Airport (BOS) - Munich Airport (MUC) LH425 2022-06-20 07:54:00
Munich Airport (MUC) - Logan International Airport (BOS) LH424 2022-06-19 22:55:00
Los Angeles Intl (LAX) - Munich Airport (MUC) LH453 2022-06-19 11:35:00
Munich Airport (MUC) - Los Angeles Intl (LAX) LH452 2022-06-19 00:38:00
Los Angeles Intl (LAX) - Munich Airport (MUC) LH453 2022-06-17 14:22:00
Time Lat Lon Altitude Heading Speed Vertical Rate
2022-05-22 01:16:11 GMT 42.371552 -71.020027 0 227 7 -32
2022-05-22 01:16:09 GMT 42.371578 -71.019997 0 227 7 -32
2022-05-22 01:16:08 GMT 42.371601 -71.019974 0 227 7 -32
2022-05-22 01:16:07 GMT 42.371632 -71.019951 0 227 8 -32
2022-05-22 01:16:05 GMT 42.371689 -71.019890 0 226 7 -32
2022-05-22 01:16:04 GMT 42.371712 -71.019836 0 225 7 -32
2022-05-22 01:16:03 GMT 42.371700 -71.019829 0 221 9 -32
2022-05-22 01:16:02 GMT 42.371719 -71.019768 0 220 9 -32
2022-05-22 01:16:00 GMT 42.371792 -71.019661 0 221 7 -32
2022-05-22 01:15:59 GMT 42.371841 -71.019676 0 224 7 -32
2022-05-22 01:15:58 GMT 42.371841 -71.019623 0 214 7 -32
2022-05-22 01:15:56 GMT 42.371891 -71.019531 0 207 5 -32
2022-05-22 01:15:55 GMT 42.371922 -71.019569 0 201 6 -32
2022-05-22 01:15:54 GMT 42.371910 -71.019501 0 201 6 -32
2022-05-22 01:15:53 GMT 42.371948 -71.019493 0 207 5 -32
2022-05-22 01:15:51 GMT 42.372002 -71.019501 0 218 5 -32
2022-05-22 01:15:50 GMT 42.372021 -71.019478 0 218 5 -32
2022-05-22 01:15:49 GMT 42.372040 -71.019447 0 216 4 -32
2022-05-22 01:15:47 GMT 42.372070 -71.019386 0 199 4 -32
2022-05-22 01:15:46 GMT 42.372082 -71.019379 0 197 6 -32
2022-05-22 01:15:45 GMT 42.372120 -71.019371 0 200 4 -32
2022-05-22 01:15:43 GMT 42.372162 -71.019363 0 210 4 -32
2022-05-22 01:15:41 GMT 42.372200 -71.019333 0 196 5 -32
2022-05-22 01:15:39 GMT 42.372231 -71.019279 0 197 3 -32
2022-05-22 01:15:37 GMT 42.372261 -71.019302 0 218 3 -32
2022-05-22 01:15:36 GMT 42.372280 -71.019318 0 220 3 -32
2022-05-22 01:15:35 GMT 42.372292 -71.019272 0 209 3 -32
2022-05-22 01:15:33 GMT 42.372311 -71.019257 0 213 3 -32
2022-05-22 01:15:32 GMT 42.372318 -71.019279 0 213 3 -32
2022-05-22 01:15:30 GMT 42.372341 -71.019257 0 205 4 -32
2022-05-22 01:15:29 GMT 42.372360 -71.019234 0 195 3 -32
2022-05-22 01:15:28 GMT 42.372391 -71.019218 0 200 4 -32
2022-05-22 01:15:26 GMT 42.372410 -71.019203 0 194 2 -32
2022-05-22 01:15:25 GMT 42.372421 -71.019188 0 193 3 -32
2022-05-22 01:15:23 GMT 42.372440 -71.019188 0 202 4 -32
2022-05-22 01:15:22 GMT 42.372452 -71.019188 0 202 5 -32
2022-05-22 01:15:21 GMT 42.372471 -71.019157 0 198 4 -32
2022-05-22 01:15:19 GMT 42.372490 -71.019157 0 196 5 -32
2022-05-22 01:15:18 GMT 42.372520 -71.019142 0 195 6 -32
2022-05-22 01:15:17 GMT 42.372540 -71.019127 0 202 5 -32
2022-05-22 01:15:16 GMT 42.372570 -71.019142 0 214 6 -32
2022-05-22 01:15:15 GMT 42.372601 -71.019119 0 220 4 -32
2022-05-22 01:15:13 GMT 42.372639 -71.019081 0 236 4 -32
2022-05-22 01:15:12 GMT 42.372662 -71.019089 0 240 4 -32
2022-05-22 01:15:11 GMT 42.372669 -71.019096 0 227 6 -32
2022-05-22 01:15:09 GMT 42.372681 -71.019043 0 210 6 -32
2022-05-22 01:15:08 GMT 42.372700 -71.019012 0 202 6 -32
2022-05-22 01:15:07 GMT 42.372730 -71.018959 0 201 4 -32
2022-05-22 01:15:06 GMT 42.372768 -71.018990 0 234 6 -32
2022-05-22 01:15:04 GMT 42.372799 -71.018997 0 239 8 -32
2022-05-22 01:15:03 GMT 42.372799 -71.018951 0 224 8 -32
2022-05-22 01:15:02 GMT 42.372810 -71.018883 0 219 7 -32
2022-05-22 01:15:00 GMT 42.372871 -71.018837 0 236 7 -32
2022-05-22 01:14:59 GMT 42.372910 -71.018822 0 250 7 -32
2022-05-22 01:14:57 GMT 42.372959 -71.018753 0 257 9 -32
2022-05-22 01:14:56 GMT 42.372959 -71.018677 0 260 8 -32
2022-05-22 01:14:55 GMT 42.372978 -71.018639 0 269 9 -32
2022-05-22 01:14:52 GMT 42.373009 -71.018471 0 290 8 -32
2022-05-22 01:14:51 GMT 42.373001 -71.018402 0 292 7 -32
2022-05-22 01:14:49 GMT 42.372978 -71.018318 0 295 8 -32
2022-05-22 01:14:48 GMT 42.372959 -71.018257 0 301 7 -32
2022-05-22 01:14:47 GMT 42.372952 -71.018227 0 307 8 -32
2022-05-22 01:14:46 GMT 42.372910 -71.018127 0 308 6 -32
2022-05-22 01:14:44 GMT 42.372890 -71.018089 0 311 6 -32
2022-05-22 01:14:43 GMT 42.372890 -71.018059 0 314 7 -32
2022-05-22 01:14:41 GMT 42.372849 -71.018028 0 311 10 -32
2022-05-22 01:14:40 GMT 42.372822 -71.017982 0 313 11 -32
2022-05-22 01:14:39 GMT 42.372761 -71.017860 0 321 11 -32
2022-05-22 01:14:37 GMT 42.372711 -71.017838 0 313 10 -32
2022-05-22 01:14:36 GMT 42.372662 -71.017792 0 310 9 -32
2022-05-22 01:14:34 GMT 42.372620 -71.017708 0 314 9 -32
2022-05-22 01:14:33 GMT 42.372601 -71.017677 0 315 10 -32
2022-05-22 01:14:32 GMT 42.372570 -71.017647 0 313 12 -32
2022-05-22 01:14:31 GMT 42.372509 -71.017532 0 320 13 -32
2022-05-22 01:14:29 GMT 42.372459 -71.017471 0 318 12 -32
2022-05-22 01:14:28 GMT 42.372398 -71.017448 0 309 12 -32
2022-05-22 01:14:27 GMT 42.372349 -71.017342 0 313 14 -32
2022-05-22 01:14:25 GMT 42.372318 -71.017273 0 317 15 -32
2022-05-22 01:14:24 GMT 42.372261 -71.017181 0 323 13 -32
2022-05-22 01:14:23 GMT 42.372211 -71.017151 0 318 15 -32
2022-05-22 01:14:21 GMT 42.372040 -71.016968 0 314 16 -32
2022-05-22 01:14:19 GMT 42.371971 -71.016876 0 309 13 -32
2022-05-22 01:14:18 GMT 42.371941 -71.016838 0 311 15 -32
2022-05-22 01:14:16 GMT 42.371849 -71.016701 0 311 14 -32
2022-05-22 01:14:15 GMT 42.371819 -71.016617 0 317 14 -32
2022-05-22 01:14:13 GMT 42.371731 -71.016510 0 318 15 -32
2022-05-22 01:14:12 GMT 42.371681 -71.016449 0 317 15 -32
2022-05-22 01:14:11 GMT 42.371609 -71.016403 0 308 15 -32
2022-05-22 01:14:10 GMT 42.371552 -71.016312 0 313 12 -32
2022-05-22 01:14:08 GMT 42.371460 -71.016167 0 317 9 -32
2022-05-22 01:14:07 GMT 42.371441 -71.016144 0 319 10 -32
2022-05-22 01:14:06 GMT 42.371380 -71.016068 0 314 15 -32
2022-05-22 01:14:04 GMT 42.371349 -71.016022 0 316 17 -32
2022-05-22 01:14:03 GMT 42.371311 -71.015961 0 317 19 -32
2022-05-22 01:14:02 GMT 42.371231 -71.015862 0 315 16 -32
2022-05-22 01:14:00 GMT 42.371109 -71.015732 0 312 17 -32
2022-05-22 01:13:59 GMT 42.371071 -71.015640 0 315 15 -32
2022-05-22 01:13:58 GMT 42.371021 -71.015587 0 312 16 -32
2022-05-22 01:13:56 GMT 42.370918 -71.015427 0 313 17 -32
2022-05-22 01:13:55 GMT 42.370850 -71.015358 0 310 17 -32
2022-05-22 01:13:54 GMT 42.370819 -71.015282 0 315 17 -32
2022-05-22 01:13:52 GMT 42.370689 -71.015106 0 316 15 -32
2022-05-22 01:13:51 GMT 42.370651 -71.015053 0 321 16 -32
2022-05-22 01:13:50 GMT 42.370579 -71.014992 0 317 15 -32
2022-05-22 01:13:48 GMT 42.370468 -71.014870 0 310 14 -32
2022-05-22 01:13:47 GMT 42.370430 -71.014816 0 309 16 -32
2022-05-22 01:13:46 GMT 42.370411 -71.014763 0 314 19 -32
2022-05-22 01:13:45 GMT 42.370270 -71.014557 0 316 13 -32
2022-05-22 01:13:43 GMT 42.370232 -71.014526 0 312 15 -32
2022-05-22 01:13:42 GMT 42.370178 -71.014450 0 314 16 -32
2022-05-22 01:13:40 GMT 42.370071 -71.014290 0 318 14 -32
2022-05-22 01:13:38 GMT 42.369961 -71.014191 0 312 13 -32
2022-05-22 01:13:37 GMT 42.369919 -71.014122 0 314 13 -32
2022-05-22 01:13:36 GMT 42.369911 -71.014069 0 318 15 -32
2022-05-22 01:13:35 GMT 42.369808 -71.013969 0 316 15 -32
2022-05-22 01:13:33 GMT 42.369751 -71.013878 0 319 13 -32
2022-05-22 01:13:32 GMT 42.369690 -71.013802 0 317 11 -32
2022-05-22 01:13:31 GMT 42.369659 -71.013786 0 313 14 -32
2022-05-22 01:13:29 GMT 42.369591 -71.013649 0 323 14 -32
2022-05-22 01:13:28 GMT 42.369530 -71.013603 0 323 13 -32
2022-05-22 01:13:26 GMT 42.369411 -71.013489 0 318 6 -32
2022-05-22 01:13:25 GMT 42.369431 -71.013519 0 316 12 -32
2022-05-22 01:13:24 GMT 42.369411 -71.013474 0 320 14 -32
2022-05-22 01:13:23 GMT 42.369362 -71.013412 0 320 14 -32
2022-05-22 01:13:22 GMT 42.369282 -71.013367 0 309 13 -32
2022-05-22 01:13:20 GMT 42.369209 -71.013252 0 314 12 -32
2022-05-22 01:13:19 GMT 42.369160 -71.013138 0 315 6 -32
2022-05-22 01:13:18 GMT 42.369148 -71.013138 0 316 11 -32
2022-05-22 01:13:16 GMT 42.369110 -71.013046 0 318 14 -32
2022-05-22 01:13:15 GMT 42.369061 -71.013000 0 303 13 -32
2022-05-22 01:13:14 GMT 42.368980 -71.012932 0 289 10 -32
2022-05-22 01:13:12 GMT 42.368931 -71.012802 0 258 9 -32
2022-05-22 01:13:11 GMT 42.368900 -71.012718 0 248 8 -32
2022-05-22 01:13:10 GMT 42.368889 -71.012642 0 252 7 -32
2022-05-22 01:13:09 GMT 42.368950 -71.012619 0 256 12 -32
2022-05-22 01:13:07 GMT 42.368938 -71.012543 0 251 11 -32
2022-05-22 01:13:05 GMT 42.368961 -71.012390 0 246 12 -32
2022-05-22 01:13:04 GMT 42.368992 -71.012337 0 244 14 -32
2022-05-22 01:13:03 GMT 42.368992 -71.012238 0 236 14 -32
2022-05-22 01:13:02 GMT 42.369061 -71.012100 0 234 14 -32
2022-05-22 01:13:00 GMT 42.369099 -71.012016 0 232 13 -32
2022-05-22 01:12:59 GMT 42.369141 -71.011948 0 231 12 -32
2022-05-22 01:12:58 GMT 42.369190 -71.011810 0 224 11 -32
2022-05-22 01:12:56 GMT 42.369228 -71.011772 0 226 12 -32
2022-05-22 01:12:55 GMT 42.369259 -71.011726 0 226 13 -32
2022-05-22 01:12:54 GMT 42.369308 -71.011642 0 226 10 -32
2022-05-22 01:12:52 GMT 42.369381 -71.011574 0 226 13 -32
2022-05-22 01:12:51 GMT 42.369411 -71.011497 0 216 12 -32
2022-05-22 01:12:50 GMT 42.369431 -71.011429 0 204 12 -32
2022-05-22 01:12:48 GMT 42.369541 -71.011360 0 207 9 -32
2022-05-22 01:12:47 GMT 42.369579 -71.011360 0 217 11 -32
2022-05-22 01:12:46 GMT 42.369621 -71.011330 0 223 12 -32
2022-05-22 01:12:44 GMT 42.369701 -71.011253 0 223 13 -32
2022-05-22 01:12:43 GMT 42.369732 -71.011177 0 217 13 -32
2022-05-22 01:12:42 GMT 42.369759 -71.011131 0 214 14 -32
2022-05-22 01:12:39 GMT 42.369881 -71.010971 0 205 18 -32
2022-05-22 01:12:38 GMT 42.369942 -71.010887 0 196 19 -32
2022-05-22 01:12:36 GMT 42.370129 -71.010834 0 201 15 -32
2022-05-22 01:12:35 GMT 42.370201 -71.010818 0 212 16 -32
2022-05-22 01:12:34 GMT 42.370270 -71.010742 0 205 14 -32
2022-05-22 01:12:32 GMT 42.370399 -71.010651 0 200 17 -32
2022-05-22 01:12:31 GMT 42.370461 -71.010620 0 201 18 -32
2022-05-22 01:12:30 GMT 42.370548 -71.010597 0 204 18 -32
2022-05-22 01:12:29 GMT 42.370628 -71.010521 0 198 17 -32
2022-05-22 01:12:28 GMT 42.370800 -71.010483 0 212 15 -32
2022-05-22 01:12:25 GMT 42.370918 -71.010368 0 207 15 -32
2022-05-22 01:12:24 GMT 42.370979 -71.010330 0 209 16 -32
2022-05-22 01:12:23 GMT 42.371052 -71.010246 0 203 13 -32
2022-05-22 01:12:21 GMT 42.371159 -71.010178 0 199 15 -32
2022-05-22 01:12:20 GMT 42.371231 -71.010170 0 209 16 -32
2022-05-22 01:12:19 GMT 42.371330 -71.010162 0 223 15 -32
2022-05-22 01:12:18 GMT 42.371429 -71.010017 0 214 15 -32
2022-05-22 01:12:16 GMT 42.371449 -71.009933 0 201 18 -32
2022-05-22 01:12:15 GMT 42.371521 -71.009903 0 203 18 -32
2022-05-22 01:12:14 GMT 42.371590 -71.009827 0 197 18 -32
2022-05-22 01:12:12 GMT 42.371750 -71.009789 0 206 20 -32
2022-05-22 01:12:11 GMT 42.371861 -71.009758 0 214 18 -32
2022-05-22 01:12:10 GMT 42.371910 -71.009651 0 203 18 -32
2022-05-22 01:12:09 GMT 42.372070 -71.009567 0 206 17 -32
2022-05-22 01:12:07 GMT 42.372139 -71.009506 0 204 18 -32
2022-05-22 01:12:06 GMT 42.372219 -71.009453 0 201 17 -32
2022-05-22 01:12:04 GMT 42.372372 -71.009392 0 206 17 -32
2022-05-22 01:12:03 GMT 42.372452 -71.009331 0 204 16 -32
2022-05-22 01:12:02 GMT 42.372509 -71.009300 0 208 17 -32
2022-05-22 01:12:01 GMT 42.372601 -71.009247 0 207 16 -32
2022-05-22 01:11:59 GMT 42.372742 -71.009171 0 210 16 -32
2022-05-22 01:11:58 GMT 42.372799 -71.009109 0 209 15 -32
2022-05-22 01:11:57 GMT 42.372879 -71.009071 0 213 16 -32
2022-05-22 01:11:55 GMT 42.373001 -71.008926 0 188 12 -32
2022-05-22 01:11:54 GMT 42.373032 -71.008926 0 192 16 -32
2022-05-22 01:11:53 GMT 42.373138 -71.008942 0 206 14 -32
2022-05-22 01:11:52 GMT 42.373230 -71.008858 0 202 16 -32
2022-05-22 01:11:50 GMT 42.373310 -71.008820 0 204 14 -32
2022-05-22 01:11:49 GMT 42.373371 -71.008789 0 203 14 -32
2022-05-22 01:11:48 GMT 42.373489 -71.008720 0 198 16 -32
2022-05-22 01:11:46 GMT 42.373539 -71.008690 0 197 17 -32
2022-05-22 01:11:45 GMT 42.373600 -71.008659 0 197 19 -32
2022-05-22 01:11:44 GMT 42.373692 -71.008621 0 198 18 -32
2022-05-22 01:11:42 GMT 42.373852 -71.008553 0 198 18 -32
2022-05-22 01:11:41 GMT 42.373932 -71.008530 0 203 19 -32
2022-05-22 01:11:40 GMT 42.374088 -71.008400 0 194 20 -32
2022-05-22 01:11:38 GMT 42.374191 -71.008369 0 196 19 -32
2022-05-22 01:11:37 GMT 42.374298 -71.008400 0 211 19 -32
2022-05-22 01:11:36 GMT 42.374378 -71.008308 0 204 18 -32
2022-05-22 01:11:34 GMT 42.374489 -71.008186 0 192 22 -32
2022-05-22 01:11:33 GMT 42.374611 -71.008179 0 199 20 -32
2022-05-22 01:11:31 GMT 42.374790 -71.008080 0 192 18 -32
2022-05-22 01:11:30 GMT 42.374859 -71.008072 0 197 19 -32
2022-05-22 01:11:29 GMT 42.374981 -71.008080 0 209 17 -32
2022-05-22 01:11:28 GMT 42.375050 -71.008034 0 209 17 -32
2022-05-22 01:11:27 GMT 42.375130 -71.007957 0 206 16 -32
2022-05-22 01:11:25 GMT 42.375240 -71.007843 0 193 18 -32
2022-05-22 01:11:24 GMT 42.375320 -71.007843 0 203 18 -32
2022-05-22 01:11:22 GMT 42.375462 -71.007729 0 196 17 -32
2022-05-22 01:11:21 GMT 42.375542 -71.007698 0 197 17 -32
2022-05-22 01:11:20 GMT 42.375622 -71.007668 0 197 17 -32
2022-05-22 01:11:18 GMT 42.375751 -71.007607 0 196 16 -32
2022-05-22 01:11:17 GMT 42.375832 -71.007599 0 202 16 -32
2022-05-22 01:11:16 GMT 42.375912 -71.007561 0 203 15 -32
2022-05-22 01:11:15 GMT 42.376041 -71.007469 0 197 14 -32
2022-05-22 01:11:13 GMT 42.376099 -71.007446 0 198 15 -32
2022-05-22 01:11:12 GMT 42.376148 -71.007401 0 192 16 -32
2022-05-22 01:11:11 GMT 42.376320 -71.007378 0 199 14 -32
2022-05-22 01:11:09 GMT 42.376400 -71.007393 0 207 14 -32
2022-05-22 01:11:08 GMT 42.376461 -71.007339 0 202 13 -32
2022-05-22 01:11:06 GMT 42.376560 -71.007240 0 198 13 -32
2022-05-22 01:11:05 GMT 42.376640 -71.007278 0 203 14 -32
2022-05-22 01:11:04 GMT 42.376690 -71.007217 0 199 13 -32
2022-05-22 01:11:02 GMT 42.376801 -71.007103 0 192 12 -32
2022-05-22 01:11:01 GMT 42.376850 -71.007072 0 193 12 -32
2022-05-22 01:11:00 GMT 42.376930 -71.007149 0 204 12 -32
2022-05-22 01:10:58 GMT 42.377041 -71.007072 0 201 12 -32
2022-05-22 01:10:57 GMT 42.377090 -71.007027 0 200 11 -32
2022-05-22 01:10:55 GMT 42.377190 -71.007027 0 206 11 -32
2022-05-22 01:10:54 GMT 42.377239 -71.006989 0 204 11 -32
2022-05-22 01:10:53 GMT 42.377281 -71.006950 0 201 11 -32
2022-05-22 01:10:51 GMT 42.377361 -71.006859 0 196 12 -32
2022-05-22 01:10:50 GMT 42.377430 -71.006882 0 198 12 -32
2022-05-22 01:10:49 GMT 42.377468 -71.006828 0 192 12 -32
2022-05-22 01:10:48 GMT 42.377522 -71.006783 0 186 12 -32
2022-05-22 01:10:46 GMT 42.377609 -71.006699 0 176 12 -32
2022-05-22 01:10:45 GMT 42.377670 -71.006691 0 192 13 -32
2022-05-22 01:10:44 GMT 42.377819 -71.006790 0 202 11 -32
2022-05-22 01:10:42 GMT 42.377880 -71.006767 0 205 11 -32
2022-05-22 01:10:41 GMT 42.377930 -71.006737 0 207 10 -32
2022-05-22 01:10:40 GMT 42.377979 -71.006721 0 211 10 -32
2022-05-22 01:10:38 GMT 42.378078 -71.006691 0 220 10 -32
2022-05-22 01:10:37 GMT 42.378109 -71.006653 0 224 10 -32
2022-05-22 01:10:36 GMT 42.378189 -71.006691 0 240 11 -32
2022-05-22 01:10:34 GMT 42.378288 -71.006599 0 253 10 -32
2022-05-22 01:10:33 GMT 42.378319 -71.006554 0 257 10 -32
2022-05-22 01:10:32 GMT 42.378342 -71.006493 0 261 10 -32
2022-05-22 01:10:30 GMT 42.378391 -71.006317 0 273 8 -32
2022-05-22 01:10:29 GMT 42.378391 -71.006279 0 273 8 -32
2022-05-22 01:10:28 GMT 42.378361 -71.006180 0 273 6 -32
2022-05-22 01:10:27 GMT 42.378471 -71.006210 0 286 10 -32
2022-05-22 01:10:25 GMT 42.378471 -71.006149 0 288 9 -32
2022-05-22 01:10:23 GMT 42.378441 -71.006020 0 289 8 -32
2022-05-22 01:10:22 GMT 42.378429 -71.005959 0 289 8 -32
2022-05-22 01:10:21 GMT 42.378448 -71.006020 0 290 12 -32
2022-05-22 01:10:20 GMT 42.378410 -71.005867 0 288 12 -32
2022-05-22 01:10:18 GMT 42.378380 -71.005791 0 287 11 -32
2022-05-22 01:10:17 GMT 42.378349 -71.005699 0 287 10 -32
2022-05-22 01:10:15 GMT 42.378349 -71.005653 0 289 15 -32
2022-05-22 01:10:14 GMT 42.378330 -71.005539 0 290 14 -32
2022-05-22 01:10:13 GMT 42.378288 -71.005432 0 290 12 -32
2022-05-22 01:10:11 GMT 42.378269 -71.005379 0 290 15 -32
2022-05-22 01:10:10 GMT 42.378220 -71.005188 0 290 15 -32
2022-05-22 01:10:08 GMT 42.378201 -71.005074 0 292 13 -32
2022-05-22 01:10:07 GMT 42.378151 -71.004929 0 295 13 -32
2022-05-22 01:10:05 GMT 42.378132 -71.004852 0 293 14 -32
2022-05-22 01:10:04 GMT 42.378090 -71.004753 0 289 12 -32
2022-05-22 01:10:03 GMT 42.378059 -71.004662 0 288 11 -32
2022-05-22 01:10:01 GMT 42.378021 -71.004509 0 285 10 -32
2022-05-22 01:10:00 GMT 42.377998 -71.004463 0 286 10 -32
2022-05-22 01:09:59 GMT 42.378010 -71.004440 0 288 14 -32
2022-05-22 01:09:57 GMT 42.377972 -71.004288 0 287 15 -32
2022-05-22 01:09:56 GMT 42.377941 -71.004204 0 286 13 -32
2022-05-22 01:09:55 GMT 42.377941 -71.004150 0 288 16 -32
2022-05-22 01:09:54 GMT 42.377918 -71.004066 0 288 18 -32
2022-05-22 01:09:53 GMT 42.377861 -71.003838 0 288 15 -32
2022-05-22 01:09:51 GMT 42.377838 -71.003761 0 290 16 -32
2022-05-22 01:09:50 GMT 42.377819 -71.003677 0 290 16 -32
2022-05-22 01:09:48 GMT 42.377762 -71.003464 0 288 13 -32
2022-05-22 01:09:47 GMT 42.377731 -71.003403 0 287 14 -32
2022-05-22 01:09:46 GMT 42.377701 -71.003304 0 284 13 -32
2022-05-22 01:09:45 GMT 42.377682 -71.003151 0 285 13 -32
2022-05-22 01:09:43 GMT 42.377659 -71.003082 0 284 13 -32
2022-05-22 01:09:41 GMT 42.377628 -71.002899 0 289 13 -32
2022-05-22 01:09:40 GMT 42.377602 -71.002853 0 288 13 -32
2022-05-22 01:09:39 GMT 42.377579 -71.002792 0 283 15 -32
2022-05-22 01:09:38 GMT 42.377571 -71.002678 0 286 13 -32
2022-05-22 01:09:36 GMT 42.377541 -71.002487 0 295 11 -32
2022-05-22 01:09:35 GMT 42.377522 -71.002419 0 295 11 -32
2022-05-22 01:09:34 GMT 42.377499 -71.002380 0 296 13 -32
2022-05-22 01:09:32 GMT 42.377460 -71.002228 0 304 12 -32
2022-05-22 01:09:31 GMT 42.377430 -71.002136 0 309 11 -32
2022-05-22 01:09:30 GMT 42.377361 -71.002022 0 313 10 -32
2022-05-22 01:09:28 GMT 42.377338 -71.001991 0 314 12 -32
2022-05-22 01:09:27 GMT 42.377300 -71.001930 0 313 11 -32
2022-05-22 01:09:26 GMT 42.377258 -71.001892 0 309 11 -32
2022-05-22 01:09:25 GMT 42.377232 -71.001823 0 315 10 -32
2022-05-22 01:09:23 GMT 42.377151 -71.001717 0 319 9 -32
2022-05-22 01:09:22 GMT 42.377140 -71.001671 0 322 11 -32
2022-05-22 01:09:21 GMT 42.377110 -71.001640 0 322 11 -32
2022-05-22 01:09:20 GMT 42.377022 -71.001556 0 320 12 -32
2022-05-22 01:09:18 GMT 42.376991 -71.001541 0 318 15 -32
2022-05-22 01:09:17 GMT 42.376930 -71.001472 0 316 13 -32
2022-05-22 01:09:15 GMT 42.376839 -71.001343 0 323 14 -32
2022-05-22 01:09:14 GMT 42.376781 -71.001289 0 319 13 -32
2022-05-22 01:09:13 GMT 42.376732 -71.001244 0 319 13 -32
2022-05-22 01:09:12 GMT 42.376678 -71.001183 0 320 14 -32
2022-05-22 01:09:10 GMT 42.376572 -71.001083 0 314 15 -32
2022-05-22 01:09:09 GMT 42.376518 -71.000977 0 318 13 -32
2022-05-22 01:09:08 GMT 42.376469 -71.000938 0 317 12 -32
2022-05-22 01:09:07 GMT 42.376431 -71.000893 0 319 12 -32
2022-05-22 01:09:05 GMT 42.376350 -71.000771 0 320 11 -32
2022-05-22 01:09:04 GMT 42.376301 -71.000748 0 316 12 -32
2022-05-22 01:09:03 GMT 42.376259 -71.000687 0 316 12 -32
2022-05-22 01:09:02 GMT 42.376221 -71.000633 0 316 12 -32
2022-05-22 01:09:01 GMT 42.376179 -71.000603 0 313 13 -32
2022-05-22 01:08:59 GMT 42.376110 -71.000473 0 318 13 -32
2022-05-22 01:08:58 GMT 42.376060 -71.000412 0 318 12 -32
2022-05-22 01:08:57 GMT 42.376019 -71.000381 0 317 13 -32
2022-05-22 01:08:55 GMT 42.375938 -71.000259 0 328 13 -32
2022-05-22 01:08:54 GMT 42.375889 -71.000198 0 334 12 -32
2022-05-22 01:08:52 GMT 42.375809 -71.000107 0 347 12 -32
2022-05-22 01:08:51 GMT 42.375740 -71.000061 0 350 10 -32
2022-05-22 01:08:50 GMT 42.375660 -71.000008 0 2 12 -32
2022-05-22 01:08:48 GMT 42.375591 -71.000038 0 345 10 -32
2022-05-22 01:08:47 GMT 42.375549 -71.000053 0 348 11 -32
2022-05-22 01:08:45 GMT 42.375462 -71.000000 0 5 14 -32
2022-05-22 01:08:44 GMT 42.375381 -70.999977 0 17 13 -32
2022-05-22 01:08:43 GMT 42.375309 -71.000000 0 18 14 -32
2022-05-22 01:08:41 GMT 42.375210 -71.000038 0 19 19 -32
2022-05-22 01:08:40 GMT 42.375130 -71.000069 0 21 20 -32
2022-05-22 01:08:39 GMT 42.375050 -71.000122 0 18 20 -32
2022-05-22 01:08:37 GMT 42.374901 -71.000191 0 21 24 -32
2022-05-22 01:08:36 GMT 42.374790 -71.000267 0 16 23 -32
2022-05-22 01:08:35 GMT 42.374691 -71.000298 0 20 24 -32
2022-05-22 01:08:33 GMT 42.374500 -71.000397 0 22 25 -32
2022-05-22 01:08:31 GMT 42.374298 -71.000557 0 15 28 -32
2022-05-22 01:08:30 GMT 42.374191 -71.000618 0 12 29 -32
2022-05-22 01:08:29 GMT 42.374062 -71.000641 0 16 30 -32
2022-05-22 01:08:27 GMT 42.373779 -71.000732 0 22 30 -32
2022-05-22 01:08:26 GMT 42.373650 -71.000809 0 20 31 -32
2022-05-22 01:08:25 GMT 42.373520 -71.000908 0 17 31 -32
2022-05-22 01:08:24 GMT 42.373371 -71.000961 0 19 31 -32
2022-05-22 01:08:23 GMT 42.373081 -71.001068 0 22 33 -32
2022-05-22 01:08:21 GMT 42.372929 -71.001160 0 21 34 -32
2022-05-22 01:08:20 GMT 42.372608 -71.001320 0 21 37 -32
2022-05-22 01:08:18 GMT 42.372429 -71.001404 0 22 38 -32
2022-05-22 01:08:17 GMT 42.372280 -71.001511 0 19 43 -32
2022-05-22 01:08:16 GMT 42.371880 -71.001694 0 19 50 -32
2022-05-22 01:08:14 GMT 42.371681 -71.001793 0 19 57 -32
2022-05-22 01:08:13 GMT 42.371429 -71.001907 0 19 61 -32
2022-05-22 01:08:12 GMT 42.370911 -71.002159 0 19 72 -32
2022-05-22 01:08:10 GMT 42.370628 -71.002319 0 18 76 544
2022-05-22 01:08:09 GMT 42.370289 -71.002457 0 18 80 544
2022-05-22 01:08:08 GMT 42.369598 -71.002777 0 19 91 -64
2022-05-22 01:08:05 GMT 42.368778 -71.003151 -100 20 98 -64
2022-05-22 01:08:04 GMT 42.368370 -71.003349 -100 20 102 -64
2022-05-22 01:08:02 GMT 42.367489 -71.003807 -125 19 110 96
2022-05-22 01:08:01 GMT 42.367039 -71.003998 -125 20 118 96
2022-05-22 01:08:00 GMT 42.366539 -71.004272 -125 19 121 96
2022-05-22 01:07:58 GMT 42.365501 -71.004768 -125 19 132 96
2022-05-22 01:07:57 GMT 42.364960 -71.005043 -100 19 138 -160
2022-05-22 01:07:55 GMT 42.363770 -71.005562 -75 20 144 -160
2022-05-22 01:07:54 GMT 42.363159 -71.005852 -75 21 148 64
2022-05-22 01:07:53 GMT 42.361912 -71.006500 -75 20 152 64
2022-05-22 01:07:51 GMT 42.361259 -71.006844 -75 20 154 64
2022-05-22 01:07:50 GMT 42.360611 -71.007172 -75 20 156 64
2022-05-22 01:07:49 GMT 42.359268 -71.007858 -75 19 155 64
2022-05-22 01:07:47 GMT 42.358601 -71.008171 -75 19 158 64
2022-05-22 01:07:46 GMT 42.357910 -71.008499 -50 19 158 -1216
2022-05-22 01:07:45 GMT 42.357239 -71.008812 -50 20 160 -1216
2022-05-22 01:07:43 GMT 42.355850 -71.009529 -25 19 159 -1216
2022-05-22 01:07:42 GMT 42.355148 -71.009819 25 20 159 -1216
2022-05-22 01:07:41 GMT 42.354450 -71.010201 25 19 159 -1216
2022-05-22 01:07:39 GMT 42.353039 -71.010880 50 19 159 -1216
2022-05-22 01:07:38 GMT 42.352360 -71.011200 50 20 162 -1216
2022-05-22 01:07:37 GMT 42.351711 -71.011459 75 21 171 -1216
2022-05-22 01:07:35 GMT 42.350319 -71.012260 100 19 179 -1216
2022-05-22 01:07:34 GMT 42.349499 -71.012642 100 19 173 -1216
2022-05-22 01:07:33 GMT 42.348709 -71.013039 200 19 174 -1216
2022-05-22 01:07:32 GMT 42.347340 -71.013702 200 19 168 -1216
2022-05-22 01:07:30 GMT 42.346611 -71.014023 200 20 170 -1216
2022-05-22 01:07:29 GMT 42.345852 -71.014420 200 18 169 -1216
2022-05-22 01:07:28 GMT 42.344311 -71.015160 250 19 166 -1216
2022-05-22 01:07:26 GMT 42.343658 -71.015503 250 18 165 -1216
2022-05-22 01:07:25 GMT 42.342991 -71.015778 250 19 173 -1216
2022-05-22 01:07:23 GMT 42.341431 -71.016502 275 20 172 -1216
2022-05-22 01:07:22 GMT 42.340641 -71.016899 275 20 166 -1216
2022-05-22 01:07:21 GMT 42.340019 -71.017288 300 17 173 -1216
2022-05-22 01:07:20 GMT 42.338490 -71.017906 325 20 171 -1216
2022-05-22 01:07:18 GMT 42.337730 -71.018341 325 18 166 -1216
2022-05-22 01:07:17 GMT 42.336971 -71.018669 350 18 165 -1216
2022-05-22 01:07:16 GMT 42.335579 -71.019272 400 20 169 -1216
2022-05-22 01:07:14 GMT 42.334850 -71.019577 400 22 171 -1216
2022-05-22 01:07:12 GMT 42.333450 -71.020401 450 20 173 -1216
2022-05-22 01:07:11 GMT 42.332661 -71.020851 450 18 168 -1216
2022-05-22 01:07:10 GMT 42.331169 -71.021446 500 20 169 -704
2022-05-22 01:07:08 GMT 42.330360 -71.021858 500 20 164 -704
2022-05-22 01:07:07 GMT 42.329731 -71.022209 525 20 170 -704
2022-05-22 01:07:06 GMT 42.328281 -71.022888 600 20 176 -704
2022-05-22 01:07:04 GMT 42.327469 -71.023354 600 19 169 -704
2022-05-22 01:07:03 GMT 42.326729 -71.023682 600 20 170 -704
2022-05-22 01:07:02 GMT 42.326050 -71.023987 625 21 175 -704
2022-05-22 01:07:00 GMT 42.324551 -71.024788 625 19 178 -704
2022-05-22 01:06:59 GMT 42.323761 -71.025192 675 18 175 -704
2022-05-22 01:06:58 GMT 42.323009 -71.025497 675 19 175 -704
2022-05-22 01:06:57 GMT 42.322262 -71.025848 675 19 178 -704
2022-05-22 01:06:55 GMT 42.320702 -71.026588 700 19 180 -704
2022-05-22 01:06:54 GMT 42.319901 -71.026947 700 19 178 -704
2022-05-22 01:06:53 GMT 42.319160 -71.027313 750 19 179 -704
2022-05-22 01:06:52 GMT 42.318401 -71.027710 750 17 182 -704
2022-05-22 01:06:51 GMT 42.316792 -71.028358 750 20 182 -704
2022-05-22 01:06:49 GMT 42.315971 -71.028793 800 19 177 -704
2022-05-22 01:06:48 GMT 42.315250 -71.029137 900 19 181 -704
2022-05-22 01:06:47 GMT 42.313709 -71.029900 900 19 184 -704
2022-05-22 01:06:45 GMT 42.312851 -71.030273 900 19 179 -704
2022-05-22 01:06:44 GMT 42.312119 -71.030632 1,000 19 182 -704
2022-05-22 01:06:43 GMT 42.311340 -71.031059 1,000 18 182 -704
2022-05-22 01:06:42 GMT 42.310478 -71.031441 1,000 18 177 -704
2022-05-22 01:06:40 GMT 42.308929 -71.032127 1,000 19 179 -704
2022-05-22 01:06:39 GMT 42.308189 -71.032463 1,000 19 183 -704
2022-05-22 01:06:38 GMT 42.307381 -71.032867 1,000 19 180 -704
2022-05-22 01:06:37 GMT 42.306641 -71.033218 1,000 18 185 -704
2022-05-22 01:06:35 GMT 42.304939 -71.034012 1,000 18 176 -704
2022-05-22 01:06:34 GMT 42.304230 -71.034340 1,100 19 181 -704
2022-05-22 01:06:32 GMT 42.302700 -71.035057 1,100 19 188 -704
2022-05-22 01:06:31 GMT 42.301819 -71.035454 1,100 19 182 -704
2022-05-22 01:06:30 GMT 42.301048 -71.035767 1,200 20 184 -704
2022-05-22 01:06:29 GMT 42.299419 -71.036568 1,200 20 182 -704
2022-05-22 01:06:27 GMT 42.298641 -71.036980 1,200 19 182 -704
2022-05-22 01:06:26 GMT 42.297840 -71.037338 1,200 20 182 -704
2022-05-22 01:06:24 GMT 42.296280 -71.038147 1,150 20 184 -704
2022-05-22 01:06:23 GMT 42.295509 -71.038559 1,300 19 186 -704
2022-05-22 01:06:22 GMT 42.294701 -71.038933 1,300 19 186 -704
2022-05-22 01:06:20 GMT 42.293121 -71.039688 1,300 19 188 -704
2022-05-22 01:06:19 GMT 42.292259 -71.040108 1,300 19 184 -704
2022-05-22 01:06:18 GMT 42.291439 -71.040550 1,300 19 182 -704
2022-05-22 01:06:16 GMT 42.289890 -71.041260 1,400 19 185 -704
2022-05-22 01:06:15 GMT 42.288261 -71.042061 1,400 18 183 -704
2022-05-22 01:06:13 GMT 42.287418 -71.042450 1,400 18 180 -704
2022-05-22 01:06:12 GMT 42.286629 -71.042824 1,400 18 180 -704
2022-05-22 01:06:10 GMT 42.285069 -71.043503 1,500 18 182 -704
2022-05-22 01:06:09 GMT 42.284279 -71.043869 1,500 18 183 -704
2022-05-22 01:06:08 GMT 42.283470 -71.044312 1,500 17 181 -1120
2022-05-22 01:06:06 GMT 42.281860 -71.045036 1,500 16 180 -1120
2022-05-22 01:06:05 GMT 42.281078 -71.045380 1,500 16 181 -1120
2022-05-22 01:06:04 GMT 42.279411 -71.046089 1,500 17 178 -1120
2022-05-22 01:06:02 GMT 42.278660 -71.046356 1,600 18 183 -1120
2022-05-22 01:06:01 GMT 42.277870 -71.046700 1,600 19 185 -1120
2022-05-22 01:06:00 GMT 42.277069 -71.047050 1,600 19 187 -1120
2022-05-22 01:05:59 GMT 42.276199 -71.047409 1,600 21 185 -1120
2022-05-22 01:05:58 GMT 42.274551 -71.048157 1,700 23 187 -1120
2022-05-22 01:05:56 GMT 42.273750 -71.048569 1,700 23 190 -1120
2022-05-22 01:05:55 GMT 42.272942 -71.049004 1,700 24 194 -1120
2022-05-22 01:05:54 GMT 42.271530 -71.049744 1,700 25 225 -1120
2022-05-22 01:05:52 GMT 42.270710 -71.050179 1,700 25 239 -1120
2022-05-22 01:05:51 GMT 42.269711 -71.050797 1,700 24 237 -1120
2022-05-22 01:05:50 GMT 42.268200 -71.052589 1,700 18 204 -1120
2022-05-22 01:05:49 GMT 42.266399 -71.054199 1,900 12 196 -1120
2022-05-22 01:05:47 GMT 42.265530 -71.054520 1,900 12 196 -1120
2022-05-22 01:05:46 GMT 42.264648 -71.054840 1,900 12 196 -1120
2022-05-22 01:05:45 GMT 42.263771 -71.055161 1,900 12 196 -1120
2022-05-22 01:05:43 GMT 42.262589 -71.057602 1,900 4 203 -1120
2022-05-22 01:05:42 GMT 42.261650 -71.057709 1,900 4 203 -1120
2022-05-22 01:05:41 GMT 42.260719 -71.057823 1,900 4 203 -1120
2022-05-22 01:05:40 GMT 42.259781 -71.057938 1,900 4 203 -1120
2022-05-22 01:05:38 GMT 42.257641 -71.058128 1,900 4 194 -1120
2022-05-22 01:05:36 GMT 42.255852 -71.058327 1,900 4 194 -1120
2022-05-22 01:05:35 GMT 42.254959 -71.058434 1,900 4 194 -1120
2022-05-22 01:05:34 GMT 42.253090 -71.058662 2,000 4 194 -1120
2022-05-22 01:05:32 GMT 42.252190 -71.058746 2,000 4 194 -1120
2022-05-22 01:05:31 GMT 42.251289 -71.058838 2,000 4 194 -1120
2022-05-22 01:05:29 GMT 42.249660 -71.058357 2,000 6 205 -1120
2022-05-22 01:05:28 GMT 42.248711 -71.058517 2,000 6 205 -1120
2022-05-22 01:05:27 GMT 42.247768 -71.058670 2,000 6 205 -1120
2022-05-22 01:05:26 GMT 42.246830 -71.058823 2,000 6 205 -1120
2022-05-22 01:05:24 GMT 42.245239 -71.058998 2,100 4 217 -1120
2022-05-22 01:05:23 GMT 42.244240 -71.059128 2,100 4 217 -1120
2022-05-22 01:05:22 GMT 42.242241 -71.059402 2,100 4 217 -1120
2022-05-22 01:05:20 GMT 42.241669 -71.059563 2,200 1 227 -1120
2022-05-22 01:05:19 GMT 42.240620 -71.059639 2,200 1 227 -1120
2022-05-22 01:05:18 GMT 42.238522 -71.059792 2,200 1 227 -1120
2022-05-22 01:05:16 GMT 42.237572 -71.060219 2,300 356 223 -1120
2022-05-22 01:05:15 GMT 42.236542 -71.060188 2,300 356 223 -1120
2022-05-22 01:05:13 GMT 42.234470 -71.060127 2,300 356 223 -1120
2022-05-22 01:05:12 GMT 42.233440 -71.060112 2,300 356 223 -1120
2022-05-22 01:05:11 GMT 42.232281 -71.060120 2,300 349 212 -1120
2022-05-22 01:05:09 GMT 42.230331 -71.059891 2,300 349 212 -1120
2022-05-22 01:05:08 GMT 42.229351 -71.059769 2,300 349 212 -1120
2022-05-22 01:05:07 GMT 42.228371 -71.059662 2,300 349 212 -224
2022-05-22 01:05:06 GMT 42.226559 -71.060654 2,400 337 209 -224
2022-05-22 01:05:04 GMT 42.225639 -71.060272 2,400 337 209 -224
2022-05-22 01:05:03 GMT 42.224709 -71.059883 2,400 337 209 -224
2022-05-22 01:05:02 GMT 42.223339 -71.061111 2,500 325 199 -224
2022-05-22 01:05:01 GMT 42.222542 -71.060493 2,500 325 199 -224
2022-05-22 01:04:59 GMT 42.220940 -71.059250 2,500 325 199 -224
2022-05-22 01:04:58 GMT 42.220139 -71.058632 2,500 325 199 -224
2022-05-22 01:04:57 GMT 42.218208 -71.058403 2,600 314 194 -224
2022-05-22 01:04:55 GMT 42.217529 -71.057610 2,600 314 194 -224
2022-05-22 01:04:54 GMT 42.216862 -71.056824 2,600 314 194 -224
2022-05-22 01:04:53 GMT 42.214981 -71.057419 2,600 303 186 -224
2022-05-22 01:04:51 GMT 42.214008 -71.055511 2,600 303 186 -224
2022-05-22 01:04:50 GMT 42.213531 -71.054550 2,600 303 186 -224
2022-05-22 01:04:49 GMT 42.213039 -71.053596 2,600 303 186 -224
2022-05-22 01:04:47 GMT 42.211750 -71.052040 2,700 301 185 -224
2022-05-22 01:04:46 GMT 42.211300 -71.051064 2,700 301 185 -224
2022-05-22 01:04:45 GMT 42.210388 -71.049103 2,700 301 185 -224
2022-05-22 01:04:43 GMT 42.209629 -71.047531 2,800 301 167 -224
2022-05-22 01:04:42 GMT 42.209240 -71.046631 2,800 301 167 -224
2022-05-22 01:04:41 GMT 42.208839 -71.045738 2,800 301 167 -224
2022-05-22 01:04:40 GMT 42.208439 -71.044853 2,800 301 167 -224
2022-05-22 01:04:38 GMT 42.207821 -71.043404 2,900 302 177 -224
2022-05-22 01:04:37 GMT 42.207390 -71.042458 2,900 302 177 -224
2022-05-22 01:04:36 GMT 42.206959 -71.041519 2,900 302 177 -224
2022-05-22 01:04:34 GMT 42.206402 -71.039413 3,000 304 179 -224
2022-05-22 01:04:33 GMT 42.205929 -71.038490 3,000 304 179 -224
2022-05-22 01:04:31 GMT 42.204990 -71.036636 3,000 304 179 -224
2022-05-22 01:04:30 GMT 42.204639 -71.034851 3,000 303 171 -224
2022-05-22 01:04:29 GMT 42.204170 -71.033989 3,000 303 171 -224
2022-05-22 01:04:28 GMT 42.203232 -71.032272 3,000 303 171 -224
2022-05-22 01:04:25 GMT 42.202629 -71.032280 3,100 298 199 -224
2022-05-22 01:04:23 GMT 42.201679 -71.030151 3,100 298 199 -224
2022-05-22 01:04:22 GMT 42.201210 -71.029083 3,100 298 199 -224
2022-05-22 01:04:21 GMT 42.200729 -71.028023 3,100 298 199 -224
2022-05-22 01:04:20 GMT 42.200340 -71.027687 3,300 292 205 -224
2022-05-22 01:04:18 GMT 42.199490 -71.025398 3,300 292 205 -224
2022-05-22 01:04:17 GMT 42.199070 -71.024246 3,300 292 205 -224
2022-05-22 01:04:16 GMT 42.198448 -71.024071 3,300 284 209 -224
2022-05-22 01:04:15 GMT 42.197811 -71.021622 3,300 284 209 -224
2022-05-22 01:04:13 GMT 42.197491 -71.020393 3,300 284 209 -224
2022-05-22 01:04:12 GMT 42.197159 -71.019157 3,300 284 209 -224
2022-05-22 01:04:11 GMT 42.196259 -71.018448 3,400 273 202 -224
2022-05-22 01:04:09 GMT 42.195950 -71.015961 3,400 273 202 -224
2022-05-22 01:04:08 GMT 42.195801 -71.014717 3,400 273 202 -224
2022-05-22 01:04:07 GMT 42.195648 -71.013481 3,400 273 202 -224
2022-05-22 01:04:05 GMT 42.194801 -71.011032 3,500 260 190 -832
2022-05-22 01:04:04 GMT 42.194851 -71.009850 3,500 260 190 -832
2022-05-22 01:04:03 GMT 42.194901 -71.008667 3,500 260 190 -832
2022-05-22 01:04:01 GMT 42.194462 -71.005997 3,500 246 180 -832
2022-05-22 01:04:00 GMT 42.194691 -71.004921 3,500 246 180 -832
2022-05-22 01:03:58 GMT 42.195141 -71.002769 3,500 246 180 -832
2022-05-22 01:03:57 GMT 42.194248 -71.000687 3,600 229 177 -832
2022-05-22 01:03:56 GMT 42.194710 -70.999779 3,600 229 177 -832
2022-05-22 01:03:54 GMT 42.195629 -70.997963 3,600 229 177 -832
2022-05-22 01:03:53 GMT 42.195419 -70.995621 3,600 215 174 -832
2022-05-22 01:03:52 GMT 42.196018 -70.994904 3,600 215 174 -832
2022-05-22 01:03:51 GMT 42.196621 -70.994171 3,600 215 174 -832
2022-05-22 01:03:48 GMT 42.196899 -70.989967 3,700 202 198 -832
2022-05-22 01:03:47 GMT 42.197739 -70.989487 3,700 202 198 -832
2022-05-22 01:03:46 GMT 42.199429 -70.988510 3,700 202 198 -832
2022-05-22 01:03:44 GMT 42.200272 -70.988029 3,700 202 198 -832
2022-05-22 01:03:43 GMT 42.200562 -70.986923 3,800 200 206 -832
2022-05-22 01:03:42 GMT 42.202339 -70.986031 3,800 200 206 -832
2022-05-22 01:03:40 GMT 42.203239 -70.985580 3,800 200 206 -832
2022-05-22 01:03:39 GMT 42.203941 -70.984810 3,800 199 208 -832
2022-05-22 01:03:37 GMT 42.205761 -70.983948 3,800 199 208 -832
2022-05-22 01:03:36 GMT 42.206669 -70.983528 3,800 199 208 -832
2022-05-22 01:03:35 GMT 42.207581 -70.983101 3,800 199 208 -832
2022-05-22 01:03:33 GMT 42.209290 -70.982193 3,900 198 210 -832
2022-05-22 01:03:32 GMT 42.210209 -70.981773 3,900 198 210 -832
2022-05-22 01:03:31 GMT 42.211128 -70.981339 3,900 198 210 -832
2022-05-22 01:03:30 GMT 42.212051 -70.980919 3,900 198 210 -832
2022-05-22 01:03:28 GMT 42.213810 -70.980087 4,000 198 212 -832
2022-05-22 01:03:27 GMT 42.214741 -70.979668 4,000 198 212 -832
2022-05-22 01:03:26 GMT 42.215672 -70.979240 4,000 198 212 -832
2022-05-22 01:03:24 GMT 42.217461 -70.978447 4,000 198 213 -832
2022-05-22 01:03:23 GMT 42.218399 -70.978020 4,000 198 213 -832
2022-05-22 01:03:22 GMT 42.219330 -70.977592 4,000 198 213 -832
2022-05-22 01:03:21 GMT 42.220261 -70.977158 4,000 198 213 -832
2022-05-22 01:03:19 GMT 42.222080 -70.976471 4,100 199 214 -832
2022-05-22 01:03:18 GMT 42.223019 -70.976028 4,100 199 214 -832
2022-05-22 01:03:17 GMT 42.223949 -70.975594 4,100 199 214 -832
2022-05-22 01:03:15 GMT 42.225788 -70.974907 4,200 199 216 -832
2022-05-22 01:03:14 GMT 42.226730 -70.974457 4,200 199 216 -832
2022-05-22 01:03:13 GMT 42.227669 -70.974007 4,200 199 216 -832
2022-05-22 01:03:12 GMT 42.229568 -70.972992 4,200 199 215 -832
2022-05-22 01:03:10 GMT 42.230511 -70.972549 4,200 199 215 -832
2022-05-22 01:03:09 GMT 42.231449 -70.972107 4,200 199 215 -832
2022-05-22 01:03:08 GMT 42.232391 -70.971657 4,200 199 215 -832
2022-05-22 01:03:07 GMT 42.234211 -70.970901 4,400 199 216 -832
2022-05-22 01:03:05 GMT 42.235161 -70.970451 4,400 199 216 -1568
2022-05-22 01:03:04 GMT 42.237041 -70.969551 4,400 199 216 -1568
2022-05-22 01:03:03 GMT 42.237862 -70.969231 4,400 199 219 -1568
2022-05-22 01:03:01 GMT 42.238811 -70.968773 4,400 199 219 -1568
2022-05-22 01:03:00 GMT 42.239769 -70.968307 4,400 199 219 -1568
2022-05-22 01:02:58 GMT 42.241669 -70.967392 4,400 199 219 -1568
2022-05-22 01:02:57 GMT 42.242592 -70.967117 4,500 200 220 -1568
2022-05-22 01:02:56 GMT 42.243542 -70.966652 4,500 200 220 -1568
2022-05-22 01:02:54 GMT 42.245461 -70.965698 4,500 200 220 -1568
2022-05-22 01:02:53 GMT 42.246410 -70.965233 4,500 200 220 -1568
2022-05-22 01:02:52 GMT 42.247089 -70.964867 4,600 199 225 -1568
2022-05-22 01:02:50 GMT 42.249062 -70.963913 4,600 199 225 -1568
2022-05-22 01:02:49 GMT 42.250038 -70.963440 4,600 199 225 -1568
2022-05-22 01:02:48 GMT 42.250980 -70.963089 4,600 200 226 -1568
2022-05-22 01:02:47 GMT 42.251968 -70.962608 4,600 200 226 -1568
2022-05-22 01:02:45 GMT 42.253929 -70.961632 4,600 200 226 -1568
2022-05-22 01:02:44 GMT 42.254910 -70.961151 4,600 200 226 -1568
2022-05-22 01:02:42 GMT 42.256901 -70.960274 4,700 200 226 -1568
2022-05-22 01:02:41 GMT 42.257881 -70.959770 4,700 200 226 -1568
2022-05-22 01:02:40 GMT 42.258862 -70.959282 4,700 200 226 -1568
2022-05-22 01:02:38 GMT 42.260818 -70.958473 4,900 200 227 -1568
2022-05-22 01:02:37 GMT 42.261799 -70.957962 4,900 200 227 -1568
2022-05-22 01:02:35 GMT 42.263760 -70.956947 4,900 200 227 -1568
2022-05-22 01:02:34 GMT 42.264488 -70.956543 4,900 200 231 -1568
2022-05-22 01:02:33 GMT 42.265491 -70.956032 4,900 200 231 -1568
2022-05-22 01:02:32 GMT 42.266491 -70.955521 4,900 200 231 -1568
2022-05-22 01:02:31 GMT 42.267490 -70.955002 4,900 200 231 -1568
2022-05-22 01:02:30 GMT 42.269451 -70.953712 5,000 199 231 -1568
2022-05-22 01:02:28 GMT 42.270458 -70.953217 5,000 199 231 -1568
2022-05-22 01:02:27 GMT 42.271461 -70.952728 5,000 199 231 -1568
2022-05-22 01:02:26 GMT 42.273472 -70.951736 5,000 199 231 -1568
2022-05-22 01:02:24 GMT 42.274479 -70.951180 5,100 199 231 -1568
2022-05-22 01:02:23 GMT 42.275478 -70.950699 5,100 199 231 -1568
2022-05-22 01:02:22 GMT 42.277489 -70.949730 5,100 199 231 -1568
2022-05-22 01:02:20 GMT 42.278419 -70.949142 5,200 199 231 -1568
2022-05-22 01:02:19 GMT 42.279430 -70.948662 5,200 199 231 -1568
2022-05-22 01:02:18 GMT 42.281460 -70.947708 5,200 199 231 -1568
2022-05-22 01:02:16 GMT 42.282471 -70.947227 5,200 199 231 -1568
2022-05-22 01:02:15 GMT 42.283619 -70.947304 5,400 201 231 -1568
2022-05-22 01:02:14 GMT 42.284611 -70.946770 5,400 201 231 -1568
2022-05-22 01:02:12 GMT 42.286598 -70.945709 5,400 201 231 -1568
2022-05-22 01:02:11 GMT 42.287601 -70.945183 5,400 201 231 -1568
2022-05-22 01:02:10 GMT 42.288471 -70.944649 5,500 200 234 -1568
2022-05-22 01:02:09 GMT 42.290501 -70.943626 5,500 200 234 -1568
2022-05-22 01:02:07 GMT 42.291519 -70.943123 5,500 200 234 -1568
2022-05-22 01:02:06 GMT 42.293530 -70.942337 5,600 199 235 -1056
2022-05-22 01:02:04 GMT 42.294552 -70.941818 5,600 199 235 -1056
2022-05-22 01:02:03 GMT 42.295570 -70.941307 5,600 199 235 -1056
2022-05-22 01:02:01 GMT 42.297710 -70.940002 5,700 196 229 -1056
2022-05-22 01:02:00 GMT 42.298721 -70.939560 5,700 196 229 -1056
2022-05-22 01:01:59 GMT 42.299728 -70.939117 5,700 196 229 -1056
2022-05-22 01:01:57 GMT 42.301750 -70.938240 5,700 196 229 -1056
2022-05-22 01:01:56 GMT 42.302689 -70.937424 5,800 191 228 -1056
2022-05-22 01:01:55 GMT 42.304741 -70.936729 5,800 191 228 -1056
2022-05-22 01:01:53 GMT 42.305771 -70.936394 5,800 191 228 -1056
2022-05-22 01:01:52 GMT 42.306690 -70.935150 5,900 187 228 -1056
2022-05-22 01:01:51 GMT 42.307739 -70.934952 5,900 187 228 -1056
2022-05-22 01:01:50 GMT 42.309830 -70.934563 5,900 187 228 -1056
2022-05-22 01:01:48 GMT 42.310879 -70.934357 5,900 187 228 -1056
2022-05-22 01:01:47 GMT 42.311840 -70.933533 6,000 185 229 32
2022-05-22 01:01:46 GMT 42.313950 -70.933258 6,000 185 229 32
2022-05-22 01:01:44 GMT 42.314999 -70.933128 6,000 185 229 32
2022-05-22 01:01:43 GMT 42.316132 -70.932442 6,000 184 227 32
2022-05-22 01:01:42 GMT 42.318230 -70.932289 6,000 184 227 32
2022-05-22 01:01:40 GMT 42.319271 -70.932213 6,000 184 227 32
2022-05-22 01:01:39 GMT 42.320320 -70.932129 6,000 184 227 32
2022-05-22 01:01:38 GMT 42.321308 -70.932381 6,000 188 231 32
2022-05-22 01:01:37 GMT 42.323429 -70.932068 6,000 188 231 32
2022-05-22 01:01:35 GMT 42.324501 -70.931908 6,000 188 231 32
2022-05-22 01:01:34 GMT 42.325562 -70.931763 6,000 188 231 32
2022-05-22 01:01:32 GMT 42.327808 -70.931999 5,975 190 232 0
2022-05-22 01:01:31 GMT 42.328758 -70.931572 5,975 189 235 -1120
2022-05-22 01:01:30 GMT 42.329830 -70.931213 5,975 188 233 -1120
2022-05-22 01:01:29 GMT 42.331341 -70.932137 6,100 196 224 -1120
2022-05-22 01:01:27 GMT 42.333172 -70.930679 6,100 190 224 -1120
2022-05-22 01:01:26 GMT 42.333988 -70.929977 6,100 187 231 -1120
2022-05-22 01:01:25 GMT 42.334999 -70.929680 6,100 186 233 -1120
2022-05-22 01:01:23 GMT 42.337299 -70.930130 6,100 192 233 -1120
2022-05-22 01:01:22 GMT 42.338211 -70.929642 6,100 190 240 -1120
2022-05-22 01:01:21 GMT 42.339329 -70.928902 6,100 187 231 -1120
2022-05-22 01:01:20 GMT 42.340408 -70.928596 6,100 187 229 -1120
2022-05-22 01:01:18 GMT 42.342590 -70.928802 6,175 191 232 -1120
2022-05-22 01:01:17 GMT 42.343601 -70.928230 6,175 189 232 -1120
2022-05-22 01:01:16 GMT 42.344601 -70.927727 6,300 187 233 -1120
2022-05-22 01:01:14 GMT 42.346882 -70.927910 6,300 191 227 -1120
2022-05-22 01:01:13 GMT 42.347900 -70.927513 6,300 189 228 -1120
2022-05-22 01:01:12 GMT 42.348919 -70.927094 6,300 188 227 -1120
2022-05-22 01:01:10 GMT 42.351021 -70.927368 6,325 192 233 -1120
2022-05-22 01:01:09 GMT 42.352039 -70.926804 6,325 190 232 -1120
2022-05-22 01:01:08 GMT 42.353050 -70.926224 6,325 188 232 -1120
2022-05-22 01:01:06 GMT 42.355179 -70.925133 6,400 184 230 -1120
2022-05-22 01:01:05 GMT 42.356251 -70.926064 6,500 190 234 -1536
2022-05-22 01:01:04 GMT 42.357319 -70.925270 6,500 185 230 -1536
2022-05-22 01:01:03 GMT 42.359501 -70.924294 6,500 181 224 -1536
2022-05-22 01:01:01 GMT 42.360519 -70.925438 6,500 190 230 -1536
2022-05-22 01:01:00 GMT 42.361610 -70.925056 6,500 189 225 -1536
2022-05-22 01:00:59 GMT 42.362659 -70.924583 6,500 187 223 -1536
2022-05-22 01:00:57 GMT 42.364769 -70.923759 6,500 185 219 -1536
2022-05-22 01:00:56 GMT 42.365688 -70.926064 6,550 200 236 -1536
2022-05-22 01:00:55 GMT 42.366692 -70.925697 6,550 200 240 -1536
2022-05-22 01:00:54 GMT 42.368729 -70.925072 6,675 201 248 -1536
2022-05-22 01:00:52 GMT 42.369720 -70.924500 6,675 200 253 -1536
2022-05-22 01:00:51 GMT 42.370800 -70.923637 6,675 197 251 -1536
2022-05-22 01:00:50 GMT 42.371922 -70.923042 6,675 196 249 -1536
2022-05-22 01:00:48 GMT 42.374180 -70.921707 6,675 192 243 -1536
2022-05-22 01:00:47 GMT 42.375111 -70.922569 6,675 198 256 -1536
2022-05-22 01:00:46 GMT 42.376129 -70.921707 6,725 194 261 -1536
2022-05-22 01:00:42 GMT 42.380310 -70.920616 6,750 189 231 -960
2022-05-22 01:00:39 GMT 42.383717 -70.919945 6,775 189 231 -960
2022-05-22 01:00:36 GMT 42.386139 -70.919434 6,825 189 231 -1024
2022-05-22 01:00:33 GMT 42.390839 -70.918472 6,925 189 232 -1152
2022-05-22 01:00:30 GMT 42.393494 -70.917900 6,950 189 232 -1152
2022-05-22 01:00:26 GMT 42.397217 -70.917130 7,075 189 233 -1152
2022-05-22 01:00:23 GMT 42.400757 -70.916367 7,125 189 234 -1152
2022-05-22 01:00:20 GMT 42.408482 -70.914764 7,175 189 234 -1152
2022-05-22 01:00:16 GMT 42.408482 -70.914764 7,225 189 235 -1216
2022-05-22 01:00:12 GMT 42.412254 -70.914001 7,350 189 235 -1344
2022-05-22 01:00:08 GMT 42.416794 -70.913002 7,400 189 235 -1344
2022-05-22 01:00:04 GMT 42.421646 -70.912003 7,500 189 235 -1408
2022-05-22 01:00:01 GMT 42.424118 -70.911507 7,575 190 235 -1408
2022-05-22 00:59:58 GMT 42.427338 -70.910805 7,625 190 235 -1408
2022-05-22 00:59:56 GMT 42.430801 -70.910072 7,725 190 235 -1472
2022-05-22 00:59:53 GMT 42.432831 -70.909660 7,750 190 235 -1472
2022-05-22 00:59:49 GMT 42.436935 -70.908760 7,850 190 235 -1472
2022-05-22 00:59:46 GMT 42.441769 -70.907745 7,950 190 235 -1472
2022-05-22 00:59:43 GMT 42.443726 -70.907356 8,000 189 235 -1408
2022-05-22 00:59:39 GMT 42.451405 -70.905701 8,150 189 235 -1408
2022-05-22 00:59:36 GMT 42.451405 -70.905701 8,200 189 235 -1472
2022-05-22 00:59:33 GMT 42.455154 -70.904953 8,250 189 236 -1472
2022-05-22 00:59:29 GMT 42.459183 -70.904137 8,350 189 236 -1536
2022-05-22 00:59:27 GMT 42.460785 -70.903763 8,425 189 236 -1536
2022-05-22 00:59:24 GMT 42.464127 -70.903137 8,525 189 236 -1600
2022-05-22 00:59:21 GMT 42.467926 -70.902328 8,575 189 235 -1600
2022-05-22 00:59:18 GMT 42.470306 -70.901863 8,650 189 235 -1536
2022-05-22 00:59:15 GMT 42.474632 -70.901031 8,700 189 235 -1472
2022-05-22 00:59:12 GMT 42.477448 -70.900459 8,775 189 235 -1472
2022-05-22 00:59:08 GMT 42.482178 -70.899567 8,850 189 236 -1152
2022-05-22 00:59:04 GMT 42.486191 -70.898773 8,950 189 236 -704
2022-05-22 00:59:00 GMT 42.490860 -70.897896 8,950 188 237 -192
2022-05-22 00:58:57 GMT 42.493561 -70.897400 8,950 189 236 0
2022-05-22 00:58:54 GMT 42.496700 -70.896751 8,950 188 237 0
2022-05-22 00:58:50 GMT 42.501160 -70.895958 8,950 188 236 0
2022-05-22 00:58:47 GMT 42.504959 -70.895271 8,950 188 236 0
2022-05-22 00:58:44 GMT 42.507454 -70.894836 8,950 188 236 0
2022-05-22 00:58:41 GMT 42.510620 -70.894264 8,950 188 236 0
2022-05-22 00:58:37 GMT 42.518810 -70.892731 8,950 188 236 0
2022-05-22 00:58:34 GMT 42.518810 -70.892731 8,950 189 235 0
2022-05-22 00:58:31 GMT 42.521622 -70.892220 8,950 189 235 0
2022-05-22 00:58:28 GMT 42.525517 -70.891457 8,950 189 234 0
2022-05-22 00:58:25 GMT 42.528122 -70.890907 8,950 189 234 0
2022-05-22 00:58:21 GMT 42.532825 -70.889854 8,950 190 234 -64
2022-05-22 00:58:18 GMT 42.535812 -70.889160 8,950 191 233 -64
2022-05-22 00:58:16 GMT 42.537827 -70.888596 8,950 193 233 -64
2022-05-22 00:58:13 GMT 42.542042 -70.887367 8,950 193 233 64
2022-05-22 00:58:08 GMT 42.546204 -70.885849 8,950 199 232 64
2022-05-22 00:58:06 GMT 42.549210 -70.884361 8,950 208 230 64
2022-05-22 00:58:03 GMT 42.551239 -70.883102 8,950 210 229 64
2022-05-22 00:57:59 GMT 42.554077 -70.880852 8,950 216 228 0
2022-05-22 00:57:56 GMT 42.557281 -70.877419 8,950 235 224 64
2022-05-22 00:57:53 GMT 42.559753 -70.873802 8,950 232 225 64
2022-05-22 00:57:50 GMT 42.561310 -70.870995 8,950 238 224 64
2022-05-22 00:57:47 GMT 42.563362 -70.866096 8,950 245 223 -64
2022-05-22 00:57:43 GMT 42.564621 -70.862137 8,950 254 223 -64
2022-05-22 00:57:40 GMT 42.565598 -70.857986 8,950 255 222 0
2022-05-22 00:57:37 GMT 42.566162 -70.855141 8,950 256 223 0
2022-05-22 00:57:34 GMT 42.567039 -70.850578 8,950 256 223 0
2022-05-22 00:57:31 GMT 42.567902 -70.845963 8,950 256 223 0
2022-05-22 00:57:27 GMT 42.568764 -70.841316 8,950 256 223 0
2022-05-22 00:57:24 GMT 42.569599 -70.836845 8,950 256 223 0
2022-05-22 00:57:21 GMT 42.570251 -70.833458 8,950 256 223 0
2022-05-22 00:57:17 GMT 42.571426 -70.827232 8,950 256 223 0
2022-05-22 00:57:13 GMT 42.572433 -70.821930 8,950 256 223 0
2022-05-22 00:57:10 GMT 42.573559 -70.815956 8,950 256 223 0
2022-05-22 00:57:06 GMT 42.574402 -70.811317 8,950 256 223 0
2022-05-22 00:57:02 GMT 42.575317 -70.806572 8,950 256 223 0
2022-05-22 00:56:59 GMT 42.576164 -70.801964 8,950 256 223 0
2022-05-22 00:56:55 GMT 42.577240 -70.796272 8,950 256 223 0
2022-05-22 00:56:50 GMT 42.578400 -70.790154 8,950 256 223 0
2022-05-22 00:56:47 GMT 42.579842 -70.782547 8,950 256 223 0
2022-05-22 00:56:44 GMT 42.580902 -70.776863 8,950 256 223 0
2022-05-22 00:56:41 GMT 42.580902 -70.776863 8,950 256 223 0
2022-05-22 00:56:36 GMT 42.581863 -70.771805 8,950 256 223 0
2022-05-22 00:56:34 GMT 42.582367 -70.769119 8,950 256 223 0
2022-05-22 00:56:30 GMT 42.583694 -70.762001 8,950 256 223 0
2022-05-22 00:56:27 GMT 42.584217 -70.759041 8,950 256 223 0
2022-05-22 00:56:25 GMT 42.584591 -70.757126 8,950 256 223 0
2022-05-22 00:56:22 GMT 42.585571 -70.751953 8,950 256 223 0
2022-05-22 00:56:19 GMT 42.586033 -70.749397 8,950 256 223 0
2022-05-22 00:56:16 GMT 42.586807 -70.745338 8,950 256 223 0
2022-05-22 00:56:14 GMT 42.587448 -70.741905 8,950 256 223 0
2022-05-22 00:56:08 GMT 42.588966 -70.733620 8,950 256 223 0
2022-05-22 00:56:05 GMT 42.589523 -70.730812 8,950 256 223 0
2022-05-22 00:56:03 GMT 42.590195 -70.726982 8,950 256 223 0
2022-05-22 00:55:59 GMT 42.591202 -70.721741 8,950 256 223 0
2022-05-22 00:55:56 GMT 42.591980 -70.717499 8,950 256 222 0
2022-05-22 00:55:54 GMT 42.592758 -70.713310 8,950 256 222 0
2022-05-22 00:55:49 GMT 42.594589 -70.703514 8,950 256 222 0
2022-05-22 00:55:46 GMT 42.594589 -70.703514 8,950 256 223 0
2022-05-22 00:55:43 GMT 42.595322 -70.699577 8,950 256 223 0
2022-05-22 00:55:39 GMT 42.596466 -70.693527 8,950 256 223 0
2022-05-22 00:55:36 GMT 42.597115 -70.689995 8,950 256 223 0
2022-05-22 00:55:32 GMT 42.598183 -70.684250 8,950 256 223 0
2022-05-22 00:55:29 GMT 42.598881 -70.680603 8,950 256 223 0
2022-05-22 00:55:26 GMT 42.599899 -70.675110 8,950 256 223 0
2022-05-22 00:55:22 GMT 42.601044 -70.668991 8,950 256 223 0
2022-05-22 00:55:18 GMT 42.601593 -70.666000 8,950 256 223 64
2022-05-22 00:55:15 GMT 42.602375 -70.661957 8,950 256 223 64
2022-05-22 00:55:12 GMT 42.603287 -70.657074 8,950 256 223 0
2022-05-22 00:55:08 GMT 42.604202 -70.652267 8,950 256 224 0
2022-05-22 00:55:05 GMT 42.604935 -70.648331 8,950 257 224 0
2022-05-22 00:55:02 GMT 42.605713 -70.644089 8,950 257 224 64
2022-05-22 00:54:58 GMT 42.606766 -70.638344 8,950 257 224 -64
2022-05-22 00:54:55 GMT 42.607681 -70.633041 8,950 257 224 -64
2022-05-22 00:54:52 GMT 42.608147 -70.630402 8,950 258 224 -64
2022-05-22 00:54:48 GMT 42.609077 -70.624527 8,975 259 224 -64
2022-05-22 00:54:45 GMT 42.609695 -70.620369 8,975 260 224 -128
2022-05-22 00:54:42 GMT 42.610199 -70.616371 8,975 262 224 -320
2022-05-22 00:54:38 GMT 42.610706 -70.610214 9,025 267 225 -896
2022-05-22 00:54:34 GMT 42.610798 -70.605553 9,075 274 226 -960
2022-05-22 00:54:31 GMT 42.610661 -70.601723 9,125 278 226 -1024
2022-05-22 00:54:27 GMT 42.609589 -70.594185 9,200 287 228 -1024
2022-05-22 00:54:24 GMT 42.609169 -70.592140 9,250 288 228 -1024
2022-05-22 00:54:22 GMT 42.608093 -70.587593 9,325 289 229 -1024
2022-05-22 00:54:17 GMT 42.606655 -70.581726 9,375 289 229 -960
2022-05-22 00:54:14 GMT 42.605392 -70.576546 9,425 289 229 -1024
2022-05-22 00:54:11 GMT 42.604706 -70.573799 9,500 289 230 -1024
2022-05-22 00:54:07 GMT 42.603149 -70.567497 9,525 289 230 -1024
2022-05-22 00:54:03 GMT 42.601959 -70.562691 9,575 289 230 -1024
2022-05-22 00:54:00 GMT 42.601162 -70.559441 9,725 289 231 -1024
2022-05-22 00:53:54 GMT 42.598892 -70.550392 9,750 289 231 -1024
2022-05-22 00:53:51 GMT 42.598068 -70.546959 9,825 289 232 -1024
2022-05-22 00:53:47 GMT 42.595367 -70.536095 9,875 289 232 -1024
2022-05-22 00:53:44 GMT 42.595367 -70.536095 9,925 289 232 -1024
2022-05-22 00:53:40 GMT 42.594086 -70.530975 9,975 289 232 -960
2022-05-22 00:53:36 GMT 42.592758 -70.525612 10,075 289 232 -1024
2022-05-22 00:53:32 GMT 42.591434 -70.520348 10,125 289 232 -1088
2022-05-22 00:53:29 GMT 42.590561 -70.516808 10,200 289 232 -1024
2022-05-22 00:53:26 GMT 42.589188 -70.511436 10,225 289 231 -1024
2022-05-22 00:53:23 GMT 42.588360 -70.508018 10,275 289 231 -960
2022-05-22 00:53:19 GMT 42.587105 -70.503098 10,325 289 229 -960
2022-05-22 00:53:16 GMT 42.585754 -70.497734 10,400 289 229 -1088
2022-05-22 00:53:13 GMT 42.584839 -70.494087 10,450 289 230 -1216
2022-05-22 00:53:11 GMT 42.584171 -70.491348 10,475 289 230 -1408
2022-05-22 00:53:06 GMT 42.581470 -70.480423 10,700 289 229 -1600
2022-05-22 00:53:03 GMT 42.580444 -70.476357 10,775 289 229 -1600
2022-05-22 00:53:00 GMT 42.580444 -70.476357 10,775 289 229 -1600
2022-05-22 00:52:56 GMT 42.578911 -70.470207 10,950 289 228 -1600
2022-05-22 00:52:53 GMT 42.577888 -70.465988 10,975 289 228 -1600
2022-05-22 00:52:50 GMT 42.576538 -70.460434 11,075 289 228 -1536
2022-05-22 00:52:45 GMT 42.575375 -70.455704 11,200 289 228 -1536
2022-05-22 00:52:42 GMT 42.574539 -70.452324 11,250 289 228 -1600
2022-05-22 00:52:40 GMT 42.573715 -70.448891 11,300 289 228 -1600
2022-05-22 00:52:37 GMT 42.572388 -70.443336 11,400 289 227 -1600
2022-05-22 00:52:32 GMT 42.571182 -70.438461 11,500 288 227 -1536
2022-05-22 00:52:30 GMT 42.570419 -70.435219 11,575 288 226 -1472
2022-05-22 00:52:27 GMT 42.569733 -70.432411 11,625 288 227 -1472
2022-05-22 00:52:22 GMT 42.567226 -70.421402 11,825 287 227 -1408
2022-05-22 00:52:20 GMT 42.567226 -70.421402 11,825 287 227 -1408
2022-05-22 00:52:17 GMT 42.566620 -70.418678 11,850 287 226 -1472
2022-05-22 00:52:12 GMT 42.565018 -70.410690 12,000 285 227 -1408
2022-05-22 00:52:10 GMT 42.564514 -70.407944 12,050 283 226 -1408
2022-05-22 00:52:07 GMT 42.563828 -70.403946 12,125 281 227 -1408
2022-05-22 00:52:02 GMT 42.563004 -70.396767 12,225 275 226 -1472
2022-05-22 00:51:57 GMT 42.562851 -70.389854 12,575 261 227 -1600
2022-05-22 00:51:54 GMT 42.563232 -70.385345 12,450 259 226 -1600
2022-05-22 00:51:50 GMT 42.564240 -70.379417 12,500 252 228 -1152
2022-05-22 00:51:48 GMT 42.564423 -70.378609 12,550 253 227 -1344
2022-05-22 00:51:46 GMT 42.566254 -70.371300 12,700 252 231 -832
2022-05-22 00:51:43 GMT 42.566254 -70.371300 12,650 251 229 -1024
2022-05-22 00:51:39 GMT 42.567673 -70.365562 12,725 252 232 -768
2022-05-22 00:51:33 GMT 42.569836 -70.357147 12,775 251 235 -576
2022-05-22 00:51:30 GMT 42.570877 -70.352951 12,800 252 236 -576
2022-05-22 00:51:27 GMT 42.571655 -70.349953 12,825 251 239 -512
2022-05-22 00:51:25 GMT 42.572479 -70.346710 12,850 251 241 -512
2022-05-22 00:51:21 GMT 42.574162 -70.340096 13,150 251 266 -512
2022-05-22 00:51:18 GMT 42.575233 -70.335876 12,925 252 247 -512
2022-05-22 00:51:15 GMT 42.576187 -70.332100 12,925 251 248 -512
2022-05-22 00:51:11 GMT 42.578751 -70.321991 13,000 252 253 -448
2022-05-22 00:51:05 GMT 42.580074 -70.316910 13,025 252 255 -512
2022-05-22 00:51:01 GMT 42.581863 -70.309692 13,050 251 259 -512
2022-05-22 00:50:53 GMT 42.585102 -70.297234 13,125 252 264 -512
2022-05-22 00:50:50 GMT 42.585938 -70.293961 13,150 251 265 -512
2022-05-22 00:50:47 GMT 42.587292 -70.288612 13,175 251 266 -512
2022-05-22 00:50:44 GMT 42.588547 -70.283691 13,200 251 268 -512
2022-05-22 00:50:40 GMT 42.590057 -70.277794 13,225 251 271 -512
2022-05-22 00:50:32 GMT 42.593716 -70.263573 13,300 251 276 -576
2022-05-22 00:50:29 GMT 42.594692 -70.259613 13,350 252 276 -640
2022-05-22 00:50:27 GMT 42.596832 -70.251053 13,350 252 277 -960
2022-05-22 00:50:24 GMT 42.596832 -70.251053 13,425 252 278 -1024
2022-05-22 00:50:19 GMT 42.600044 -70.238533 13,500 248 280 -1024
2022-05-22 00:50:16 GMT 42.600044 -70.238533 13,550 250 279 -960
2022-05-22 00:50:13 GMT 42.601318 -70.233910 13,600 249 279 -896
2022-05-22 00:50:09 GMT 42.603352 -70.227036 13,650 248 280 -1024
2022-05-22 00:50:07 GMT 42.604794 -70.222374 13,700 247 280 -1024
2022-05-22 00:50:03 GMT 42.606655 -70.216751 13,775 246 282 -1024
2022-05-22 00:49:59 GMT 42.608566 -70.211128 13,825 245 283 -1024
2022-05-22 00:49:56 GMT 42.610245 -70.206261 13,875 245 284 -960
2022-05-22 00:49:52 GMT 42.612289 -70.200462 13,925 246 286 -896
2022-05-22 00:49:49 GMT 42.614273 -70.194588 14,000 245 288 -960
2022-05-22 00:49:46 GMT 42.616058 -70.189354 14,050 245 289 -1024
2022-05-22 00:49:40 GMT 42.619457 -70.179512 14,150 246 291 -1024
2022-05-22 00:49:37 GMT 42.621185 -70.174545 14,200 246 291 -1024
2022-05-22 00:49:31 GMT 42.624207 -70.165779 14,275 245 293 -1024
2022-05-22 00:49:28 GMT 42.626255 -70.159904 14,325 245 293 -1024
2022-05-22 00:49:22 GMT 42.630157 -70.148705 14,450 245 296 -960
2022-05-22 00:49:17 GMT 42.632538 -70.142029 14,525 245 298 -960
2022-05-22 00:49:10 GMT 42.637390 -70.128540 14,650 244 301 -1024
2022-05-22 00:49:07 GMT 42.638763 -70.124985 14,700 204 338 -896
2022-05-22 00:48:58 GMT 42.644623 -70.110626 14,800 236 309 -768
2022-05-22 00:48:55 GMT 42.647018 -70.105804 14,825 235 311 -768
2022-05-22 00:48:51 GMT 42.652882 -70.096481 14,900 201 342 -768
2022-05-22 00:48:46 GMT 42.656525 -70.091835 14,950 221 322 -704
2022-05-22 00:48:36 GMT 42.668991 -70.080254 15,050 207 335 -960
2022-05-22 00:48:29 GMT 42.678627 -70.074188 15,150 201 342 -768
2022-05-22 00:48:26 GMT 42.683514 -70.071762 15,200 201 344 -832
2022-05-22 00:48:24 GMT 42.687565 -70.069717 15,250 200 345 -896
2022-05-22 00:48:20 GMT 42.692871 -70.067177 15,325 200 348 -832
2022-05-22 00:48:15 GMT 42.700787 -70.063263 15,350 200 351 -832
2022-05-22 00:48:09 GMT 42.708893 -70.059250 15,425 200 354 -832
2022-05-22 00:48:06 GMT 42.714935 -70.056320 15,475 200 357 -832
2022-05-22 00:48:04 GMT 42.717865 -70.054817 15,525 200 358 -896
2022-05-22 00:47:56 GMT 42.730133 -70.048828 15,625 201 364 -832
2022-05-22 00:47:53 GMT 42.733929 -70.046913 15,650 201 365 -768
2022-05-22 00:47:48 GMT 42.741257 -70.043274 15,775 200 371 -832
2022-05-22 00:47:44 GMT 42.747711 -70.040077 15,775 200 372 -960
2022-05-22 00:47:38 GMT 42.757999 -70.035034 15,900 200 378 -832
2022-05-22 00:47:35 GMT 42.762794 -70.032799 15,900 199 380 -832
2022-05-22 00:47:27 GMT 42.776993 -70.026535 16,050 198 389 -1280
2022-05-22 00:47:24 GMT 42.782299 -70.024170 16,100 198 390 -1600
2022-05-22 00:47:21 GMT 42.787651 -70.021873 16,200 198 393 -1856
2022-05-22 00:47:18 GMT 42.793007 -70.019508 16,275 198 393 -1920
2022-05-22 00:47:14 GMT 42.798569 -70.017052 16,350 199 394 -1920
2022-05-22 00:47:07 GMT 42.817909 -70.008545 16,850 199 397 -1920
2022-05-22 00:47:04 GMT 42.817909 -70.008545 16,750 199 397 -1920
2022-05-22 00:47:00 GMT 42.825256 -70.005333 16,875 198 398 -1856
2022-05-22 00:46:56 GMT 42.831924 -70.002396 17,025 198 398 -1856
2022-05-22 00:46:53 GMT 42.835926 -70.000565 17,075 198 398 -1856
2022-05-22 00:46:48 GMT 42.845581 -69.996323 17,350 199 399 -1920
2022-05-22 00:46:43 GMT 42.854034 -69.992592 17,400 199 400 -1856
2022-05-22 00:46:39 GMT 42.861763 -69.989189 17,525 198 401 -1920
2022-05-22 00:46:34 GMT 42.878586 -69.981827 17,725 198 401 -1920
2022-05-22 00:46:30 GMT 42.878586 -69.981827 17,850 198 407 -1920
2022-05-22 00:46:26 GMT 42.884808 -69.979118 18,025 198 405 -1920
2022-05-22 00:46:23 GMT 42.890488 -69.976585 18,050 198 405 -1920
2022-05-22 00:46:19 GMT 42.904682 -69.970421 18,225 198 407 -1920
2022-05-22 00:46:15 GMT 42.904682 -69.970421 18,300 198 408 -1984
2022-05-22 00:46:12 GMT 42.909527 -69.968262 18,375 198 410 -1984
2022-05-22 00:46:07 GMT 42.918789 -69.964211 18,550 198 413 -1984
2022-05-22 00:46:04 GMT 42.925121 -69.961395 18,675 198 415 -1984
2022-05-22 00:46:01 GMT 42.927868 -69.960220 18,725 198 415 -1984
2022-05-22 00:45:57 GMT 42.936630 -69.956337 18,875 199 415 -1984
2022-05-22 00:45:54 GMT 42.940670 -69.954529 18,950 199 416 -1984
2022-05-22 00:45:51 GMT 42.948536 -69.950996 19,100 199 417 -1984
2022-05-22 00:45:47 GMT 42.955536 -69.947968 19,225 198 418 -1984
2022-05-22 00:45:43 GMT 42.963272 -69.944519 19,350 198 418 -1984
2022-05-22 00:45:40 GMT 42.967484 -69.942696 19,450 198 419 -1920
2022-05-22 00:45:37 GMT 42.974899 -69.939415 19,575 199 419 -1984
2022-05-22 00:45:34 GMT 42.978790 -69.937691 19,650 199 420 -2048
2022-05-22 00:45:31 GMT 42.984337 -69.935173 19,750 199 420 -2048
2022-05-22 00:45:27 GMT 42.991550 -69.931969 19,900 199 421 -1984
2022-05-22 00:45:24 GMT 42.996948 -69.929611 20,075 199 422 -1984
2022-05-22 00:45:20 GMT 43.003464 -69.926704 20,075 199 423 -1984
2022-05-22 00:45:11 GMT 43.022507 -69.918297 20,425 199 425 -2048
2022-05-22 00:45:03 GMT 43.035416 -69.912521 20,675 199 426 -2048
2022-05-22 00:44:59 GMT 43.043884 -69.908813 20,825 198 427 -2048
2022-05-22 00:44:53 GMT 43.054825 -69.903961 21,000 198 429 -1984
2022-05-22 00:44:50 GMT 43.061237 -69.901169 21,275 198 430 -1984
2022-05-22 00:44:46 GMT 43.069977 -69.897316 21,275 199 431 -2112
2022-05-22 00:44:43 GMT 43.074326 -69.895340 21,350 199 432 -2048
2022-05-22 00:44:40 GMT 43.081375 -69.892212 21,475 199 433 -2112
2022-05-22 00:44:37 GMT 43.085957 -69.890182 21,575 199 433 -2112
2022-05-22 00:44:31 GMT 43.095886 -69.885818 21,750 198 435 -2048
2022-05-22 00:44:28 GMT 43.103348 -69.882500 22,450 198 435 -2048
2022-05-22 00:44:25 GMT 43.108109 -69.880394 21,975 199 436 -2048
2022-05-22 00:44:22 GMT 43.115799 -69.876968 22,100 198 437 -2112
2022-05-22 00:44:19 GMT 43.119057 -69.875534 22,175 198 437 -2112
2022-05-22 00:44:15 GMT 43.130230 -69.870560 22,275 199 438 -2112
2022-05-22 00:44:10 GMT 43.138733 -69.866791 22,525 199 439 -2048
2022-05-22 00:44:06 GMT 43.145683 -69.863693 22,650 199 440 -2048
2022-05-22 00:44:01 GMT 43.153645 -69.860161 22,800 199 441 -2112
2022-05-22 00:43:58 GMT 43.161793 -69.856499 22,925 199 442 -2112
2022-05-22 00:43:48 GMT 43.179932 -69.848518 23,500 199 444 -2112
2022-05-22 00:43:45 GMT 43.188904 -69.844498 23,425 199 444 -2112
2022-05-22 00:43:40 GMT 43.200668 -69.839256 23,975 199 448 -2112
2022-05-22 00:43:37 GMT 43.200668 -69.839256 23,625 199 446 -2112
2022-05-22 00:43:34 GMT 43.208530 -69.835770 23,775 199 447 -2112
2022-05-22 00:43:27 GMT 43.220947 -69.830185 24,000 199 449 -2112
2022-05-22 00:43:21 GMT 43.233994 -69.824371 24,250 198 450 -2176
2022-05-22 00:43:15 GMT 43.247086 -69.818565 24,550 199 452 -2176
2022-05-22 00:43:11 GMT 43.254662 -69.815170 24,625 198 453 -2112
2022-05-22 00:43:08 GMT 43.259228 -69.813148 24,825 199 453 -2112
2022-05-22 00:43:05 GMT 43.264435 -69.810837 24,775 199 454 -2112
2022-05-22 00:43:02 GMT 43.271027 -69.807892 24,900 199 455 -2176
2022-05-22 00:42:59 GMT 43.276016 -69.805656 25,275 199 458 -2176
2022-05-22 00:42:53 GMT 43.290070 -69.799400 25,250 199 458 -2176
2022-05-22 00:42:50 GMT 43.303589 -69.793327 25,675 199 459 -2176
2022-05-22 00:42:47 GMT 43.303589 -69.793327 25,500 199 459 -2176
2022-05-22 00:42:44 GMT 43.309223 -69.790848 25,600 199 460 -2176
2022-05-22 00:42:40 GMT 43.317947 -69.786942 25,750 199 461 -2176
2022-05-22 00:42:36 GMT 43.322205 -69.785027 26,300 199 464 -2176
2022-05-22 00:42:33 GMT 43.329891 -69.781563 26,300 199 474 -2304
2022-05-22 00:42:27 GMT 43.343948 -69.775253 26,225 199 464 -2176
2022-05-22 00:42:23 GMT 43.350887 -69.772141 27,525 199 474 -2304
2022-05-22 00:42:16 GMT 43.364433 -69.766060 26,650 199 467 -2240
2022-05-22 00:42:13 GMT 43.372238 -69.762543 26,750 199 468 -2240
2022-05-22 00:42:09 GMT 43.377144 -69.760307 26,825 199 468 -2304
2022-05-22 00:42:05 GMT 43.385429 -69.756645 26,975 199 470 -2304
2022-05-22 00:42:02 GMT 43.393707 -69.752899 27,125 199 471 -2304
2022-05-22 00:41:58 GMT 43.402176 -69.749130 27,275 199 472 -2240
2022-05-22 00:41:54 GMT 43.409683 -69.745789 27,375 199 472 -2240
2022-05-22 00:41:51 GMT 43.415909 -69.742996 27,525 199 474 -2304
2022-05-22 00:41:47 GMT 43.424252 -69.739311 27,675 199 475 -2240
2022-05-22 00:41:42 GMT 43.436600 -69.733742 28,500 199 484 -960
2022-05-22 00:41:38 GMT 43.442230 -69.731247 28,000 199 478 -1664
2022-05-22 00:41:35 GMT 43.450230 -69.727608 28,075 199 478 -1600
2022-05-22 00:41:31 GMT 43.457611 -69.724281 28,150 199 480 -1408
2022-05-22 00:41:28 GMT 43.463333 -69.721725 28,250 199 482 -1024
2022-05-22 00:41:24 GMT 43.471363 -69.718063 28,350 199 482 -1024
2022-05-22 00:41:21 GMT 43.479420 -69.714462 28,350 199 482 -1024
2022-05-22 00:41:17 GMT 43.489609 -69.709846 28,425 199 484 -1024
2022-05-22 00:41:12 GMT 43.498131 -69.706032 28,500 199 484 -960
2022-05-22 00:41:07 GMT 43.507908 -69.701584 28,600 199 484 -960
2022-05-22 00:41:04 GMT 43.515774 -69.698051 28,650 199 483 -960
2022-05-22 00:41:00 GMT 43.523178 -69.694717 28,700 199 483 -960
2022-05-22 00:40:55 GMT 43.533417 -69.690109 28,800 199 485 -960
2022-05-22 00:40:52 GMT 43.541706 -69.686348 28,800 199 485 -960
2022-05-22 00:40:49 GMT 43.545986 -69.684380 28,825 199 488 -1024
2022-05-22 00:40:44 GMT 43.559509 -69.678230 28,950 199 490 -832
2022-05-22 00:40:39 GMT 43.569214 -69.673820 29,000 199 490 -192
2022-05-22 00:40:36 GMT 43.577637 -69.669991 29,000 199 490 0
2022-05-22 00:40:33 GMT 43.581711 -69.668137 29,000 199 490 0
2022-05-22 00:40:28 GMT 43.591003 -69.663925 29,000 199 490 0
2022-05-22 00:40:22 GMT 43.607986 -69.656197 29,000 199 490 0
2022-05-22 00:40:14 GMT 43.624786 -69.648598 29,000 199 489 64
2022-05-22 00:40:11 GMT 43.627350 -69.647446 29,000 199 489 64
2022-05-22 00:40:05 GMT 43.641232 -69.640831 29,000 201 488 0
2022-05-22 00:40:01 GMT 43.648865 -69.636902 29,000 202 489 0
2022-05-22 00:39:54 GMT 43.663624 -69.628212 29,000 206 488 64
2022-05-22 00:39:51 GMT 43.670563 -69.623680 29,000 207 489 64
2022-05-22 00:39:42 GMT 43.689880 -69.609444 29,000 211 489 0
2022-05-22 00:39:34 GMT 43.704117 -69.597237 29,000 215 489 -64
2022-05-22 00:39:31 GMT 43.709702 -69.592003 29,000 215 489 -128
2022-05-22 00:39:28 GMT 43.716507 -69.585312 29,025 220 488 -192
2022-05-22 00:39:24 GMT 43.724075 -69.577377 29,025 219 488 -192
2022-05-22 00:39:20 GMT 43.728657 -69.572365 29,050 220 488 -256
2022-05-22 00:39:11 GMT 43.746071 -69.551170 29,100 224 488 -704
2022-05-22 00:39:03 GMT 43.757721 -69.535027 29,175 228 490 -704
2022-05-22 00:39:00 GMT 43.762177 -69.528351 29,225 229 490 -704
2022-05-22 00:38:52 GMT 43.773880 -69.509155 29,300 232 492 -768
2022-05-22 00:38:49 GMT 43.777222 -69.503151 29,325 234 493 -768
2022-05-22 00:38:43 GMT 43.786663 -69.485062 29,450 236 492 -704
2022-05-22 00:38:39 GMT 43.790386 -69.477539 29,475 236 492 -704
2022-05-22 00:38:30 GMT 43.803841 -69.450531 29,625 236 485 -704
2022-05-22 00:38:19 GMT 43.816452 -69.425224 29,725 236 475 -704
2022-05-22 00:38:09 GMT 43.829395 -69.399132 29,825 236 477 -704
2022-05-22 00:38:01 GMT 43.838516 -69.380768 29,925 236 478 -704
2022-05-22 00:37:58 GMT 43.842525 -69.372711 29,950 236 478 -704
2022-05-22 00:37:48 GMT 43.854954 -69.347733 30,050 236 480 -704
2022-05-22 00:37:39 GMT 43.865891 -69.325645 30,175 236 484 -704
2022-05-22 00:37:36 GMT 43.870457 -69.316475 30,200 236 484 -704
2022-05-22 00:37:31 GMT 43.883259 -69.290573 30,275 236 486 -704
2022-05-22 00:37:27 GMT 43.883259 -69.290573 30,325 236 487 -704
2022-05-22 00:37:17 GMT 43.895596 -69.265663 30,450 236 488 -704
2022-05-22 00:37:06 GMT 43.908211 -69.240158 30,550 236 489 -640
2022-05-22 00:36:57 GMT 43.920090 -69.216103 30,700 236 494 -704
2022-05-22 00:36:54 GMT 43.923798 -69.208565 30,700 236 491 -704
2022-05-22 00:36:50 GMT 43.929855 -69.196342 30,750 236 492 -704
2022-05-22 00:36:45 GMT 43.934967 -69.185951 30,800 236 492 -640
2022-05-22 00:36:36 GMT 43.946663 -69.162209 30,925 236 494 -704
2022-05-22 00:36:28 GMT 43.956997 -69.141342 31,025 236 496 -704
2022-05-22 00:36:25 GMT 43.961105 -69.132942 31,025 236 496 -704
2022-05-22 00:36:20 GMT 43.968887 -69.117165 31,100 236 498 -704
2022-05-22 00:36:15 GMT 43.974197 -69.106369 31,150 236 499 -704
2022-05-22 00:36:08 GMT 43.983353 -69.087784 31,225 236 502 -704
2022-05-22 00:36:04 GMT 43.988049 -69.078239 31,250 236 504 -704
2022-05-22 00:35:58 GMT 43.995541 -69.063004 31,325 236 506 -896
2022-05-22 00:35:55 GMT 44.000431 -69.053062 31,400 236 509 -1024
2022-05-22 00:35:48 GMT 44.009415 -69.034752 31,525 236 510 -960
2022-05-22 00:35:44 GMT 44.014629 -69.024223 31,575 236 510 -960
2022-05-22 00:35:38 GMT 44.022591 -69.008003 31,675 236 510 -960
2022-05-22 00:35:34 GMT 44.027618 -68.997719 31,750 236 509 -960
2022-05-22 00:35:31 GMT 44.032242 -68.988266 31,800 236 509 -960
2022-05-22 00:35:28 GMT 44.036591 -68.979324 31,850 236 509 -960
2022-05-22 00:35:24 GMT 44.042419 -68.967461 31,925 236 508 -960
2022-05-22 00:35:17 GMT 44.051010 -68.949875 32,025 236 508 -960
2022-05-22 00:35:13 GMT 44.055782 -68.940193 32,075 236 509 -960
2022-05-22 00:35:02 GMT 44.070026 -68.911026 32,275 236 509 -960
2022-05-22 00:34:53 GMT 44.082047 -68.886452 32,425 236 508 -1024
2022-05-22 00:34:50 GMT 44.086552 -68.877281 32,475 236 508 -1024
2022-05-22 00:34:42 GMT 44.096329 -68.857269 32,600 236 508 -960
2022-05-22 00:34:32 GMT 44.109596 -68.830002 32,750 236 508 -960
2022-05-22 00:34:21 GMT 44.129101 -68.790047 33,725 237 504 -960
2022-05-22 00:34:17 GMT 44.129101 -68.790047 33,125 236 508 -960
2022-05-22 00:34:11 GMT 44.137344 -68.773010 33,125 236 507 -1024
2022-05-22 00:34:08 GMT 44.141716 -68.764084 33,175 236 507 -1024
2022-05-22 00:34:02 GMT 44.149586 -68.747932 33,300 236 507 -960
2022-05-22 00:33:59 GMT 44.152889 -68.741196 33,300 236 507 -960
2022-05-22 00:33:50 GMT 44.164806 -68.716667 33,450 236 505 -1024
2022-05-22 00:33:43 GMT 44.174953 -68.695679 33,575 237 505 -1024
2022-05-22 00:33:40 GMT 44.177700 -68.690056 33,625 237 505 -960
2022-05-22 00:33:31 GMT 44.189804 -68.665009 33,750 237 503 -1024
2022-05-22 00:33:28 GMT 44.194977 -68.654282 33,825 237 502 -960
2022-05-22 00:33:19 GMT 44.206009 -68.631523 33,975 237 501 -960
2022-05-22 00:33:14 GMT 44.211868 -68.619492 34,050 237 501 -1024
2022-05-22 00:33:07 GMT 44.221436 -68.599747 34,175 237 500 -960
2022-05-22 00:33:01 GMT 44.229950 -68.582085 34,700 237 499 -1024
2022-05-22 00:32:57 GMT 44.235100 -68.571365 34,350 237 500 -960
2022-05-22 00:32:50 GMT 44.243225 -68.554619 34,450 237 500 -960
2022-05-22 00:32:45 GMT 44.249039 -68.542587 34,525 237 499 -960
2022-05-22 00:32:37 GMT 44.259865 -68.520187 34,650 237 498 -1024
2022-05-22 00:32:26 GMT 44.273598 -68.491714 34,825 237 498 -960
2022-05-22 00:32:19 GMT 44.282444 -68.473366 34,950 237 498 -1024
2022-05-22 00:32:16 GMT 44.286121 -68.465660 35,000 237 498 -1024
2022-05-22 00:32:06 GMT 44.304657 -68.427101 35,250 237 495 -960
2022-05-22 00:31:55 GMT 44.314224 -68.407219 35,375 237 494 -960
2022-05-22 00:31:47 GMT 44.324890 -68.385056 35,500 237 494 -1024
2022-05-22 00:31:44 GMT 44.327461 -68.379707 35,525 237 494 -1024
2022-05-22 00:31:37 GMT 44.336472 -68.360924 35,650 237 494 -960
2022-05-22 00:31:33 GMT 44.340775 -68.351974 35,700 237 494 -960
2022-05-22 00:31:24 GMT 44.352596 -68.327324 35,850 237 495 -960
2022-05-22 00:31:17 GMT 44.362518 -68.306648 35,975 237 495 -1024
2022-05-22 00:31:13 GMT 44.366684 -68.297882 36,025 237 495 -1024
2022-05-22 00:31:06 GMT 44.375885 -68.278786 36,150 237 495 -960
2022-05-22 00:31:03 GMT 44.379971 -68.270248 36,200 237 495 -960
2022-05-22 00:30:52 GMT 44.393005 -68.242920 36,375 237 495 -1024
2022-05-22 00:30:43 GMT 44.405960 -68.215874 36,550 237 493 -960
2022-05-22 00:30:32 GMT 44.418190 -68.190262 36,700 237 491 -960
2022-05-22 00:30:26 GMT 44.426105 -68.173653 36,875 237 478 0
2022-05-22 00:30:22 GMT 44.431274 -68.162842 36,875 237 490 -1024
2022-05-22 00:30:12 GMT 44.445419 -68.133087 37,050 237 488 -1024
2022-05-22 00:30:00 GMT 44.459248 -68.103981 37,250 237 486 -960
2022-05-22 00:29:51 GMT 44.469910 -68.081535 37,400 237 483 -960
2022-05-22 00:29:40 GMT 44.483505 -68.052979 37,575 237 481 -960
2022-05-22 00:29:32 GMT 44.492889 -68.033295 37,675 237 482 -1024
2022-05-22 00:29:29 GMT 44.496304 -68.026070 37,725 237 482 -1024
2022-05-22 00:29:24 GMT 44.505009 -68.007584 37,850 237 482 -1024
2022-05-22 00:29:20 GMT 44.508591 -68.000076 37,900 237 482 -1024
2022-05-22 00:29:12 GMT 44.517700 -67.980850 38,025 237 482 -960
2022-05-22 00:29:09 GMT 44.521271 -67.973328 38,075 237 482 -960
2022-05-22 00:28:59 GMT 44.533859 -67.946709 38,250 237 478 -960
2022-05-22 00:28:52 GMT 44.542877 -67.927620 38,375 237 478 -960
2022-05-22 00:28:47 GMT 44.548584 -67.915604 38,450 237 475 -1024
2022-05-22 00:28:38 GMT 44.559292 -67.893028 38,600 237 474 -896
2022-05-22 00:28:31 GMT 44.567825 -67.874908 38,700 237 473 -1024
2022-05-22 00:28:27 GMT 44.572495 -67.864906 38,775 237 473 -960
2022-05-22 00:28:23 GMT 44.578308 -67.852608 38,825 237 474 -960
2022-05-22 00:28:20 GMT 44.580688 -67.847511 38,875 237 474 -960
2022-05-22 00:28:17 GMT 44.589615 -67.828545 38,975 237 475 -1024
2022-05-22 00:28:11 GMT 44.592064 -67.823425 39,000 237 475 -1024
2022-05-22 00:28:07 GMT 44.596664 -67.813637 39,150 237 476 -1024
2022-05-22 00:28:00 GMT 44.605236 -67.795425 39,200 237 476 -960
2022-05-22 00:27:57 GMT 44.609116 -67.787148 39,250 237 475 -1024
2022-05-22 00:27:49 GMT 44.618774 -67.766548 39,375 237 475 -960
2022-05-22 00:27:46 GMT 44.622414 -67.758850 39,425 237 475 -1088
2022-05-22 00:27:43 GMT 44.626053 -67.751114 39,500 237 473 -1344
2022-05-22 00:27:40 GMT 44.630653 -67.741432 39,575 237 472 -1344
2022-05-22 00:27:35 GMT 44.636192 -67.729645 39,650 237 473 -1344
2022-05-22 00:27:31 GMT 44.640015 -67.721428 39,725 237 473 -1408
2022-05-22 00:27:26 GMT 44.646763 -67.707130 39,850 237 473 -1216
2022-05-22 00:27:23 GMT 44.650997 -67.698090 39,925 237 474 -832
2022-05-22 00:27:15 GMT 44.664185 -67.669899 40,000 237 474 0
2022-05-22 00:27:11 GMT 44.664185 -67.669899 40,000 237 474 -64
2022-05-22 00:27:05 GMT 44.671761 -67.653671 40,000 237 474 -64
2022-05-22 00:27:01 GMT 44.676590 -67.643410 40,000 237 474 0
2022-05-22 00:26:55 GMT 44.684006 -67.627518 40,000 237 474 0
2022-05-22 00:26:51 GMT 44.689262 -67.616158 40,000 237 474 0
2022-05-22 00:26:43 GMT 44.698200 -67.597198 40,000 237 473 0
2022-05-22 00:26:37 GMT 44.705650 -67.581329 40,000 237 474 0
2022-05-22 00:26:34 GMT 44.709141 -67.573891 40,000 237 473 0
2022-05-22 00:26:27 GMT 44.717651 -67.555649 40,000 237 474 0
2022-05-22 00:26:21 GMT 44.726257 -67.537148 40,000 237 473 -64
2022-05-22 00:26:16 GMT 44.730835 -67.527397 40,000 237 474 0
2022-05-22 00:26:13 GMT 44.734047 -67.520432 40,000 237 474 0
2022-05-22 00:26:10 GMT 44.738003 -67.511925 40,000 237 473 0
2022-05-22 00:26:03 GMT 44.746338 -67.493973 40,000 237 473 0
2022-05-22 00:25:59 GMT 44.750153 -67.485741 40,000 237 473 64
2022-05-22 00:25:50 GMT 44.762970 -67.458344 40,000 237 472 0
2022-05-22 00:25:42 GMT 44.771477 -67.440109 40,000 237 472 0
2022-05-22 00:25:39 GMT 44.774826 -67.432907 40,000 237 472 0
2022-05-22 00:25:29 GMT 44.786930 -67.406754 40,000 237 470 0
2022-05-22 00:25:19 GMT 44.799820 -67.379150 40,000 237 470 0
2022-05-22 00:25:08 GMT 44.811539 -67.353844 40,000 237 469 0
2022-05-22 00:25:00 GMT 44.822525 -67.330170 40,000 238 468 0
2022-05-22 00:24:57 GMT 44.824173 -67.326576 40,000 237 468 0
2022-05-22 00:24:48 GMT 44.836166 -67.300613 40,000 238 467 -64
2022-05-22 00:24:37 GMT 44.848068 -67.274979 40,000 238 465 0
2022-05-22 00:24:29 GMT 44.857178 -67.255226 40,000 237 465 0
2022-05-22 00:24:26 GMT 44.860611 -67.247841 40,000 237 465 0
2022-05-22 00:24:17 GMT 44.872818 -67.221458 40,000 238 465 64
2022-05-22 00:24:06 GMT 44.884781 -67.195198 40,000 237 466 0
2022-05-22 00:23:55 GMT 44.896980 -67.169472 40,000 235 468 0
2022-05-22 00:23:46 GMT 44.910294 -67.143616 40,000 233 467 0
2022-05-22 00:23:40 GMT 44.916252 -67.132759 40,000 232 468 0
2022-05-22 00:23:35 GMT 44.923965 -67.119209 40,000 232 468 0
2022-05-22 00:23:30 GMT 44.929661 -67.109245 40,000 232 467 0
2022-05-22 00:23:25 GMT 44.937668 -67.095245 40,000 232 468 0
2022-05-22 00:23:21 GMT 44.942413 -67.086967 40,000 232 468 0
2022-05-22 00:23:15 GMT 44.956707 -67.062019 40,000 232 468 0
2022-05-22 00:23:12 GMT 44.956707 -67.062019 40,000 232 468 0
2022-05-22 00:23:04 GMT 44.966309 -67.045242 40,000 232 467 0
2022-05-22 00:23:01 GMT 44.969971 -67.038834 40,000 232 467 0
2022-05-22 00:22:54 GMT 44.979843 -67.021561 40,000 232 466 0
2022-05-22 00:22:50 GMT 44.984592 -67.013252 40,000 232 466 64
2022-05-22 00:22:44 GMT 44.994141 -66.996460 40,000 232 465 0
2022-05-22 00:22:33 GMT 45.007736 -66.972588 40,000 232 465 0
2022-05-22 00:22:29 GMT 45.012726 -66.963829 40,000 232 464 0
2022-05-22 00:22:22 GMT 45.021461 -66.948540 40,000 232 464 0
2022-05-22 00:22:18 GMT 45.027233 -66.938354 40,000 232 464 0
2022-05-22 00:22:13 GMT 45.035156 -66.924393 40,000 232 463 0
2022-05-22 00:22:09 GMT 45.040501 -66.914909 40,000 232 463 0
2022-05-22 00:22:02 GMT 45.048786 -66.900307 40,000 232 463 -64
2022-05-22 00:21:59 GMT 45.053768 -66.891602 40,000 232 463 -64
2022-05-22 00:21:51 GMT 45.063915 -66.873711 40,000 232 462 64
2022-05-22 00:21:48 GMT 45.068344 -66.865929 40,000 232 463 0
2022-05-22 00:21:42 GMT 45.077316 -66.850174 40,000 232 463 0
2022-05-22 00:21:38 GMT 45.082676 -66.840752 40,000 232 462 64
2022-05-22 00:21:31 GMT 45.090820 -66.826370 40,000 232 463 0
2022-05-22 00:21:27 GMT 45.096634 -66.815903 40,000 232 464 0
2022-05-22 00:21:21 GMT 45.105442 -66.800293 40,000 232 464 64
2022-05-22 00:21:18 GMT 45.108559 -66.794868 40,000 232 464 0
2022-05-22 00:21:11 GMT 45.119312 -66.775909 40,000 232 465 0
2022-05-22 00:21:08 GMT 45.123222 -66.769073 40,000 232 465 0
2022-05-22 00:21:00 GMT 45.132442 -66.752663 40,000 232 464 0
2022-05-22 00:20:56 GMT 45.137142 -66.744354 40,000 232 464 0
2022-05-22 00:20:49 GMT 45.146530 -66.727821 40,000 232 464 0
2022-05-22 00:20:40 GMT 45.160034 -66.703880 40,000 232 463 -128
2022-05-22 00:20:31 GMT 45.171780 -66.683060 40,000 232 463 64
2022-05-22 00:20:26 GMT 45.177383 -66.673080 40,000 232 463 0
2022-05-22 00:20:19 GMT 45.191517 -66.648026 40,000 232 463 -64
2022-05-22 00:20:16 GMT 45.191517 -66.648026 40,000 232 463 -64
2022-05-22 00:20:08 GMT 45.201553 -66.630180 40,000 232 463 0
2022-05-22 00:20:05 GMT 45.205719 -66.622856 40,000 232 463 64
2022-05-22 00:19:56 GMT 45.218536 -66.600037 40,000 232 464 0
2022-05-22 00:19:48 GMT 45.228664 -66.581970 40,000 232 464 0
2022-05-22 00:19:44 GMT 45.233047 -66.574142 40,000 232 464 0
2022-05-22 00:19:37 GMT 45.242798 -66.556747 40,000 232 463 0
2022-05-22 00:19:34 GMT 45.246552 -66.550140 40,000 232 463 0
2022-05-22 00:19:28 GMT 45.256439 -66.532616 40,000 232 462 0
2022-05-22 00:19:25 GMT 45.260834 -66.524765 40,000 232 462 -64
2022-05-22 00:19:16 GMT 45.271042 -66.506584 40,000 232 461 0
2022-05-22 00:19:12 GMT 45.276443 -66.496910 40,000 232 461 0
2022-05-22 00:19:06 GMT 45.284107 -66.483231 40,000 232 459 0
2022-05-22 00:19:03 GMT 45.287647 -66.476868 40,000 232 459 0
2022-05-22 00:18:54 GMT 45.300915 -66.453079 40,000 232 457 0
2022-05-22 00:18:45 GMT 45.311554 -66.434128 40,000 232 456 0
2022-05-22 00:18:42 GMT 45.315353 -66.427330 40,000 232 456 0
2022-05-22 00:18:36 GMT 45.324509 -66.410980 40,000 232 455 0
2022-05-22 00:18:32 GMT 45.328659 -66.403442 40,000 232 455 0
2022-05-22 00:18:26 GMT 45.337551 -66.387566 40,000 232 454 0
2022-05-22 00:18:23 GMT 45.341553 -66.380333 40,000 232 454 0
2022-05-22 00:18:15 GMT 45.351334 -66.362846 40,000 232 453 0
2022-05-22 00:18:12 GMT 45.355473 -66.355415 40,000 232 452 0
2022-05-22 00:18:04 GMT 45.365707 -66.337021 40,000 232 452 0
2022-05-22 00:18:01 GMT 45.368320 -66.332367 40,000 232 452 0
2022-05-22 00:17:52 GMT 45.381729 -66.308243 40,000 232 451 0
2022-05-22 00:17:44 GMT 45.391571 -66.290588 40,000 232 450 0
2022-05-22 00:17:41 GMT 45.395554 -66.283394 40,000 232 450 0
2022-05-22 00:17:34 GMT 45.405121 -66.266197 40,000 232 450 0
2022-05-22 00:17:31 GMT 45.408051 -66.260834 40,000 232 450 0
2022-05-22 00:17:23 GMT 45.417759 -66.243469 40,000 232 450 0
2022-05-22 00:17:21 GMT 45.421738 -66.236244 40,000 232 450 -64
2022-05-22 00:17:14 GMT 45.429428 -66.222313 40,000 232 449 -64
2022-05-22 00:17:10 GMT 45.434692 -66.212837 40,025 232 449 64
2022-05-22 00:17:03 GMT 45.445084 -66.194069 40,000 232 449 0
2022-05-22 00:17:00 GMT 45.447693 -66.189423 40,000 232 449 0
2022-05-22 00:16:54 GMT 45.456024 -66.174408 40,000 232 449 0
2022-05-22 00:16:49 GMT 45.461426 -66.164635 40,000 232 449 0
2022-05-22 00:16:42 GMT 45.472179 -66.145195 40,000 232 449 0
2022-05-22 00:16:39 GMT 45.474880 -66.140305 40,000 232 449 0
2022-05-22 00:16:32 GMT 45.482941 -66.125664 40,000 232 449 0
2022-05-22 00:16:29 GMT 45.487976 -66.116638 40,000 232 449 0
2022-05-22 00:16:23 GMT 45.495129 -66.103661 40,000 232 449 0
2022-05-22 00:16:21 GMT 45.501553 -66.092010 40,000 232 449 0
2022-05-22 00:16:18 GMT 45.501553 -66.092010 40,000 232 449 0
2022-05-22 00:16:13 GMT 45.508209 -66.080017 40,000 232 448 64
2022-05-22 00:16:09 GMT 45.514729 -66.068161 40,000 232 448 0
2022-05-22 00:16:03 GMT 45.521294 -66.056305 40,000 232 448 0
2022-05-22 00:16:01 GMT 45.524738 -66.050003 40,000 232 449 0
2022-05-22 00:15:58 GMT 45.527527 -66.044899 40,000 232 449 0
2022-05-22 00:15:52 GMT 45.534698 -66.031921 40,000 232 449 -64
2022-05-22 00:15:50 GMT 45.538055 -66.025871 40,000 232 449 0
2022-05-22 00:15:47 GMT 45.541122 -66.020264 40,000 232 449 0
2022-05-22 00:15:38 GMT 45.554485 -65.995903 40,000 232 448 0
2022-05-22 00:15:30 GMT 45.564445 -65.977776 40,000 232 447 0
2022-05-22 00:15:27 GMT 45.567005 -65.973175 40,000 232 447 0
2022-05-22 00:15:22 GMT 45.572872 -65.962532 40,000 232 447 64
2022-05-22 00:15:19 GMT 45.577744 -65.953743 40,000 232 447 64
2022-05-22 00:15:16 GMT 45.580647 -65.948387 40,000 232 447 64
2022-05-22 00:15:12 GMT 45.585999 -65.938637 40,000 233 447 64
2022-05-22 00:15:08 GMT 45.591213 -65.929161 40,000 233 448 0
2022-05-22 00:15:02 GMT 45.599361 -65.914261 40,000 233 448 -64
2022-05-22 00:14:57 GMT 45.604980 -65.903969 40,000 232 448 -128
2022-05-22 00:14:52 GMT 45.611511 -65.892151 40,000 232 448 0
2022-05-22 00:14:48 GMT 45.625488 -65.866585 40,000 233 448 0
2022-05-22 00:14:41 GMT 45.625488 -65.866585 40,000 232 448 0
2022-05-22 00:14:36 GMT 45.631622 -65.855415 40,000 233 448 0
2022-05-22 00:14:30 GMT 45.638977 -65.841888 40,000 233 448 0
2022-05-22 00:14:27 GMT 45.643982 -65.832756 40,000 233 450 0
2022-05-22 00:14:22 GMT 45.650208 -65.821365 40,000 233 450 0
2022-05-22 00:14:16 GMT 45.657303 -65.808441 40,000 233 451 64
2022-05-22 00:14:12 GMT 45.663437 -65.797188 40,000 232 453 0
2022-05-22 00:14:04 GMT 45.672501 -65.780777 40,000 232 453 0
2022-05-22 00:14:01 GMT 45.676590 -65.773224 40,000 233 453 0
2022-05-22 00:13:56 GMT 45.683945 -65.759743 40,000 233 453 0
2022-05-22 00:13:50 GMT 45.689758 -65.749153 40,000 233 453 0
2022-05-22 00:13:44 GMT 45.698608 -65.732849 40,000 233 453 0
2022-05-22 00:13:41 GMT 45.702484 -65.725777 40,000 233 453 0
2022-05-22 00:13:34 GMT 45.711086 -65.709984 40,000 233 452 0
2022-05-22 00:13:31 GMT 45.715439 -65.701996 40,000 233 452 0
2022-05-22 00:13:25 GMT 45.724304 -65.685745 40,000 233 451 0
2022-05-22 00:13:21 GMT 45.728497 -65.677917 40,000 233 451 0
2022-05-22 00:13:14 GMT 45.736549 -65.663155 40,000 233 451 0
2022-05-22 00:13:09 GMT 45.743069 -65.651138 40,000 233 451 0
2022-05-22 00:13:04 GMT 45.750870 -65.636810 40,000 233 451 0
2022-05-22 00:13:01 GMT 45.753914 -65.631157 40,000 233 451 0
2022-05-22 00:12:55 GMT 45.761993 -65.616318 40,000 233 451 0
2022-05-22 00:12:51 GMT 45.766937 -65.607140 40,000 233 451 0
2022-05-22 00:12:40 GMT 45.779846 -65.583290 40,000 233 452 0
2022-05-22 00:12:33 GMT 45.790596 -65.563454 40,000 233 452 0
2022-05-22 00:12:30 GMT 45.793156 -65.558716 40,000 233 452 0
2022-05-22 00:12:22 GMT 45.804562 -65.537704 40,000 233 453 0
2022-05-22 00:12:19 GMT 45.807262 -65.532761 40,000 233 453 0
2022-05-22 00:12:11 GMT 45.817924 -65.513054 40,000 233 454 0
2022-05-22 00:12:08 GMT 45.821091 -65.507118 40,000 233 454 0
2022-05-22 00:12:00 GMT 45.832634 -65.485794 40,000 233 453 0
2022-05-22 00:11:49 GMT 45.845947 -65.461212 40,000 233 452 0
2022-05-22 00:11:39 GMT 45.858627 -65.437782 40,000 233 452 0
2022-05-22 00:11:28 GMT 45.871365 -65.414177 40,000 233 450 64
2022-05-22 00:11:19 GMT 45.883804 -65.391090 40,000 233 449 0
2022-05-22 00:11:09 GMT 45.896301 -65.367783 40,000 233 448 0
2022-05-22 00:10:58 GMT 45.910191 -65.341942 40,000 233 447 0
2022-05-22 00:10:48 GMT 45.922897 -65.318253 40,000 233 447 0
2022-05-22 00:10:37 GMT 45.936768 -65.292419 40,000 233 447 0
2022-05-22 00:10:28 GMT 45.947983 -65.271446 40,000 233 448 -64
2022-05-22 00:10:18 GMT 45.961029 -65.247269 40,000 233 448 0
2022-05-22 00:10:07 GMT 45.974762 -65.221542 40,000 233 448 0
2022-05-22 00:09:57 GMT 45.987606 -65.197540 40,000 233 448 0
2022-05-22 00:09:47 GMT 46.000828 -65.172752 40,000 233 448 0
2022-05-22 00:09:38 GMT 46.013817 -65.148445 40,000 233 448 0
2022-05-22 00:09:28 GMT 46.024521 -65.128395 40,000 233 448 0
2022-05-22 00:09:26 GMT 46.026897 -65.123932 40,000 233 448 0
2022-05-22 00:09:17 GMT 46.037510 -65.104088 40,000 233 449 0
2022-05-22 00:09:13 GMT 46.044434 -65.091110 40,000 233 449 0
2022-05-22 00:09:07 GMT 46.050339 -65.079994 40,000 233 449 0
2022-05-22 00:09:05 GMT 46.052856 -65.075233 40,000 233 448 0
2022-05-22 00:08:57 GMT 46.064072 -65.054199 40,000 233 448 0
2022-05-22 00:08:54 GMT 46.066326 -65.049911 40,000 233 448 0
2022-05-22 00:08:44 GMT 46.078857 -65.026398 40,000 233 447 0
2022-05-22 00:08:36 GMT 46.089417 -65.006584 40,000 233 446 0
2022-05-22 00:08:33 GMT 46.092270 -65.001144 40,000 233 446 -64
2022-05-22 00:08:24 GMT 46.105103 -64.976921 40,000 233 445 0
2022-05-22 00:08:16 GMT 46.115067 -64.958107 40,000 233 443 0
2022-05-22 00:08:13 GMT 46.117813 -64.952957 40,000 233 443 0
2022-05-22 00:08:06 GMT 46.127014 -64.935631 40,000 233 442 0
2022-05-22 00:08:04 GMT 46.130474 -64.929062 40,000 233 442 0
2022-05-22 00:07:56 GMT 46.138901 -64.913132 40,000 233 441 0
2022-05-22 00:07:53 GMT 46.143585 -64.904282 40,000 233 441 0
2022-05-22 00:07:45 GMT 46.153797 -64.884911 40,000 233 441 64
2022-05-22 00:07:41 GMT 46.157776 -64.877419 40,000 233 441 0
2022-05-22 00:07:35 GMT 46.164185 -64.865288 40,000 233 442 0
2022-05-22 00:07:31 GMT 46.170135 -64.854080 40,000 233 443 0
2022-05-22 00:07:26 GMT 46.176086 -64.842850 40,000 233 443 0
2022-05-22 00:07:21 GMT 46.182148 -64.831352 40,000 233 443 0
2022-05-22 00:07:16 GMT 46.189129 -64.818169 40,000 233 443 0
2022-05-22 00:07:12 GMT 46.194305 -64.808350 40,000 233 442 0
2022-05-22 00:07:05 GMT 46.201492 -64.794754 40,000 233 443 0
2022-05-22 00:07:01 GMT 46.208679 -64.781151 40,000 233 442 0
2022-05-22 00:06:55 GMT 46.214722 -64.769630 40,000 233 441 0
2022-05-22 00:06:50 GMT 46.220764 -64.758171 40,000 233 441 0
2022-05-22 00:06:46 GMT 46.226326 -64.747650 40,000 233 441 0
2022-05-22 00:06:43 GMT 46.229862 -64.740852 40,000 233 441 0
2022-05-22 00:06:40 GMT 46.232941 -64.734993 40,000 233 441 0
2022-05-22 00:06:35 GMT 46.239349 -64.722801 40,000 233 441 0
2022-05-22 00:06:30 GMT 46.246124 -64.709946 40,000 233 441 0
2022-05-22 00:06:26 GMT 46.251160 -64.700363 40,000 233 441 0
2022-05-22 00:06:19 GMT 46.259659 -64.684204 40,000 233 441 64
2022-05-22 00:06:15 GMT 46.263336 -64.677185 40,000 233 441 0
2022-05-22 00:06:09 GMT 46.270828 -64.662849 40,000 233 441 0
2022-05-22 00:06:05 GMT 46.275742 -64.653465 40,000 233 441 -64
2022-05-22 00:06:00 GMT 46.282375 -64.640808 40,000 233 441 -64
2022-05-22 00:05:55 GMT 46.288288 -64.629547 40,000 233 441 64
2022-05-22 00:05:49 GMT 46.296249 -64.614281 40,000 233 441 64
2022-05-22 00:05:42 GMT 46.304489 -64.598602 40,000 233 441 0
2022-05-22 00:05:38 GMT 46.310852 -64.586342 40,000 233 442 0
2022-05-22 00:05:31 GMT 46.318634 -64.571541 40,000 233 442 0
2022-05-22 00:05:25 GMT 46.325668 -64.558067 40,000 234 444 0
2022-05-22 00:05:19 GMT 46.334328 -64.541519 40,000 233 444 0
2022-05-22 00:05:15 GMT 46.338043 -64.534431 40,000 233 444 0
2022-05-22 00:05:07 GMT 46.349037 -64.513298 40,000 233 446 0
2022-05-22 00:05:04 GMT 46.351547 -64.508568 40,000 233 446 0
2022-05-22 00:05:00 GMT 46.356998 -64.498123 40,000 234 447 0
2022-05-22 00:04:54 GMT 46.363495 -64.485725 40,000 234 447 0
2022-05-22 00:04:47 GMT 46.373428 -64.466637 40,000 234 447 0
2022-05-22 00:04:43 GMT 46.376179 -64.461388 40,000 234 447 0
2022-05-22 00:04:37 GMT 46.384735 -64.444931 40,000 234 447 0
2022-05-22 00:04:34 GMT 46.388466 -64.437836 40,000 234 447 0
2022-05-22 00:04:29 GMT 46.396381 -64.422592 40,000 234 446 0
2022-05-22 00:04:24 GMT 46.401455 -64.412842 40,000 234 445 0
2022-05-22 00:04:15 GMT 46.413696 -64.389290 40,000 234 443 0
2022-05-22 00:04:07 GMT 46.422031 -64.373154 40,000 234 443 0
2022-05-22 00:04:04 GMT 46.426208 -64.365082 40,000 234 442 0
2022-05-22 00:03:58 GMT 46.433670 -64.350677 40,000 234 441 0
2022-05-22 00:03:53 GMT 46.438931 -64.340538 40,000 234 440 64
2022-05-22 00:03:47 GMT 46.446751 -64.325500 40,000 234 440 0
2022-05-22 00:03:41 GMT 46.454525 -64.310394 40,000 234 440 0
2022-05-22 00:03:36 GMT 46.460762 -64.298447 40,000 234 439 -64
2022-05-22 00:03:33 GMT 46.463425 -64.293266 40,000 234 438 -64
2022-05-22 00:03:22 GMT 46.476379 -64.268211 40,000 234 437 64
2022-05-22 00:03:12 GMT 46.489346 -64.243172 40,000 234 437 64
2022-05-22 00:03:01 GMT 46.501450 -64.219757 39,975 234 438 0
2022-05-22 00:02:52 GMT 46.512760 -64.197853 40,000 234 439 -64
2022-05-22 00:02:42 GMT 46.524628 -64.174759 40,000 234 438 0
2022-05-22 00:02:39 GMT 46.528263 -64.167709 40,000 234 438 0
2022-05-22 00:02:30 GMT 46.539295 -64.146355 40,000 234 438 0
2022-05-22 00:02:21 GMT 46.551498 -64.122711 40,000 234 437 0
2022-05-22 00:02:09 GMT 46.564434 -64.097534 40,000 234 437 0
2022-05-22 00:02:00 GMT 46.576862 -64.073364 40,000 234 436 0
2022-05-22 00:01:49 GMT 46.589012 -64.049675 40,000 234 436 0
2022-05-22 00:01:38 GMT 46.601631 -64.025162 40,000 234 434 0
2022-05-22 00:01:28 GMT 46.614807 -63.999516 40,000 234 433 0
2022-05-22 00:01:17 GMT 46.626755 -63.976135 40,000 234 434 0
2022-05-22 00:01:09 GMT 46.637524 -63.955055 40,000 234 435 -64
2022-05-22 00:01:07 GMT 46.639198 -63.951759 40,000 234 435 -64
2022-05-22 00:01:02 GMT 46.645432 -63.939560 40,000 234 435 64
2022-05-22 00:00:57 GMT 46.651428 -63.927837 40,000 234 436 64
2022-05-22 00:00:46 GMT 46.664150 -63.902939 40,000 234 436 0
2022-05-22 00:00:37 GMT 46.676422 -63.878933 40,000 234 436 0
2022-05-22 00:00:26 GMT 46.688919 -63.854347 40,000 234 436 0
2022-05-22 00:00:15 GMT 46.702011 -63.828690 40,000 234 436 0
2022-05-22 00:00:06 GMT 46.714142 -63.804844 40,000 234 437 0
2022-05-21 23:59:52 GMT 46.729881 -63.773849 40,000 234 437 0
2022-05-21 23:59:42 GMT 46.741333 -63.751328 40,000 234 439 -64
2022-05-21 23:59:38 GMT 46.746643 -63.740932 40,000 234 439 0
2022-05-21 23:59:30 GMT 46.757439 -63.719604 40,000 234 439 64
2022-05-21 23:59:22 GMT 46.766472 -63.701820 40,000 234 439 0
2022-05-21 23:59:18 GMT 46.770355 -63.694241 40,000 234 439 0
2022-05-21 23:59:14 GMT 46.776489 -63.682117 40,000 234 439 -64
2022-05-21 23:59:08 GMT 46.782391 -63.670441 40,000 234 439 -64
2022-05-21 23:59:03 GMT 46.788769 -63.657806 40,000 234 439 0
2022-05-21 23:58:58 GMT 46.795753 -63.644005 40,000 234 439 64
2022-05-21 23:58:53 GMT 46.799709 -63.636177 40,000 234 439 0
2022-05-21 23:58:48 GMT 46.807068 -63.621624 40,000 234 439 0
2022-05-21 23:58:40 GMT 46.817139 -63.601662 40,000 234 437 0
2022-05-21 23:58:37 GMT 46.818970 -63.598110 40,000 234 438 0
2022-05-21 23:58:33 GMT 46.824242 -63.587700 40,000 234 437 0
2022-05-21 23:58:28 GMT 46.831642 -63.573006 40,000 234 437 0
2022-05-21 23:58:24 GMT 46.835976 -63.564491 40,000 234 436 0
2022-05-21 23:58:19 GMT 46.841675 -63.553097 40,000 234 435 0
2022-05-21 23:58:16 GMT 46.844772 -63.546982 40,000 234 435 0
2022-05-21 23:58:13 GMT 46.848961 -63.538673 40,000 234 435 0
2022-05-21 23:58:11 GMT 46.851196 -63.534203 40,000 234 435 0
2022-05-21 23:58:07 GMT 46.856094 -63.524490 40,000 234 435 0
2022-05-21 23:58:03 GMT 46.859901 -63.516975 40,000 234 435 0
2022-05-21 23:58:00 GMT 46.863693 -63.509350 40,000 234 435 0
2022-05-21 23:57:53 GMT 46.872025 -63.492805 40,000 234 435 0
2022-05-21 23:57:42 GMT 46.885086 -63.466820 40,000 234 434 0
2022-05-21 23:57:19 GMT 46.912354 -63.412605 40,000 234 434 0
2022-05-21 23:57:12 GMT 46.920746 -63.395832 40,000 234 434 64
2022-05-21 23:57:06 GMT 46.928009 -63.381432 40,000 234 435 0
2022-05-21 23:57:03 GMT 46.931213 -63.375046 40,000 234 435 0
2022-05-21 23:57:00 GMT 46.936432 -63.364632 40,000 234 434 0
2022-05-21 23:56:49 GMT 46.948242 -63.340988 40,000 234 434 0
2022-05-21 23:56:45 GMT 46.953827 -63.329865 40,000 234 434 0
2022-05-21 23:56:42 GMT 46.956757 -63.323959 40,000 234 434 0
2022-05-21 23:56:38 GMT 46.961380 -63.314690 40,000 234 434 0
2022-05-21 23:56:33 GMT 46.967422 -63.302673 40,000 234 434 0
2022-05-21 23:56:27 GMT 46.975819 -63.285828 40,000 234 434 0
2022-05-21 23:56:22 GMT 46.980103 -63.277336 40,000 235 433 0
2022-05-21 23:56:14 GMT 46.990711 -63.256039 40,000 234 433 0
2022-05-21 23:56:05 GMT 46.999420 -63.238541 40,000 234 432 0
2022-05-21 23:56:03 GMT 47.003036 -63.231262 40,000 234 432 0
2022-05-21 23:55:55 GMT 47.011383 -63.214558 40,000 234 431 0
2022-05-21 23:55:51 GMT 47.016644 -63.203922 40,000 234 431 0
2022-05-21 23:55:45 GMT 47.023087 -63.191025 40,000 234 430 0
2022-05-21 23:55:42 GMT 47.026520 -63.184158 40,000 234 430 0
2022-05-21 23:55:32 GMT 47.038559 -63.159920 40,000 234 430 0
2022-05-21 23:55:22 GMT 47.050953 -63.134975 40,000 234 430 0
2022-05-21 23:55:14 GMT 47.059708 -63.117416 40,000 234 429 0
2022-05-21 23:55:09 GMT 47.066128 -63.104485 40,000 234 429 0
2022-05-21 23:55:02 GMT 47.074905 -63.086861 40,000 235 429 0
2022-05-21 23:54:54 GMT 47.083633 -63.069199 40,000 235 430 0
2022-05-21 23:54:51 GMT 47.087215 -63.061874 40,000 235 430 0
2022-05-21 23:54:43 GMT 47.095276 -63.045593 40,000 234 430 0
2022-05-21 23:54:40 GMT 47.098763 -63.038567 40,000 234 430 0
2022-05-21 23:54:34 GMT 47.107185 -63.021591 40,000 235 431 0
2022-05-21 23:54:31 GMT 47.111160 -63.013527 40,000 235 431 0
2022-05-21 23:54:24 GMT 47.117935 -62.999863 40,000 235 430 0
2022-05-21 23:54:20 GMT 47.123657 -62.988327 40,000 235 429 0
2022-05-21 23:54:15 GMT 47.128647 -62.978165 40,000 235 429 0
2022-05-21 23:54:12 GMT 47.131439 -62.972507 40,000 235 429 64
2022-05-21 23:54:09 GMT 47.135490 -62.964268 40,000 235 429 64
2022-05-21 23:54:05 GMT 47.140842 -62.953423 40,000 235 429 0
2022-05-21 23:54:03 GMT 47.143295 -62.948502 40,000 235 429 0
2022-05-21 23:53:59 GMT 47.147827 -62.939301 40,000 235 429 0
2022-05-21 23:53:55 GMT 47.152359 -62.930168 40,000 235 429 0
2022-05-21 23:53:52 GMT 47.155647 -62.923561 40,000 235 428 0
2022-05-21 23:53:49 GMT 47.159233 -62.916237 40,000 235 428 0
2022-05-21 23:53:42 GMT 47.168381 -62.897690 40,000 235 427 0
2022-05-21 23:53:29 GMT 47.183022 -62.867924 40,000 235 426 0
2022-05-21 23:53:17 GMT 47.195126 -62.843277 40,000 235 426 64
2022-05-21 23:53:10 GMT 47.205414 -62.822361 40,000 235 427 0
2022-05-21 23:52:58 GMT 47.219147 -62.794399 40,000 235 427 0
2022-05-21 23:52:48 GMT 47.229618 -62.772991 40,000 235 427 0
2022-05-21 23:52:39 GMT 47.238739 -62.754456 40,000 235 427 0
2022-05-21 23:52:34 GMT 47.245651 -62.740311 40,000 235 427 0
2022-05-21 23:52:27 GMT 47.253220 -62.724819 40,000 235 427 0
2022-05-21 23:52:18 GMT 47.264160 -62.702496 40,000 235 427 0
2022-05-21 23:52:12 GMT 47.270817 -62.688831 40,000 235 427 0
2022-05-21 23:52:08 GMT 47.276451 -62.677284 40,000 235 427 -64
2022-05-21 23:51:59 GMT 47.286228 -62.657284 40,000 235 426 0
2022-05-21 23:51:57 GMT 47.288181 -62.653339 40,000 235 425 0
2022-05-21 23:51:47 GMT 47.300125 -62.628868 40,000 235 425 64
2022-05-21 23:51:37 GMT 47.310059 -62.608406 40,000 235 426 0
2022-05-21 23:51:35 GMT 47.312809 -62.602776 40,000 235 426 0
2022-05-21 23:51:25 GMT 47.324982 -62.577782 40,000 235 427 0
2022-05-21 23:51:15 GMT 47.336838 -62.553543 40,000 235 427 0
2022-05-21 23:51:04 GMT 47.349911 -62.526646 40,000 235 426 0
2022-05-21 23:50:56 GMT 47.359406 -62.507057 40,000 235 426 0
2022-05-21 23:50:52 GMT 47.362061 -62.501633 40,000 235 426 0
2022-05-21 23:50:43 GMT 47.373596 -62.477875 40,000 235 426 0
2022-05-21 23:50:31 GMT 47.386406 -62.451431 40,000 235 426 0
2022-05-21 23:50:23 GMT 47.397301 -62.429035 40,000 235 427 0
2022-05-21 23:50:11 GMT 47.409309 -62.404175 40,000 235 426 0
2022-05-21 23:50:01 GMT 47.421181 -62.379524 40,000 235 427 0
2022-05-21 23:49:51 GMT 47.432728 -62.355652 40,000 235 426 0
2022-05-21 23:49:41 GMT 47.443062 -62.334381 40,000 235 425 0
2022-05-21 23:49:30 GMT 47.457321 -62.304840 40,000 235 425 0
2022-05-21 23:49:18 GMT 47.470062 -62.278397 40,000 235 425 0
2022-05-21 23:49:10 GMT 47.480396 -62.256844 40,000 235 425 0
2022-05-21 23:49:00 GMT 47.490963 -62.234875 40,000 235 425 0
2022-05-21 23:48:50 GMT 47.502415 -62.210999 40,000 235 425 0
2022-05-21 23:48:39 GMT 47.514473 -62.185928 40,000 235 425 0
2022-05-21 23:48:30 GMT 47.525803 -62.162224 40,000 235 426 0
2022-05-21 23:48:18 GMT 47.538074 -62.136631 40,000 235 426 0
2022-05-21 23:48:08 GMT 47.549152 -62.113602 40,000 235 426 0
2022-05-21 23:47:59 GMT 47.560513 -62.089798 40,000 235 427 0
2022-05-21 23:47:48 GMT 47.572174 -62.065475 40,000 235 427 0
2022-05-21 23:47:38 GMT 47.584023 -62.040642 40,000 235 427 0
2022-05-21 23:47:17 GMT 47.607811 -61.990780 40,000 235 428 0
2022-05-21 23:47:06 GMT 47.620426 -61.964230 40,000 235 428 0
2022-05-21 23:46:57 GMT 47.631737 -61.940567 40,000 235 429 0
2022-05-21 23:45:18 GMT 47.743279 -61.705135 40,000 236 427 0
We lost coverage of the aircraft here for a total of 235 minutes
2022-05-21 19:49:53 GMT 54.890030 -13.797051 38,000 280 444 0
2022-05-21 19:49:43 GMT 54.886597 -13.761668 38,000 280 444 0
2022-05-21 19:49:22 GMT 54.879269 -13.685885 38,000 280 445 0
2022-05-21 19:49:11 GMT 54.875839 -13.651159 38,000 280 445 0
2022-05-21 19:49:02 GMT 54.872612 -13.618136 38,000 280 445 0
2022-05-21 19:48:52 GMT 54.869213 -13.584095 38,000 280 445 0
2022-05-21 19:48:42 GMT 54.865631 -13.547677 38,000 280 444 0
2022-05-21 19:48:33 GMT 54.862198 -13.512941 38,000 280 444 0
2022-05-21 19:48:22 GMT 54.858742 -13.477977 38,000 280 444 0
2022-05-21 19:48:11 GMT 54.854828 -13.438776 38,000 280 443 0
2022-05-21 19:48:01 GMT 54.851479 -13.405568 38,000 280 443 0
2022-05-21 19:47:51 GMT 54.848053 -13.371411 38,000 280 442 0
2022-05-21 19:47:41 GMT 54.844311 -13.334489 38,000 280 442 0
2022-05-21 19:47:31 GMT 54.840591 -13.297577 38,000 281 441 0
2022-05-21 19:47:21 GMT 54.837372 -13.265575 38,000 281 441 0
2022-05-21 19:47:10 GMT 54.833542 -13.227943 38,000 281 441 0
2022-05-21 19:47:00 GMT 54.829971 -13.192884 38,000 281 441 0
2022-05-21 19:46:50 GMT 54.826431 -13.158791 38,000 281 441 0
2022-05-21 19:46:41 GMT 54.822830 -13.123331 38,000 281 442 0
2022-05-21 19:46:29 GMT 54.818985 -13.085767 38,000 281 442 0
2022-05-21 19:46:19 GMT 54.814636 -13.043922 38,000 281 443 0
2022-05-21 19:46:08 GMT 54.811302 -13.011475 38,000 281 443 0
2022-05-21 19:45:58 GMT 54.807579 -12.975519 38,000 281 444 0
2022-05-21 19:45:49 GMT 54.803761 -12.938898 38,000 281 444 0
2022-05-21 19:45:38 GMT 54.800316 -12.905773 38,000 281 444 0
2022-05-21 19:45:28 GMT 54.796497 -12.869818 38,000 281 445 0
2022-05-21 19:45:18 GMT 54.792683 -12.833113 38,000 281 445 0
2022-05-21 19:45:07 GMT 54.788956 -12.797780 38,000 281 445 0
2022-05-21 19:44:59 GMT 54.785652 -12.766613 38,000 281 445 0
2022-05-21 19:44:53 GMT 54.783791 -12.749134 38,000 281 445 0
2022-05-21 19:44:46 GMT 54.781136 -12.723999 38,000 281 445 0
2022-05-21 19:44:37 GMT 54.777466 -12.689694 38,000 281 445 0
2022-05-21 19:44:25 GMT 54.773411 -12.651256 38,000 281 445 0
2022-05-21 19:44:15 GMT 54.769547 -12.615294 38,000 281 444 0
2022-05-21 19:44:08 GMT 54.766754 -12.589443 38,000 281 445 0
2022-05-21 19:44:05 GMT 54.765564 -12.577972 38,000 281 445 0
2022-05-21 19:43:57 GMT 54.762981 -12.553877 38,000 281 444 0
2022-05-21 19:43:54 GMT 54.761864 -12.543807 38,000 281 444 0
2022-05-21 19:43:45 GMT 54.758194 -12.509631 38,000 281 444 0
2022-05-21 19:43:39 GMT 54.755581 -12.485629 38,000 281 443 0
2022-05-21 19:43:34 GMT 54.754303 -12.473764 38,000 281 443 0
2022-05-21 19:43:25 GMT 54.750507 -12.439020 38,000 281 442 0
2022-05-21 19:43:14 GMT 54.746548 -12.402982 38,000 281 441 0
2022-05-21 19:43:07 GMT 54.743683 -12.376341 38,000 281 441 0
2022-05-21 19:43:04 GMT 54.742722 -12.367697 38,000 281 441 0
2022-05-21 19:42:59 GMT 54.740845 -12.350814 38,000 281 440 0
2022-05-21 19:42:56 GMT 54.739838 -12.341443 38,000 281 440 0
2022-05-21 19:42:53 GMT 54.738831 -12.332153 38,000 281 440 0
2022-05-21 19:42:44 GMT 54.734940 -12.296609 38,000 281 439 0
2022-05-21 19:42:36 GMT 54.731827 -12.268013 38,000 281 439 0
2022-05-21 19:42:33 GMT 54.731094 -12.261491 38,000 281 438 0
2022-05-21 19:42:28 GMT 54.729183 -12.244263 38,000 281 438 0
2022-05-21 19:42:25 GMT 54.728207 -12.235357 38,000 281 438 0
2022-05-21 19:42:22 GMT 54.727066 -12.225037 38,000 281 438 0
2022-05-21 19:42:19 GMT 54.725739 -12.213081 38,000 281 438 0
2022-05-21 19:42:16 GMT 54.724365 -12.201044 38,000 281 438 0
2022-05-21 19:42:13 GMT 54.723221 -12.190381 38,000 281 438 0
2022-05-21 19:42:09 GMT 54.721573 -12.175598 38,000 281 438 0
2022-05-21 19:42:05 GMT 54.720665 -12.167358 38,000 281 438 0
2022-05-21 19:42:02 GMT 54.719421 -12.156372 38,000 281 438 0
2022-05-21 19:41:58 GMT 54.717686 -12.140975 38,000 281 438 0
2022-05-21 19:41:55 GMT 54.716709 -12.131986 38,000 281 438 0
2022-05-21 19:41:52 GMT 54.715393 -12.120020 38,000 281 438 0
2022-05-21 19:41:48 GMT 54.713821 -12.106268 38,000 281 438 0
2022-05-21 19:41:44 GMT 54.712658 -12.095614 38,000 281 438 0
2022-05-21 19:41:41 GMT 54.711449 -12.084961 38,000 281 438 0
2022-05-21 19:41:37 GMT 54.709854 -12.070582 38,000 281 438 0
2022-05-21 19:41:34 GMT 54.708702 -12.060242 38,000 281 438 0
2022-05-21 19:41:31 GMT 54.707245 -12.047155 38,000 282 439 0
2022-05-21 19:41:28 GMT 54.706192 -12.037946 38,000 282 439 0
2022-05-21 19:41:24 GMT 54.704865 -12.025909 38,000 282 439 0
2022-05-21 19:41:21 GMT 54.703583 -12.014519 38,000 282 440 0
2022-05-21 19:41:18 GMT 54.702301 -12.003210 38,000 282 439 0
2022-05-21 19:41:15 GMT 54.700928 -11.991173 38,000 282 439 0
2022-05-21 19:41:11 GMT 54.699646 -11.979864 38,000 282 440 0
2022-05-21 19:41:07 GMT 54.698090 -11.966050 38,000 282 440 0
2022-05-21 19:41:03 GMT 54.696461 -11.951627 38,000 282 440 0
2022-05-21 19:41:00 GMT 54.695526 -11.943054 38,000 282 440 0
2022-05-21 19:40:56 GMT 54.693851 -11.928239 38,000 282 440 0
2022-05-21 19:40:51 GMT 54.691616 -11.908680 38,000 282 440 0
2022-05-21 19:40:48 GMT 54.690266 -11.896612 38,000 282 440 0
2022-05-21 19:40:43 GMT 54.689072 -11.886318 38,000 282 440 0
2022-05-21 19:40:40 GMT 54.687698 -11.874282 38,000 282 440 0
2022-05-21 19:40:37 GMT 54.686508 -11.863619 38,000 282 440 0
2022-05-21 19:40:33 GMT 54.684494 -11.846092 38,000 282 440 0
2022-05-21 19:40:27 GMT 54.682491 -11.828613 38,000 282 440 0
2022-05-21 19:40:22 GMT 54.680725 -11.812800 38,000 282 440 0
2022-05-21 19:40:17 GMT 54.678303 -11.791826 38,000 282 439 0
2022-05-21 19:40:13 GMT 54.677235 -11.782587 38,000 282 439 0
2022-05-21 19:40:10 GMT 54.675556 -11.767772 38,000 282 440 0
2022-05-21 19:40:06 GMT 54.674160 -11.755787 38,000 282 440 0
2022-05-21 19:40:02 GMT 54.672718 -11.743053 38,000 282 439 0
2022-05-21 19:39:59 GMT 54.671646 -11.733815 38,000 282 439 0
2022-05-21 19:39:56 GMT 54.670395 -11.722816 38,000 282 439 0
2022-05-21 19:39:52 GMT 54.668900 -11.709761 38,000 282 439 0
2022-05-21 19:39:49 GMT 54.667503 -11.697776 38,000 282 439 0
2022-05-21 19:39:46 GMT 54.666386 -11.687789 38,000 282 439 0
2022-05-21 19:39:42 GMT 54.665039 -11.676205 38,000 282 439 0
2022-05-21 19:39:39 GMT 54.663452 -11.662820 38,000 282 439 0
2022-05-21 19:39:36 GMT 54.662476 -11.654232 38,000 282 439 0
2022-05-21 19:39:31 GMT 54.660706 -11.638766 38,000 282 439 0
2022-05-21 19:39:28 GMT 54.659180 -11.625797 38,000 282 439 0
2022-05-21 19:39:25 GMT 54.658146 -11.616794 38,000 282 439 0
2022-05-21 19:39:22 GMT 54.656330 -11.601063 38,000 282 440 0
2022-05-21 19:39:16 GMT 54.654373 -11.584251 38,000 282 440 0
2022-05-21 19:39:11 GMT 54.652634 -11.569088 38,000 282 440 0
2022-05-21 19:39:07 GMT 54.650528 -11.551235 38,000 282 440 0
2022-05-21 19:39:01 GMT 54.648468 -11.533383 38,000 282 440 0
2022-05-21 19:38:56 GMT 54.646461 -11.516252 38,000 282 439 0
2022-05-21 19:38:51 GMT 54.644485 -11.499454 38,000 282 439 0
2022-05-21 19:38:46 GMT 54.642288 -11.480632 38,000 282 439 0
2022-05-21 19:38:40 GMT 54.640224 -11.463151 38,000 282 439 0
2022-05-21 19:38:36 GMT 54.638397 -11.447350 38,000 282 439 0
2022-05-21 19:38:30 GMT 54.636173 -11.428528 38,000 282 438 0
2022-05-21 19:38:26 GMT 54.634266 -11.412464 38,000 282 438 0
2022-05-21 19:38:21 GMT 54.632263 -11.395319 38,000 282 438 0
2022-05-21 19:38:16 GMT 54.630169 -11.377924 38,000 282 438 0
2022-05-21 19:38:11 GMT 54.627960 -11.359136 38,000 282 438 0
2022-05-21 19:38:04 GMT 54.623837 -11.324241 38,000 282 438 0
2022-05-21 19:38:00 GMT 54.623837 -11.324241 38,000 282 438 0
2022-05-21 19:37:56 GMT 54.622147 -11.309940 38,000 282 437 0
2022-05-21 19:37:53 GMT 54.621090 -11.301020 38,000 282 437 0
2022-05-21 19:37:50 GMT 54.619812 -11.290149 38,000 282 437 0
2022-05-21 19:37:44 GMT 54.617249 -11.268257 38,000 282 437 0
2022-05-21 19:37:40 GMT 54.615829 -11.256382 38,000 282 437 0
2022-05-21 19:37:36 GMT 54.613876 -11.239929 38,000 282 437 0
2022-05-21 19:37:32 GMT 54.612713 -11.230108 38,000 282 437 0
2022-05-21 19:37:29 GMT 54.611687 -11.221535 38,000 282 437 0
2022-05-21 19:37:26 GMT 54.609787 -11.205489 38,000 282 439 0
2022-05-21 19:37:23 GMT 54.609173 -11.200395 38,000 282 439 0
2022-05-21 19:37:20 GMT 54.607452 -11.186080 38,000 282 439 0
2022-05-21 19:37:12 GMT 54.604706 -11.163160 38,000 282 439 0
2022-05-21 19:37:10 GMT 54.603516 -11.153223 38,000 282 439 0
2022-05-21 19:37:03 GMT 54.600861 -11.131412 38,000 282 439 0
2022-05-21 19:36:59 GMT 54.599350 -11.118730 38,000 282 439 0
2022-05-21 19:36:53 GMT 54.596786 -11.097565 38,000 282 439 0
2022-05-21 19:36:51 GMT 54.596001 -11.091031 38,000 282 439 0
2022-05-21 19:36:48 GMT 54.594742 -11.080461 38,000 282 439 0
2022-05-21 19:36:44 GMT 54.592804 -11.064363 38,000 282 439 0
2022-05-21 19:36:40 GMT 54.590878 -11.048667 38,000 282 439 0
2022-05-21 19:36:35 GMT 54.589108 -11.033936 38,000 282 439 0
2022-05-21 19:36:31 GMT 54.587769 -11.023003 38,000 282 439 0
2022-05-21 19:36:27 GMT 54.586121 -11.009351 38,000 282 439 0
2022-05-21 19:36:24 GMT 54.584106 -10.992629 38,000 282 439 0
2022-05-21 19:36:20 GMT 54.580402 -10.961942 38,000 282 438 0
2022-05-21 19:36:14 GMT 54.580402 -10.961942 38,000 282 438 0
2022-05-21 19:36:11 GMT 54.578979 -10.950380 38,000 282 438 0
2022-05-21 19:36:08 GMT 54.577972 -10.942221 38,000 282 438 0
2022-05-21 19:36:04 GMT 54.575050 -10.918413 38,000 282 437 0
2022-05-21 19:36:01 GMT 54.575050 -10.918413 38,000 282 437 0
2022-05-21 19:35:58 GMT 54.574074 -10.910256 38,000 282 437 0
2022-05-21 19:35:55 GMT 54.572395 -10.896690 38,000 282 437 0
2022-05-21 19:35:51 GMT 54.570557 -10.881716 38,000 282 437 0
2022-05-21 19:35:48 GMT 54.569916 -10.876222 38,000 282 437 0
2022-05-21 19:35:44 GMT 54.567837 -10.859569 38,000 282 437 0
2022-05-21 19:35:41 GMT 54.566719 -10.850414 38,000 282 437 0
2022-05-21 19:35:38 GMT 54.565693 -10.841924 38,000 282 437 0
2022-05-21 19:35:33 GMT 54.563187 -10.821533 38,000 283 437 0
2022-05-21 19:35:30 GMT 54.562016 -10.812045 38,000 283 437 0
2022-05-21 19:35:27 GMT 54.561131 -10.804887 38,000 283 437 0
2022-05-21 19:35:23 GMT 54.559387 -10.790594 38,000 282 438 0
2022-05-21 19:35:20 GMT 54.557785 -10.777669 38,000 282 438 0
2022-05-21 19:35:17 GMT 54.556988 -10.771179 38,000 282 438 0
2022-05-21 19:35:13 GMT 54.555080 -10.755865 38,000 282 438 0
2022-05-21 19:35:10 GMT 54.553310 -10.741633 38,000 282 438 0
2022-05-21 19:35:07 GMT 54.552704 -10.736470 38,000 282 438 0
2022-05-21 19:35:04 GMT 54.551125 -10.723572 38,000 282 438 0
2022-05-21 19:35:02 GMT 54.550053 -10.714999 38,000 282 438 0
2022-05-21 19:34:59 GMT 54.549400 -10.709922 38,000 282 439 0
2022-05-21 19:34:57 GMT 54.548470 -10.702431 38,000 282 439 0
2022-05-21 19:34:53 GMT 54.546432 -10.685739 38,000 283 439 0
2022-05-21 19:34:51 GMT 54.545563 -10.678873 38,000 283 439 0
2022-05-21 19:34:48 GMT 54.544277 -10.668640 38,000 283 439 0
2022-05-21 19:34:43 GMT 54.542233 -10.652327 38,000 283 439 0
2022-05-21 19:34:39 GMT 54.540848 -10.641067 38,000 283 439 0
2022-05-21 19:34:37 GMT 54.539997 -10.634183 38,000 283 439 0
2022-05-21 19:34:33 GMT 54.538284 -10.620548 38,000 283 439 0
2022-05-21 19:34:29 GMT 54.536133 -10.603503 38,000 283 439 0
2022-05-21 19:34:26 GMT 54.535339 -10.597063 38,000 283 439 0
2022-05-21 19:34:22 GMT 54.532223 -10.572177 38,000 283 438 0
2022-05-21 19:34:19 GMT 54.532223 -10.572177 38,000 283 438 0
2022-05-21 19:34:16 GMT 54.530914 -10.561658 38,000 283 438 0
2022-05-21 19:34:13 GMT 54.529800 -10.552784 38,000 283 438 0
2022-05-21 19:34:09 GMT 54.526794 -10.528618 38,000 283 438 0
2022-05-21 19:34:06 GMT 54.526794 -10.528618 38,000 283 438 0
2022-05-21 19:34:03 GMT 54.525558 -10.518763 38,000 283 438 0
2022-05-21 19:33:59 GMT 54.523705 -10.504178 38,000 283 437 0
2022-05-21 19:33:57 GMT 54.522583 -10.495336 38,000 283 437 0
2022-05-21 19:33:53 GMT 54.521301 -10.485158 38,000 283 437 0
2022-05-21 19:33:49 GMT 54.519424 -10.470213 38,000 283 437 0
2022-05-21 19:33:46 GMT 54.518070 -10.459650 38,000 283 437 0
2022-05-21 19:33:42 GMT 54.514954 -10.434931 38,000 283 437 0
2022-05-21 19:33:39 GMT 54.514954 -10.434931 38,000 283 437 0
2022-05-21 19:33:36 GMT 54.513741 -10.425027 38,000 283 437 0
2022-05-21 19:33:32 GMT 54.512421 -10.414877 38,000 283 437 0
2022-05-21 19:33:29 GMT 54.510670 -10.400640 38,000 283 437 0
2022-05-21 19:33:26 GMT 54.509644 -10.392817 38,000 283 438 0
2022-05-21 19:33:23 GMT 54.508247 -10.381581 38,000 283 438 0
2022-05-21 19:33:18 GMT 54.506149 -10.365358 38,000 283 438 0
2022-05-21 19:33:16 GMT 54.505051 -10.356876 38,000 283 438 0
2022-05-21 19:33:13 GMT 54.504013 -10.348705 38,000 283 438 0
2022-05-21 19:33:09 GMT 54.501892 -10.332076 38,000 283 438 0
2022-05-21 19:33:06 GMT 54.500702 -10.322625 38,000 283 438 0
2022-05-21 19:33:02 GMT 54.499420 -10.312769 38,000 283 438 0
2022-05-21 19:33:00 GMT 54.498367 -10.304287 38,000 283 438 0
2022-05-21 19:32:56 GMT 54.496563 -10.290028 38,000 283 438 0
2022-05-21 19:32:53 GMT 54.495304 -10.280207 38,000 283 437 0
2022-05-21 19:32:50 GMT 54.493958 -10.269720 38,000 283 438 0
2022-05-21 19:32:47 GMT 54.492416 -10.257515 38,000 283 438 0
2022-05-21 19:32:43 GMT 54.490906 -10.245640 38,000 283 438 0
2022-05-21 19:32:38 GMT 54.488510 -10.227023 38,000 283 438 0
2022-05-21 19:32:35 GMT 54.487579 -10.219865 38,000 283 438 0
2022-05-21 19:32:32 GMT 54.486328 -10.210096 38,000 283 438 0
2022-05-21 19:32:29 GMT 54.485092 -10.200240 38,000 283 438 0
2022-05-21 19:32:27 GMT 54.482117 -10.177217 38,000 283 438 0
2022-05-21 19:32:23 GMT 54.482117 -10.177217 38,000 283 438 0
2022-05-21 19:32:20 GMT 54.480743 -10.166716 38,000 283 438 0
2022-05-21 19:32:18 GMT 54.480225 -10.162603 38,000 283 438 0
2022-05-21 19:32:15 GMT 54.478317 -10.147732 38,000 283 438 0
2022-05-21 19:32:10 GMT 54.476360 -10.132807 38,000 283 438 0
2022-05-21 19:32:06 GMT 54.474686 -10.119573 38,000 283 438 0
2022-05-21 19:32:03 GMT 54.473328 -10.109441 38,000 283 438 0
2022-05-21 19:31:59 GMT 54.471634 -10.096193 38,000 283 438 0
2022-05-21 19:31:56 GMT 54.470680 -10.088778 38,000 283 438 0
2022-05-21 19:31:53 GMT 54.468960 -10.075545 38,000 283 438 0
2022-05-21 19:31:50 GMT 54.465683 -10.050148 38,000 283 438 0
2022-05-21 19:31:45 GMT 54.465683 -10.050148 38,000 283 437 0
2022-05-21 19:31:42 GMT 54.463604 -10.034263 38,000 283 437 0
2022-05-21 19:31:38 GMT 54.462395 -10.025108 38,000 283 437 0
2022-05-21 19:31:35 GMT 54.460670 -10.011874 38,000 283 437 0
2022-05-21 19:31:32 GMT 54.460159 -10.007879 38,000 283 437 0
2022-05-21 19:31:30 GMT 54.459229 -10.000721 38,000 283 437 0
2022-05-21 19:31:28 GMT 54.458176 -9.992954 38,000 283 437 0
2022-05-21 19:31:25 GMT 54.455692 -9.973672 38,000 283 437 0
2022-05-21 19:31:22 GMT 54.454762 -9.966597 38,000 283 438 0
2022-05-21 19:31:18 GMT 54.454109 -9.961853 38,000 283 438 0
2022-05-21 19:31:16 GMT 54.451733 -9.943542 38,000 283 437 0
2022-05-21 19:31:14 GMT 54.451733 -9.943542 38,000 283 438 0
2022-05-21 19:31:11 GMT 54.450577 -9.934791 38,000 283 437 0
2022-05-21 19:31:09 GMT 54.449844 -9.928975 38,000 283 437 0
2022-05-21 19:31:05 GMT 54.447914 -9.914079 38,000 283 437 0
2022-05-21 19:31:02 GMT 54.446705 -9.905007 38,000 283 437 0
2022-05-21 19:31:00 GMT 54.445267 -9.894158 38,000 283 437 0
2022-05-21 19:30:57 GMT 54.444489 -9.888099 38,000 283 437 0
2022-05-21 19:30:54 GMT 54.443115 -9.877598 38,000 283 437 0
2022-05-21 19:30:51 GMT 54.441650 -9.866450 38,000 283 437 0
2022-05-21 19:30:48 GMT 54.440468 -9.857649 38,000 283 439 0
2022-05-21 19:30:45 GMT 54.438652 -9.843750 38,000 283 438 0
2022-05-21 19:30:41 GMT 54.437256 -9.833263 38,000 283 437 0
2022-05-21 19:30:37 GMT 54.435440 -9.819447 38,000 283 438 0
2022-05-21 19:30:34 GMT 54.433857 -9.807545 38,000 283 439 0
2022-05-21 19:30:31 GMT 54.432648 -9.798473 38,000 283 439 0
2022-05-21 19:30:29 GMT 54.431763 -9.791646 38,000 283 438 0
2022-05-21 19:30:26 GMT 54.430508 -9.782160 38,000 283 438 0
2022-05-21 19:30:24 GMT 54.429474 -9.774358 38,000 283 439 0
2022-05-21 19:30:21 GMT 54.428226 -9.764931 38,000 283 439 0
2022-05-21 19:30:18 GMT 54.426922 -9.755027 38,000 283 440 0
2022-05-21 19:30:16 GMT 54.425663 -9.745872 38,000 283 440 0
2022-05-21 19:30:11 GMT 54.423798 -9.731625 38,000 283 439 0
2022-05-21 19:30:07 GMT 54.421986 -9.718073 38,000 283 439 0
2022-05-21 19:30:04 GMT 54.420227 -9.704563 38,000 283 440 0
2022-05-21 19:30:01 GMT 54.419193 -9.697099 38,000 283 440 0
2022-05-21 19:29:57 GMT 54.417473 -9.683866 38,000 283 440 0
2022-05-21 19:29:55 GMT 54.416077 -9.673379 38,000 283 440 0
2022-05-21 19:29:52 GMT 54.415146 -9.666595 38,000 283 439 0
2022-05-21 19:29:50 GMT 54.414413 -9.661102 38,000 283 439 0
2022-05-21 19:29:46 GMT 54.412308 -9.645592 38,000 284 439 0
2022-05-21 19:29:44 GMT 54.411465 -9.639171 38,000 283 439 0
2022-05-21 19:29:41 GMT 54.410164 -9.629350 38,000 283 439 0
2022-05-21 19:29:36 GMT 54.407787 -9.611705 38,000 283 439 0
2022-05-21 19:29:33 GMT 54.406204 -9.599887 38,000 283 438 0
2022-05-21 19:29:30 GMT 54.405258 -9.592761 38,000 283 438 0
2022-05-21 19:29:28 GMT 54.404110 -9.583990 38,000 283 438 0
2022-05-21 19:29:25 GMT 54.402924 -9.575231 38,000 283 438 0
2022-05-21 19:29:22 GMT 54.401550 -9.565097 38,000 284 438 0
2022-05-21 19:29:19 GMT 54.398293 -9.540877 38,000 283 437 0
2022-05-21 19:29:15 GMT 54.398293 -9.540877 38,000 283 437 0
2022-05-21 19:29:11 GMT 54.396149 -9.524980 38,000 283 437 0
2022-05-21 19:29:08 GMT 54.393635 -9.506170 38,000 284 436 0
2022-05-21 19:29:05 GMT 54.393635 -9.506170 38,000 283 436 0
2022-05-21 19:29:02 GMT 54.392612 -9.498763 38,000 283 436 0
2022-05-21 19:29:00 GMT 54.391708 -9.492107 38,000 283 436 0
2022-05-21 19:28:58 GMT 54.390610 -9.483705 38,000 283 436 0
2022-05-21 19:28:55 GMT 54.389511 -9.475627 38,000 284 436 0
2022-05-21 19:28:53 GMT 54.388611 -9.468883 38,000 284 436 0
2022-05-21 19:28:51 GMT 54.387165 -9.458479 38,000 284 436 0
2022-05-21 19:28:48 GMT 54.385956 -9.449491 38,000 284 435 0
2022-05-21 19:28:45 GMT 54.384514 -9.439087 38,000 284 435 0
2022-05-21 19:28:42 GMT 54.382416 -9.423606 38,000 284 435 0
2022-05-21 19:28:40 GMT 54.380928 -9.412537 38,000 284 435 0
2022-05-21 19:28:37 GMT 54.380928 -9.412537 38,000 284 435 0
2022-05-21 19:28:34 GMT 54.379486 -9.401793 38,000 284 435 -64
2022-05-21 19:28:30 GMT 54.377670 -9.388400 38,000 284 435 -64
2022-05-21 19:28:27 GMT 54.376507 -9.379994 38,000 284 435 -64
2022-05-21 19:28:23 GMT 54.374737 -9.366927 38,000 284 435 0
2022-05-21 19:28:20 GMT 54.373581 -9.358251 38,000 284 435 0
2022-05-21 19:28:17 GMT 54.371944 -9.346203 38,000 284 435 0
2022-05-21 19:28:15 GMT 54.370743 -9.337410 38,000 284 435 0
2022-05-21 19:28:11 GMT 54.368916 -9.324063 38,000 284 435 0
2022-05-21 19:28:08 GMT 54.368088 -9.317699 38,000 284 435 0
2022-05-21 19:28:05 GMT 54.366264 -9.304588 38,000 284 435 0
2022-05-21 19:28:00 GMT 54.364197 -9.289506 38,000 284 435 0
2022-05-21 19:27:57 GMT 54.362778 -9.279166 38,000 284 435 0
2022-05-21 19:27:54 GMT 54.359940 -9.258647 38,000 284 436 0
2022-05-21 19:27:51 GMT 54.359940 -9.258647 38,000 284 436 0
2022-05-21 19:27:48 GMT 54.358292 -9.246934 38,000 284 437 0
2022-05-21 19:27:44 GMT 54.354584 -9.219630 38,000 284 437 0
2022-05-21 19:27:40 GMT 54.354584 -9.219630 38,000 284 437 0
2022-05-21 19:27:37 GMT 54.353321 -9.210205 38,000 284 437 0
2022-05-21 19:27:34 GMT 54.352203 -9.202181 38,000 284 438 0
2022-05-21 19:27:31 GMT 54.351040 -9.193726 38,000 284 438 0
2022-05-21 19:27:27 GMT 54.349091 -9.179562 38,000 284 438 0
2022-05-21 19:27:24 GMT 54.347672 -9.169141 38,000 284 438 0
2022-05-21 19:27:21 GMT 54.346207 -9.158720 38,000 284 438 0
2022-05-21 19:27:17 GMT 54.344238 -9.144503 38,000 284 438 0
2022-05-21 19:27:14 GMT 54.342957 -9.135132 38,000 284 437 0
2022-05-21 19:27:11 GMT 54.341812 -9.126650 38,000 284 437 0
2022-05-21 19:27:09 GMT 54.340851 -9.119945 38,000 284 437 0
2022-05-21 19:27:06 GMT 54.339203 -9.107828 38,000 284 437 0
2022-05-21 19:27:03 GMT 54.337784 -9.097730 38,000 284 438 0
2022-05-21 19:27:00 GMT 54.336411 -9.088036 38,000 284 437 0
2022-05-21 19:26:57 GMT 54.334854 -9.076969 38,000 284 437 0
2022-05-21 19:26:54 GMT 54.333023 -9.063801 38,000 284 437 0
2022-05-21 19:26:51 GMT 54.332291 -9.058470 38,000 284 437 0
2022-05-21 19:26:48 GMT 54.330605 -9.046409 38,000 284 437 0
2022-05-21 19:26:45 GMT 54.329178 -9.036336 38,000 284 437 0
2022-05-21 19:26:42 GMT 54.326935 -9.020179 38,000 284 437 0
2022-05-21 19:26:40 GMT 54.326935 -9.020179 38,000 284 437 0
2022-05-21 19:26:38 GMT 54.325718 -9.011452 38,000 284 438 0
2022-05-21 19:26:35 GMT 54.324646 -9.003795 38,000 284 437 0
2022-05-21 19:26:33 GMT 54.323715 -8.997054 38,000 284 437 0
2022-05-21 19:26:29 GMT 54.322178 -8.985984 38,000 284 437 0
2022-05-21 19:26:27 GMT 54.320755 -8.975830 38,000 284 438 0
2022-05-21 19:26:24 GMT 54.319382 -8.966136 38,000 284 438 0
2022-05-21 19:26:21 GMT 54.317047 -8.949334 38,000 284 438 0
2022-05-21 19:26:17 GMT 54.316177 -8.943275 38,000 284 438 0
2022-05-21 19:26:14 GMT 54.314621 -8.932127 38,000 284 438 0
2022-05-21 19:26:09 GMT 54.312515 -8.917021 38,000 284 438 0
2022-05-21 19:26:07 GMT 54.311378 -8.908913 38,000 284 438 0
2022-05-21 19:26:04 GMT 54.310028 -8.899175 38,000 284 437 0
2022-05-21 19:26:01 GMT 54.308899 -8.891171 38,000 284 438 0
2022-05-21 19:25:59 GMT 54.307709 -8.882769 38,000 284 438 0
2022-05-21 19:25:55 GMT 54.305786 -8.868956 38,000 284 438 0
2022-05-21 19:25:52 GMT 54.304115 -8.856895 38,000 284 438 0
2022-05-21 19:25:49 GMT 54.303230 -8.850819 38,000 284 438 0
2022-05-21 19:25:47 GMT 54.301788 -8.840415 38,000 284 438 0
2022-05-21 19:25:44 GMT 54.300430 -8.830988 38,000 284 438 0
2022-05-21 19:25:40 GMT 54.298622 -8.818276 38,000 284 438 64
2022-05-21 19:25:38 GMT 54.298065 -8.814198 38,000 284 438 64
2022-05-21 19:25:34 GMT 54.296173 -8.800776 38,000 284 438 0
2022-05-21 19:25:32 GMT 54.294853 -8.791726 38,000 284 438 0
2022-05-21 19:25:30 GMT 54.293839 -8.784619 38,000 284 438 0
2022-05-21 19:25:27 GMT 54.292053 -8.772179 38,000 284 439 0
2022-05-21 19:25:24 GMT 54.291046 -8.765151 38,000 284 439 0
2022-05-21 19:25:21 GMT 54.289764 -8.756023 38,000 284 439 0
2022-05-21 19:25:19 GMT 54.288616 -8.747947 38,000 284 439 0
2022-05-21 19:25:15 GMT 54.286514 -8.733161 38,000 284 439 0
2022-05-21 19:25:13 GMT 54.286057 -8.729849 38,000 284 439 0
2022-05-21 19:25:10 GMT 54.284241 -8.717069 38,000 284 438 0
2022-05-21 19:25:04 GMT 54.281708 -8.699233 38,000 284 438 0
2022-05-21 19:25:01 GMT 54.280014 -8.687116 38,000 284 438 0
2022-05-21 19:24:59 GMT 54.279396 -8.682778 38,000 284 437 0
2022-05-21 19:24:56 GMT 54.277954 -8.672686 38,000 284 437 0
2022-05-21 19:24:53 GMT 54.276138 -8.659973 38,000 284 437 0
2022-05-21 19:24:50 GMT 54.274555 -8.648906 38,000 284 437 0
2022-05-21 19:24:48 GMT 54.274090 -8.645594 38,000 284 436 0
2022-05-21 19:24:45 GMT 54.272415 -8.633881 38,000 284 436 0
2022-05-21 19:24:42 GMT 54.269897 -8.616185 38,000 284 436 0
2022-05-21 19:24:39 GMT 54.269897 -8.616185 38,000 284 436 0
2022-05-21 19:24:36 GMT 54.268021 -8.603158 38,000 284 436 0
2022-05-21 19:24:33 GMT 54.266876 -8.595186 38,000 284 435 0
2022-05-21 19:24:30 GMT 54.263306 -8.570121 38,000 284 435 0
2022-05-21 19:24:26 GMT 54.263306 -8.570121 38,000 284 435 0
2022-05-21 19:24:23 GMT 54.260513 -8.550816 38,000 284 435 0
2022-05-21 19:24:20 GMT 54.260513 -8.550816 38,000 284 435 0
2022-05-21 19:24:18 GMT 54.259460 -8.543518 38,000 284 434 0
2022-05-21 19:24:14 GMT 54.257610 -8.530561 38,000 284 434 0
2022-05-21 19:24:11 GMT 54.255295 -8.514561 38,000 284 434 0
2022-05-21 19:24:09 GMT 54.255295 -8.514561 38,000 284 434 0
2022-05-21 19:24:06 GMT 54.253510 -8.502241 38,000 284 434 0
2022-05-21 19:24:02 GMT 54.252045 -8.491961 38,000 284 434 0
2022-05-21 19:23:59 GMT 54.250675 -8.482657 38,000 284 434 0
2022-05-21 19:23:56 GMT 54.248814 -8.469732 38,000 284 433 0
2022-05-21 19:23:52 GMT 54.247322 -8.459392 38,000 284 433 0
2022-05-21 19:23:50 GMT 54.246250 -8.452122 38,000 284 433 0
2022-05-21 19:23:48 GMT 54.245087 -8.444170 38,000 284 433 0
2022-05-21 19:23:45 GMT 54.243832 -8.435561 38,000 284 433 0
2022-05-21 19:23:42 GMT 54.242523 -8.426278 38,000 284 433 0
2022-05-21 19:23:40 GMT 54.240341 -8.411004 38,000 284 433 0
2022-05-21 19:23:38 GMT 54.240341 -8.411004 38,000 284 433 64
2022-05-21 19:23:35 GMT 54.238953 -8.401716 38,000 284 433 0
2022-05-21 19:23:32 GMT 54.237640 -8.392424 38,000 284 433 0
2022-05-21 19:23:30 GMT 54.236755 -8.386527 38,000 284 433 0
2022-05-21 19:23:28 GMT 54.236023 -8.381156 38,000 284 433 0
2022-05-21 19:23:26 GMT 54.234383 -8.369966 38,000 285 433 0
2022-05-21 19:23:22 GMT 54.232891 -8.359626 38,000 285 433 0
2022-05-21 19:23:19 GMT 54.231495 -8.350013 38,000 285 433 0
2022-05-21 19:23:17 GMT 54.230576 -8.343724 38,000 285 433 0
2022-05-21 19:23:13 GMT 54.228333 -8.328500 38,000 285 433 0
2022-05-21 19:23:11 GMT 54.227692 -8.323870 38,000 285 433 0
2022-05-21 19:23:09 GMT 54.226608 -8.316570 38,000 285 433 0
2022-05-21 19:23:05 GMT 54.224510 -8.302352 38,000 285 432 0
2022-05-21 19:23:02 GMT 54.221832 -8.283848 38,000 285 433 0
2022-05-21 19:22:59 GMT 54.221832 -8.283848 38,000 285 432 0
2022-05-21 19:22:57 GMT 54.220779 -8.276864 38,000 285 433 0
2022-05-21 19:22:55 GMT 54.219532 -8.268262 38,000 285 434 0
2022-05-21 19:22:52 GMT 54.217987 -8.257717 38,000 285 433 0
2022-05-21 19:22:49 GMT 54.216042 -8.244431 38,000 285 433 0
2022-05-21 19:22:47 GMT 54.216042 -8.244431 38,000 285 433 0
2022-05-21 19:22:45 GMT 54.214783 -8.235822 38,000 285 434 0
2022-05-21 19:22:42 GMT 54.213245 -8.225205 38,000 285 434 0
2022-05-21 19:22:39 GMT 54.212128 -8.217616 38,000 285 434 0
2022-05-21 19:22:37 GMT 54.210918 -8.209695 38,000 285 434 0
2022-05-21 19:22:34 GMT 54.208916 -8.195801 38,000 285 433 0
2022-05-21 19:22:31 GMT 54.208282 -8.191485 38,000 285 433 0
2022-05-21 19:22:29 GMT 54.207008 -8.182876 38,000 285 432 0
2022-05-21 19:22:25 GMT 54.204849 -8.168335 38,000 285 433 0
2022-05-21 19:22:21 GMT 54.203285 -8.157753 38,000 285 433 0
2022-05-21 19:22:19 GMT 54.202286 -8.150757 38,000 285 433 0
2022-05-21 19:22:16 GMT 54.201141 -8.143145 38,000 285 434 0
2022-05-21 19:22:14 GMT 54.199886 -8.134568 38,000 285 434 0
2022-05-21 19:22:11 GMT 54.197281 -8.117039 38,000 285 433 -64
2022-05-21 19:22:09 GMT 54.197281 -8.117039 38,000 285 433 -64
2022-05-21 19:22:07 GMT 54.196255 -8.110091 38,000 285 433 -64
2022-05-21 19:22:04 GMT 54.195045 -8.101852 38,000 285 433 -64
2022-05-21 19:22:02 GMT 54.194065 -8.095227 38,000 285 433 -64
2022-05-21 19:21:59 GMT 54.192669 -8.085614 38,000 285 433 0
2022-05-21 19:21:57 GMT 54.191391 -8.076991 38,000 285 433 0
2022-05-21 19:21:54 GMT 54.190201 -8.069066 38,000 285 433 0
2022-05-21 19:21:51 GMT 54.188622 -8.058552 38,000 285 433 0
2022-05-21 19:21:49 GMT 54.187592 -8.051644 38,000 285 433 0
2022-05-21 19:21:47 GMT 54.186493 -8.044033 38,000 285 433 0
2022-05-21 19:21:44 GMT 54.184196 -8.028502 38,000 285 433 0
2022-05-21 19:21:42 GMT 54.184196 -8.028502 38,000 285 433 0
2022-05-21 19:21:39 GMT 54.182739 -8.018921 38,000 285 433 0
2022-05-21 19:21:37 GMT 54.180054 -8.000793 38,000 285 433 0
2022-05-21 19:21:34 GMT 54.178574 -7.990906 38,000 285 433 0
2022-05-21 19:21:31 GMT 54.178574 -7.990906 38,000 285 433 0
2022-05-21 19:21:29 GMT 54.177681 -7.984960 38,000 285 433 0
2022-05-21 19:21:26 GMT 54.176472 -7.976720 38,000 285 433 0
2022-05-21 19:21:23 GMT 54.174225 -7.961478 38,000 285 433 0
2022-05-21 19:21:19 GMT 54.172577 -7.950649 38,000 285 432 0
2022-05-21 19:21:16 GMT 54.171631 -7.944004 38,000 285 432 0
2022-05-21 19:21:14 GMT 54.170605 -7.937461 38,000 285 433 0
2022-05-21 19:21:11 GMT 54.168732 -7.924909 38,000 285 432 0
2022-05-21 19:21:09 GMT 54.167999 -7.919931 38,000 285 432 0
2022-05-21 19:21:07 GMT 54.166901 -7.912746 38,000 285 432 0
2022-05-21 19:21:04 GMT 54.165482 -7.903172 38,000 285 432 0
2022-05-21 19:21:02 GMT 54.164040 -7.893596 38,000 285 432 0
2022-05-21 19:20:59 GMT 54.161991 -7.879782 38,000 285 432 0
2022-05-21 19:20:57 GMT 54.161991 -7.879782 38,000 285 432 0
2022-05-21 19:20:55 GMT 54.160904 -7.872489 38,000 285 432 0
2022-05-21 19:20:52 GMT 54.159393 -7.862601 38,000 285 432 0
2022-05-21 19:20:49 GMT 54.157974 -7.853106 38,000 285 432 0
2022-05-21 19:20:47 GMT 54.156876 -7.845808 38,000 285 433 0
2022-05-21 19:20:44 GMT 54.155640 -7.837568 38,000 285 432 0
2022-05-21 19:20:42 GMT 54.154495 -7.829956 38,000 285 433 0
2022-05-21 19:20:39 GMT 54.152821 -7.818792 38,000 285 433 0
2022-05-21 19:20:36 GMT 54.151379 -7.809179 38,000 285 433 -64
2022-05-21 19:20:34 GMT 54.150650 -7.804217 38,000 285 433 0
2022-05-21 19:20:31 GMT 54.148911 -7.792681 38,000 285 433 0
2022-05-21 19:20:28 GMT 54.147701 -7.784783 38,000 285 433 0
2022-05-21 19:20:26 GMT 54.146538 -7.776866 38,000 285 433 0
2022-05-21 19:20:24 GMT 54.145706 -7.771572 38,000 285 433 0
2022-05-21 19:20:22 GMT 54.144150 -7.761370 38,000 285 433 0
2022-05-21 19:20:19 GMT 54.142960 -7.753444 38,000 285 433 0
2022-05-21 19:20:17 GMT 54.142067 -7.747542 38,000 285 433 0
2022-05-21 19:20:14 GMT 54.140625 -7.737985 38,000 285 432 0
2022-05-21 19:20:12 GMT 54.139416 -7.730094 38,000 285 432 0
2022-05-21 19:20:09 GMT 54.137878 -7.719834 38,000 285 432 0
2022-05-21 19:20:07 GMT 54.136902 -7.713614 38,000 285 432 0
2022-05-21 19:20:04 GMT 54.135498 -7.704006 38,000 285 432 0
2022-05-21 19:20:01 GMT 54.134155 -7.695438 38,000 285 432 0
2022-05-21 19:19:58 GMT 54.132710 -7.685906 38,000 285 432 0
2022-05-21 19:19:56 GMT 54.131516 -7.678031 38,000 285 432 0
2022-05-21 19:19:54 GMT 54.130554 -7.671439 38,000 285 432 0
2022-05-21 19:19:52 GMT 54.128036 -7.655038 38,000 285 432 0
2022-05-21 19:19:49 GMT 54.128036 -7.655038 38,000 285 431 0
2022-05-21 19:19:47 GMT 54.126663 -7.645778 38,000 285 431 -64
2022-05-21 19:19:44 GMT 54.125610 -7.638951 38,000 285 431 -64
2022-05-21 19:19:41 GMT 54.124054 -7.628749 38,000 285 431 0
2022-05-21 19:19:39 GMT 54.121960 -7.614979 38,000 285 431 0
2022-05-21 19:19:37 GMT 54.121960 -7.614979 38,000 285 431 0
2022-05-21 19:19:34 GMT 54.120026 -7.602539 38,000 285 431 0
2022-05-21 19:19:31 GMT 54.119026 -7.595996 38,000 285 431 0
2022-05-21 19:19:28 GMT 54.117737 -7.587472 38,000 285 430 0
2022-05-21 19:19:26 GMT 54.116730 -7.580880 38,000 285 430 0
2022-05-21 19:19:24 GMT 54.115253 -7.571115 38,000 285 431 0
2022-05-21 19:19:21 GMT 54.113857 -7.562229 38,000 285 431 0
2022-05-21 19:19:18 GMT 54.110924 -7.542922 38,000 285 431 0
2022-05-21 19:19:15 GMT 54.110924 -7.542922 38,000 285 431 0
2022-05-21 19:19:11 GMT 54.109016 -7.530482 38,000 285 431 0
2022-05-21 19:19:08 GMT 54.107483 -7.520612 38,000 285 431 0
2022-05-21 19:19:05 GMT 54.105991 -7.510771 38,000 285 431 0
2022-05-21 19:19:02 GMT 54.104599 -7.501936 38,000 285 431 64
2022-05-21 19:18:59 GMT 54.103012 -7.491464 38,000 285 432 0
2022-05-21 19:18:57 GMT 54.102264 -7.486536 38,000 285 432 0
2022-05-21 19:18:55 GMT 54.100754 -7.476667 38,000 285 432 0
2022-05-21 19:18:51 GMT 54.098785 -7.463797 38,000 285 434 0
2022-05-21 19:18:48 GMT 54.097229 -7.453596 38,000 285 434 0
2022-05-21 19:18:45 GMT 54.095444 -7.442374 38,000 285 434 0
2022-05-21 19:18:42 GMT 54.094353 -7.435159 38,000 285 434 0
2022-05-21 19:18:38 GMT 54.091141 -7.414359 38,000 285 434 0
2022-05-21 19:18:35 GMT 54.089676 -7.404785 38,000 285 434 0
2022-05-21 19:18:33 GMT 54.089676 -7.404785 38,000 285 434 0
2022-05-21 19:18:30 GMT 54.088161 -7.394849 38,000 285 435 0
2022-05-21 19:18:28 GMT 54.087231 -7.388952 38,000 285 435 0
2022-05-21 19:18:25 GMT 54.085926 -7.380631 38,000 285 435 0
2022-05-21 19:18:22 GMT 54.084412 -7.370728 38,000 285 435 0
2022-05-21 19:18:20 GMT 54.081985 -7.355268 38,000 285 435 -64
2022-05-21 19:18:18 GMT 54.081985 -7.355268 38,000 285 435 -64
2022-05-21 19:18:14 GMT 54.079010 -7.336121 38,000 285 434 0
2022-05-21 19:18:12 GMT 54.079010 -7.336121 38,000 285 434 0
2022-05-21 19:18:09 GMT 54.077316 -7.325213 38,000 285 434 0
2022-05-21 19:18:07 GMT 54.076847 -7.322307 38,000 285 434 0
2022-05-21 19:18:05 GMT 54.073654 -7.301514 38,000 285 433 0
2022-05-21 19:18:02 GMT 54.073654 -7.301514 38,000 285 433 0
2022-05-21 19:17:59 GMT 54.072239 -7.292660 38,000 285 433 0
2022-05-21 19:17:55 GMT 54.070312 -7.280169 38,000 285 433 0
2022-05-21 19:17:52 GMT 54.068562 -7.268991 38,000 285 433 0
2022-05-21 19:17:49 GMT 54.066559 -7.255920 38,000 285 432 0
2022-05-21 19:17:47 GMT 54.065277 -7.247681 38,000 285 432 64
2022-05-21 19:17:45 GMT 54.065277 -7.247681 38,000 285 432 64
2022-05-21 19:17:42 GMT 54.063583 -7.236851 38,000 285 432 64
2022-05-21 19:17:39 GMT 54.061996 -7.226742 38,000 285 432 0
2022-05-21 19:17:37 GMT 54.061386 -7.222804 38,000 285 432 0
2022-05-21 19:17:35 GMT 54.060104 -7.214565 38,000 285 432 0
2022-05-21 19:17:32 GMT 54.058502 -7.204442 38,000 285 432 -64
2022-05-21 19:17:30 GMT 54.056396 -7.191023 38,000 285 432 0
2022-05-21 19:17:28 GMT 54.056396 -7.191023 38,000 285 432 -64
2022-05-21 19:17:25 GMT 54.053341 -7.171326 38,000 285 432 0
2022-05-21 19:17:22 GMT 54.053341 -7.171326 38,000 285 431 0
2022-05-21 19:17:20 GMT 54.052322 -7.164812 38,000 285 431 0
2022-05-21 19:17:18 GMT 54.051292 -7.158239 38,000 285 431 0
2022-05-21 19:17:16 GMT 54.050499 -7.153069 38,000 285 431 0
2022-05-21 19:17:13 GMT 54.048592 -7.140952 38,000 285 430 0
2022-05-21 19:17:10 GMT 54.047241 -7.132481 38,000 285 430 0
2022-05-21 19:17:08 GMT 54.045273 -7.119768 38,000 285 430 0
2022-05-21 19:17:06 GMT 54.045273 -7.119768 38,000 285 430 0
2022-05-21 19:17:04 GMT 54.044449 -7.114511 38,000 285 429 0
2022-05-21 19:17:01 GMT 54.042168 -7.099915 38,000 285 429 0
2022-05-21 19:16:58 GMT 54.041061 -7.093087 38,000 285 429 0
2022-05-21 19:16:56 GMT 54.040100 -7.086888 38,000 285 429 0
2022-05-21 19:16:54 GMT 54.039276 -7.081709 38,000 286 429 0
2022-05-21 19:16:51 GMT 54.037746 -7.071964 38,000 286 429 0
2022-05-21 19:16:49 GMT 54.034882 -7.054086 38,000 286 429 0
2022-05-21 19:16:47 GMT 54.034882 -7.054086 38,000 286 429 0
2022-05-21 19:16:44 GMT 54.034206 -7.049830 38,000 286 429 0
2022-05-21 19:16:41 GMT 54.032436 -7.038440 38,000 285 429 0
2022-05-21 19:16:38 GMT 54.030670 -7.027405 38,000 286 429 0
2022-05-21 19:16:36 GMT 54.029800 -7.021912 38,000 286 429 0
2022-05-21 19:16:34 GMT 54.029037 -7.017032 38,000 286 428 0
2022-05-21 19:16:31 GMT 54.027054 -7.004647 38,000 286 428 0
2022-05-21 19:16:29 GMT 54.026058 -6.998210 38,000 285 429 0
2022-05-21 19:16:27 GMT 54.025269 -6.993347 38,000 286 428 0
2022-05-21 19:16:24 GMT 54.023666 -6.983224 38,000 286 429 0
2022-05-21 19:16:20 GMT 54.021881 -6.971845 38,000 286 428 0
2022-05-21 19:16:18 GMT 54.020599 -6.963763 38,000 286 428 0
2022-05-21 19:16:14 GMT 54.018517 -6.950791 38,000 286 429 0
2022-05-21 19:16:10 GMT 54.015820 -6.933908 38,000 286 429 0
2022-05-21 19:16:07 GMT 54.014832 -6.927743 38,000 286 430 0
2022-05-21 19:16:05 GMT 54.012177 -6.911107 38,000 286 430 0
2022-05-21 19:16:02 GMT 54.012177 -6.911107 38,000 286 429 0
2022-05-21 19:15:59 GMT 54.011070 -6.904019 38,000 286 429 0
2022-05-21 19:15:57 GMT 54.009888 -6.896824 38,000 286 429 0
2022-05-21 19:15:55 GMT 54.007114 -6.879299 38,000 286 429 0
2022-05-21 19:15:52 GMT 54.007114 -6.879299 38,000 286 429 0
2022-05-21 19:15:50 GMT 54.005768 -6.870850 38,000 286 429 0
2022-05-21 19:15:47 GMT 54.003204 -6.854580 38,000 286 430 0
2022-05-21 19:15:45 GMT 54.003204 -6.854580 38,000 286 430 0
2022-05-21 19:15:42 GMT 54.001923 -6.846758 38,000 286 430 0
2022-05-21 19:15:40 GMT 54.000824 -6.839931 38,000 286 430 0
2022-05-21 19:15:38 GMT 53.999851 -6.833819 38,000 286 430 0
2022-05-21 19:15:35 GMT 53.997803 -6.820783 38,000 286 430 0
2022-05-21 19:15:32 GMT 53.996639 -6.813624 38,000 286 430 0
2022-05-21 19:15:29 GMT 53.995289 -6.805142 38,000 286 430 0
2022-05-21 19:15:27 GMT 53.994499 -6.800295 38,000 286 430 0
2022-05-21 19:15:25 GMT 53.992916 -6.790197 38,000 286 430 0
2022-05-21 19:15:22 GMT 53.991333 -6.780503 38,000 286 430 0
2022-05-21 19:15:20 GMT 53.990479 -6.775269 38,000 286 430 0
2022-05-21 19:15:17 GMT 53.988876 -6.765224 38,000 286 430 0
2022-05-21 19:15:14 GMT 53.988052 -6.760045 38,000 286 430 0
2022-05-21 19:15:12 GMT 53.986771 -6.751883 38,000 286 430 0
2022-05-21 19:15:09 GMT 53.984955 -6.740839 38,000 286 430 0
2022-05-21 19:15:07 GMT 53.983978 -6.734619 38,000 286 430 0
2022-05-21 19:15:05 GMT 53.982880 -6.727792 38,000 286 431 0
2022-05-21 19:15:03 GMT 53.981552 -6.719709 38,000 286 431 0
2022-05-21 19:15:00 GMT 53.979950 -6.709586 38,000 286 431 0
2022-05-21 19:14:57 GMT 53.978256 -6.699227 38,000 286 431 0
2022-05-21 19:14:54 GMT 53.976994 -6.691401 38,000 286 431 0
2022-05-21 19:14:51 GMT 53.974434 -6.675487 38,000 286 431 0
2022-05-21 19:14:49 GMT 53.974434 -6.675487 38,000 286 431 0
2022-05-21 19:14:47 GMT 53.973358 -6.668937 38,000 286 431 0
2022-05-21 19:14:45 GMT 53.972385 -6.662723 38,000 286 431 0
2022-05-21 19:14:42 GMT 53.970757 -6.652706 38,000 286 431 0
2022-05-21 19:14:38 GMT 53.968056 -6.636065 38,000 286 431 0
2022-05-21 19:14:35 GMT 53.965496 -6.620151 38,000 286 431 -64
2022-05-21 19:14:32 GMT 53.965496 -6.620151 38,000 286 430 0
2022-05-21 19:14:29 GMT 53.963959 -6.610700 38,000 286 430 0
2022-05-21 19:14:27 GMT 53.962692 -6.602940 38,000 286 430 0
2022-05-21 19:14:25 GMT 53.961456 -6.595485 38,000 286 430 0
2022-05-21 19:14:22 GMT 53.959908 -6.585738 38,000 286 430 0
2022-05-21 19:14:19 GMT 53.958481 -6.576965 38,000 286 430 0
2022-05-21 19:14:17 GMT 53.957382 -6.570138 38,000 286 430 0
2022-05-21 19:14:15 GMT 53.956371 -6.564008 38,000 286 430 64
2022-05-21 19:14:12 GMT 53.954788 -6.554233 38,000 286 430 64
2022-05-21 19:14:09 GMT 53.953300 -6.545186 38,000 286 430 64
2022-05-21 19:14:07 GMT 53.951950 -6.537108 38,000 286 430 0
2022-05-21 19:14:05 GMT 53.951111 -6.531857 38,000 286 430 0
2022-05-21 19:14:02 GMT 53.949554 -6.522191 38,000 286 430 0
2022-05-21 19:13:59 GMT 53.947998 -6.512774 38,000 286 430 0
2022-05-21 19:13:56 GMT 53.946167 -6.501395 38,000 286 430 0
2022-05-21 19:13:53 GMT 53.945114 -6.494882 38,000 286 430 0
2022-05-21 19:13:51 GMT 53.942047 -6.476127 38,000 286 430 0
2022-05-21 19:13:48 GMT 53.940964 -6.469655 38,000 286 430 0
2022-05-21 19:13:46 GMT 53.940964 -6.469655 38,000 286 430 0
2022-05-21 19:13:43 GMT 53.939621 -6.461530 38,000 286 430 0
2022-05-21 19:13:40 GMT 53.937656 -6.449540 38,000 286 430 0
2022-05-21 19:13:37 GMT 53.936142 -6.440107 38,000 286 430 0
2022-05-21 19:13:35 GMT 53.935318 -6.435242 38,000 286 430 0
2022-05-21 19:13:33 GMT 53.934082 -6.427473 38,000 286 430 0
2022-05-21 19:13:30 GMT 53.932350 -6.417147 38,000 286 430 0
2022-05-21 19:13:27 GMT 53.929871 -6.401890 38,000 286 430 0
2022-05-21 19:13:25 GMT 53.929871 -6.401890 38,000 286 430 0
2022-05-21 19:13:22 GMT 53.928116 -6.391216 38,000 286 430 0
2022-05-21 19:13:19 GMT 53.926666 -6.382115 38,000 286 430 0
2022-05-21 19:13:17 GMT 53.925476 -6.374974 38,000 286 430 0
2022-05-21 19:13:15 GMT 53.924698 -6.370108 38,000 286 430 64
2022-05-21 19:13:12 GMT 53.921364 -6.350017 38,000 286 431 64
2022-05-21 19:13:09 GMT 53.921364 -6.350017 38,000 286 430 64
2022-05-21 19:13:06 GMT 53.920155 -6.342504 38,000 286 431 64
2022-05-21 19:13:04 GMT 53.919067 -6.336051 38,000 286 431 64
2022-05-21 19:13:02 GMT 53.917732 -6.327883 38,000 286 431 0
2022-05-21 19:12:59 GMT 53.915863 -6.316511 38,000 286 433 0
2022-05-21 19:12:57 GMT 53.915173 -6.312292 38,000 286 433 0
2022-05-21 19:12:55 GMT 53.913589 -6.302840 38,000 286 433 0
2022-05-21 19:12:52 GMT 53.912239 -6.294681 38,000 286 433 0
2022-05-21 19:12:49 GMT 53.910656 -6.285230 38,000 286 433 0
2022-05-21 19:12:47 GMT 53.909538 -6.278444 38,000 286 433 0
2022-05-21 19:12:45 GMT 53.908470 -6.271901 38,000 286 433 0
2022-05-21 19:12:43 GMT 53.907490 -6.266004 38,000 286 433 0
2022-05-21 19:12:40 GMT 53.905975 -6.256871 38,000 286 433 0
2022-05-21 19:12:38 GMT 53.904648 -6.248788 38,000 286 433 0
2022-05-21 19:12:35 GMT 53.902466 -6.235711 38,000 286 432 0
2022-05-21 19:12:32 GMT 53.901306 -6.228542 38,000 286 432 0
2022-05-21 19:12:29 GMT 53.899670 -6.218827 38,000 286 432 0
2022-05-21 19:12:27 GMT 53.898880 -6.213946 38,000 286 432 0
2022-05-21 19:12:25 GMT 53.897671 -6.206791 38,000 286 432 0
2022-05-21 19:12:23 GMT 53.895992 -6.196693 38,000 286 432 0
2022-05-21 19:12:20 GMT 53.895081 -6.191188 38,000 286 432 0
2022-05-21 19:12:17 GMT 53.893387 -6.180779 38,000 286 432 0
2022-05-21 19:12:15 GMT 53.892059 -6.172982 38,000 286 432 0
2022-05-21 19:12:12 GMT 53.890274 -6.162231 38,000 286 432 0
2022-05-21 19:12:09 GMT 53.887527 -6.145673 38,000 286 433 0
2022-05-21 19:12:06 GMT 53.887527 -6.145673 38,000 286 433 0
2022-05-21 19:12:03 GMT 53.883911 -6.124172 38,000 286 433 0
2022-05-21 19:12:00 GMT 53.883911 -6.124172 38,000 286 433 -64
2022-05-21 19:11:57 GMT 53.882584 -6.116089 38,000 286 433 0
2022-05-21 19:11:55 GMT 53.881237 -6.107914 38,000 286 432 0
2022-05-21 19:11:52 GMT 53.879841 -6.099755 38,000 286 432 64
2022-05-21 19:11:49 GMT 53.878395 -6.091030 38,000 286 432 64
2022-05-21 19:11:47 GMT 53.877090 -6.083208 38,000 286 432 64
2022-05-21 19:11:45 GMT 53.875977 -6.076409 38,000 286 432 0
2022-05-21 19:11:42 GMT 53.874252 -6.066311 38,000 286 432 0
2022-05-21 19:11:39 GMT 53.872330 -6.054644 38,000 286 431 0
2022-05-21 19:11:36 GMT 53.870251 -6.042319 38,000 286 431 0
2022-05-21 19:11:34 GMT 53.870251 -6.042319 38,000 286 431 0
2022-05-21 19:11:32 GMT 53.868992 -6.034887 38,000 286 431 0
2022-05-21 19:11:29 GMT 53.867432 -6.025530 38,000 286 431 0
2022-05-21 19:11:26 GMT 53.865780 -6.015822 38,000 286 431 0
2022-05-21 19:11:24 GMT 53.864525 -6.008391 38,000 286 430 0
2022-05-21 19:11:21 GMT 53.863174 -6.000312 38,000 286 430 0
2022-05-21 19:11:18 GMT 53.861572 -5.990609 38,000 286 430 0
2022-05-21 19:11:16 GMT 53.860245 -5.982840 38,000 286 430 0
2022-05-21 19:11:14 GMT 53.858845 -5.974462 38,000 286 429 0
2022-05-21 19:11:11 GMT 53.856216 -5.958984 38,000 286 429 0
2022-05-21 19:11:08 GMT 53.856216 -5.958984 38,000 286 429 0
2022-05-21 19:11:06 GMT 53.854889 -5.950902 38,000 286 429 0
2022-05-21 19:11:03 GMT 53.853058 -5.940229 38,000 286 429 0
2022-05-21 19:11:01 GMT 53.851959 -5.933480 38,000 286 429 0
2022-05-21 19:10:58 GMT 53.850883 -5.927366 38,000 286 429 0
2022-05-21 19:10:56 GMT 53.849396 -5.918335 38,000 286 429 0
2022-05-21 19:10:53 GMT 53.847767 -5.908706 38,000 286 429 0
2022-05-21 19:10:51 GMT 53.846741 -5.902562 38,000 286 429 0
2022-05-21 19:10:48 GMT 53.845139 -5.893223 38,000 286 429 0
2022-05-21 19:10:46 GMT 53.843948 -5.886168 38,000 286 429 0
2022-05-21 19:10:44 GMT 53.843204 -5.881644 38,000 286 429 0
2022-05-21 19:10:42 GMT 53.841854 -5.873646 38,000 287 429 0
2022-05-21 19:10:39 GMT 53.840240 -5.864267 38,000 287 429 0
2022-05-21 19:10:36 GMT 53.838314 -5.853047 38,000 286 429 0
2022-05-21 19:10:34 GMT 53.837494 -5.848179 38,000 286 429 0
2022-05-21 19:10:31 GMT 53.835388 -5.835624 38,000 287 423 0
2022-05-21 19:10:28 GMT 53.834450 -5.830105 38,000 287 430 0
2022-05-21 19:10:26 GMT 53.833054 -5.821734 38,000 287 430 0
2022-05-21 19:10:24 GMT 53.832169 -5.816534 38,000 287 430 0
2022-05-21 19:10:22 GMT 53.830811 -5.808550 38,000 287 430 0
2022-05-21 19:10:19 GMT 53.829052 -5.798196 38,000 287 431 0
2022-05-21 19:10:16 GMT 53.827980 -5.792057 38,000 287 431 0
2022-05-21 19:10:14 GMT 53.826599 -5.783909 38,000 287 431 0
2022-05-21 19:10:11 GMT 53.824814 -5.773237 38,000 287 432 0
2022-05-21 19:10:08 GMT 53.823372 -5.764833 38,000 287 432 0
2022-05-21 19:10:06 GMT 53.821789 -5.755463 38,000 287 432 64
2022-05-21 19:10:04 GMT 53.821232 -5.752151 38,000 286 433 64
2022-05-21 19:10:02 GMT 53.817947 -5.732980 38,000 286 433 0
2022-05-21 19:09:59 GMT 53.817947 -5.732980 38,000 286 433 0
2022-05-21 19:09:57 GMT 53.817135 -5.728158 38,000 287 433 0
2022-05-21 19:09:55 GMT 53.816200 -5.722584 38,000 287 433 -64
2022-05-21 19:09:53 GMT 53.813416 -5.706299 38,000 287 434 0
2022-05-21 19:09:51 GMT 53.813416 -5.706299 38,000 287 435 0
2022-05-21 19:09:48 GMT 53.812271 -5.699472 38,000 287 435 0
2022-05-21 19:09:46 GMT 53.811222 -5.693261 38,000 287 435 0
2022-05-21 19:09:44 GMT 53.809891 -5.685503 38,000 287 422 0
2022-05-21 19:09:41 GMT 53.808289 -5.676322 38,000 287 435 0
2022-05-21 19:09:38 GMT 53.806194 -5.663937 38,000 287 435 0
2022-05-21 19:09:36 GMT 53.805267 -5.658744 38,000 287 435 0
2022-05-21 19:09:34 GMT 53.804489 -5.654192 38,000 287 435 0
2022-05-21 19:09:30 GMT 53.802006 -5.639541 38,000 287 434 0
2022-05-21 19:09:27 GMT 53.800377 -5.630170 38,000 287 434 0
2022-05-21 19:09:25 GMT 53.799545 -5.625235 38,000 287 434 0
2022-05-21 19:09:23 GMT 53.798264 -5.617780 38,000 287 434 0
2022-05-21 19:09:20 GMT 53.796066 -5.605068 38,000 287 434 0
2022-05-21 19:09:17 GMT 53.794693 -5.596985 38,000 287 433 0
2022-05-21 19:09:15 GMT 53.793915 -5.592433 38,000 287 434 0
2022-05-21 19:09:13 GMT 53.792770 -5.585920 38,000 287 433 0
2022-05-21 19:09:11 GMT 53.791435 -5.578147 38,000 287 433 0
2022-05-21 19:09:08 GMT 53.789017 -5.563869 38,000 287 432 0
2022-05-21 19:09:04 GMT 53.787506 -5.555158 38,000 287 432 0
2022-05-21 19:09:02 GMT 53.785217 -5.541896 38,000 287 431 -64
2022-05-21 19:09:00 GMT 53.785217 -5.541896 38,000 287 432 0
2022-05-21 19:08:57 GMT 53.782684 -5.527012 38,000 287 431 -64
2022-05-21 19:08:55 GMT 53.782684 -5.527012 38,000 287 431 -64
2022-05-21 19:08:52 GMT 53.781288 -5.518933 38,000 287 430 0
2022-05-21 19:08:50 GMT 53.779404 -5.507996 38,000 287 430 0
2022-05-21 19:08:47 GMT 53.778168 -5.500919 38,000 287 429 0
2022-05-21 19:08:43 GMT 53.775970 -5.488063 38,000 287 429 -64
2022-05-21 19:08:40 GMT 53.773682 -5.474958 38,000 287 428 0
2022-05-21 19:08:37 GMT 53.772675 -5.469151 38,000 287 428 0
2022-05-21 19:08:35 GMT 53.771301 -5.461147 38,000 287 427 0
2022-05-21 19:08:32 GMT 53.770157 -5.454476 38,000 287 427 0
2022-05-21 19:08:30 GMT 53.768673 -5.446149 38,000 287 427 0
2022-05-21 19:08:27 GMT 53.766903 -5.435890 38,000 287 427 0
2022-05-21 19:08:25 GMT 53.764847 -5.423793 38,000 287 426 -64
2022-05-21 19:08:23 GMT 53.764847 -5.423793 38,000 287 427 0
2022-05-21 19:08:20 GMT 53.763107 -5.413906 38,000 287 427 0
2022-05-21 19:08:17 GMT 53.761368 -5.404018 38,000 287 427 0
2022-05-21 19:08:15 GMT 53.759308 -5.392168 38,000 287 427 0
2022-05-21 19:08:13 GMT 53.759308 -5.392168 38,000 287 427 0
2022-05-21 19:08:10 GMT 53.757687 -5.382655 38,000 287 426 64
2022-05-21 19:08:07 GMT 53.755730 -5.371507 38,000 287 426 64
2022-05-21 19:08:06 GMT 53.755234 -5.368626 38,000 287 426 0
2022-05-21 19:08:04 GMT 53.753311 -5.357483 38,000 287 426 0
2022-05-21 19:08:00 GMT 53.752052 -5.350503 38,000 287 426 0
2022-05-21 19:07:57 GMT 53.750427 -5.340925 38,000 287 425 0
2022-05-21 19:07:55 GMT 53.749283 -5.334569 38,000 287 425 0
2022-05-21 19:07:53 GMT 53.748192 -5.328208 38,000 287 425 0
2022-05-21 19:07:50 GMT 53.746216 -5.316833 38,000 287 425 0
2022-05-21 19:07:47 GMT 53.744797 -5.308829 38,000 287 424 0
2022-05-21 19:07:45 GMT 53.742512 -5.295572 38,000 287 424 0
2022-05-21 19:07:43 GMT 53.742512 -5.295572 38,000 287 424 0
2022-05-21 19:07:40 GMT 53.741020 -5.287009 38,000 287 423 0
2022-05-21 19:07:37 GMT 53.739113 -5.276265 38,000 287 423 0
2022-05-21 19:07:35 GMT 53.738274 -5.271499 38,000 287 423 64
2022-05-21 19:07:33 GMT 53.737015 -5.264256 38,000 287 423 64
2022-05-21 19:07:30 GMT 53.735390 -5.254777 38,000 287 422 64
2022-05-21 19:07:27 GMT 53.733757 -5.245649 38,000 287 422 64
2022-05-21 19:07:25 GMT 53.732407 -5.238055 38,000 287 422 0
2022-05-21 19:07:22 GMT 53.731152 -5.230785 38,000 287 422 -64
2022-05-21 19:07:20 GMT 53.729801 -5.222949 38,000 287 422 -64
2022-05-21 19:07:17 GMT 53.727997 -5.212856 38,000 287 422 0
2022-05-21 19:07:15 GMT 53.727196 -5.208085 38,000 287 422 0
2022-05-21 19:07:13 GMT 53.726032 -5.201542 38,000 287 422 0
2022-05-21 19:07:10 GMT 53.723049 -5.184820 38,000 287 421 0
2022-05-21 19:07:07 GMT 53.723049 -5.184820 38,000 287 421 0
2022-05-21 19:07:05 GMT 53.721561 -5.176338 38,000 287 421 0
2022-05-21 19:07:02 GMT 53.720169 -5.168440 38,000 287 421 0
2022-05-21 19:07:00 GMT 53.718861 -5.160908 38,000 287 421 0
2022-05-21 19:06:57 GMT 53.717422 -5.152745 38,000 287 421 0
2022-05-21 19:06:55 GMT 53.716049 -5.145211 38,000 287 421 0
2022-05-21 19:06:53 GMT 53.714813 -5.137992 38,000 287 421 0
2022-05-21 19:06:50 GMT 53.713135 -5.128596 38,000 287 421 0
2022-05-21 19:06:47 GMT 53.711746 -5.120728 38,000 287 421 0
2022-05-21 19:06:45 GMT 53.710373 -5.112880 38,000 287 421 -64
2022-05-21 19:06:43 GMT 53.709270 -5.106623 38,000 287 421 0
2022-05-21 19:06:41 GMT 53.708714 -5.103473 38,000 287 421 0
2022-05-21 19:06:38 GMT 53.706528 -5.090908 38,000 287 421 0
2022-05-21 19:06:35 GMT 53.704849 -5.081500 38,000 287 421 0
2022-05-21 19:06:33 GMT 53.703735 -5.075213 38,000 287 421 0
2022-05-21 19:06:30 GMT 53.701950 -5.065168 38,000 287 421 0
2022-05-21 19:06:27 GMT 53.700661 -5.057588 38,000 287 421 0
2022-05-21 19:06:25 GMT 53.699295 -5.050101 38,000 287 421 0
2022-05-21 19:06:23 GMT 53.698059 -5.043195 38,000 287 421 0
2022-05-21 19:06:20 GMT 53.696594 -5.034720 38,000 287 421 0
2022-05-21 19:06:17 GMT 53.695175 -5.026794 38,000 287 421 0
2022-05-21 19:06:15 GMT 53.693619 -5.018005 38,000 287 422 0
2022-05-21 19:06:12 GMT 53.692513 -5.011704 38,000 287 422 0
2022-05-21 19:06:10 GMT 53.690975 -5.003222 38,000 287 422 0
2022-05-21 19:06:07 GMT 53.689579 -4.995386 38,000 287 422 0
2022-05-21 19:06:05 GMT 53.687851 -4.985596 38,000 287 422 0
2022-05-21 19:06:02 GMT 53.685997 -4.975272 38,000 287 422 0
2022-05-21 19:05:59 GMT 53.685150 -4.970529 38,000 287 423 0
2022-05-21 19:05:56 GMT 53.683250 -4.959762 38,000 287 423 0
2022-05-21 19:05:54 GMT 53.682037 -4.953218 38,000 287 424 0
2022-05-21 19:05:51 GMT 53.680363 -4.943686 38,000 287 424 0
2022-05-21 19:05:48 GMT 53.678329 -4.932390 38,000 287 424 0
2022-05-21 19:05:45 GMT 53.675995 -4.919442 38,000 287 424 0
2022-05-21 19:05:43 GMT 53.675995 -4.919442 38,000 287 424 0
2022-05-21 19:05:40 GMT 53.673893 -4.907819 38,000 287 424 0
2022-05-21 19:05:37 GMT 53.672562 -4.900530 38,000 287 424 0
2022-05-21 19:05:35 GMT 53.671101 -4.892309 38,000 287 423 0
2022-05-21 19:05:33 GMT 53.670090 -4.886640 38,000 287 423 0
2022-05-21 19:05:31 GMT 53.669003 -4.880676 38,000 287 423 0
2022-05-21 19:05:27 GMT 53.666958 -4.868963 38,000 287 424 0
2022-05-21 19:05:24 GMT 53.665325 -4.859754 38,000 287 424 0
2022-05-21 19:05:22 GMT 53.662262 -4.842381 38,000 287 424 0
2022-05-21 19:05:19 GMT 53.662262 -4.842381 38,000 287 424 0
2022-05-21 19:05:16 GMT 53.660625 -4.832934 38,000 287 424 0
2022-05-21 19:05:14 GMT 53.660019 -4.829433 38,000 287 423 0
2022-05-21 19:05:12 GMT 53.658279 -4.819702 38,000 287 423 0
2022-05-21 19:05:10 GMT 53.657085 -4.812739 38,000 287 423 0
2022-05-21 19:05:07 GMT 53.655716 -4.805185 38,000 287 423 0
2022-05-21 19:05:04 GMT 53.654297 -4.796945 38,000 287 423 0
2022-05-21 19:05:02 GMT 53.652760 -4.788100 38,000 287 423 0
2022-05-21 19:05:00 GMT 53.652054 -4.783997 38,000 287 423 0
2022-05-21 19:04:57 GMT 53.650085 -4.773010 38,000 287 423 0
2022-05-21 19:04:54 GMT 53.647682 -4.759100 38,000 287 423 0
2022-05-21 19:04:52 GMT 53.646053 -4.749971 38,000 287 423 -64
2022-05-21 19:04:50 GMT 53.646053 -4.749971 38,000 287 423 0
2022-05-21 19:04:47 GMT 53.644638 -4.741778 38,000 287 422 0
2022-05-21 19:04:44 GMT 53.643127 -4.733303 38,000 287 422 0
2022-05-21 19:04:42 GMT 53.642239 -4.728241 38,000 287 422 0
2022-05-21 19:04:40 GMT 53.640701 -4.719436 38,000 287 422 0
2022-05-21 19:04:37 GMT 53.638790 -4.708449 38,000 287 421 0
2022-05-21 19:04:34 GMT 53.637543 -4.701599 38,000 287 421 0
2022-05-21 19:04:32 GMT 53.636513 -4.695605 38,000 287 421 64
2022-05-21 19:04:30 GMT 53.633606 -4.678999 38,000 287 421 0
2022-05-21 19:04:27 GMT 53.633606 -4.678999 38,000 287 421 0
2022-05-21 19:04:24 GMT 53.632004 -4.669896 38,000 287 421 0
2022-05-21 19:04:22 GMT 53.631042 -4.664246 38,000 287 420 0
2022-05-21 19:04:20 GMT 53.629948 -4.657961 38,000 287 419 -64
2022-05-21 19:04:17 GMT 53.627747 -4.645490 38,000 287 419 0
2022-05-21 19:04:14 GMT 53.626640 -4.639219 38,000 287 420 0
2022-05-21 19:04:12 GMT 53.625385 -4.632030 38,000 287 419 0
2022-05-21 19:04:10 GMT 53.623901 -4.623596 38,000 287 419 -64
2022-05-21 19:04:07 GMT 53.621986 -4.613046 38,000 287 418 0
2022-05-21 19:04:04 GMT 53.620789 -4.606175 38,000 287 419 64
2022-05-21 19:04:02 GMT 53.620262 -4.603352 38,000 287 418 64
2022-05-21 19:04:00 GMT 53.618591 -4.594012 38,000 288 418 0
2022-05-21 19:03:57 GMT 53.616852 -4.584438 38,000 288 417 0
2022-05-21 19:03:54 GMT 53.615158 -4.575413 38,000 288 417 0
2022-05-21 19:03:52 GMT 53.614197 -4.570234 38,000 288 417 0
2022-05-21 19:03:49 GMT 53.612640 -4.561523 38,000 287 416 0
2022-05-21 19:03:46 GMT 53.611084 -4.552499 38,000 286 415 0
2022-05-21 19:03:44 GMT 53.609985 -4.545986 38,000 286 415 0
2022-05-21 19:03:42 GMT 53.609230 -4.541312 38,000 285 414 0
2022-05-21 19:03:40 GMT 53.606392 -4.522005 38,000 281 410 0
2022-05-21 19:03:37 GMT 53.606392 -4.522005 38,000 283 412 0
2022-05-21 19:03:34 GMT 53.605366 -4.514169 38,000 282 412 0
2022-05-21 19:03:30 GMT 53.602753 -4.490662 38,000 279 408 0
2022-05-21 19:03:27 GMT 53.602753 -4.490662 38,000 280 410 0
2022-05-21 19:03:24 GMT 53.601974 -4.482186 38,000 279 408 0
2022-05-21 19:03:20 GMT 53.600006 -4.458330 38,000 278 407 -128
2022-05-21 19:03:17 GMT 53.600006 -4.458330 38,000 278 407 -128
2022-05-21 19:03:14 GMT 53.599411 -4.451111 38,025 279 408 0
2022-05-21 19:03:12 GMT 53.598339 -4.438638 38,000 278 406 64
2022-05-21 19:03:10 GMT 53.598339 -4.438638 38,000 278 406 128
2022-05-21 19:03:07 GMT 53.597488 -4.427961 38,000 278 406 0
2022-05-21 19:03:04 GMT 53.596481 -4.415484 38,000 278 406 -64
2022-05-21 19:03:02 GMT 53.595730 -4.406406 38,000 278 406 64
2022-05-21 19:03:00 GMT 53.594971 -4.397042 38,000 278 406 0
2022-05-21 19:02:57 GMT 53.594971 -4.397042 38,000 278 406 0
2022-05-21 19:02:54 GMT 53.593781 -4.382054 38,000 278 406 0
2022-05-21 19:02:52 GMT 53.593781 -4.382054 38,000 278 406 0
2022-05-21 19:02:49 GMT 53.592937 -4.371751 38,000 278 406 0
2022-05-21 19:02:46 GMT 53.592472 -4.365773 38,000 278 406 0
2022-05-21 19:02:44 GMT 53.591904 -4.358904 38,000 278 406 0
2022-05-21 19:02:42 GMT 53.591354 -4.352363 38,000 279 406 0
2022-05-21 19:02:39 GMT 53.590576 -4.342974 38,000 279 407 0
2022-05-21 19:02:36 GMT 53.589844 -4.333949 38,000 279 407 -64
2022-05-21 19:02:34 GMT 53.588333 -4.316136 38,000 279 407 0
2022-05-21 19:02:31 GMT 53.588333 -4.316136 38,000 278 406 0
2022-05-21 19:02:28 GMT 53.586777 -4.297695 38,000 279 407 0
2022-05-21 19:02:25 GMT 53.586514 -4.294604 38,000 278 406 0
2022-05-21 19:02:21 GMT 53.585770 -4.285476 38,000 278 405 0
2022-05-21 19:02:18 GMT 53.584900 -4.274937 38,000 278 405 0
2022-05-21 19:02:15 GMT 53.584259 -4.267090 38,000 278 405 0
2022-05-21 19:02:13 GMT 53.583893 -4.262774 38,000 278 405 0
2022-05-21 19:02:11 GMT 53.583252 -4.254926 38,000 279 405 0
2022-05-21 19:02:08 GMT 53.582138 -4.241854 38,000 279 406 0
2022-05-21 19:02:05 GMT 53.581650 -4.235622 38,000 278 405 0
2022-05-21 19:02:03 GMT 53.581192 -4.230600 38,000 278 405 -64
2022-05-21 19:02:01 GMT 53.580414 -4.221335 38,000 279 406 0
2022-05-21 19:01:58 GMT 53.579910 -4.215062 38,000 279 405 0
2022-05-21 19:01:56 GMT 53.578766 -4.201407 38,000 278 404 64
2022-05-21 19:01:54 GMT 53.578766 -4.201407 38,000 278 404 64
2022-05-21 19:01:52 GMT 53.578133 -4.193627 38,000 278 404 0
2022-05-21 19:01:49 GMT 53.577347 -4.184300 38,000 278 404 0
2022-05-21 19:01:46 GMT 53.576878 -4.178682 38,000 278 404 0
2022-05-21 19:01:44 GMT 53.576340 -4.172137 38,000 278 404 0
2022-05-21 19:01:42 GMT 53.575012 -4.155971 38,000 278 404 0
2022-05-21 19:01:40 GMT 53.575012 -4.155971 38,000 278 404 0
2022-05-21 19:01:37 GMT 53.574268 -4.147258 38,000 279 405 0
2022-05-21 19:01:34 GMT 53.573620 -4.139503 38,000 279 405 0
2022-05-21 19:01:32 GMT 53.573154 -4.133929 38,000 279 405 0
2022-05-21 19:01:30 GMT 53.572403 -4.125209 38,000 279 405 0
2022-05-21 19:01:27 GMT 53.571991 -4.120579 38,000 279 405 0
2022-05-21 19:01:25 GMT 53.571167 -4.110927 38,000 279 405 0
2022-05-21 19:01:23 GMT 53.570801 -4.106611 38,000 279 405 0
2022-05-21 19:01:21 GMT 53.570114 -4.098842 38,000 279 405 0
2022-05-21 19:01:18 GMT 53.569103 -4.086995 38,000 279 405 0
2022-05-21 19:01:15 GMT 53.568558 -4.080165 38,000 279 404 0
2022-05-21 19:01:13 GMT 53.568054 -4.074280 38,000 279 404 0
2022-05-21 19:01:11 GMT 53.567474 -4.067769 38,000 279 404 0
2022-05-21 19:01:09 GMT 53.566681 -4.058156 38,000 279 404 0
2022-05-21 19:01:06 GMT 53.566269 -4.053170 38,000 279 404 0
2022-05-21 19:01:04 GMT 53.564819 -4.036183 38,000 279 404 0
2022-05-21 19:01:01 GMT 53.564819 -4.036183 38,000 279 403 0
2022-05-21 19:00:59 GMT 53.563702 -4.022854 38,000 279 403 0
2022-05-21 19:00:56 GMT 53.563702 -4.022854 38,000 279 405 0
2022-05-21 19:00:54 GMT 53.563065 -4.015424 38,000 279 403 0
2022-05-21 19:00:52 GMT 53.561653 -3.999023 38,000 279 403 0
2022-05-21 19:00:49 GMT 53.561653 -3.999023 38,000 279 403 64
2022-05-21 19:00:46 GMT 53.560818 -3.988845 38,000 279 403 0
2022-05-21 19:00:43 GMT 53.560181 -3.981445 38,000 279 404 0
2022-05-21 19:00:41 GMT 53.559559 -3.974304 38,000 279 404 0
2022-05-21 19:00:38 GMT 53.558815 -3.965337 38,000 279 404 0
2022-05-21 19:00:36 GMT 53.557697 -3.952332 38,000 279 404 0
2022-05-21 19:00:34 GMT 53.557697 -3.952332 38,000 279 404 0
2022-05-21 19:00:32 GMT 53.556675 -3.940861 38,000 279 404 0
2022-05-21 19:00:30 GMT 53.556114 -3.934317 38,000 279 405 0
2022-05-21 19:00:28 GMT 53.556114 -3.934317 38,000 279 404 0
2022-05-21 19:00:25 GMT 53.555283 -3.925023 38,000 279 405 0
2022-05-21 19:00:22 GMT 53.553955 -3.909171 38,000 279 405 0
2022-05-21 19:00:19 GMT 53.553680 -3.905797 38,000 279 405 0
2022-05-21 19:00:16 GMT 53.552998 -3.898046 38,000 279 405 64
2022-05-21 19:00:14 GMT 53.552307 -3.889945 38,000 279 405 0
2022-05-21 19:00:11 GMT 53.550854 -3.872842 38,000 279 405 0
2022-05-21 19:00:09 GMT 53.550854 -3.872842 38,000 279 405 0
2022-05-21 19:00:06 GMT 53.550297 -3.866299 38,000 279 405 0
2022-05-21 19:00:03 GMT 53.549503 -3.857332 38,000 279 405 0
2022-05-21 19:00:01 GMT 53.548370 -3.844273 38,000 279 405 0
2022-05-21 18:59:59 GMT 53.548370 -3.844273 38,000 279 405 0
2022-05-21 18:59:56 GMT 53.547688 -3.836167 38,000 279 405 0
2022-05-21 18:59:53 GMT 53.546711 -3.825343 38,000 279 405 0
2022-05-21 18:59:51 GMT 53.546337 -3.820980 38,000 279 405 -64
2022-05-21 18:59:49 GMT 53.545547 -3.811933 38,000 279 405 0
2022-05-21 18:59:46 GMT 53.544891 -3.804487 38,000 279 405 0
2022-05-21 18:59:43 GMT 53.543964 -3.793999 38,000 279 404 0
2022-05-21 18:59:41 GMT 53.543518 -3.789028 38,000 279 404 0
2022-05-21 18:59:39 GMT 53.542786 -3.780945 38,000 279 405 0
2022-05-21 18:59:36 GMT 53.542099 -3.772862 38,000 279 405 0
2022-05-21 18:59:34 GMT 53.541637 -3.767584 38,000 279 404 0
2022-05-21 18:59:32 GMT 53.540955 -3.759521 38,000 279 404 0
2022-05-21 18:59:29 GMT 53.540241 -3.751508 38,000 279 405 0
2022-05-21 18:59:26 GMT 53.539490 -3.742807 38,000 279 405 0
2022-05-21 18:59:23 GMT 53.538803 -3.735038 38,000 279 405 0
2022-05-21 18:59:21 GMT 53.538025 -3.726013 38,000 279 405 0
2022-05-21 18:59:19 GMT 53.537636 -3.721376 38,000 279 405 -64
2022-05-21 18:59:16 GMT 53.536835 -3.712045 38,000 279 405 -64
2022-05-21 18:59:13 GMT 53.536102 -3.703727 38,000 279 405 -64
2022-05-21 18:59:11 GMT 53.535446 -3.696253 38,000 279 404 0
2022-05-21 18:59:09 GMT 53.534794 -3.689144 38,000 279 404 64
2022-05-21 18:59:06 GMT 53.534142 -3.681712 38,000 279 404 64
2022-05-21 18:59:03 GMT 53.533211 -3.671130 38,000 279 404 0
2022-05-21 18:59:01 GMT 53.532715 -3.665902 38,000 279 404 0
2022-05-21 18:58:59 GMT 53.532143 -3.659013 38,000 279 404 0
2022-05-21 18:58:56 GMT 53.531303 -3.649480 38,000 279 404 0
2022-05-21 18:58:53 GMT 53.530605 -3.641725 38,000 279 404 0
2022-05-21 18:58:51 GMT 53.530060 -3.635768 38,000 279 404 -64
2022-05-21 18:58:49 GMT 53.529282 -3.626822 38,000 279 404 0
2022-05-21 18:58:46 GMT 53.528412 -3.617170 38,000 279 404 0
2022-05-21 18:58:43 GMT 53.527718 -3.609736 38,000 279 404 0
2022-05-21 18:58:41 GMT 53.527115 -3.603273 38,000 279 404 0
2022-05-21 18:58:39 GMT 53.526306 -3.593942 38,000 279 404 0
2022-05-21 18:58:36 GMT 53.525711 -3.587507 38,000 279 404 0
2022-05-21 18:58:34 GMT 53.525208 -3.581308 38,000 279 404 64
2022-05-21 18:58:32 GMT 53.524429 -3.572283 38,000 279 403 0
2022-05-21 18:58:29 GMT 53.522781 -3.553763 38,000 279 403 64
2022-05-21 18:58:26 GMT 53.522781 -3.553763 38,000 279 403 64
2022-05-21 18:58:23 GMT 53.522232 -3.547328 38,000 279 402 0
2022-05-21 18:58:21 GMT 53.521683 -3.541129 38,000 279 402 0
2022-05-21 18:58:19 GMT 53.521133 -3.534694 38,000 279 402 0
2022-05-21 18:58:16 GMT 53.520264 -3.525120 38,000 279 401 0
2022-05-21 18:58:14 GMT 53.519714 -3.518685 38,000 279 401 -64
2022-05-21 18:58:11 GMT 53.518127 -3.501165 38,000 279 400 -64
2022-05-21 18:58:08 GMT 53.518127 -3.501165 38,000 280 400 -64
2022-05-21 18:58:06 GMT 53.517517 -3.494673 38,000 280 399 64
2022-05-21 18:58:03 GMT 53.516647 -3.485177 38,000 279 399 64
2022-05-21 18:58:00 GMT 53.515915 -3.477565 38,000 279 399 -64
2022-05-21 18:57:58 GMT 53.514778 -3.464409 38,000 279 399 0
2022-05-21 18:57:56 GMT 53.514778 -3.464409 38,025 279 398 0
2022-05-21 18:57:53 GMT 53.513947 -3.455279 38,000 279 398 64
2022-05-21 18:57:51 GMT 53.513287 -3.448253 38,000 279 398 64
2022-05-21 18:57:48 GMT 53.512619 -3.440918 38,000 279 398 0
2022-05-21 18:57:46 GMT 53.512024 -3.433934 38,000 279 398 0
2022-05-21 18:57:44 GMT 53.511337 -3.426322 38,000 279 398 0
2022-05-21 18:57:42 GMT 53.510494 -3.417152 38,000 279 398 0
2022-05-21 18:57:40 GMT 53.510494 -3.417152 38,000 279 396 0
2022-05-21 18:57:38 GMT 53.509750 -3.408912 38,000 279 397 -64
2022-05-21 18:57:36 GMT 53.509094 -3.401917 38,000 279 397 0
2022-05-21 18:57:33 GMT 53.508224 -3.392186 38,000 279 397 0
2022-05-21 18:57:30 GMT 53.507702 -3.386374 38,000 279 397 -64
2022-05-21 18:57:28 GMT 53.506989 -3.378531 38,000 279 397 -64
2022-05-21 18:57:26 GMT 53.506256 -3.370622 38,000 279 397 -64
2022-05-21 18:57:23 GMT 53.505478 -3.362052 38,000 279 397 -64
2022-05-21 18:57:20 GMT 53.504955 -3.356323 38,000 279 396 0
2022-05-21 18:57:18 GMT 53.504257 -3.348730 38,000 279 398 64
2022-05-21 18:57:16 GMT 53.503696 -3.342348 38,000 279 396 0
2022-05-21 18:57:13 GMT 53.502907 -3.333543 38,000 279 396 0
2022-05-21 18:57:10 GMT 53.502228 -3.326268 38,000 279 396 0
2022-05-21 18:57:08 GMT 53.501587 -3.318970 38,000 279 396 64
2022-05-21 18:57:06 GMT 53.500992 -3.312613 38,000 279 396 0
2022-05-21 18:57:03 GMT 53.499882 -3.300180 38,000 279 396 64
2022-05-21 18:57:00 GMT 53.499413 -3.294687 38,000 279 397 64
2022-05-21 18:56:58 GMT 53.498577 -3.285881 38,000 279 397 64
2022-05-21 18:56:55 GMT 53.497787 -3.277457 38,000 279 397 0
2022-05-21 18:56:52 GMT 53.497131 -3.270129 38,000 279 397 0
2022-05-21 18:56:49 GMT 53.496155 -3.259466 38,000 279 397 64
2022-05-21 18:56:46 GMT 53.495361 -3.250933 38,000 279 398 0
2022-05-21 18:56:43 GMT 53.494492 -3.241516 38,000 279 398 0
2022-05-21 18:56:40 GMT 53.493782 -3.233616 38,000 279 398 64
2022-05-21 18:56:38 GMT 53.492981 -3.225037 38,000 279 398 0
2022-05-21 18:56:35 GMT 53.492432 -3.218994 38,000 279 399 0
2022-05-21 18:56:33 GMT 53.491638 -3.210431 38,000 279 398 0
2022-05-21 18:56:30 GMT 53.490189 -3.194824 38,000 279 398 -64
2022-05-21 18:56:27 GMT 53.490189 -3.194824 38,000 279 398 0
2022-05-21 18:56:25 GMT 53.489594 -3.188468 38,000 279 398 0
2022-05-21 18:56:23 GMT 53.488148 -3.172949 38,000 279 398 0
2022-05-21 18:56:20 GMT 53.488148 -3.172949 38,000 279 398 0
2022-05-21 18:56:17 GMT 53.487312 -3.164062 38,000 279 397 -64
2022-05-21 18:56:15 GMT 53.486752 -3.158004 38,000 279 397 -64
2022-05-21 18:56:13 GMT 53.486023 -3.150094 38,000 279 396 0
2022-05-21 18:56:10 GMT 53.485310 -3.142817 38,000 279 395 0
2022-05-21 18:56:08 GMT 53.484051 -3.129165 38,000 279 396 0
2022-05-21 18:56:05 GMT 53.484051 -3.129165 38,000 279 396 0
2022-05-21 18:56:03 GMT 53.483093 -3.118862 38,000 279 395 0
2022-05-21 18:56:00 GMT 53.482376 -3.110989 38,000 279 395 -64
2022-05-21 18:55:57 GMT 53.481674 -3.103716 38,000 280 396 0
2022-05-21 18:55:55 GMT 53.480934 -3.095883 38,000 280 395 0
2022-05-21 18:55:52 GMT 53.480026 -3.086217 38,000 279 395 -64
2022-05-21 18:55:49 GMT 53.479385 -3.079546 38,000 279 395 -64
2022-05-21 18:55:47 GMT 53.478836 -3.073190 38,000 279 395 0
2022-05-21 18:55:45 GMT 53.478378 -3.068403 38,000 279 395 0
2022-05-21 18:55:43 GMT 53.476974 -3.053553 38,000 279 395 0
2022-05-21 18:55:41 GMT 53.476974 -3.053553 38,000 279 395 0
2022-05-21 18:55:39 GMT 53.476231 -3.045394 38,000 279 395 0
2022-05-21 18:55:36 GMT 53.475346 -3.036023 38,000 279 395 0
2022-05-21 18:55:33 GMT 53.474789 -3.029965 38,000 279 395 0
2022-05-21 18:55:31 GMT 53.474213 -3.023987 38,000 279 395 0
2022-05-21 18:55:29 GMT 53.473530 -3.016716 38,000 279 395 64
2022-05-21 18:55:26 GMT 53.472839 -3.008841 38,000 280 397 0
2022-05-21 18:55:23 GMT 53.471786 -2.997620 38,000 279 395 64
2022-05-21 18:55:20 GMT 53.470963 -2.988909 38,000 279 396 0
2022-05-21 18:55:17 GMT 53.470272 -2.981576 38,000 280 397 0
2022-05-21 18:55:15 GMT 53.469772 -2.976432 38,000 280 397 0
2022-05-21 18:55:12 GMT 53.468079 -2.958854 38,000 280 398 0
2022-05-21 18:55:10 GMT 53.468079 -2.958854 38,000 280 398 0
2022-05-21 18:55:07 GMT 53.467346 -2.951242 38,000 279 397 -64
2022-05-21 18:55:05 GMT 53.466923 -2.946679 38,000 280 399 0
2022-05-21 18:55:03 GMT 53.466202 -2.938843 38,000 280 399 -64
2022-05-21 18:55:01 GMT 53.465652 -2.933036 38,000 280 399 0
2022-05-21 18:54:59 GMT 53.464645 -2.922363 38,000 280 400 0
2022-05-21 18:54:57 GMT 53.464645 -2.922363 38,000 280 399 0
2022-05-21 18:54:55 GMT 53.464005 -2.916007 38,000 280 399 64
2022-05-21 18:54:53 GMT 53.463272 -2.908395 38,000 280 399 64
2022-05-21 18:54:51 GMT 53.462631 -2.901646 38,000 280 399 0
2022-05-21 18:54:49 GMT 53.462219 -2.897095 38,000 280 399 0
2022-05-21 18:54:47 GMT 53.461166 -2.885795 38,000 279 398 0
2022-05-21 18:54:45 GMT 53.461166 -2.885795 38,000 279 398 0
2022-05-21 18:54:43 GMT 53.460262 -2.876641 38,000 279 399 0
2022-05-21 18:54:40 GMT 53.459518 -2.868766 38,000 280 399 0
2022-05-21 18:54:38 GMT 53.459007 -2.862989 38,000 280 399 0
2022-05-21 18:54:35 GMT 53.457981 -2.852245 38,000 280 399 0
2022-05-21 18:54:32 GMT 53.457458 -2.846793 38,000 280 399 0
2022-05-21 18:54:30 GMT 53.456539 -2.837623 38,000 280 400 0
2022-05-21 18:54:28 GMT 53.456074 -2.832453 38,000 280 400 0
2022-05-21 18:54:25 GMT 53.455307 -2.824820 38,000 280 400 0
2022-05-21 18:54:23 GMT 53.454536 -2.816862 38,000 280 400 0
2022-05-21 18:54:21 GMT 53.453934 -2.810480 38,000 280 399 0
2022-05-21 18:54:18 GMT 53.453293 -2.803711 38,000 280 399 -64
2022-05-21 18:54:16 GMT 53.452515 -2.795471 38,000 280 400 -64
2022-05-21 18:54:13 GMT 53.451607 -2.786327 38,000 280 400 0
2022-05-21 18:54:11 GMT 53.450909 -2.778976 38,000 280 400 0
2022-05-21 18:54:09 GMT 53.450638 -2.775931 38,000 280 399 0
2022-05-21 18:54:07 GMT 53.450069 -2.770170 38,000 280 399 0
2022-05-21 18:54:05 GMT 53.449184 -2.761365 38,000 280 399 0
2022-05-21 18:54:02 GMT 53.448486 -2.754037 38,000 280 399 0
2022-05-21 18:53:59 GMT 53.447742 -2.746097 38,000 280 399 0
2022-05-21 18:53:57 GMT 53.447067 -2.738813 38,000 280 399 0
2022-05-21 18:53:55 GMT 53.446472 -2.732378 38,000 280 399 0
2022-05-21 18:53:53 GMT 53.445786 -2.725394 38,000 280 399 0
2022-05-21 18:53:51 GMT 53.445087 -2.718389 38,000 280 399 0
2022-05-21 18:53:48 GMT 53.443459 -2.701344 38,000 280 399 0
2022-05-21 18:53:45 GMT 53.443459 -2.701344 38,000 280 399 0
2022-05-21 18:53:43 GMT 53.442856 -2.695260 38,000 280 399 0
2022-05-21 18:53:41 GMT 53.442204 -2.688500 38,000 280 399 0
2022-05-21 18:53:38 GMT 53.441025 -2.676348 38,000 280 400 0
2022-05-21 18:53:35 GMT 53.440475 -2.670541 38,000 280 400 0
2022-05-21 18:53:33 GMT 53.439873 -2.664427 38,000 280 400 0
2022-05-21 18:53:31 GMT 53.439316 -2.658934 38,000 280 400 0
2022-05-21 18:53:28 GMT 53.438278 -2.648254 38,000 280 400 0
2022-05-21 18:53:25 GMT 53.437500 -2.640354 38,000 280 400 0
2022-05-21 18:53:23 GMT 53.436802 -2.633003 38,000 280 400 0
2022-05-21 18:53:20 GMT 53.435825 -2.622986 38,000 280 400 0
2022-05-21 18:53:17 GMT 53.435219 -2.616523 38,000 280 400 0
2022-05-21 18:53:15 GMT 53.434570 -2.609802 38,000 280 400 0
2022-05-21 18:53:13 GMT 53.433884 -2.602818 38,000 280 400 0
2022-05-21 18:53:11 GMT 53.433243 -2.596069 38,000 280 400 0
2022-05-21 18:53:09 GMT 53.432796 -2.591804 38,000 280 401 0
2022-05-21 18:53:07 GMT 53.432053 -2.584455 38,000 280 401 0
2022-05-21 18:53:05 GMT 53.431503 -2.578962 38,000 280 401 0
2022-05-21 18:53:02 GMT 53.429718 -2.561227 38,000 280 401 0
2022-05-21 18:52:59 GMT 53.429718 -2.561227 38,000 280 401 0
2022-05-21 18:52:57 GMT 53.428841 -2.552059 38,000 280 401 64
2022-05-21 18:52:54 GMT 53.428253 -2.545925 38,000 280 401 0
2022-05-21 18:52:51 GMT 53.427200 -2.535252 38,000 280 402 64
2022-05-21 18:52:48 GMT 53.426189 -2.524836 38,000 280 402 64
2022-05-21 18:52:45 GMT 53.425583 -2.518373 38,000 280 402 64
2022-05-21 18:52:42 GMT 53.424774 -2.510376 38,000 280 402 64
2022-05-21 18:52:40 GMT 53.424141 -2.503994 38,000 280 402 0
2022-05-21 18:52:38 GMT 53.422165 -2.483695 38,000 280 402 0
2022-05-21 18:52:35 GMT 53.422165 -2.483695 38,000 280 402 0
2022-05-21 18:52:32 GMT 53.421432 -2.476004 38,000 280 403 0
2022-05-21 18:52:29 GMT 53.420555 -2.467481 38,000 280 403 0
2022-05-21 18:52:26 GMT 53.419647 -2.458269 38,000 280 403 0
2022-05-21 18:52:24 GMT 53.419098 -2.452384 38,000 280 402 0
2022-05-21 18:52:21 GMT 53.418228 -2.443830 38,000 280 402 0
2022-05-21 18:52:19 GMT 53.416737 -2.428786 38,000 280 402 0
2022-05-21 18:52:17 GMT 53.416737 -2.428786 38,000 280 402 0
2022-05-21 18:52:14 GMT 53.415985 -2.421387 38,000 280 402 -64
2022-05-21 18:52:11 GMT 53.414970 -2.411014 38,000 280 402 -64
2022-05-21 18:52:08 GMT 53.414017 -2.401847 38,000 280 401 0
2022-05-21 18:52:05 GMT 53.413055 -2.392351 38,000 280 401 0
2022-05-21 18:52:02 GMT 53.412548 -2.387103 38,000 280 401 0
2022-05-21 18:51:59 GMT 53.411430 -2.376117 38,000 280 401 0
2022-05-21 18:51:57 GMT 53.410858 -2.370300 38,000 280 401 0
2022-05-21 18:51:54 GMT 53.409897 -2.360526 38,000 280 401 0
2022-05-21 18:51:51 GMT 53.409012 -2.351640 38,000 280 401 64
2022-05-21 18:51:48 GMT 53.408020 -2.341814 38,000 280 402 0
2022-05-21 18:51:45 GMT 53.407059 -2.331691 38,000 280 402 0
2022-05-21 18:51:42 GMT 53.406464 -2.325884 38,000 280 402 0
2022-05-21 18:51:39 GMT 53.405502 -2.316389 38,000 280 402 0
2022-05-21 18:51:37 GMT 53.404774 -2.309068 38,000 280 402 0
2022-05-21 18:51:34 GMT 53.403751 -2.298970 38,000 280 402 0
2022-05-21 18:51:31 GMT 53.402756 -2.289158 38,000 280 402 0
2022-05-21 18:51:28 GMT 53.400833 -2.269854 38,000 280 402 0
2022-05-21 18:51:25 GMT 53.400833 -2.269854 38,000 280 402 0
2022-05-21 18:51:22 GMT 53.400211 -2.263749 38,000 280 401 0
2022-05-21 18:51:19 GMT 53.398956 -2.251491 38,000 280 401 0
2022-05-21 18:51:16 GMT 53.397324 -2.235314 38,000 280 401 0
2022-05-21 18:51:13 GMT 53.397324 -2.235314 38,000 280 401 0
2022-05-21 18:51:10 GMT 53.396580 -2.227963 38,000 280 401 0
2022-05-21 18:51:08 GMT 53.395882 -2.220935 38,000 280 401 0
2022-05-21 18:51:06 GMT 53.395248 -2.214844 38,000 280 400 0
2022-05-21 18:51:04 GMT 53.394627 -2.208737 38,000 280 400 0
2022-05-21 18:51:02 GMT 53.393696 -2.199285 38,000 280 400 0
2022-05-21 18:50:59 GMT 53.393097 -2.193499 38,000 280 400 0
2022-05-21 18:50:57 GMT 53.392456 -2.187064 38,000 280 400 0
2022-05-21 18:50:54 GMT 53.391312 -2.175764 38,000 280 400 0
2022-05-21 18:50:51 GMT 53.390350 -2.166347 38,000 280 400 0
2022-05-21 18:50:48 GMT 53.389412 -2.157198 38,000 280 400 0
2022-05-21 18:50:45 GMT 53.387829 -2.141365 38,000 280 400 0
2022-05-21 18:50:42 GMT 53.387829 -2.141365 38,000 280 399 0
2022-05-21 18:50:39 GMT 53.387035 -2.133448 38,000 280 399 0
2022-05-21 18:50:37 GMT 53.386093 -2.124050 38,000 280 399 0
2022-05-21 18:50:34 GMT 53.385128 -2.114868 38,000 280 405 0
2022-05-21 18:50:31 GMT 53.384525 -2.108810 38,000 280 399 0
2022-05-21 18:50:28 GMT 53.383713 -2.100900 38,000 280 399 0
2022-05-21 18:50:26 GMT 53.382111 -2.085127 38,000 280 399 0
2022-05-21 18:50:23 GMT 53.382111 -2.085127 38,000 280 399 0
2022-05-21 18:50:21 GMT 53.381287 -2.076887 38,000 280 399 0
2022-05-21 18:50:18 GMT 53.380196 -2.066561 38,000 280 399 0
2022-05-21 18:50:15 GMT 53.379402 -2.058967 38,000 280 399 0
2022-05-21 18:50:12 GMT 53.378357 -2.048636 38,000 280 399 0
2022-05-21 18:50:09 GMT 53.377579 -2.041024 38,000 280 399 0
2022-05-21 18:50:06 GMT 53.375473 -2.020621 38,000 280 399 0
2022-05-21 18:50:03 GMT 53.375473 -2.020621 38,000 280 399 0
2022-05-21 18:50:00 GMT 53.373817 -2.003955 38,000 280 399 0
2022-05-21 18:49:57 GMT 53.373817 -2.003955 38,000 280 400 64
2022-05-21 18:49:54 GMT 53.372818 -1.994176 38,000 280 400 64
2022-05-21 18:49:51 GMT 53.372002 -1.986263 38,000 280 400 0
2022-05-21 18:49:48 GMT 53.371304 -1.978912 38,000 280 400 0
2022-05-21 18:49:46 GMT 53.370300 -1.969221 38,000 280 400 0
2022-05-21 18:49:43 GMT 53.369255 -1.959121 38,000 281 401 -64
2022-05-21 18:49:40 GMT 53.368229 -1.949669 38,000 281 402 0
2022-05-21 18:49:37 GMT 53.366821 -1.936262 38,000 280 401 0
2022-05-21 18:49:35 GMT 53.366821 -1.936262 38,000 280 401 0
2022-05-21 18:49:32 GMT 53.365948 -1.928343 38,000 280 401 0
2022-05-21 18:49:30 GMT 53.365528 -1.924061 38,000 280 401 0
2022-05-21 18:49:28 GMT 53.364853 -1.917350 38,000 280 401 0
2022-05-21 18:49:25 GMT 53.363575 -1.905078 38,000 280 400 -64
2022-05-21 18:49:22 GMT 53.362610 -1.896005 38,000 280 400 0
2022-05-21 18:49:19 GMT 53.361832 -1.888314 38,000 280 400 -64
2022-05-21 18:49:16 GMT 53.360828 -1.878581 38,000 280 400 -64
2022-05-21 18:49:13 GMT 53.360176 -1.872523 38,000 280 400 0
2022-05-21 18:49:11 GMT 53.359177 -1.863046 38,000 280 400 0
2022-05-21 18:49:08 GMT 53.358360 -1.855155 38,000 280 400 0
2022-05-21 18:49:06 GMT 53.357895 -1.850568 38,000 280 400 0
2022-05-21 18:49:04 GMT 53.357071 -1.842329 38,000 280 400 64
2022-05-21 18:49:02 GMT 53.356312 -1.835040 38,000 280 400 64
2022-05-21 18:48:59 GMT 53.355659 -1.828981 38,000 280 401 0
2022-05-21 18:48:57 GMT 53.354691 -1.819179 38,000 280 401 0
2022-05-21 18:48:54 GMT 53.354031 -1.813067 38,000 280 401 0
2022-05-21 18:48:52 GMT 53.353455 -1.807251 38,000 281 402 0
2022-05-21 18:48:49 GMT 53.351624 -1.790144 38,000 281 402 0
2022-05-21 18:48:47 GMT 53.351624 -1.790144 38,000 281 403 0
2022-05-21 18:48:44 GMT 53.350754 -1.781904 38,000 281 403 0
2022-05-21 18:48:41 GMT 53.349609 -1.771545 38,000 280 404 64
2022-05-21 18:48:38 GMT 53.348511 -1.761108 38,000 280 404 0
2022-05-21 18:48:35 GMT 53.346863 -1.745178 38,000 280 404 0
2022-05-21 18:48:32 GMT 53.345791 -1.735355 38,000 280 404 0
2022-05-21 18:48:29 GMT 53.345791 -1.735355 38,000 280 404 0
2022-05-21 18:48:27 GMT 53.344345 -1.721479 38,000 280 404 0
2022-05-21 18:48:25 GMT 53.343430 -1.712612 38,000 280 405 0
2022-05-21 18:48:22 GMT 53.342812 -1.706758 38,000 280 405 0
2022-05-21 18:48:19 GMT 53.342812 -1.706758 38,000 280 405 0
2022-05-21 18:48:17 GMT 53.341919 -1.698172 38,000 280 405 0
2022-05-21 18:48:14 GMT 53.340950 -1.688906 38,000 280 405 0
2022-05-21 18:48:11 GMT 53.339882 -1.678808 38,000 280 405 0
2022-05-21 18:48:08 GMT 53.339134 -1.671699 38,000 280 405 0
2022-05-21 18:48:06 GMT 53.338482 -1.665560 38,000 281 405 0
2022-05-21 18:48:04 GMT 53.337753 -1.658857 38,000 281 405 0
2022-05-21 18:48:01 GMT 53.336792 -1.649911 38,000 281 405 0
2022-05-21 18:47:58 GMT 53.335690 -1.639467 38,000 281 405 0
2022-05-21 18:47:56 GMT 53.335087 -1.633974 38,000 281 405 0
2022-05-21 18:47:53 GMT 53.333969 -1.623149 38,000 281 405 0
2022-05-21 18:47:50 GMT 53.332897 -1.613375 38,000 281 405 0
2022-05-21 18:47:47 GMT 53.332352 -1.608163 38,000 280 404 0
2022-05-21 18:47:44 GMT 53.331177 -1.597057 38,000 281 404 0
2022-05-21 18:47:41 GMT 53.329174 -1.578638 38,000 281 404 0
2022-05-21 18:47:38 GMT 53.329174 -1.578638 38,000 280 404 0
2022-05-21 18:47:36 GMT 53.328522 -1.572176 38,000 280 404 0
2022-05-21 18:47:33 GMT 53.327637 -1.563936 38,000 281 406 0
2022-05-21 18:47:30 GMT 53.326614 -1.554404 38,000 281 405 0
2022-05-21 18:47:27 GMT 53.325485 -1.543971 38,000 281 405 0
2022-05-21 18:47:24 GMT 53.324379 -1.533481 38,000 281 405 0
2022-05-21 18:47:21 GMT 53.323772 -1.527988 38,000 281 405 0
2022-05-21 18:47:19 GMT 53.323120 -1.521526 38,000 281 405 0
2022-05-21 18:47:17 GMT 53.322418 -1.515407 38,000 281 405 0
2022-05-21 18:47:15 GMT 53.321548 -1.507089 38,000 281 405 0
2022-05-21 18:47:12 GMT 53.319855 -1.491394 38,000 281 406 0
2022-05-21 18:47:09 GMT 53.319214 -1.485509 38,000 281 406 0
2022-05-21 18:47:05 GMT 53.318558 -1.479358 38,000 281 406 0
2022-05-21 18:47:03 GMT 53.317932 -1.473502 38,000 281 406 0
2022-05-21 18:47:01 GMT 53.316929 -1.464251 38,000 281 406 0
2022-05-21 18:46:58 GMT 53.316055 -1.456238 38,000 281 407 0
2022-05-21 18:46:56 GMT 53.314178 -1.438660 38,000 281 407 0
2022-05-21 18:46:53 GMT 53.314178 -1.438660 38,000 281 407 0
2022-05-21 18:46:50 GMT 53.313309 -1.430263 38,000 281 407 0
2022-05-21 18:46:47 GMT 53.312599 -1.424103 38,000 281 407 0
2022-05-21 18:46:45 GMT 53.311714 -1.415782 38,000 281 407 0
2022-05-21 18:46:42 GMT 53.310600 -1.405604 38,000 281 406 0
2022-05-21 18:46:39 GMT 53.309715 -1.397283 38,000 281 406 0
2022-05-21 18:46:37 GMT 53.309017 -1.390821 38,000 281 406 0
2022-05-21 18:46:34 GMT 53.308132 -1.382823 38,000 281 406 0
2022-05-21 18:46:32 GMT 53.306580 -1.368347 38,000 281 406 0
2022-05-21 18:46:30 GMT 53.306580 -1.368347 38,000 281 406 0
2022-05-21 18:46:27 GMT 53.305153 -1.355357 38,000 281 405 -64
2022-05-21 18:46:25 GMT 53.305153 -1.355357 38,000 281 405 -64
2022-05-21 18:46:23 GMT 53.303150 -1.336939 38,000 281 405 -64
2022-05-21 18:46:20 GMT 53.303150 -1.336939 38,000 281 405 -64
2022-05-21 18:46:17 GMT 53.302414 -1.330209 38,000 281 405 -64
2022-05-21 18:46:14 GMT 53.300591 -1.313351 38,000 281 403 0
2022-05-21 18:46:12 GMT 53.300591 -1.313351 38,000 281 404 0
2022-05-21 18:46:09 GMT 53.299751 -1.305677 38,000 281 404 0
2022-05-21 18:46:07 GMT 53.299072 -1.299212 38,000 281 404 0
2022-05-21 18:46:05 GMT 53.298401 -1.293075 38,000 281 403 0
2022-05-21 18:46:03 GMT 53.297470 -1.284851 38,000 281 403 0
2022-05-21 18:46:00 GMT 53.296509 -1.275984 38,000 281 403 0
2022-05-21 18:45:57 GMT 53.294952 -1.261858 38,000 281 403 0
2022-05-21 18:45:55 GMT 53.294952 -1.261858 38,000 281 403 0
2022-05-21 18:45:53 GMT 53.294449 -1.257307 38,000 281 403 0
2022-05-21 18:45:51 GMT 53.293186 -1.245656 38,000 281 403 0
2022-05-21 18:45:49 GMT 53.293186 -1.245656 38,000 281 403 0
2022-05-21 18:45:47 GMT 53.291840 -1.233135 38,000 281 403 0
2022-05-21 18:45:45 GMT 53.290768 -1.223683 38,000 281 403 0
2022-05-21 18:45:42 GMT 53.290768 -1.223683 38,000 281 403 0
2022-05-21 18:45:40 GMT 53.289917 -1.215794 38,000 281 403 0
2022-05-21 18:45:37 GMT 53.289001 -1.207554 38,000 281 403 0
2022-05-21 18:45:34 GMT 53.287949 -1.198059 38,000 281 403 0
2022-05-21 18:45:32 GMT 53.287415 -1.193148 38,000 281 403 0
2022-05-21 18:45:29 GMT 53.286209 -1.182207 38,000 281 403 0
2022-05-21 18:45:27 GMT 53.285522 -1.176086 38,000 281 403 0
2022-05-21 18:45:24 GMT 53.284485 -1.166893 38,000 281 403 0
2022-05-21 18:45:21 GMT 53.282776 -1.151367 38,000 281 403 0
2022-05-21 18:45:18 GMT 53.282776 -1.151367 38,000 281 403 0
2022-05-21 18:45:16 GMT 53.281784 -1.142174 38,000 281 403 0
2022-05-21 18:45:13 GMT 53.280899 -1.134260 38,000 281 403 0
2022-05-21 18:45:10 GMT 53.279755 -1.123823 38,000 281 403 0
2022-05-21 18:45:07 GMT 53.278748 -1.114720 38,000 281 403 0
2022-05-21 18:45:05 GMT 53.277924 -1.107343 38,000 281 403 0
2022-05-21 18:45:02 GMT 53.277283 -1.101536 38,000 281 403 0
2022-05-21 18:45:00 GMT 53.276321 -1.092669 38,000 281 403 0
2022-05-21 18:44:57 GMT 53.275497 -1.085385 38,000 281 403 0
2022-05-21 18:44:54 GMT 53.273357 -1.066401 38,000 281 403 0
2022-05-21 18:44:51 GMT 53.273357 -1.066401 38,000 281 404 0
2022-05-21 18:44:48 GMT 53.272381 -1.057596 38,000 281 402 0
2022-05-21 18:44:45 GMT 53.271122 -1.046286 38,000 281 402 0
2022-05-21 18:44:42 GMT 53.270378 -1.039904 38,000 281 402 0
2022-05-21 18:44:39 GMT 53.269272 -1.029497 38,000 281 402 0
2022-05-21 18:44:36 GMT 53.267910 -1.017286 38,000 281 401 0
2022-05-21 18:44:34 GMT 53.267910 -1.017286 38,000 281 401 0
2022-05-21 18:44:32 GMT 53.267075 -1.009957 38,000 281 402 0
2022-05-21 18:44:29 GMT 53.265839 -0.998736 38,000 281 402 0
2022-05-21 18:44:26 GMT 53.265106 -0.992379 38,000 281 401 0
2022-05-21 18:44:24 GMT 53.264091 -0.983196 38,000 281 401 0
2022-05-21 18:44:21 GMT 53.263000 -0.973467 38,000 281 401 0
2022-05-21 18:44:18 GMT 53.262405 -0.967974 38,000 281 401 0
2022-05-21 18:44:15 GMT 53.261169 -0.957066 38,000 281 401 64
2022-05-21 18:44:12 GMT 53.260181 -0.948217 38,000 281 401 64
2022-05-21 18:44:09 GMT 53.259018 -0.937877 38,000 281 403 0
2022-05-21 18:44:06 GMT 53.258377 -0.932111 38,000 281 403 0
2022-05-21 18:44:04 GMT 53.257507 -0.924500 38,000 281 403 0
2022-05-21 18:44:01 GMT 53.256504 -0.915339 38,000 281 403 0
2022-05-21 18:43:58 GMT 53.254223 -0.895224 38,000 281 403 0
2022-05-21 18:43:55 GMT 53.254223 -0.895224 38,000 281 404 0
2022-05-21 18:43:52 GMT 53.253296 -0.887303 38,000 281 404 0
2022-05-21 18:43:50 GMT 53.252884 -0.883693 38,000 281 403 0
2022-05-21 18:43:48 GMT 53.251289 -0.869293 38,000 281 403 0
2022-05-21 18:43:46 GMT 53.251289 -0.869293 38,000 281 404 0
2022-05-21 18:43:43 GMT 53.250183 -0.859523 38,000 281 405 0
2022-05-21 18:43:40 GMT 53.249336 -0.851844 38,000 281 404 0
2022-05-21 18:43:38 GMT 53.248535 -0.844849 38,000 281 405 0
2022-05-21 18:43:36 GMT 53.246933 -0.830409 38,000 281 405 0
2022-05-21 18:43:34 GMT 53.246933 -0.830409 38,000 281 406 0
2022-05-21 18:43:31 GMT 53.245892 -0.821228 38,000 281 405 0
2022-05-21 18:43:28 GMT 53.245056 -0.813851 38,000 281 405 0
2022-05-21 18:43:25 GMT 53.242680 -0.793278 38,000 281 407 0
2022-05-21 18:43:22 GMT 53.241749 -0.784957 38,000 281 407 0
2022-05-21 18:43:19 GMT 53.241749 -0.784957 38,000 281 407 -64
2022-05-21 18:43:16 GMT 53.240955 -0.777929 38,000 281 407 -64
2022-05-21 18:43:13 GMT 53.239655 -0.766846 38,000 281 407 0
2022-05-21 18:43:10 GMT 53.238098 -0.752956 38,000 281 407 0
2022-05-21 18:43:08 GMT 53.238098 -0.752956 38,000 281 406 64
2022-05-21 18:43:05 GMT 53.236626 -0.740365 38,000 281 407 0
2022-05-21 18:43:02 GMT 53.235928 -0.733903 38,000 281 406 64
2022-05-21 18:43:00 GMT 53.235306 -0.728629 38,000 281 407 0
2022-05-21 18:42:58 GMT 53.234299 -0.719761 38,000 281 407 64
2022-05-21 18:42:55 GMT 53.233383 -0.711443 38,000 281 407 0
2022-05-21 18:42:52 GMT 53.231415 -0.694562 38,000 281 407 0
2022-05-21 18:42:49 GMT 53.231415 -0.694562 38,000 281 407 0
2022-05-21 18:42:46 GMT 53.230270 -0.684684 38,000 281 408 0
2022-05-21 18:42:43 GMT 53.228992 -0.673559 38,000 281 408 0
2022-05-21 18:42:40 GMT 53.227409 -0.659745 38,000 281 408 0
2022-05-21 18:42:38 GMT 53.227409 -0.659745 38,000 281 408 0
2022-05-21 18:42:35 GMT 53.225128 -0.639954 38,000 281 408 0
2022-05-21 18:42:32 GMT 53.225128 -0.639954 38,000 282 408 0
2022-05-21 18:42:29 GMT 53.224384 -0.633491 38,000 282 408 0
2022-05-21 18:42:26 GMT 53.223125 -0.622666 38,000 282 408 0
2022-05-21 18:42:23 GMT 53.222103 -0.613780 38,000 282 408 0
2022-05-21 18:42:20 GMT 53.220985 -0.604167 38,000 282 408 0
2022-05-21 18:42:18 GMT 53.220154 -0.597107 38,000 281 408 0
2022-05-21 18:42:15 GMT 53.219170 -0.588496 38,000 281 408 0
2022-05-21 18:42:12 GMT 53.218094 -0.579215 38,000 281 408 0
2022-05-21 18:42:09 GMT 53.216309 -0.563834 38,000 281 408 0
2022-05-21 18:42:06 GMT 53.216003 -0.561030 38,000 281 407 0
2022-05-21 18:42:03 GMT 53.215118 -0.553355 38,000 281 407 0
2022-05-21 18:42:00 GMT 53.212746 -0.533079 38,000 281 407 0
2022-05-21 18:41:58 GMT 53.211723 -0.524112 38,000 281 406 0
2022-05-21 18:41:55 GMT 53.211723 -0.524112 38,000 282 406 0
2022-05-21 18:41:52 GMT 53.211090 -0.518633 38,000 281 405 0
2022-05-21 18:41:49 GMT 53.209812 -0.507552 38,000 282 406 0
2022-05-21 18:41:46 GMT 53.209068 -0.501494 38,000 281 405 0
2022-05-21 18:41:44 GMT 53.208138 -0.493173 38,000 281 405 0
2022-05-21 18:41:41 GMT 53.207111 -0.484368 38,000 281 405 0
2022-05-21 18:41:38 GMT 53.205734 -0.472412 38,000 281 404 0
2022-05-21 18:41:35 GMT 53.204365 -0.460780 38,000 281 404 0
2022-05-21 18:41:33 GMT 53.204365 -0.460780 38,000 281 404 0
2022-05-21 18:41:30 GMT 53.202072 -0.440944 38,000 282 404 0
2022-05-21 18:41:27 GMT 53.202072 -0.440944 38,000 282 404 0
2022-05-21 18:41:24 GMT 53.199738 -0.421404 38,000 282 405 0
2022-05-21 18:41:21 GMT 53.199738 -0.421404 38,000 282 405 0
2022-05-21 18:41:18 GMT 53.199005 -0.415283 38,000 282 405 0
2022-05-21 18:41:15 GMT 53.197998 -0.406416 38,000 282 405 0
2022-05-21 18:41:13 GMT 53.197197 -0.399708 38,000 282 405 -64
2022-05-21 18:41:11 GMT 53.196350 -0.392369 38,000 282 405 -64
2022-05-21 18:41:08 GMT 53.195435 -0.384757 38,000 281 405 -64
2022-05-21 18:41:05 GMT 53.194359 -0.375555 38,000 281 405 -64
2022-05-21 18:41:03 GMT 53.193512 -0.368199 38,000 281 405 0
2022-05-21 18:41:00 GMT 53.192497 -0.359318 38,000 282 405 0
2022-05-21 18:40:57 GMT 53.191284 -0.349220 38,000 282 404 0
2022-05-21 18:40:54 GMT 53.190262 -0.340415 38,000 282 404 64
2022-05-21 18:40:51 GMT 53.189117 -0.330924 38,000 282 404 64
2022-05-21 18:40:48 GMT 53.188305 -0.323935 38,000 282 404 64
2022-05-21 18:40:45 GMT 53.187195 -0.314758 38,000 282 404 64
2022-05-21 18:40:43 GMT 53.186352 -0.307456 38,000 282 404 64
2022-05-21 18:40:40 GMT 53.185280 -0.298650 38,000 282 404 64
2022-05-21 18:40:37 GMT 53.183838 -0.286452 38,000 282 404 0
2022-05-21 18:40:34 GMT 53.183186 -0.280959 38,000 282 403 0
2022-05-21 18:40:32 GMT 53.182388 -0.274266 38,000 282 403 0
2022-05-21 18:40:30 GMT 53.181744 -0.268519 38,000 282 403 0
2022-05-21 18:40:28 GMT 53.180813 -0.260845 38,000 282 403 0
2022-05-21 18:40:25 GMT 53.179825 -0.252372 38,000 282 403 0
2022-05-21 18:40:22 GMT 53.178635 -0.242327 38,000 282 403 0
2022-05-21 18:40:19 GMT 53.177811 -0.235343 38,000 282 403 -64
2022-05-21 18:40:17 GMT 53.176941 -0.228045 38,000 282 402 0
2022-05-21 18:40:14 GMT 53.176155 -0.221342 38,000 282 402 0
2022-05-21 18:40:11 GMT 53.174789 -0.209839 38,000 282 402 0
2022-05-21 18:40:08 GMT 53.173645 -0.200108 38,000 282 402 0
2022-05-21 18:40:05 GMT 53.172665 -0.192261 38,000 282 402 0
2022-05-21 18:40:03 GMT 53.170757 -0.176185 38,000 282 402 0
2022-05-21 18:40:00 GMT 53.170757 -0.176185 38,000 282 402 0
2022-05-21 18:39:57 GMT 53.169662 -0.167071 38,000 282 402 0
2022-05-21 18:39:54 GMT 53.167915 -0.152274 38,000 282 402 0
2022-05-21 18:39:51 GMT 53.167915 -0.152274 38,000 282 402 0
2022-05-21 18:39:49 GMT 53.166824 -0.143215 38,000 282 402 0
2022-05-21 18:39:47 GMT 53.166382 -0.139510 38,000 282 402 0
2022-05-21 18:39:44 GMT 53.164902 -0.126814 38,000 282 402 0
2022-05-21 18:39:41 GMT 53.162888 -0.110186 38,000 282 402 0
2022-05-21 18:39:38 GMT 53.162888 -0.110186 38,000 282 402 0
2022-05-21 18:39:36 GMT 53.162048 -0.102916 38,000 282 402 0
2022-05-21 18:39:33 GMT 53.160965 -0.094090 38,000 282 402 0
2022-05-21 18:39:30 GMT 53.160004 -0.085952 38,000 282 403 0
2022-05-21 18:39:27 GMT 53.158859 -0.076512 38,000 282 403 0
2022-05-21 18:39:24 GMT 53.158001 -0.069553 38,000 282 403 0
2022-05-21 18:39:22 GMT 53.156982 -0.061053 38,000 282 403 0
2022-05-21 18:39:20 GMT 53.156231 -0.055012 38,000 282 403 0
2022-05-21 18:39:17 GMT 53.154041 -0.036756 38,000 282 402 0
2022-05-21 18:39:14 GMT 53.154041 -0.036756 38,000 282 402 0
2022-05-21 18:39:11 GMT 53.152863 -0.027073 38,000 282 402 0
2022-05-21 18:39:08 GMT 53.150848 -0.010123 38,000 282 402 0
2022-05-21 18:39:05 GMT 53.150848 -0.010123 38,000 282 402 0
2022-05-21 18:39:02 GMT 53.149899 -0.002262 38,000 282 401 0
2022-05-21 18:38:59 GMT 53.147964 0.013811 38,000 282 401 0
2022-05-21 18:38:57 GMT 53.147015 0.021650 38,000 282 401 0
2022-05-21 18:38:54 GMT 53.147015 0.021650 38,000 282 401 0
2022-05-21 18:38:52 GMT 53.145355 0.035549 38,000 282 401 0
2022-05-21 18:38:50 GMT 53.145355 0.035549 38,000 282 401 0
2022-05-21 18:38:47 GMT 53.144268 0.044592 38,000 282 400 0
2022-05-21 18:38:44 GMT 53.142776 0.056628 38,000 282 401 0
2022-05-21 18:38:41 GMT 53.142014 0.063014 38,000 282 399 0
2022-05-21 18:38:38 GMT 53.140728 0.073511 38,000 282 400 0
2022-05-21 18:38:35 GMT 53.139893 0.080459 38,000 282 399 0
2022-05-21 18:38:32 GMT 53.138397 0.092442 38,000 282 400 0
2022-05-21 18:38:29 GMT 53.137329 0.101462 38,000 282 399 0
2022-05-21 18:38:26 GMT 53.136337 0.109628 38,000 282 398 0
2022-05-21 18:38:23 GMT 53.134354 0.125777 38,000 282 398 0
2022-05-21 18:38:20 GMT 53.134354 0.125777 38,000 282 398 0
2022-05-21 18:38:17 GMT 53.133133 0.135995 38,000 282 398 0
2022-05-21 18:38:14 GMT 53.132072 0.144357 38,000 282 397 0
2022-05-21 18:38:12 GMT 53.131557 0.148558 38,000 282 397 0
2022-05-21 18:38:09 GMT 53.129974 0.161725 38,000 282 398 0
2022-05-21 18:38:06 GMT 53.129333 0.166835 38,000 282 398 0
2022-05-21 18:38:03 GMT 53.128113 0.176993 38,000 282 398 0
2022-05-21 18:38:01 GMT 53.127182 0.184425 38,000 282 397 0
2022-05-21 18:37:58 GMT 53.126160 0.192503 38,000 282 397 0
2022-05-21 18:37:56 GMT 53.125832 0.195492 38,000 282 397 0
2022-05-21 18:37:53 GMT 53.124252 0.208348 38,000 282 396 0
2022-05-21 18:37:50 GMT 53.123272 0.216091 38,000 282 396 0
2022-05-21 18:37:47 GMT 53.122284 0.224121 38,000 282 396 0
2022-05-21 18:37:44 GMT 53.121231 0.232753 38,000 282 395 0
2022-05-21 18:37:42 GMT 53.119316 0.248566 38,000 282 394 0
2022-05-21 18:37:39 GMT 53.118153 0.257775 38,000 282 394 0
2022-05-21 18:37:36 GMT 53.118153 0.257775 38,000 282 395 0
2022-05-21 18:37:33 GMT 53.117203 0.265477 38,000 282 395 0
2022-05-21 18:37:30 GMT 53.115871 0.276193 38,000 282 395 0
2022-05-21 18:37:27 GMT 53.114868 0.284467 38,000 282 394 0
2022-05-21 18:37:24 GMT 53.113861 0.292472 38,000 282 394 0
2022-05-21 18:37:21 GMT 53.112900 0.300476 38,000 282 394 0
2022-05-21 18:37:19 GMT 53.112167 0.306440 38,000 282 394 0
2022-05-21 18:37:16 GMT 53.110336 0.321193 38,000 282 394 0
2022-05-21 18:37:13 GMT 53.109772 0.325632 38,000 282 394 0
2022-05-21 18:37:10 GMT 53.108505 0.335711 38,000 282 394 0
2022-05-21 18:37:07 GMT 53.107632 0.342757 38,000 282 393 0
2022-05-21 18:37:04 GMT 53.106445 0.352269 38,000 282 393 0
2022-05-21 18:37:01 GMT 53.105350 0.361418 38,000 282 393 0
2022-05-21 18:36:59 GMT 53.104607 0.367315 38,000 282 393 0
2022-05-21 18:36:56 GMT 53.103699 0.374398 38,000 282 393 0
2022-05-21 18:36:53 GMT 53.102604 0.383229 38,000 282 393 0
2022-05-21 18:36:50 GMT 53.101345 0.393569 38,000 282 393 0
2022-05-21 18:36:47 GMT 53.100044 0.403909 38,000 282 393 0
2022-05-21 18:36:44 GMT 53.099205 0.410695 38,000 282 393 0
2022-05-21 18:36:42 GMT 53.098133 0.419258 38,000 282 392 0
2022-05-21 18:36:39 GMT 53.097481 0.424589 38,000 282 392 0
2022-05-21 18:36:36 GMT 53.096085 0.435737 38,000 282 392 0
2022-05-21 18:36:33 GMT 53.095184 0.442827 38,000 282 392 0
2022-05-21 18:36:30 GMT 53.093803 0.454049 38,000 282 392 0
2022-05-21 18:36:27 GMT 53.093060 0.459935 38,000 282 392 0
2022-05-21 18:36:25 GMT 53.092175 0.466684 38,000 282 392 0
2022-05-21 18:36:22 GMT 53.091339 0.473432 38,000 282 392 0
2022-05-21 18:36:20 GMT 53.090332 0.481720 38,000 282 392 0
2022-05-21 18:36:17 GMT 53.089417 0.489120 38,000 282 392 0
2022-05-21 18:36:14 GMT 53.088043 0.499954 38,000 282 392 -64
2022-05-21 18:36:11 GMT 53.086716 0.510864 38,000 282 392 0
2022-05-21 18:36:08 GMT 53.086075 0.515900 38,000 282 392 0
2022-05-21 18:36:06 GMT 53.084961 0.524754 38,000 282 392 0
2022-05-21 18:36:03 GMT 53.084198 0.530624 38,000 282 392 0
2022-05-21 18:36:01 GMT 53.082962 0.540314 38,000 283 392 0
2022-05-21 18:35:58 GMT 53.082119 0.546805 38,000 282 392 0
2022-05-21 18:35:56 GMT 53.081726 0.550003 38,000 282 392 0
2022-05-21 18:35:54 GMT 53.080627 0.558548 38,000 282 392 64
2022-05-21 18:35:52 GMT 53.079895 0.564117 38,000 282 392 0
2022-05-21 18:35:50 GMT 53.078163 0.578273 38,000 282 393 0
2022-05-21 18:35:47 GMT 53.077057 0.587082 38,000 282 393 0
2022-05-21 18:35:44 GMT 53.077057 0.587082 38,000 282 393 0
2022-05-21 18:35:42 GMT 53.075912 0.596237 38,000 282 393 0
2022-05-21 18:35:39 GMT 53.074127 0.610428 38,000 282 393 0
2022-05-21 18:35:36 GMT 53.074127 0.610428 38,000 282 393 0
2022-05-21 18:35:33 GMT 53.072388 0.624237 38,000 283 393 0
2022-05-21 18:35:31 GMT 53.071320 0.632499 38,000 283 393 0
2022-05-21 18:35:29 GMT 53.070156 0.641680 38,000 282 393 0
2022-05-21 18:35:26 GMT 53.070156 0.641680 38,000 283 393 0
2022-05-21 18:35:23 GMT 53.069366 0.647879 38,000 282 393 0
2022-05-21 18:35:21 GMT 53.068436 0.655256 38,000 282 393 0
2022-05-21 18:35:18 GMT 53.067364 0.663810 38,000 283 393 0
2022-05-21 18:35:15 GMT 53.066071 0.673828 38,000 282 393 0
2022-05-21 18:35:12 GMT 53.065224 0.680682 38,000 282 393 0
2022-05-21 18:35:10 GMT 53.063370 0.695114 38,000 282 393 0
2022-05-21 18:35:07 GMT 53.063370 0.695114 38,000 282 393 0
2022-05-21 18:35:05 GMT 53.062225 0.704269 38,000 282 393 0
2022-05-21 18:35:02 GMT 53.060028 0.721359 38,000 283 393 0
2022-05-21 18:34:59 GMT 53.060028 0.721359 38,000 283 393 0
2022-05-21 18:34:56 GMT 53.057831 0.738449 38,000 283 393 0
2022-05-21 18:34:53 GMT 53.057831 0.738449 38,000 283 393 0
2022-05-21 18:34:51 GMT 53.056915 0.745773 38,000 283 393 0
2022-05-21 18:34:48 GMT 53.055679 0.755232 38,000 283 393 0
2022-05-21 18:34:45 GMT 53.054840 0.761980 38,000 283 393 0
2022-05-21 18:34:42 GMT 53.053711 0.770798 38,000 283 393 0
2022-05-21 18:34:40 GMT 53.051834 0.785217 38,000 283 393 0
2022-05-21 18:34:37 GMT 53.051834 0.785217 38,000 283 393 0
2022-05-21 18:34:35 GMT 53.050964 0.792007 38,000 283 393 0
2022-05-21 18:34:32 GMT 53.049671 0.802002 38,000 283 393 0
2022-05-21 18:34:29 GMT 53.048538 0.810852 38,000 283 393 0
2022-05-21 18:34:26 GMT 53.047760 0.817032 38,000 283 393 0
2022-05-21 18:34:23 GMT 53.046524 0.826797 38,000 283 393 0
2022-05-21 18:34:21 GMT 53.045517 0.834427 38,000 283 393 0
2022-05-21 18:34:18 GMT 53.044418 0.842972 38,000 283 393 0
2022-05-21 18:34:15 GMT 53.042313 0.859451 38,000 283 393 0
2022-05-21 18:34:12 GMT 53.042313 0.859451 38,000 283 393 0
2022-05-21 18:34:09 GMT 53.041122 0.868607 38,000 283 392 0
2022-05-21 18:34:06 GMT 53.040131 0.876238 38,000 282 393 0
2022-05-21 18:34:03 GMT 53.038925 0.885620 38,000 282 393 0
2022-05-21 18:34:01 GMT 53.037598 0.895920 38,000 282 392 0
2022-05-21 18:33:59 GMT 53.036453 0.905075 38,000 283 392 0
2022-05-21 18:33:56 GMT 53.036453 0.905075 38,000 283 392 0
2022-05-21 18:33:54 GMT 53.035355 0.913620 38,000 283 392 0
2022-05-21 18:33:51 GMT 53.034576 0.919495 38,000 283 392 0
2022-05-21 18:33:48 GMT 53.033157 0.930634 38,000 283 392 0
2022-05-21 18:33:45 GMT 53.031982 0.939488 38,000 283 392 0
2022-05-21 18:33:42 GMT 53.031281 0.944748 38,000 283 392 0
2022-05-21 18:33:40 GMT 53.030136 0.953598 38,000 283 391 0
2022-05-21 18:33:37 GMT 53.027939 0.970612 38,000 283 391 0
2022-05-21 18:33:34 GMT 53.026722 0.979980 38,000 283 391 0
2022-05-21 18:33:31 GMT 53.026722 0.979980 38,000 283 391 0
2022-05-21 18:33:28 GMT 53.024597 0.996094 38,000 283 391 0
2022-05-21 18:33:25 GMT 53.023499 1.004639 38,000 283 391 0
2022-05-21 18:33:22 GMT 53.023499 1.004639 38,000 283 391 0
2022-05-21 18:33:20 GMT 53.022675 1.011056 38,000 283 397 0
2022-05-21 18:33:17 GMT 53.021370 1.021022 38,000 283 392 0
2022-05-21 18:33:14 GMT 53.020157 1.030426 38,000 283 392 0
2022-05-21 18:33:11 GMT 53.018993 1.039228 38,000 283 392 0
2022-05-21 18:33:08 GMT 53.018063 1.046526 38,000 283 392 0
2022-05-21 18:33:05 GMT 53.016712 1.056806 38,000 283 392 0
2022-05-21 18:33:02 GMT 53.015083 1.069205 38,000 283 394 0
2022-05-21 18:33:00 GMT 53.015083 1.069205 38,000 283 394 0
2022-05-21 18:32:58 GMT 53.013885 1.078644 38,000 283 394 0
2022-05-21 18:32:55 GMT 53.012943 1.085685 38,000 283 395 0
2022-05-21 18:32:52 GMT 53.012012 1.092747 38,000 283 395 0
2022-05-21 18:32:50 GMT 53.011002 1.100464 38,000 283 395 0
2022-05-21 18:32:47 GMT 53.009766 1.109619 38,000 283 395 0
2022-05-21 18:32:44 GMT 53.008755 1.117231 38,000 283 396 0
2022-05-21 18:32:41 GMT 53.007313 1.128217 38,000 283 396 0
2022-05-21 18:32:38 GMT 53.006058 1.138000 38,000 283 396 0
2022-05-21 18:32:35 GMT 53.004238 1.151603 38,000 283 397 0
2022-05-21 18:32:32 GMT 53.003448 1.157488 38,000 283 397 0
2022-05-21 18:32:30 GMT 53.003448 1.157488 38,000 283 397 0
2022-05-21 18:32:27 GMT 53.001957 1.168788 38,000 283 396 0
2022-05-21 18:32:24 GMT 53.001068 1.175613 38,000 283 396 0
2022-05-21 18:32:21 GMT 52.999397 1.188328 38,000 283 396 0
2022-05-21 18:32:18 GMT 52.998371 1.196411 38,000 283 397 0
2022-05-21 18:32:15 GMT 52.997360 1.204071 38,000 283 397 0
2022-05-21 18:32:12 GMT 52.996353 1.211548 38,000 283 397 0
2022-05-21 18:32:10 GMT 52.994980 1.221924 38,000 283 398 0
2022-05-21 18:32:05 GMT 52.993393 1.233843 38,000 283 398 0
2022-05-21 18:32:02 GMT 52.992413 1.241220 38,000 283 398 0
2022-05-21 18:32:00 GMT 52.991547 1.247787 38,000 283 398 0
2022-05-21 18:31:58 GMT 52.990738 1.253697 38,000 283 398 0
2022-05-21 18:31:55 GMT 52.989349 1.264420 38,000 283 397 0
2022-05-21 18:31:52 GMT 52.988388 1.271515 38,000 283 397 0
2022-05-21 18:31:50 GMT 52.987564 1.277771 38,000 283 397 0
2022-05-21 18:31:48 GMT 52.986786 1.283417 38,000 283 397 0
2022-05-21 18:31:45 GMT 52.985687 1.292038 38,000 283 397 0
2022-05-21 18:31:42 GMT 52.984451 1.301193 38,000 283 397 0
2022-05-21 18:31:40 GMT 52.982265 1.317575 38,000 283 397 0
2022-05-21 18:31:37 GMT 52.982265 1.317575 38,000 283 397 0
2022-05-21 18:31:34 GMT 52.980148 1.333542 38,000 283 397 0
2022-05-21 18:31:31 GMT 52.980148 1.333542 38,000 283 396 0
2022-05-21 18:31:29 GMT 52.979332 1.339469 38,000 283 396 0
2022-05-21 18:31:26 GMT 52.977982 1.349827 38,000 283 396 0
2022-05-21 18:31:23 GMT 52.976727 1.359009 38,000 283 396 0
2022-05-21 18:31:21 GMT 52.976353 1.361991 38,000 283 396 0
2022-05-21 18:31:19 GMT 52.975479 1.368484 38,000 283 396 0
2022-05-21 18:31:17 GMT 52.974491 1.375881 38,000 283 396 0
2022-05-21 18:31:14 GMT 52.973282 1.385062 38,000 283 396 0
2022-05-21 18:31:11 GMT 52.971466 1.398638 38,000 283 396 0
2022-05-21 18:31:09 GMT 52.971466 1.398638 38,000 283 396 0
2022-05-21 18:31:07 GMT 52.970581 1.405151 38,000 283 396 0
2022-05-21 18:31:04 GMT 52.969711 1.411667 38,000 283 396 0
2022-05-21 18:31:01 GMT 52.968475 1.420822 38,000 283 395 0
2022-05-21 18:30:59 GMT 52.966625 1.434344 38,000 283 395 0
2022-05-21 18:30:57 GMT 52.966625 1.434344 38,000 283 395 0
2022-05-21 18:30:54 GMT 52.965271 1.444397 38,000 283 395 0
2022-05-21 18:30:51 GMT 52.964447 1.450577 38,000 283 395 0
2022-05-21 18:30:49 GMT 52.963413 1.458278 38,000 283 395 0
2022-05-21 18:30:47 GMT 52.962570 1.464462 38,000 283 393 0
2022-05-21 18:30:44 GMT 52.961365 1.473580 38,000 283 394 0
2022-05-21 18:30:41 GMT 52.960419 1.480408 38,000 283 394 0
2022-05-21 18:30:39 GMT 52.959457 1.487732 38,000 283 394 0
2022-05-21 18:30:37 GMT 52.958450 1.495132 38,000 283 394 0
2022-05-21 18:30:34 GMT 52.957592 1.501596 38,000 283 394 0
2022-05-21 18:30:31 GMT 52.956482 1.509781 38,000 283 394 0
2022-05-21 18:30:29 GMT 52.955292 1.518631 38,000 283 394 0
2022-05-21 18:30:26 GMT 52.953552 1.531525 38,000 283 393 0
2022-05-21 18:30:23 GMT 52.953552 1.531525 38,000 283 393 0
2022-05-21 18:30:20 GMT 52.952099 1.542167 38,000 283 393 0
2022-05-21 18:30:17 GMT 52.950378 1.555036 38,000 283 393 0
2022-05-21 18:30:14 GMT 52.949753 1.559448 38,000 283 393 0
2022-05-21 18:30:11 GMT 52.948376 1.569711 38,000 283 393 0
2022-05-21 18:30:09 GMT 52.947739 1.574097 38,000 283 393 0
2022-05-21 18:30:07 GMT 52.947025 1.579363 38,000 283 393 0
2022-05-21 18:30:04 GMT 52.945587 1.589966 38,000 283 393 0
2022-05-21 18:30:01 GMT 52.944260 1.599579 38,000 283 393 0
2022-05-21 18:29:59 GMT 52.943348 1.606044 38,000 283 393 0
2022-05-21 18:29:56 GMT 52.942326 1.613656 38,000 283 393 0
2022-05-21 18:29:53 GMT 52.941254 1.621582 38,000 283 393 0
2022-05-21 18:29:51 GMT 52.940186 1.629257 38,000 283 394 0
2022-05-21 18:29:49 GMT 52.939545 1.634216 38,000 283 394 0
2022-05-21 18:29:46 GMT 52.938171 1.644516 38,000 282 394 0
2022-05-21 18:29:43 GMT 52.937210 1.651840 38,000 282 394 0
2022-05-21 18:29:40 GMT 52.936295 1.658936 38,000 282 394 0
2022-05-21 18:29:38 GMT 52.935341 1.665998 38,000 291 399 0
2022-05-21 18:29:36 GMT 52.934280 1.674271 38,000 286 396 0
2022-05-21 18:29:33 GMT 52.933338 1.681301 38,000 291 399 0
2022-05-21 18:29:30 GMT 52.932312 1.688614 38,000 284 395 0
2022-05-21 18:29:28 GMT 52.931442 1.694794 38,000 285 395 0
2022-05-21 18:29:25 GMT 52.929565 1.706772 38,000 287 396 0
2022-05-21 18:29:22 GMT 52.928146 1.715240 38,000 286 396 0
2022-05-21 18:29:19 GMT 52.926498 1.724243 38,000 289 398 0
2022-05-21 18:29:16 GMT 52.925125 1.731491 38,000 291 399 0
2022-05-21 18:29:13 GMT 52.923611 1.738979 38,000 290 399 0
2022-05-21 18:29:10 GMT 52.921841 1.747297 38,000 291 399 0
2022-05-21 18:29:08 GMT 52.920364 1.754150 38,000 291 399 0
2022-05-21 18:29:06 GMT 52.918625 1.761932 38,000 291 399 0
2022-05-21 18:29:03 GMT 52.915558 1.775626 38,000 291 399 0
2022-05-21 18:29:00 GMT 52.915558 1.775626 38,000 291 399 0
2022-05-21 18:28:58 GMT 52.913773 1.783676 38,000 291 399 0
2022-05-21 18:28:55 GMT 52.911667 1.793060 38,000 291 399 0
2022-05-21 18:28:52 GMT 52.910389 1.798776 38,000 291 400 0
2022-05-21 18:28:50 GMT 52.908806 1.805995 38,000 291 400 0
2022-05-21 18:28:48 GMT 52.907501 1.811676 38,000 291 400 0
2022-05-21 18:28:45 GMT 52.905762 1.819458 38,000 291 400 0
2022-05-21 18:28:42 GMT 52.902706 1.833226 38,000 291 400 0
2022-05-21 18:28:39 GMT 52.899582 1.847229 38,000 291 401 0
2022-05-21 18:28:36 GMT 52.899582 1.847229 38,000 291 400 0
2022-05-21 18:28:33 GMT 52.897678 1.855826 38,000 291 400 0
2022-05-21 18:28:30 GMT 52.894821 1.868439 38,000 291 400 0
2022-05-21 18:28:28 GMT 52.894821 1.868439 38,000 291 400 0
2022-05-21 18:28:25 GMT 52.892792 1.877642 38,000 291 400 0
2022-05-21 18:28:22 GMT 52.891113 1.885147 38,000 291 401 0
2022-05-21 18:28:19 GMT 52.888870 1.895142 38,000 291 401 0
2022-05-21 18:28:16 GMT 52.886929 1.903774 38,000 291 401 0
2022-05-21 18:28:13 GMT 52.885578 1.909816 38,000 291 401 0
2022-05-21 18:28:10 GMT 52.882233 1.924667 38,000 291 401 0
2022-05-21 18:28:06 GMT 52.880966 1.930455 38,000 291 401 0
2022-05-21 18:28:03 GMT 52.878479 1.941299 38,000 291 401 0
2022-05-21 18:28:00 GMT 52.876877 1.948471 38,000 291 401 0
2022-05-21 18:27:58 GMT 52.873810 1.962280 38,000 291 401 0
2022-05-21 18:27:55 GMT 52.873810 1.962280 38,000 291 401 0
2022-05-21 18:27:52 GMT 52.871750 1.971418 38,000 291 401 0
2022-05-21 18:27:50 GMT 52.870239 1.977997 38,000 291 401 0
2022-05-21 18:27:47 GMT 52.868073 1.987741 38,000 291 400 0
2022-05-21 18:27:43 GMT 52.865978 1.996922 38,000 291 400 0
2022-05-21 18:27:40 GMT 52.863785 2.006607 38,000 291 400 0
2022-05-21 18:27:37 GMT 52.859276 2.026664 38,000 291 401 0
2022-05-21 18:27:34 GMT 52.858250 2.031215 38,000 291 401 0
2022-05-21 18:27:31 GMT 52.858250 2.031215 38,000 291 401 0
2022-05-21 18:27:28 GMT 52.856186 2.040405 38,000 291 401 0
2022-05-21 18:27:25 GMT 52.854015 2.050127 38,000 291 401 0
2022-05-21 18:27:22 GMT 52.852386 2.057268 38,000 291 401 0
2022-05-21 18:27:19 GMT 52.850189 2.067032 38,000 291 400 0
2022-05-21 18:27:16 GMT 52.848816 2.073059 38,000 291 400 0
2022-05-21 18:27:14 GMT 52.846802 2.081909 38,000 291 400 0
2022-05-21 18:27:11 GMT 52.845520 2.087631 38,000 291 400 0
2022-05-21 18:27:09 GMT 52.844009 2.094193 38,000 291 400 0
2022-05-21 18:27:07 GMT 52.841583 2.105059 38,000 291 400 0
2022-05-21 18:27:05 GMT 52.841583 2.105059 38,000 291 400 0
2022-05-21 18:27:02 GMT 52.839352 2.114790 38,000 291 400 0
2022-05-21 18:26:59 GMT 52.835678 2.131119 38,000 291 400 0
2022-05-21 18:26:56 GMT 52.835678 2.131119 38,000 291 401 0
2022-05-21 18:26:54 GMT 52.834091 2.137939 38,000 291 401 0
2022-05-21 18:26:51 GMT 52.832153 2.146530 38,000 291 401 0
2022-05-21 18:26:48 GMT 52.830276 2.154846 38,000 291 401 0
2022-05-21 18:26:45 GMT 52.828217 2.164001 38,000 291 401 0
2022-05-21 18:26:42 GMT 52.826294 2.172318 38,000 291 402 0
2022-05-21 18:26:39 GMT 52.824734 2.179217 38,000 291 402 0
2022-05-21 18:26:37 GMT 52.822769 2.187805 38,000 291 402 0
2022-05-21 18:26:35 GMT 52.821808 2.192078 38,000 291 402 0
2022-05-21 18:26:32 GMT 52.819794 2.201004 38,000 291 402 0
2022-05-21 18:26:29 GMT 52.818027 2.208723 38,000 291 403 0
2022-05-21 18:26:26 GMT 52.815857 2.218246 38,000 291 403 0
2022-05-21 18:26:24 GMT 52.812210 2.234305 38,000 291 403 0
2022-05-21 18:26:21 GMT 52.812210 2.234305 38,000 291 403 0
2022-05-21 18:26:18 GMT 52.810043 2.243805 38,000 291 403 0
2022-05-21 18:26:15 GMT 52.808811 2.249294 38,000 291 403 0
2022-05-21 18:26:12 GMT 52.806976 2.257385 38,000 291 403 0
2022-05-21 18:26:09 GMT 52.804962 2.266235 38,000 291 403 0
2022-05-21 18:26:07 GMT 52.802246 2.278094 38,000 291 404 0
2022-05-21 18:26:05 GMT 52.802246 2.278094 38,000 291 404 0
2022-05-21 18:26:02 GMT 52.799606 2.289581 38,000 291 404 0
2022-05-21 18:25:59 GMT 52.798233 2.295609 38,000 291 404 0
2022-05-21 18:25:57 GMT 52.796310 2.303925 38,000 291 404 0
2022-05-21 18:25:54 GMT 52.792831 2.319260 38,000 291 405 0
2022-05-21 18:25:51 GMT 52.792831 2.319260 38,000 291 405 0
2022-05-21 18:25:48 GMT 52.790844 2.327846 38,000 291 405 0
2022-05-21 18:25:45 GMT 52.787476 2.342606 38,000 291 407 0
2022-05-21 18:25:43 GMT 52.787476 2.342606 38,000 291 407 0
2022-05-21 18:25:39 GMT 52.783630 2.359314 38,000 291 406 0
2022-05-21 18:25:37 GMT 52.783630 2.359314 38,000 291 406 0
2022-05-21 18:25:34 GMT 52.781532 2.368574 38,000 291 406 0
2022-05-21 18:25:31 GMT 52.779484 2.377598 38,000 291 406 0
2022-05-21 18:25:28 GMT 52.777954 2.384186 38,000 291 406 0
2022-05-21 18:25:25 GMT 52.773758 2.402396 38,000 291 406 0
2022-05-21 18:25:22 GMT 52.773758 2.402396 38,000 291 406 0
2022-05-21 18:25:19 GMT 52.771664 2.411656 38,000 291 406 0
2022-05-21 18:25:17 GMT 52.770493 2.416611 38,000 291 406 0
2022-05-21 18:25:14 GMT 52.768497 2.425310 38,000 291 406 0
2022-05-21 18:25:11 GMT 52.766235 2.435150 38,000 291 407 0
2022-05-21 18:25:08 GMT 52.764175 2.444077 38,000 291 407 0
2022-05-21 18:25:05 GMT 52.762169 2.452776 38,000 291 407 0
2022-05-21 18:25:02 GMT 52.760490 2.459996 38,000 291 407 0
2022-05-21 18:24:59 GMT 52.758305 2.469570 38,000 291 407 0
2022-05-21 18:24:55 GMT 52.755753 2.480621 38,000 291 407 0
2022-05-21 18:24:52 GMT 52.751495 2.499161 38,000 291 407 0
2022-05-21 18:24:49 GMT 52.751495 2.499161 38,000 291 407 0
2022-05-21 18:24:47 GMT 52.750763 2.502365 38,000 291 407 0
2022-05-21 18:24:44 GMT 52.748619 2.511632 38,000 291 407 0
2022-05-21 18:24:41 GMT 52.746384 2.521205 38,000 291 407 0
2022-05-21 18:24:38 GMT 52.744858 2.527847 38,000 291 407 0
2022-05-21 18:24:36 GMT 52.742989 2.535958 38,000 291 407 0
2022-05-21 18:24:33 GMT 52.741032 2.544355 38,000 291 407 0
2022-05-21 18:24:30 GMT 52.738770 2.554169 38,000 291 407 0
2022-05-21 18:24:27 GMT 52.736664 2.563171 38,000 291 408 0
2022-05-21 18:24:24 GMT 52.735245 2.569275 38,000 291 408 0
2022-05-21 18:24:22 GMT 52.733597 2.576523 38,000 291 408 0
2022-05-21 18:24:19 GMT 52.731583 2.585161 38,000 291 407 0
2022-05-21 18:24:17 GMT 52.730301 2.590714 38,000 291 407 0
2022-05-21 18:24:14 GMT 52.728745 2.597351 38,000 291 407 0
2022-05-21 18:24:11 GMT 52.726089 2.608939 38,000 291 407 0
2022-05-21 18:24:08 GMT 52.724716 2.614746 38,000 291 407 0
2022-05-21 18:24:06 GMT 52.722458 2.624555 38,000 291 407 0
2022-05-21 18:24:03 GMT 52.720734 2.632065 38,000 291 406 0
2022-05-21 18:24:01 GMT 52.719711 2.636405 38,000 291 406 0
2022-05-21 18:23:58 GMT 52.717896 2.644174 38,000 292 407 0
2022-05-21 18:23:56 GMT 52.716221 2.651393 38,000 291 406 0
2022-05-21 18:23:53 GMT 52.714371 2.659531 38,000 291 406 0
2022-05-21 18:23:50 GMT 52.710205 2.677383 38,000 292 407 0
2022-05-21 18:23:47 GMT 52.707283 2.689845 38,000 292 407 0
2022-05-21 18:23:43 GMT 52.707283 2.689845 38,000 292 407 0
2022-05-21 18:23:40 GMT 52.705261 2.698517 38,000 292 407 0
2022-05-21 18:23:37 GMT 52.703419 2.706560 38,000 292 407 0
2022-05-21 18:23:34 GMT 52.701736 2.713776 38,000 292 407 0
2022-05-21 18:23:31 GMT 52.697571 2.731628 38,000 292 406 0
2022-05-21 18:23:28 GMT 52.695190 2.741699 38,000 292 407 0
2022-05-21 18:23:25 GMT 52.695190 2.741699 38,000 292 406 0
2022-05-21 18:23:22 GMT 52.693176 2.750349 38,000 292 406 0
2022-05-21 18:23:20 GMT 52.691895 2.755890 38,000 292 406 0
2022-05-21 18:23:18 GMT 52.690750 2.760773 38,000 292 406 0
2022-05-21 18:23:16 GMT 52.689636 2.765651 38,000 292 406 0
2022-05-21 18:23:13 GMT 52.687592 2.774277 38,000 292 406 0
2022-05-21 18:23:10 GMT 52.685402 2.783779 38,000 292 406 0
2022-05-21 18:23:07 GMT 52.683029 2.793902 38,000 292 406 0
2022-05-21 18:23:04 GMT 52.681072 2.802220 38,000 292 407 0
2022-05-21 18:23:01 GMT 52.679863 2.807399 38,000 292 407 0
2022-05-21 18:22:59 GMT 52.677979 2.815475 38,000 292 407 0
2022-05-21 18:22:56 GMT 52.675278 2.826996 38,000 292 407 0
2022-05-21 18:22:53 GMT 52.674137 2.831883 38,000 292 407 0
2022-05-21 18:22:50 GMT 52.671902 2.841378 38,000 292 407 0
2022-05-21 18:22:48 GMT 52.670227 2.848598 38,000 292 407 0
2022-05-21 18:22:45 GMT 52.667850 2.858721 38,000 292 407 0
2022-05-21 18:22:42 GMT 52.665756 2.867667 38,000 292 407 0
2022-05-21 18:22:39 GMT 52.664062 2.874908 38,000 292 407 0
2022-05-21 18:22:36 GMT 52.662506 2.881546 38,000 292 407 0
2022-05-21 18:22:33 GMT 52.658203 2.900009 38,000 292 408 0
2022-05-21 18:22:30 GMT 52.658203 2.900009 38,000 292 408 0
2022-05-21 18:22:28 GMT 52.657242 2.904053 38,000 292 408 0
2022-05-21 18:22:25 GMT 52.655003 2.913574 38,000 292 408 0
2022-05-21 18:22:22 GMT 52.651138 2.930054 38,000 292 408 0
2022-05-21 18:22:19 GMT 52.651138 2.930054 38,000 292 409 0
2022-05-21 18:22:16 GMT 52.648315 2.941895 38,000 292 409 0
2022-05-21 18:22:13 GMT 52.646667 2.948837 38,000 292 409 0
2022-05-21 18:22:10 GMT 52.644901 2.956342 38,000 292 409 0
2022-05-21 18:22:07 GMT 52.643234 2.963257 38,000 292 409 0
2022-05-21 18:22:05 GMT 52.640991 2.972743 38,000 292 409 0
2022-05-21 18:22:02 GMT 52.638748 2.982025 38,000 292 409 0
2022-05-21 18:21:59 GMT 52.637329 2.988052 38,000 292 409 0
2022-05-21 18:21:56 GMT 52.632706 3.007431 38,000 292 409 0
2022-05-21 18:21:53 GMT 52.632706 3.007431 38,000 292 409 0
2022-05-21 18:21:50 GMT 52.630981 3.014648 38,000 292 409 0
2022-05-21 18:21:47 GMT 52.629261 3.021868 38,000 292 409 0
2022-05-21 18:21:45 GMT 52.627167 3.030548 38,000 292 409 0
2022-05-21 18:21:42 GMT 52.625771 3.036307 38,000 292 409 0
2022-05-21 18:21:39 GMT 52.622276 3.051060 38,000 292 409 0
2022-05-21 18:21:35 GMT 52.617737 3.069839 38,000 292 409 0
2022-05-21 18:21:32 GMT 52.617737 3.069839 38,000 292 409 0
2022-05-21 18:21:29 GMT 52.616085 3.076721 38,000 292 409 0
2022-05-21 18:21:26 GMT 52.611801 3.094692 38,000 292 409 0
2022-05-21 18:21:23 GMT 52.611801 3.094692 38,000 292 409 0
2022-05-21 18:21:20 GMT 52.610126 3.101597 38,000 292 409 0
2022-05-21 18:21:17 GMT 52.607800 3.111171 38,000 292 409 0
2022-05-21 18:21:14 GMT 52.605743 3.119812 38,000 292 410 0
2022-05-21 18:21:11 GMT 52.603516 3.129063 38,000 292 409 0
2022-05-21 18:21:08 GMT 52.601887 3.135733 38,000 292 409 0
2022-05-21 18:21:05 GMT 52.599697 3.144679 38,000 292 409 0
2022-05-21 18:21:02 GMT 52.597557 3.153625 38,000 292 409 0
2022-05-21 18:21:00 GMT 52.595554 3.161944 38,000 292 409 0
2022-05-21 18:20:57 GMT 52.594162 3.167725 38,000 292 409 0
2022-05-21 18:20:55 GMT 52.592651 3.174133 38,000 292 409 0
2022-05-21 18:20:51 GMT 52.589630 3.186493 38,000 292 409 0
2022-05-21 18:20:48 GMT 52.587734 3.194275 38,000 292 408 0
2022-05-21 18:20:45 GMT 52.586288 3.200378 38,000 292 409 0
2022-05-21 18:20:42 GMT 52.583588 3.211594 38,000 292 409 0
2022-05-21 18:20:40 GMT 52.582474 3.216248 38,000 292 409 0
2022-05-21 18:20:37 GMT 52.580383 3.224869 38,000 292 408 0
2022-05-21 18:20:34 GMT 52.577774 3.235474 38,000 292 408 0
2022-05-21 18:20:31 GMT 52.576004 3.243007 38,000 292 408 0
2022-05-21 18:20:28 GMT 52.574112 3.250809 38,000 292 408 0
2022-05-21 18:20:26 GMT 52.572098 3.259125 38,000 292 408 0
2022-05-21 18:20:23 GMT 52.570557 3.265451 38,000 292 408 0
2022-05-21 18:20:20 GMT 52.568371 3.274397 38,000 292 409 0
2022-05-21 18:20:18 GMT 52.566696 3.281326 38,000 292 408 0
2022-05-21 18:20:16 GMT 52.565323 3.287048 38,000 292 408 0
2022-05-21 18:20:13 GMT 52.561340 3.303432 38,000 292 408 0
2022-05-21 18:20:10 GMT 52.561340 3.303432 38,000 292 409 0
2022-05-21 18:20:08 GMT 52.560013 3.308868 38,000 292 409 0
2022-05-21 18:20:05 GMT 52.558411 3.315506 38,000 292 409 0
2022-05-21 18:20:03 GMT 52.556313 3.324149 38,000 292 408 0
2022-05-21 18:20:00 GMT 52.554062 3.333359 38,000 292 408 0
2022-05-21 18:19:57 GMT 52.552185 3.341064 38,000 292 408 0
2022-05-21 18:19:54 GMT 52.550720 3.347092 38,000 292 408 0
2022-05-21 18:19:51 GMT 52.548111 3.357697 38,000 292 407 0
2022-05-21 18:19:49 GMT 52.547188 3.361503 38,000 292 408 0
2022-05-21 18:19:47 GMT 52.545410 3.368912 38,000 292 408 0
2022-05-21 18:19:45 GMT 52.543671 3.376160 38,000 292 408 0
2022-05-21 18:19:43 GMT 52.540146 3.390503 38,000 292 408 0
2022-05-21 18:19:40 GMT 52.540146 3.390503 38,000 292 408 0
2022-05-21 18:19:37 GMT 52.538223 3.398514 38,000 292 408 0
2022-05-21 18:19:34 GMT 52.536438 3.405685 38,000 292 408 0
2022-05-21 18:19:31 GMT 52.533875 3.416367 38,000 292 408 0
2022-05-21 18:19:29 GMT 52.532711 3.420907 38,000 292 408 0
2022-05-21 18:19:26 GMT 52.530624 3.429565 38,000 292 408 0
2022-05-21 18:19:24 GMT 52.528522 3.438171 38,000 292 409 0
2022-05-21 18:19:21 GMT 52.526962 3.444443 38,000 292 409 0
2022-05-21 18:19:18 GMT 52.524891 3.453081 38,000 292 408 0
2022-05-21 18:19:15 GMT 52.521103 3.468552 38,000 292 408 0
2022-05-21 18:19:13 GMT 52.521103 3.468552 38,000 292 408 0
2022-05-21 18:19:10 GMT 52.518467 3.479213 38,000 292 408 0
2022-05-21 18:19:07 GMT 52.516930 3.485491 38,000 292 408 0
2022-05-21 18:19:04 GMT 52.512314 3.504410 38,000 292 408 0
2022-05-21 18:19:01 GMT 52.512314 3.504410 38,000 292 408 0
2022-05-21 18:18:58 GMT 52.510895 3.510132 38,000 292 408 0
2022-05-21 18:18:55 GMT 52.509018 3.517914 38,000 292 408 0
2022-05-21 18:18:53 GMT 52.507645 3.523636 38,000 292 408 0
2022-05-21 18:18:50 GMT 52.505154 3.533674 38,000 292 408 0
2022-05-21 18:18:47 GMT 52.503475 3.540580 38,000 292 408 0
2022-05-21 18:18:44 GMT 52.500870 3.551178 38,000 292 408 0
2022-05-21 18:18:40 GMT 52.498493 3.560904 38,000 292 408 0
2022-05-21 18:18:38 GMT 52.495102 3.574677 38,000 292 408 0
2022-05-21 18:18:35 GMT 52.493317 3.581772 38,000 292 408 0
2022-05-21 18:18:33 GMT 52.493317 3.581772 37,850 292 408 0
2022-05-21 18:18:30 GMT 52.491302 3.590088 38,000 292 408 0
2022-05-21 18:18:27 GMT 52.489243 3.598404 38,000 292 408 0
2022-05-21 18:18:24 GMT 52.485031 3.615646 38,000 292 408 0
2022-05-21 18:18:22 GMT 52.485031 3.615646 38,000 292 408 0
2022-05-21 18:18:19 GMT 52.483692 3.621094 38,000 292 408 0
2022-05-21 18:18:17 GMT 52.481873 3.628540 38,000 292 409 0
2022-05-21 18:18:15 GMT 52.480434 3.634277 38,000 292 408 0
2022-05-21 18:18:13 GMT 52.479267 3.639143 38,000 292 408 0
2022-05-21 18:18:10 GMT 52.477127 3.647696 38,000 293 409 0
2022-05-21 18:18:08 GMT 52.475639 3.653739 38,000 293 409 0
2022-05-21 18:18:06 GMT 52.473824 3.661194 38,000 293 409 0
2022-05-21 18:18:03 GMT 52.472397 3.666916 38,000 293 409 0
2022-05-21 18:18:00 GMT 52.469925 3.676987 38,000 292 409 0
2022-05-21 18:17:57 GMT 52.467770 3.685599 38,000 293 410 0
2022-05-21 18:17:54 GMT 52.465393 3.695297 38,000 293 409 0
2022-05-21 18:17:51 GMT 52.463608 3.702469 38,000 293 409 0
2022-05-21 18:17:48 GMT 52.461548 3.710785 38,000 293 409 0
2022-05-21 18:17:46 GMT 52.459991 3.717117 38,000 293 409 0
2022-05-21 18:17:43 GMT 52.458134 3.724522 38,000 293 409 0
2022-05-21 18:17:41 GMT 52.456879 3.729701 38,000 293 409 0
2022-05-21 18:17:39 GMT 52.455139 3.736572 38,000 293 409 0
2022-05-21 18:17:36 GMT 52.453014 3.745161 38,000 293 409 0
2022-05-21 18:17:33 GMT 52.451103 3.752930 38,000 293 409 0
2022-05-21 18:17:31 GMT 52.449615 3.758894 38,000 293 409 0
2022-05-21 18:17:28 GMT 52.447220 3.768616 38,000 293 409 0
2022-05-21 18:17:26 GMT 52.443878 3.782120 38,000 293 409 0
2022-05-21 18:17:23 GMT 52.443878 3.782120 38,000 293 409 0
2022-05-21 18:17:21 GMT 52.442230 3.788681 38,000 293 409 0
2022-05-21 18:17:19 GMT 52.441330 3.792402 38,000 293 409 0
2022-05-21 18:17:17 GMT 52.439140 3.801270 38,000 293 409 0
2022-05-21 18:17:14 GMT 52.435959 3.814163 38,000 293 409 0
2022-05-21 18:17:11 GMT 52.435959 3.814163 38,000 293 409 0
2022-05-21 18:17:09 GMT 52.433788 3.822771 38,000 293 409 0
2022-05-21 18:17:06 GMT 52.431644 3.831325 38,000 293 409 0
2022-05-21 18:17:04 GMT 52.430298 3.836818 38,000 293 409 0
2022-05-21 18:17:02 GMT 52.428909 3.842545 38,000 293 409 0
2022-05-21 18:16:59 GMT 52.426666 3.851395 38,000 293 409 0
2022-05-21 18:16:56 GMT 52.424469 3.860245 38,000 293 409 0
2022-05-21 18:16:54 GMT 52.423126 3.865696 38,000 293 409 0
2022-05-21 18:16:52 GMT 52.421402 3.872604 38,000 293 409 0
2022-05-21 18:16:49 GMT 52.419022 3.882065 38,000 293 409 0
2022-05-21 18:16:46 GMT 52.417309 3.888925 38,000 293 409 0
2022-05-21 18:16:43 GMT 52.414982 3.898342 38,000 293 409 0
2022-05-21 18:16:40 GMT 52.413254 3.905258 38,000 293 410 0
2022-05-21 18:16:37 GMT 52.411442 3.912388 38,000 293 410 0
2022-05-21 18:16:35 GMT 52.409317 3.920975 38,000 293 410 0
2022-05-21 18:16:32 GMT 52.407578 3.927848 38,000 293 410 0
2022-05-21 18:16:29 GMT 52.405197 3.937607 38,000 293 410 0
2022-05-21 18:16:26 GMT 52.403091 3.945923 38,000 293 410 0
2022-05-21 18:16:24 GMT 52.399658 3.959656 38,000 293 410 0
2022-05-21 18:16:21 GMT 52.399658 3.959656 38,000 293 410 0
2022-05-21 18:16:19 GMT 52.398033 3.966221 38,000 293 410 0
2022-05-21 18:16:17 GMT 52.396866 3.970795 38,000 293 410 0
2022-05-21 18:16:15 GMT 52.395802 3.975089 38,000 293 410 0
2022-05-21 18:16:13 GMT 52.394032 3.982230 38,000 293 410 0
2022-05-21 18:16:11 GMT 52.392563 3.987961 38,000 293 410 0
2022-05-21 18:16:09 GMT 52.388718 4.003448 38,000 293 410 0
2022-05-21 18:16:06 GMT 52.388718 4.003448 38,000 293 410 0
2022-05-21 18:16:03 GMT 52.386475 4.012299 38,000 293 410 0
2022-05-21 18:16:01 GMT 52.384918 4.018631 38,000 293 410 0
2022-05-21 18:15:58 GMT 52.381371 4.032689 38,000 293 410 0
2022-05-21 18:15:56 GMT 52.381371 4.032689 38,000 293 410 0
2022-05-21 18:15:53 GMT 52.377777 4.046936 38,000 293 410 0
2022-05-21 18:15:50 GMT 52.377777 4.046936 38,000 293 410 0
2022-05-21 18:15:48 GMT 52.375992 4.054108 38,000 293 410 0
2022-05-21 18:15:45 GMT 52.372990 4.066119 38,000 293 410 0
2022-05-21 18:15:43 GMT 52.371174 4.073260 38,000 293 410 0
2022-05-21 18:15:41 GMT 52.371174 4.073260 38,000 293 409 0
2022-05-21 18:15:38 GMT 52.368759 4.083023 38,000 293 409 0
2022-05-21 18:15:35 GMT 52.366894 4.090445 38,000 293 409 0
2022-05-21 18:15:33 GMT 52.365074 4.097586 38,000 293 410 0
2022-05-21 18:15:30 GMT 52.363262 4.104728 38,000 293 410 0
2022-05-21 18:15:27 GMT 52.360561 4.115322 38,000 293 410 0
2022-05-21 18:15:25 GMT 52.359512 4.119568 38,000 293 410 0
2022-05-21 18:15:23 GMT 52.358047 4.125288 38,000 293 410 0
2022-05-21 18:15:20 GMT 52.355812 4.134155 38,000 293 410 0
2022-05-21 18:15:18 GMT 52.353470 4.143295 38,000 293 410 0
2022-05-21 18:15:15 GMT 52.349995 4.157070 38,000 293 410 0
2022-05-21 18:15:12 GMT 52.349995 4.157070 38,000 293 410 0
2022-05-21 18:15:09 GMT 52.347759 4.165937 38,000 293 411 0
2022-05-21 18:15:06 GMT 52.343353 4.183350 38,000 293 410 0
2022-05-21 18:15:03 GMT 52.343353 4.183350 38,000 293 410 -64
2022-05-21 18:15:00 GMT 52.341110 4.192200 38,000 293 410 -64
2022-05-21 18:14:58 GMT 52.339325 4.199371 38,000 293 410 -64
2022-05-21 18:14:55 GMT 52.337608 4.206273 38,000 293 410 0
2022-05-21 18:14:53 GMT 52.336121 4.212265 38,000 293 410 0
2022-05-21 18:14:50 GMT 52.332352 4.226754 38,000 296 411 0
2022-05-21 18:14:48 GMT 52.332352 4.226754 38,000 295 412 0
2022-05-21 18:14:46 GMT 52.330856 4.232178 38,000 297 411 0
2022-05-21 18:14:43 GMT 52.328796 4.239120 38,000 298 412 0
2022-05-21 18:14:41 GMT 52.326141 4.247742 38,000 306 418 -64
2022-05-21 18:14:38 GMT 52.323990 4.253998 38,000 301 414 64
2022-05-21 18:14:36 GMT 52.321877 4.259949 38,000 303 415 64
2022-05-21 18:14:33 GMT 52.318943 4.267639 38,000 310 420 -64
2022-05-21 18:14:31 GMT 52.317352 4.271545 38,000 306 418 -64
2022-05-21 18:14:28 GMT 52.313004 4.281540 38,000 312 422 0
2022-05-21 18:14:25 GMT 52.310303 4.287262 38,000 309 419 -64
2022-05-21 18:14:22 GMT 52.302521 4.302292 38,000 312 421 64
2022-05-21 18:14:19 GMT 52.302521 4.302292 38,000 312 422 64
2022-05-21 18:14:16 GMT 52.298767 4.309158 38,000 312 422 0
2022-05-21 18:14:14 GMT 52.293686 4.318466 38,000 312 422 0
2022-05-21 18:14:12 GMT 52.293686 4.318466 38,000 312 422 0
2022-05-21 18:14:09 GMT 52.289707 4.325867 38,000 312 422 0
2022-05-21 18:14:06 GMT 52.284668 4.335098 38,000 312 422 0
2022-05-21 18:14:03 GMT 52.282059 4.339828 38,000 312 422 0
2022-05-21 18:14:00 GMT 52.277023 4.349060 38,000 312 422 0
2022-05-21 18:13:57 GMT 52.273499 4.355469 38,000 312 422 0
2022-05-21 18:13:54 GMT 52.270157 4.361651 38,000 312 422 0
2022-05-21 18:13:51 GMT 52.266495 4.368286 38,000 312 422 0
2022-05-21 18:13:48 GMT 52.262615 4.375384 38,000 312 422 0
2022-05-21 18:13:46 GMT 52.259773 4.380563 38,000 312 421 0
2022-05-21 18:13:44 GMT 52.257843 4.384155 38,000 312 420 0
2022-05-21 18:13:42 GMT 52.255646 4.388123 38,000 312 420 0
2022-05-21 18:13:40 GMT 52.251617 4.395447 38,000 312 420 0
2022-05-21 18:13:37 GMT 52.248413 4.401398 38,000 312 420 0
2022-05-21 18:13:35 GMT 52.245026 4.407501 38,000 312 420 0
2022-05-21 18:13:32 GMT 52.241547 4.413910 38,000 312 420 0
2022-05-21 18:13:29 GMT 52.237656 4.420929 38,000 312 420 0
2022-05-21 18:13:26 GMT 52.233658 4.428275 38,000 312 420 0
2022-05-21 18:13:23 GMT 52.229782 4.435349 38,000 312 420 0
2022-05-21 18:13:20 GMT 52.226578 4.441223 38,000 312 420 0
2022-05-21 18:13:18 GMT 52.222439 4.448757 38,000 312 419 0
2022-05-21 18:13:15 GMT 52.216621 4.459351 38,000 312 419 0
2022-05-21 18:13:12 GMT 52.216621 4.459351 38,000 312 419 0
2022-05-21 18:13:10 GMT 52.213303 4.465485 38,000 312 419 0
2022-05-21 18:13:07 GMT 52.209404 4.472534 38,000 312 419 0
2022-05-21 18:13:05 GMT 52.206345 4.478226 38,000 312 419 0
2022-05-21 18:13:02 GMT 52.202591 4.485016 38,000 312 419 0
2022-05-21 18:12:59 GMT 52.195206 4.498431 38,000 312 419 0
2022-05-21 18:12:56 GMT 52.195206 4.498431 38,000 312 419 0
2022-05-21 18:12:53 GMT 52.191856 4.504473 38,000 312 419 0
2022-05-21 18:12:50 GMT 52.184509 4.517899 38,000 312 420 0
2022-05-21 18:12:48 GMT 52.184509 4.517899 38,000 312 419 0
2022-05-21 18:12:45 GMT 52.181660 4.523071 38,000 312 419 0
2022-05-21 18:12:43 GMT 52.174957 4.535235 38,000 312 419 0
2022-05-21 18:12:40 GMT 52.174957 4.535235 38,000 312 419 0
2022-05-21 18:12:37 GMT 52.170319 4.543686 38,000 312 419 0
2022-05-21 18:12:34 GMT 52.167709 4.548416 38,000 312 419 0
2022-05-21 18:12:32 GMT 52.163727 4.555664 38,000 312 419 0
2022-05-21 18:12:29 GMT 52.159973 4.562454 38,000 312 419 0
2022-05-21 18:12:26 GMT 52.154800 4.571882 38,000 312 419 0
2022-05-21 18:12:24 GMT 52.151028 4.578631 38,000 312 419 0
2022-05-21 18:12:22 GMT 52.151028 4.578631 38,000 312 419 0
2022-05-21 18:12:19 GMT 52.147537 4.584987 38,000 312 419 0
2022-05-21 18:12:16 GMT 52.144325 4.590873 38,000 312 419 0
2022-05-21 18:12:14 GMT 52.140835 4.597151 38,000 312 419 0
2022-05-21 18:12:11 GMT 52.136948 4.604187 38,000 312 420 0
2022-05-21 18:12:08 GMT 52.132549 4.612139 38,000 312 420 0
2022-05-21 18:12:05 GMT 52.128387 4.619675 38,000 312 420 0
2022-05-21 18:12:02 GMT 52.125183 4.625549 38,000 312 419 0
2022-05-21 18:11:59 GMT 52.121429 4.632339 38,000 312 419 0
2022-05-21 18:11:56 GMT 52.117558 4.639369 38,000 312 420 0
2022-05-21 18:11:54 GMT 52.110809 4.651566 38,000 312 420 0
2022-05-21 18:11:51 GMT 52.110809 4.651566 38,000 313 419 0
2022-05-21 18:11:48 GMT 52.106384 4.659537 38,000 312 420 0
2022-05-21 18:11:45 GMT 52.103683 4.664403 38,000 312 420 0
2022-05-21 18:11:43 GMT 52.101589 4.668169 38,000 312 420 0
2022-05-21 18:11:41 GMT 52.099121 4.672642 38,000 312 420 0
2022-05-21 18:11:39 GMT 52.092140 4.685277 38,000 312 420 0
2022-05-21 18:11:36 GMT 52.092140 4.685277 38,000 312 420 0
2022-05-21 18:11:34 GMT 52.089020 4.690933 38,000 312 420 0
2022-05-21 18:11:32 GMT 52.087234 4.694214 38,000 312 420 0
2022-05-21 18:11:30 GMT 52.084644 4.698853 38,000 312 420 0
2022-05-21 18:11:28 GMT 52.080875 4.705680 38,000 312 420 0
2022-05-21 18:11:25 GMT 52.077484 4.711761 38,000 312 420 0
2022-05-21 18:11:23 GMT 52.073593 4.718781 38,000 312 420 0
2022-05-21 18:11:21 GMT 52.070343 4.724655 38,000 312 420 0
2022-05-21 18:11:19 GMT 52.065811 4.732819 38,000 312 420 0
2022-05-21 18:11:16 GMT 52.065811 4.732819 38,000 312 420 0
2022-05-21 18:11:14 GMT 52.059460 4.744289 38,000 313 421 0
2022-05-21 18:11:11 GMT 52.056622 4.749468 38,000 313 421 0
2022-05-21 18:11:09 GMT 52.056622 4.749468 38,000 313 421 0
2022-05-21 18:11:06 GMT 52.052570 4.756688 38,000 313 421 0
2022-05-21 18:11:04 GMT 52.050617 4.760219 38,000 313 420 0
2022-05-21 18:11:01 GMT 52.045670 4.769135 38,000 313 420 0
2022-05-21 18:10:58 GMT 52.042923 4.774017 38,000 313 420 0
2022-05-21 18:10:55 GMT 52.039165 4.780779 38,000 313 421 0
2022-05-21 18:10:53 GMT 52.036057 4.786377 38,000 313 420 0
2022-05-21 18:10:50 GMT 52.030972 4.795532 38,000 313 419 0
2022-05-21 18:10:47 GMT 52.025433 4.805577 38,000 313 419 0
2022-05-21 18:10:45 GMT 52.025433 4.805577 38,000 313 419 0
2022-05-21 18:10:43 GMT 52.023617 4.808873 38,000 313 419 0
2022-05-21 18:10:41 GMT 52.020355 4.814680 38,000 313 419 0
2022-05-21 18:10:39 GMT 52.017883 4.819107 38,000 313 419 0
2022-05-21 18:10:37 GMT 52.014130 4.825897 38,000 313 420 0
2022-05-21 18:10:34 GMT 52.007507 4.837751 38,000 313 420 0
2022-05-21 18:10:31 GMT 52.007507 4.837751 38,000 313 420 0
2022-05-21 18:10:28 GMT 51.999035 4.852897 38,000 313 419 0
2022-05-21 18:10:25 GMT 51.999035 4.852897 38,000 313 419 0
2022-05-21 18:10:22 GMT 51.995682 4.858932 38,000 313 419 0
2022-05-21 18:10:19 GMT 51.991928 4.865723 38,000 313 419 0
2022-05-21 18:10:17 GMT 51.989075 4.870789 38,000 313 419 0
2022-05-21 18:10:14 GMT 51.985428 4.877319 38,000 313 419 0
2022-05-21 18:10:11 GMT 51.977482 4.891506 38,000 313 419 0
2022-05-21 18:10:08 GMT 51.973984 4.897766 38,000 313 419 0
2022-05-21 18:10:05 GMT 51.971149 4.902884 38,000 313 419 0
2022-05-21 18:10:03 GMT 51.971149 4.902884 38,000 313 419 0
2022-05-21 18:10:01 GMT 51.967758 4.908981 38,000 313 419 0
2022-05-21 18:09:58 GMT 51.964508 4.914780 38,000 313 419 0
2022-05-21 18:09:55 GMT 51.960251 4.922409 38,000 313 419 0
2022-05-21 18:09:53 GMT 51.958420 4.925690 38,000 313 420 0
2022-05-21 18:09:51 GMT 51.956066 4.929879 38,000 313 419 0
2022-05-21 18:09:49 GMT 51.953091 4.935216 38,000 313 419 0
2022-05-21 18:09:46 GMT 51.948120 4.944077 38,000 313 420 0
2022-05-21 18:09:43 GMT 51.944756 4.950126 38,000 313 420 0
2022-05-21 18:09:41 GMT 51.942673 4.953842 38,000 313 420 0
2022-05-21 18:09:39 GMT 51.939449 4.959621 38,000 313 421 64
2022-05-21 18:09:36 GMT 51.935398 4.966840 38,000 313 421 64
2022-05-21 18:09:33 GMT 51.928322 4.979396 38,000 313 421 64
2022-05-21 18:09:30 GMT 51.928322 4.979396 38,000 313 421 64
2022-05-21 18:09:27 GMT 51.923355 4.988251 37,975 313 421 448
2022-05-21 18:09:24 GMT 51.921021 4.992447 37,975 313 421 128
2022-05-21 18:09:22 GMT 51.916946 4.999695 37,975 313 422 256
2022-05-21 18:09:19 GMT 51.914356 5.004351 37,975 313 421 256
2022-05-21 18:09:17 GMT 51.911224 5.009995 37,950 313 421 512
2022-05-21 18:09:14 GMT 51.907425 5.016708 37,925 313 421 512
2022-05-21 18:09:12 GMT 51.904816 5.021362 37,925 313 421 512
2022-05-21 18:09:10 GMT 51.899048 5.031662 37,900 313 421 448
2022-05-21 18:09:08 GMT 51.895889 5.037231 37,875 313 421 384
2022-05-21 18:09:05 GMT 51.895889 5.037231 37,850 313 421 448
2022-05-21 18:09:02 GMT 51.891453 5.045166 37,850 313 421 512
2022-05-21 18:08:59 GMT 51.887405 5.052338 37,825 313 421 512
2022-05-21 18:08:56 GMT 51.883255 5.059798 37,800 313 421 576
2022-05-21 18:08:53 GMT 51.880737 5.064252 37,775 313 421 576
2022-05-21 18:08:51 GMT 51.877907 5.069351 37,750 313 421 512
2022-05-21 18:08:49 GMT 51.874374 5.075609 37,725 313 420 512
2022-05-21 18:08:46 GMT 51.870575 5.082364 37,700 313 420 512
2022-05-21 18:08:44 GMT 51.867828 5.087190 37,700 313 420 512
2022-05-21 18:08:40 GMT 51.863384 5.095062 37,650 313 420 640
2022-05-21 18:08:38 GMT 51.855980 5.108261 37,600 313 420 832
2022-05-21 18:08:35 GMT 51.855980 5.108261 37,600 313 420 704
2022-05-21 18:08:32 GMT 51.852955 5.113602 37,575 313 420 768
2022-05-21 18:08:30 GMT 51.849838 5.119184 37,550 313 420 768
2022-05-21 18:08:28 GMT 51.845924 5.126114 37,450 313 420 832
2022-05-21 18:08:25 GMT 51.843319 5.130768 37,450 313 420 832
2022-05-21 18:08:22 GMT 51.839268 5.137939 37,425 313 421 768
2022-05-21 18:08:19 GMT 51.834938 5.145645 37,400 313 421 768
2022-05-21 18:08:16 GMT 51.827774 5.158378 37,350 313 421 768
2022-05-21 18:08:13 GMT 51.827774 5.158378 37,300 313 421 704
2022-05-21 18:08:10 GMT 51.823425 5.166024 37,275 313 421 704
2022-05-21 18:08:07 GMT 51.819530 5.173035 37,250 313 420 576
2022-05-21 18:08:05 GMT 51.817566 5.176491 37,175 313 421 576
2022-05-21 18:08:02 GMT 51.813263 5.184136 37,200 313 420 576
2022-05-21 18:08:00 GMT 51.809189 5.191337 37,125 313 420 512
2022-05-21 18:07:57 GMT 51.805389 5.198018 37,125 313 420 576
2022-05-21 18:07:54 GMT 51.802540 5.203094 37,100 313 420 576
2022-05-21 18:07:51 GMT 51.798721 5.209808 37,075 313 419 704
2022-05-21 18:07:48 GMT 51.794174 5.217912 37,050 313 419 768
2022-05-21 18:07:45 GMT 51.790249 5.224838 36,975 313 419 896
2022-05-21 18:07:42 GMT 51.786991 5.230637 36,975 313 419 896
2022-05-21 18:07:39 GMT 51.782940 5.237808 36,925 313 419 960
2022-05-21 18:07:37 GMT 51.780426 5.242157 36,850 313 420 960
2022-05-21 18:07:34 GMT 51.777145 5.247976 36,825 313 420 1024
2022-05-21 18:07:31 GMT 51.771397 5.258102 36,775 313 421 1024
2022-05-21 18:07:28 GMT 51.768814 5.262748 36,700 313 421 1088
2022-05-21 18:07:25 GMT 51.764877 5.269699 36,650 313 421 1152
2022-05-21 18:07:22 GMT 51.761215 5.276184 36,650 313 421 1216
2022-05-21 18:07:20 GMT 51.757141 5.283310 36,575 313 422 1216
2022-05-21 18:07:17 GMT 51.753056 5.290527 36,500 313 422 1280
2022-05-21 18:07:14 GMT 51.749748 5.296326 36,425 313 423 1344
2022-05-21 18:07:11 GMT 51.746613 5.301868 36,425 313 423 1344
2022-05-21 18:07:09 GMT 51.743958 5.306545 36,350 313 423 1408
2022-05-21 18:07:07 GMT 51.740021 5.313492 36,275 313 423 1408
2022-05-21 18:07:04 GMT 51.736542 5.319610 36,225 313 425 1344
2022-05-21 18:07:01 GMT 51.734062 5.324020 36,100 313 425 1152
2022-05-21 18:06:59 GMT 51.730865 5.329631 36,125 313 425 1152
2022-05-21 18:06:57 GMT 51.726891 5.336609 36,050 313 426 448
2022-05-21 18:06:54 GMT 51.723175 5.343141 36,050 313 426 960
2022-05-21 18:06:51 GMT 51.719330 5.349971 36,025 313 426 128
2022-05-21 18:06:48 GMT 51.715580 5.356445 36,000 313 426 0
2022-05-21 18:06:46 GMT 51.713058 5.360957 36,000 313 426 0
2022-05-21 18:06:44 GMT 51.710037 5.366302 36,000 313 426 0
2022-05-21 18:06:41 GMT 51.706696 5.372166 36,000 313 426 0
2022-05-21 18:06:38 GMT 51.702312 5.379868 36,000 313 426 0
2022-05-21 18:06:35 GMT 51.698318 5.386864 36,000 313 426 0
2022-05-21 18:06:32 GMT 51.694473 5.393619 36,000 313 426 0
2022-05-21 18:06:29 GMT 51.690308 5.400820 36,000 313 426 0
2022-05-21 18:06:27 GMT 51.687649 5.405502 36,000 313 426 0
2022-05-21 18:06:24 GMT 51.683395 5.412994 36,000 313 426 0
2022-05-21 18:06:21 GMT 51.679268 5.420227 36,000 313 426 0
2022-05-21 18:06:18 GMT 51.675964 5.426025 36,000 313 426 0
2022-05-21 18:06:15 GMT 51.672752 5.431671 36,000 313 426 0
2022-05-21 18:06:12 GMT 51.663986 5.446992 36,000 313 426 0
2022-05-21 18:06:09 GMT 51.663986 5.446992 36,000 313 426 0
2022-05-21 18:06:07 GMT 51.661999 5.450516 36,000 313 426 0
2022-05-21 18:06:04 GMT 51.656784 5.459595 36,000 313 426 0
2022-05-21 18:06:01 GMT 51.652920 5.466385 36,000 313 426 0
2022-05-21 18:05:58 GMT 51.646683 5.477295 36,000 313 426 0
2022-05-21 18:05:56 GMT 51.646683 5.477295 36,000 313 426 0
2022-05-21 18:05:53 GMT 51.642700 5.484330 36,000 313 426 0
2022-05-21 18:05:50 GMT 51.639130 5.490566 36,000 313 426 0
2022-05-21 18:05:48 GMT 51.631943 5.503111 36,000 313 426 0
2022-05-21 18:05:45 GMT 51.628059 5.509872 36,000 313 426 0
2022-05-21 18:05:42 GMT 51.628059 5.509872 36,000 313 425 0
2022-05-21 18:05:40 GMT 51.625946 5.513578 36,000 313 425 0
2022-05-21 18:05:37 GMT 51.620613 5.522919 36,000 313 425 0
2022-05-21 18:05:34 GMT 51.618118 5.527311 36,000 313 425 0
2022-05-21 18:05:31 GMT 51.612534 5.537035 36,000 313 425 0
2022-05-21 18:05:28 GMT 51.608414 5.544236 36,000 313 425 0
2022-05-21 18:05:25 GMT 51.603622 5.552597 36,000 313 425 0
2022-05-21 18:05:22 GMT 51.601364 5.556558 36,000 313 425 0
2022-05-21 18:05:19 GMT 51.598297 5.561829 36,000 313 425 0
2022-05-21 18:05:17 GMT 51.594311 5.568771 36,000 313 425 0
2022-05-21 18:05:15 GMT 51.592449 5.572052 36,000 313 425 0
2022-05-21 18:05:13 GMT 51.589279 5.577640 36,000 313 423 0
2022-05-21 18:05:10 GMT 51.585327 5.584564 36,000 313 423 0
2022-05-21 18:05:07 GMT 51.581314 5.591521 36,000 313 423 0
2022-05-21 18:05:04 GMT 51.576294 5.600281 36,000 313 424 0
2022-05-21 18:05:01 GMT 51.572983 5.606071 36,000 313 424 0
2022-05-21 18:04:58 GMT 51.569778 5.611572 36,000 313 424 0
2022-05-21 18:04:55 GMT 51.565914 5.618286 36,000 313 424 0
2022-05-21 18:04:53 GMT 51.562748 5.623856 36,000 313 423 0
2022-05-21 18:04:50 GMT 51.558746 5.630716 36,000 313 424 0
2022-05-21 18:04:48 GMT 51.557442 5.633087 36,000 313 424 0
2022-05-21 18:04:46 GMT 51.553848 5.639253 36,000 313 424 0
2022-05-21 18:04:43 GMT 51.548904 5.647789 36,000 313 424 0
2022-05-21 18:04:40 GMT 51.545197 5.654297 36,000 313 424 0
2022-05-21 18:04:37 GMT 51.540665 5.662116 36,000 313 424 0
2022-05-21 18:04:34 GMT 51.536678 5.669022 36,000 313 424 0
2022-05-21 18:04:31 GMT 51.534119 5.673447 36,000 313 424 0
2022-05-21 18:04:28 GMT 51.530022 5.680542 36,000 313 424 0
2022-05-21 18:04:26 GMT 51.527370 5.685196 36,000 313 424 0
2022-05-21 18:04:24 GMT 51.524948 5.689316 36,000 313 425 0
2022-05-21 18:04:21 GMT 51.518291 5.700912 36,000 313 424 0
2022-05-21 18:04:18 GMT 51.516312 5.704354 36,000 313 424 0
2022-05-21 18:04:16 GMT 51.513405 5.709457 36,000 313 425 0
2022-05-21 18:04:13 GMT 51.509674 5.715860 36,000 313 425 0
2022-05-21 18:04:10 GMT 51.506329 5.721664 36,000 313 425 0
2022-05-21 18:04:07 GMT 51.501114 5.730632 36,000 313 425 0
2022-05-21 18:04:04 GMT 51.494339 5.742435 36,000 313 425 0
2022-05-21 18:04:01 GMT 51.494339 5.742435 36,000 313 425 0
2022-05-21 18:03:58 GMT 51.489288 5.751190 36,000 313 424 0
2022-05-21 18:03:55 GMT 51.486496 5.755997 36,000 313 425 0
2022-05-21 18:03:53 GMT 51.482632 5.762711 36,000 313 425 0
2022-05-21 18:03:50 GMT 51.479420 5.768204 36,000 313 425 0
2022-05-21 18:03:48 GMT 51.475834 5.774460 36,000 313 425 0
2022-05-21 18:03:45 GMT 51.473053 5.779254 36,000 313 425 0
2022-05-21 18:03:42 GMT 51.467548 5.788727 36,000 313 425 0
2022-05-21 18:03:39 GMT 51.463852 5.795140 36,000 313 425 0
2022-05-21 18:03:36 GMT 51.459961 5.801820 36,000 313 425 0
2022-05-21 18:03:33 GMT 51.457306 5.806423 36,000 313 425 0
2022-05-21 18:03:30 GMT 51.453186 5.813623 36,000 313 425 0
2022-05-21 18:03:27 GMT 51.444077 5.829212 36,000 313 425 0
2022-05-21 18:03:24 GMT 51.440094 5.836190 36,000 313 425 0
2022-05-21 18:03:21 GMT 51.440094 5.836190 36,000 313 425 0
2022-05-21 18:03:18 GMT 51.435287 5.844430 36,000 313 425 64
2022-05-21 18:03:15 GMT 51.431984 5.850220 36,000 313 425 64
2022-05-21 18:03:13 GMT 51.429840 5.853857 36,000 313 424 128
2022-05-21 18:03:10 GMT 51.425858 5.860761 36,000 313 424 448
2022-05-21 18:03:08 GMT 51.423843 5.864250 35,975 313 424 512
2022-05-21 18:03:05 GMT 51.418762 5.872955 35,975 313 425 320
2022-05-21 18:03:02 GMT 51.413593 5.881958 35,950 313 424 512
2022-05-21 18:02:59 GMT 51.410660 5.886965 35,925 313 425 1024
2022-05-21 18:02:56 GMT 51.406612 5.893860 35,900 313 425 1024
2022-05-21 18:02:54 GMT 51.405308 5.896149 35,850 313 425 1024
2022-05-21 18:02:52 GMT 51.402603 5.900772 35,825 313 425 1024
2022-05-21 18:02:50 GMT 51.398605 5.907669 35,750 313 425 1024
2022-05-21 18:02:47 GMT 51.395672 5.912704 35,750 313 425 1024
2022-05-21 18:02:45 GMT 51.391891 5.919181 35,675 314 426 1024
2022-05-21 18:02:42 GMT 51.387897 5.926056 35,650 313 427 1024
2022-05-21 18:02:39 GMT 51.382233 5.935735 33,950 313 427 1024
2022-05-21 18:02:37 GMT 51.382233 5.935735 33,950 314 433 1280
2022-05-21 18:02:34 GMT 51.376865 5.944977 35,525 313 427 1024
2022-05-21 18:02:31 GMT 51.374176 5.949616 35,475 313 427 1024
2022-05-21 18:02:29 GMT 51.370953 5.955124 35,400 314 428 1024
2022-05-21 18:02:26 GMT 51.366394 5.962978 35,350 314 428 1152
2022-05-21 18:02:23 GMT 51.362457 5.969733 35,250 313 428 1472
2022-05-21 18:02:20 GMT 51.354893 5.982666 35,000 314 429 1536
2022-05-21 18:02:17 GMT 51.354893 5.982666 35,000 314 429 1536
2022-05-21 18:02:14 GMT 51.350876 5.989627 35,150 314 429 1600
2022-05-21 18:02:12 GMT 51.348312 5.994007 34,950 313 431 1408
2022-05-21 18:02:09 GMT 51.343552 6.002098 34,825 314 429 0
2022-05-21 18:02:06 GMT 51.339203 6.009598 34,850 313 431 1408
2022-05-21 18:02:03 GMT 51.335571 6.015854 34,800 314 432 1344
2022-05-21 18:02:00 GMT 51.330643 6.024219 34,750 314 432 1280
2022-05-21 18:01:57 GMT 51.327240 6.030045 34,650 314 432 1216
2022-05-21 18:01:55 GMT 51.325890 6.032410 34,650 314 432 1216
2022-05-21 18:01:53 GMT 51.322491 6.038208 34,625 314 432 1216
2022-05-21 18:01:51 GMT 51.318649 6.044707 34,525 314 432 1152
2022-05-21 18:01:48 GMT 51.315369 6.050339 34,525 314 432 1152
2022-05-21 18:01:45 GMT 51.309784 6.059875 34,450 314 433 1280
2022-05-21 18:01:42 GMT 51.307205 6.064305 34,400 314 433 1280
2022-05-21 18:01:39 GMT 51.303360 6.070862 34,275 314 433 1280
2022-05-21 18:01:36 GMT 51.298599 6.079003 34,275 314 433 1280
2022-05-21 18:01:34 GMT 51.295727 6.083908 34,150 314 433 1152
2022-05-21 18:01:31 GMT 51.290932 6.092072 34,150 314 433 1152
2022-05-21 18:01:28 GMT 51.285343 6.101608 34,100 314 433 960
2022-05-21 18:01:23 GMT 51.281250 6.108621 34,050 314 433 640
2022-05-21 18:01:20 GMT 51.273056 6.122577 34,000 314 432 192
2022-05-21 18:01:17 GMT 51.273056 6.122577 34,000 314 432 0
2022-05-21 18:01:14 GMT 51.267609 6.131897 34,000 314 431 0
2022-05-21 18:01:11 GMT 51.260513 6.143956 34,000 314 431 0
2022-05-21 18:01:08 GMT 51.260513 6.143956 34,000 314 431 0
2022-05-21 18:01:06 GMT 51.257629 6.148781 34,000 314 428 0
2022-05-21 18:01:04 GMT 51.256153 6.151352 34,000 314 429 0
2022-05-21 18:01:01 GMT 51.248428 6.164444 34,000 314 428 0
2022-05-21 18:00:59 GMT 51.248428 6.164444 34,000 314 426 64
2022-05-21 18:00:56 GMT 51.245041 6.170234 34,000 314 427 64
2022-05-21 18:00:54 GMT 51.238094 6.182098 34,000 313 425 128
2022-05-21 18:00:51 GMT 51.238094 6.182098 33,950 314 423 256
2022-05-21 18:00:48 GMT 51.233391 6.190109 33,950 314 423 256
2022-05-21 18:00:45 GMT 51.229248 6.197128 33,950 314 421 512
2022-05-21 18:00:42 GMT 51.225266 6.203935 33,925 314 420 704
2022-05-21 18:00:39 GMT 51.221146 6.210913 33,875 314 420 832
2022-05-21 18:00:36 GMT 51.216633 6.218567 33,825 314 419 832
2022-05-21 18:00:33 GMT 51.213593 6.223755 33,750 314 418 832
2022-05-21 18:00:30 GMT 51.210674 6.228714 33,800 314 418 832
2022-05-21 18:00:28 GMT 51.207787 6.233673 33,750 314 418 832
2022-05-21 18:00:25 GMT 51.203156 6.241496 33,725 314 418 832
2022-05-21 18:00:23 GMT 51.200775 6.245505 33,700 314 418 768
2022-05-21 18:00:20 GMT 51.196850 6.252213 33,650 314 416 768
2022-05-21 18:00:18 GMT 51.192753 6.259155 33,550 314 418 832
2022-05-21 18:00:15 GMT 51.190109 6.263617 33,550 314 418 832
2022-05-21 18:00:12 GMT 51.185860 6.270828 33,500 314 418 768
2022-05-21 18:00:09 GMT 51.181915 6.277499 33,325 314 418 768
2022-05-21 18:00:06 GMT 51.178207 6.283809 33,450 314 418 832
2022-05-21 18:00:03 GMT 51.174911 6.289376 33,325 314 419 768
2022-05-21 18:00:00 GMT 51.169617 6.298370 33,225 314 419 768
2022-05-21 17:59:57 GMT 51.165619 6.305113 33,325 314 419 768
2022-05-21 17:59:54 GMT 51.159653 6.315231 33,275 314 420 768
2022-05-21 17:59:51 GMT 51.157654 6.318623 33,250 314 420 832
2022-05-21 17:59:48 GMT 51.155548 6.322186 33,225 314 420 832
2022-05-21 17:59:46 GMT 51.152206 6.327828 33,200 314 420 832
2022-05-21 17:59:44 GMT 51.148911 6.333470 33,150 314 420 832
2022-05-21 17:59:42 GMT 51.146210 6.337924 33,125 314 420 832
2022-05-21 17:59:39 GMT 51.138519 6.350988 33,075 314 420 1472
2022-05-21 17:59:36 GMT 51.138519 6.350988 33,025 314 420 832
2022-05-21 17:59:33 GMT 51.133072 6.360267 33,025 314 420 896
2022-05-21 17:59:30 GMT 51.130280 6.364944 32,900 314 420 1472
2022-05-21 17:59:27 GMT 51.126984 6.370586 32,850 314 420 1472
2022-05-21 17:59:24 GMT 51.122177 6.378708 32,800 314 420 1472
2022-05-21 17:59:22 GMT 51.120209 6.382092 32,725 314 420 1472
2022-05-21 17:59:19 GMT 51.114868 6.391144 32,650 314 420 1472
2022-05-21 17:59:16 GMT 51.110916 6.397903 32,575 314 421 1536
2022-05-21 17:59:12 GMT 51.103279 6.410675 32,450 314 422 1600
2022-05-21 17:59:08 GMT 51.101368 6.413803 32,425 314 422 1600
2022-05-21 17:59:06 GMT 51.098694 6.418243 32,325 315 422 1600
2022-05-21 17:59:03 GMT 51.093933 6.426037 32,250 315 422 1664
2022-05-21 17:59:00 GMT 51.089584 6.433089 32,200 315 422 1664
2022-05-21 17:58:57 GMT 51.086052 6.438904 32,125 315 422 1600
2022-05-21 17:58:55 GMT 51.083725 6.442642 32,050 315 422 1472
2022-05-21 17:58:52 GMT 51.078419 6.451340 31,525 315 422 1664
2022-05-21 17:58:49 GMT 51.074341 6.458031 31,575 315 422 1728
2022-05-21 17:58:46 GMT 51.071503 6.462633 31,575 315 422 1728
2022-05-21 17:58:43 GMT 51.067657 6.468869 31,775 315 422 1600
2022-05-21 17:58:41 GMT 51.064819 6.473545 31,600 315 422 1792
2022-05-21 17:58:38 GMT 51.060883 6.480004 31,600 315 422 1792
2022-05-21 17:58:36 GMT 51.056900 6.486388 31,475 315 422 1792
2022-05-21 17:58:33 GMT 51.053795 6.491547 31,375 315 424 1920
2022-05-21 17:58:31 GMT 51.050217 6.497300 31,375 315 423 1920
2022-05-21 17:58:28 GMT 51.046669 6.503067 31,000 315 425 2048
2022-05-21 17:58:26 GMT 51.043922 6.507492 31,175 315 424 1920
2022-05-21 17:58:23 GMT 51.040100 6.513779 31,150 315 424 1984
2022-05-21 17:58:21 GMT 51.036713 6.519346 31,050 315 426 2176
2022-05-21 17:58:18 GMT 51.032730 6.525805 31,000 315 437 1728
2022-05-21 17:58:15 GMT 51.026276 6.536271 30,500 315 428 2368
2022-05-21 17:58:13 GMT 51.023533 6.540756 30,700 315 427 2304
2022-05-21 17:58:11 GMT 51.023533 6.540756 30,750 315 427 2304
2022-05-21 17:58:09 GMT 51.017296 6.550827 30,575 315 429 2368
2022-05-21 17:58:06 GMT 51.017296 6.550827 30,575 315 430 2368
2022-05-21 17:58:04 GMT 51.013184 6.557576 30,325 315 429 2368
2022-05-21 17:58:01 GMT 51.009846 6.562958 30,350 315 430 2368
2022-05-21 17:57:59 GMT 51.007050 6.567449 30,100 315 432 2368
2022-05-21 17:57:56 GMT 51.003754 6.572868 30,175 315 432 2368
2022-05-21 17:57:54 GMT 50.999954 6.579029 30,000 315 432 2304
2022-05-21 17:57:51 GMT 50.994827 6.587343 29,875 315 433 2112
2022-05-21 17:57:48 GMT 50.989105 6.596622 29,825 315 434 2112
2022-05-21 17:57:46 GMT 50.989105 6.596622 29,800 315 433 2112
2022-05-21 17:57:44 GMT 50.986542 6.600779 29,650 315 434 2112
2022-05-21 17:57:41 GMT 50.981506 6.608944 29,600 315 434 2112
2022-05-21 17:57:38 GMT 50.977306 6.615753 29,500 315 435 2048
2022-05-21 17:57:36 GMT 50.975353 6.618958 29,475 315 435 1984
2022-05-21 17:57:33 GMT 50.965763 6.634445 29,225 315 436 1856
2022-05-21 17:57:30 GMT 50.965763 6.634445 29,225 315 436 1856
2022-05-21 17:57:28 GMT 50.962967 6.639008 29,075 315 437 1792
2022-05-21 17:57:25 GMT 50.955196 6.651535 29,075 315 437 1792
2022-05-21 17:57:22 GMT 50.955196 6.651535 29,000 315 437 1792
2022-05-21 17:57:20 GMT 50.953239 6.654739 28,950 315 437 1728
2022-05-21 17:57:18 GMT 50.948818 6.661835 28,850 315 437 1728
2022-05-21 17:57:15 GMT 50.940205 6.675720 28,550 315 437 1728
2022-05-21 17:57:12 GMT 50.940205 6.675720 28,700 315 437 1728
2022-05-21 17:57:09 GMT 50.935684 6.683028 28,600 315 437 1728
2022-05-21 17:57:06 GMT 50.932159 6.688744 28,500 315 437 1664
2022-05-21 17:57:03 GMT 50.928940 6.694031 28,450 315 437 1600
2022-05-21 17:57:01 GMT 50.924564 6.701050 28,400 315 437 1664
2022-05-21 17:56:58 GMT 50.921585 6.705856 28,325 315 437 1600
2022-05-21 17:56:56 GMT 50.915634 6.715467 28,250 315 437 1472
2022-05-21 17:56:54 GMT 50.915634 6.715467 28,175 315 437 1344
2022-05-21 17:56:52 GMT 50.911514 6.722074 28,150 315 437 1216
2022-05-21 17:56:49 GMT 50.907990 6.727790 27,975 315 437 1088
2022-05-21 17:56:46 GMT 50.904312 6.733704 28,050 315 436 1024
2022-05-21 17:56:44 GMT 50.900116 6.740558 27,975 315 435 1024
2022-05-21 17:56:41 GMT 50.896454 6.746422 27,950 315 434 1088
2022-05-21 17:56:38 GMT 50.892380 6.753029 27,825 315 434 1088
2022-05-21 17:56:35 GMT 50.888161 6.759796 27,850 315 432 1152
2022-05-21 17:56:32 GMT 50.884808 6.765213 27,800 315 432 1152
2022-05-21 17:56:29 GMT 50.880154 6.772614 27,750 315 432 1216
2022-05-21 17:56:27 GMT 50.877090 6.777599 27,675 315 430 1344
2022-05-21 17:56:24 GMT 50.871918 6.785913 27,625 315 430 1344
2022-05-21 17:56:21 GMT 50.870361 6.788437 27,625 315 430 1344
2022-05-21 17:56:18 GMT 50.864929 6.797180 27,500 315 430 1344
2022-05-21 17:56:15 GMT 50.859924 6.805214 27,425 315 430 1344
2022-05-21 17:56:12 GMT 50.856319 6.811066 27,375 315 429 1408
2022-05-21 17:56:09 GMT 50.851429 6.818924 27,225 315 429 1408
2022-05-21 17:56:06 GMT 50.847244 6.825628 27,200 315 429 1344
2022-05-21 17:56:03 GMT 50.843216 6.832086 27,125 315 429 1344
2022-05-21 17:56:00 GMT 50.839607 6.837921 27,100 315 429 1344
2022-05-21 17:55:58 GMT 50.837093 6.841888 27,025 315 429 1344
2022-05-21 17:55:55 GMT 50.834015 6.846784 27,000 315 428 1344
2022-05-21 17:55:52 GMT 50.828888 6.855023 26,900 315 429 1344
2022-05-21 17:55:49 GMT 50.823593 6.863480 26,800 315 427 1344
2022-05-21 17:55:46 GMT 50.820286 6.868820 26,775 315 427 1344
2022-05-21 17:55:43 GMT 50.816666 6.874621 26,725 315 427 1344
2022-05-21 17:55:37 GMT 50.804077 6.894812 26,525 315 426 1088
2022-05-21 17:55:30 GMT 50.799107 6.902847 26,450 315 424 1088
2022-05-21 17:55:27 GMT 50.794144 6.910772 26,350 315 424 1088
2022-05-21 17:55:24 GMT 50.789886 6.917601 26,250 315 424 1088
2022-05-21 17:55:21 GMT 50.782997 6.928558 26,300 315 423 1216
2022-05-21 17:55:19 GMT 50.782997 6.928558 26,225 315 422 1280
2022-05-21 17:55:17 GMT 50.779835 6.933670 26,050 315 421 1280
2022-05-21 17:55:13 GMT 50.767914 6.952667 26,025 315 421 1280
2022-05-21 17:55:08 GMT 50.767914 6.952667 25,925 315 421 1280
2022-05-21 17:55:05 GMT 50.765076 6.957315 25,925 315 421 1280
2022-05-21 17:55:03 GMT 50.761211 6.963425 25,850 315 420 1152
2022-05-21 17:55:00 GMT 50.755905 6.971893 25,825 315 420 1088
2022-05-21 17:54:57 GMT 50.748920 6.982956 25,800 315 420 1024
2022-05-21 17:54:54 GMT 50.748920 6.982956 25,750 315 417 1088
2022-05-21 17:54:51 GMT 50.745010 6.989288 25,675 315 418 1280
2022-05-21 17:54:49 GMT 50.742542 6.993179 25,650 315 418 1280
2022-05-21 17:54:47 GMT 50.739983 6.997299 25,550 315 418 1280
2022-05-21 17:54:45 GMT 50.735641 7.004230 25,500 315 417 1152
2022-05-21 17:54:42 GMT 50.732395 7.009430 25,450 315 417 1024
2022-05-21 17:54:39 GMT 50.728317 7.015958 25,450 315 417 1024
2022-05-21 17:54:36 GMT 50.725616 7.020264 25,400 315 415 896
2022-05-21 17:54:33 GMT 50.719406 7.030106 25,350 315 415 896
2022-05-21 17:54:30 GMT 50.717407 7.033386 25,325 315 415 896
2022-05-21 17:54:27 GMT 50.709595 7.045799 25,250 315 413 896
2022-05-21 17:54:24 GMT 50.705303 7.052612 25,225 315 412 960
2022-05-21 17:54:22 GMT 50.705303 7.052612 25,200 315 412 960
2022-05-21 17:54:20 GMT 50.703953 7.054749 25,125 315 412 1024
2022-05-21 17:54:17 GMT 50.698879 7.062836 25,100 315 411 1088
2022-05-21 17:54:15 GMT 50.696228 7.067104 25,075 315 410 1152
2022-05-21 17:54:13 GMT 50.692314 7.073288 24,975 315 410 1216
2022-05-21 17:54:10 GMT 50.690079 7.076874 24,975 315 410 1216
2022-05-21 17:54:08 GMT 50.687428 7.081146 24,950 315 410 1216
2022-05-21 17:54:05 GMT 50.682491 7.089005 24,850 315 409 1280
2022-05-21 17:54:02 GMT 50.674763 7.101212 24,800 315 409 1280
2022-05-21 17:53:59 GMT 50.674763 7.101212 24,725 315 409 1344
2022-05-21 17:53:57 GMT 50.671970 7.105713 24,700 315 409 1280
2022-05-21 17:53:55 GMT 50.669319 7.109936 24,650 315 408 1280
2022-05-21 17:53:53 GMT 50.666656 7.114153 24,550 315 408 1408
2022-05-21 17:53:50 GMT 50.663452 7.119213 24,525 315 408 1408
2022-05-21 17:53:47 GMT 50.658283 7.127380 24,425 315 408 1408
2022-05-21 17:53:44 GMT 50.654423 7.133542 24,325 315 407 1344
2022-05-21 17:53:41 GMT 50.647018 7.145305 24,275 315 407 1344
2022-05-21 17:53:38 GMT 50.643852 7.150318 24,250 315 407 1280
2022-05-21 17:53:36 GMT 50.643852 7.150318 24,225 315 407 1216
2022-05-21 17:53:33 GMT 50.640381 7.155786 24,150 315 405 1088
2022-05-21 17:53:30 GMT 50.636684 7.161676 24,000 315 405 1088
2022-05-21 17:53:28 GMT 50.629841 7.172588 24,050 315 405 1088
2022-05-21 17:53:26 GMT 50.629841 7.172588 24,025 315 405 1088
2022-05-21 17:53:23 GMT 50.628490 7.174666 24,000 315 405 1088
2022-05-21 17:53:21 GMT 50.625374 7.179640 23,950 315 404 1088
2022-05-21 17:53:19 GMT 50.623260 7.182963 23,850 315 403 1088
2022-05-21 17:53:16 GMT 50.618015 7.191294 23,825 315 403 1152
2022-05-21 17:53:13 GMT 50.614334 7.197129 23,800 315 403 1216
2022-05-21 17:53:10 GMT 50.604752 7.212302 23,575 315 401 1280
2022-05-21 17:53:07 GMT 50.604752 7.212302 23,600 315 400 1280
2022-05-21 17:53:04 GMT 50.598770 7.221776 23,575 315 400 1280
2022-05-21 17:53:01 GMT 50.598770 7.221776 23,350 315 400 1280
2022-05-21 17:52:58 GMT 50.594044 7.229227 23,475 315 400 1280
2022-05-21 17:52:54 GMT 50.588455 7.238060 23,375 315 398 1088
2022-05-21 17:52:51 GMT 50.584305 7.244616 23,275 315 399 1280
2022-05-21 17:52:47 GMT 50.579727 7.251844 23,225 315 399 1216
2022-05-21 17:52:44 GMT 50.572350 7.263522 23,150 315 398 1088
2022-05-21 17:52:41 GMT 50.572350 7.263522 23,075 315 396 832
2022-05-21 17:52:38 GMT 50.568466 7.269624 23,075 315 395 832
2022-05-21 17:52:35 GMT 50.564713 7.275551 23,050 315 394 896
2022-05-21 17:52:32 GMT 50.560059 7.282896 22,975 315 394 896
2022-05-21 17:52:29 GMT 50.557480 7.286899 22,975 315 394 960
2022-05-21 17:52:27 GMT 50.555031 7.290765 22,950 315 393 960
2022-05-21 17:52:25 GMT 50.552097 7.295441 22,900 315 391 1152
2022-05-21 17:52:23 GMT 50.548141 7.301677 22,850 315 392 1088
2022-05-21 17:52:20 GMT 50.544559 7.307319 22,775 315 391 1280
2022-05-21 17:52:17 GMT 50.541904 7.311550 22,750 315 391 1344
2022-05-21 17:52:13 GMT 50.534222 7.323575 22,600 315 390 1600
2022-05-21 17:52:10 GMT 50.533081 7.325423 22,575 315 390 1536
2022-05-21 17:52:07 GMT 50.529419 7.331206 22,475 315 389 1600
2022-05-21 17:52:05 GMT 50.526855 7.335181 22,400 315 390 1664
2022-05-21 17:52:03 GMT 50.524075 7.339610 22,400 315 390 1664
2022-05-21 17:52:01 GMT 50.521141 7.344212 22,325 315 390 1600
2022-05-21 17:51:59 GMT 50.519375 7.347033 22,250 315 389 1472
2022-05-21 17:51:57 GMT 50.514160 7.355272 22,225 315 389 1536
2022-05-21 17:51:55 GMT 50.514160 7.355272 22,125 315 389 1472
2022-05-21 17:51:53 GMT 50.511505 7.359429 22,125 315 389 1472
2022-05-21 17:51:51 GMT 50.508453 7.364237 22,075 315 389 1472
2022-05-21 17:51:49 GMT 50.505890 7.368212 22,025 315 388 1536
2022-05-21 17:51:46 GMT 50.502731 7.373199 21,975 315 388 1536
2022-05-21 17:51:43 GMT 50.498425 7.379992 21,875 315 388 1472
2022-05-21 17:51:39 GMT 50.494747 7.385782 21,750 315 388 1408
2022-05-21 17:51:37 GMT 50.490417 7.392570 21,725 315 388 1408
2022-05-21 17:51:33 GMT 50.485245 7.400665 21,550 315 386 1600
2022-05-21 17:51:30 GMT 50.481945 7.405824 21,550 315 386 1600
2022-05-21 17:51:27 GMT 50.478127 7.411837 21,400 315 387 1600
2022-05-21 17:51:24 GMT 50.474728 7.417182 21,350 316 386 1600
2022-05-21 17:51:21 GMT 50.470184 7.424300 21,250 315 386 1600
2022-05-21 17:51:18 GMT 50.466908 7.429430 21,200 315 386 1600
2022-05-21 17:51:15 GMT 50.462997 7.435517 21,150 315 386 1600
2022-05-21 17:51:12 GMT 50.459599 7.440862 21,025 316 375 1664
2022-05-21 17:51:09 GMT 50.455921 7.446578 20,875 315 386 1600
2022-05-21 17:51:07 GMT 50.452896 7.451329 20,925 316 385 1536
2022-05-21 17:51:05 GMT 50.450363 7.455308 20,900 316 385 1600
2022-05-21 17:51:02 GMT 50.446098 7.461944 20,800 315 384 1600
2022-05-21 17:50:59 GMT 50.440933 7.470035 20,575 316 383 1408
2022-05-21 17:50:54 GMT 50.433392 7.481838 20,175 316 378 1216
2022-05-21 17:50:51 GMT 50.433392 7.481838 20,525 316 375 1664
2022-05-21 17:50:49 GMT 50.429123 7.488556 20,450 315 383 1280
2022-05-21 17:50:46 GMT 50.426971 7.491881 20,425 315 383 1408
2022-05-21 17:50:44 GMT 50.423847 7.496759 20,375 315 383 1344
2022-05-21 17:50:42 GMT 50.421341 7.500699 20,325 315 380 1152
2022-05-21 17:50:40 GMT 50.419601 7.503445 20,250 315 379 1152
2022-05-21 17:50:38 GMT 50.416866 7.507745 20,250 315 381 1152
2022-05-21 17:50:35 GMT 50.412598 7.514359 20,175 315 380 1152
2022-05-21 17:50:32 GMT 50.409256 7.519563 20,125 315 377 1280
2022-05-21 17:50:29 GMT 50.404808 7.526600 20,075 315 379 1152
2022-05-21 17:50:26 GMT 50.398476 7.536398 19,900 316 376 1344
2022-05-21 17:50:24 GMT 50.398476 7.536398 19,950 316 376 1344
2022-05-21 17:50:21 GMT 50.395660 7.540813 19,825 316 375 1536
2022-05-21 17:50:18 GMT 50.391495 7.547391 19,825 316 375 1472
2022-05-21 17:50:16 GMT 50.387676 7.553323 19,725 315 374 1728
2022-05-21 17:50:14 GMT 50.387676 7.553323 19,725 316 375 1664
2022-05-21 17:50:11 GMT 50.383255 7.560184 19,650 315 374 1792
2022-05-21 17:50:08 GMT 50.379959 7.565388 19,525 315 374 1792
2022-05-21 17:50:06 GMT 50.377350 7.569363 19,475 316 374 1792
2022-05-21 17:50:04 GMT 50.373596 7.575290 19,400 315 374 1792
2022-05-21 17:50:01 GMT 50.371857 7.577964 19,325 316 374 1792
2022-05-21 17:49:58 GMT 50.367706 7.584501 19,225 316 374 1792
2022-05-21 17:49:55 GMT 50.363663 7.590758 19,125 316 374 1792
2022-05-21 17:49:53 GMT 50.359039 7.598058 19,050 316 374 1792
2022-05-21 17:49:51 GMT 50.359039 7.598058 18,850 315 373 1728
2022-05-21 17:49:48 GMT 50.354599 7.604924 18,875 316 372 1600
2022-05-21 17:49:45 GMT 50.352062 7.608923 18,875 316 372 1600
2022-05-21 17:49:43 GMT 50.349503 7.612932 18,750 316 372 1600
2022-05-21 17:49:40 GMT 50.343498 7.622211 18,650 316 372 1600
2022-05-21 17:49:36 GMT 50.339962 7.627704 18,600 316 371 1664
2022-05-21 17:49:34 GMT 50.338238 7.630376 18,550 316 371 1664
2022-05-21 17:49:31 GMT 50.334095 7.636834 18,450 316 371 1664
2022-05-21 17:49:29 GMT 50.331299 7.641208 18,375 316 371 1664
2022-05-21 17:49:26 GMT 50.327774 7.646629 18,225 316 370 1856
2022-05-21 17:49:23 GMT 50.324890 7.651182 18,200 316 354 3136
2022-05-21 17:49:20 GMT 50.320362 7.658139 18,125 316 370 2112
2022-05-21 17:49:18 GMT 50.318687 7.660811 17,950 316 371 1984
2022-05-21 17:49:16 GMT 50.315613 7.665562 17,950 316 371 1984
2022-05-21 17:49:14 GMT 50.313332 7.669125 17,925 316 371 1856
2022-05-21 17:49:11 GMT 50.309933 7.674396 17,775 316 371 1856
2022-05-21 17:49:08 GMT 50.305046 7.681967 17,700 316 371 1536
2022-05-21 17:49:05 GMT 50.303371 7.684640 17,675 315 370 1472
2022-05-21 17:49:03 GMT 50.300575 7.688945 17,650 315 370 1344
2022-05-21 17:49:00 GMT 50.297333 7.694044 17,575 315 369 1152
2022-05-21 17:48:57 GMT 50.293350 7.700260 17,475 316 365 704
2022-05-21 17:48:54 GMT 50.289230 7.706620 17,450 316 362 704
2022-05-21 17:48:51 GMT 50.285660 7.712186 17,450 316 362 704
2022-05-21 17:48:49 GMT 50.283417 7.715727 17,400 316 362 704
2022-05-21 17:48:46 GMT 50.280560 7.720122 17,375 316 362 704
2022-05-21 17:48:44 GMT 50.277100 7.725412 17,350 316 359 768
2022-05-21 17:48:41 GMT 50.274170 7.730038 17,325 316 357 768
2022-05-21 17:48:38 GMT 50.270412 7.735785 17,300 316 356 1024
2022-05-21 17:48:35 GMT 50.267479 7.740314 17,225 316 354 1728
2022-05-21 17:48:33 GMT 50.264221 7.745361 17,025 316 354 2624
2022-05-21 17:48:30 GMT 50.261444 7.749698 17,025 316 354 2624
2022-05-21 17:48:28 GMT 50.259796 7.752156 16,750 316 354 3136
2022-05-21 17:48:25 GMT 50.255356 7.759022 16,750 316 356 3648
2022-05-21 17:48:23 GMT 50.253372 7.762064 16,650 316 357 3776
2022-05-21 17:48:21 GMT 50.250443 7.766592 16,425 316 361 3264
2022-05-21 17:48:18 GMT 50.245319 7.774460 16,275 316 363 2560
2022-05-21 17:48:14 GMT 50.241596 7.780176 16,075 316 364 1728
2022-05-21 17:48:11 GMT 50.238739 7.784609 16,075 316 364 1728
2022-05-21 17:48:09 GMT 50.236195 7.788416 16,050 316 364 1664
2022-05-21 17:48:07 GMT 50.233215 7.793018 15,950 316 363 1664
2022-05-21 17:48:05 GMT 50.231541 7.795616 15,900 316 363 1664
2022-05-21 17:48:02 GMT 50.228210 7.800727 15,825 316 362 1664
2022-05-21 17:47:58 GMT 50.223907 7.807345 15,700 316 362 1856
2022-05-21 17:47:56 GMT 50.221439 7.811205 15,650 316 362 1920
2022-05-21 17:47:54 GMT 50.218784 7.815288 15,500 316 362 1920
2022-05-21 17:47:52 GMT 50.216171 7.819302 15,500 316 361 1856
2022-05-21 17:47:49 GMT 50.212128 7.825532 15,425 316 361 1792
2022-05-21 17:47:47 GMT 50.210587 7.827903 15,400 316 361 1792
2022-05-21 17:47:45 GMT 50.207611 7.832457 15,300 316 360 1856
2022-05-21 17:47:43 GMT 50.205597 7.835565 15,200 316 360 1600
2022-05-21 17:47:40 GMT 50.201328 7.842086 15,150 316 360 1664
2022-05-21 17:47:38 GMT 50.199654 7.844684 15,100 316 360 1600
2022-05-21 17:47:36 GMT 50.197186 7.848470 15,000 316 359 1472
2022-05-21 17:47:33 GMT 50.193508 7.854111 14,975 316 358 1408
2022-05-21 17:47:30 GMT 50.189411 7.860421 14,875 316 357 1536
2022-05-21 17:47:27 GMT 50.187038 7.864058 14,825 316 357 1664
2022-05-21 17:47:25 GMT 50.184105 7.868586 14,750 316 357 1792
2022-05-21 17:47:23 GMT 50.181747 7.872210 14,650 316 356 1856
2022-05-21 17:47:20 GMT 50.175446 7.881874 14,625 316 355 1920
2022-05-21 17:47:18 GMT 50.175446 7.881874 14,525 316 355 1920
2022-05-21 17:47:16 GMT 50.173553 7.884787 14,500 316 355 1856
2022-05-21 17:47:14 GMT 50.171349 7.888184 14,325 316 354 1792
2022-05-21 17:47:11 GMT 50.167145 7.894616 14,325 316 354 1792
2022-05-21 17:47:08 GMT 50.164444 7.898736 14,200 316 353 1856
2022-05-21 17:47:06 GMT 50.161743 7.902856 14,200 316 353 1920
2022-05-21 17:47:04 GMT 50.155476 7.912532 14,000 316 353 2048
2022-05-21 17:47:01 GMT 50.155476 7.912532 13,950 316 352 2112
2022-05-21 17:46:58 GMT 50.152122 7.917654 13,875 316 352 2176
2022-05-21 17:46:56 GMT 50.150494 7.920178 13,825 316 353 2304
2022-05-21 17:46:54 GMT 50.147919 7.924106 13,750 316 353 2368
2022-05-21 17:46:52 GMT 50.145493 7.927864 13,625 316 352 2368
2022-05-21 17:46:49 GMT 50.139771 7.936538 13,500 316 352 2624
2022-05-21 17:46:47 GMT 50.139771 7.936538 13,450 316 353 2624
2022-05-21 17:46:44 GMT 50.136154 7.942031 13,300 316 354 2688
2022-05-21 17:46:42 GMT 50.134151 7.945119 13,250 316 354 2624
2022-05-21 17:46:39 GMT 50.129593 7.952097 13,025 316 354 2432
2022-05-21 17:46:36 GMT 50.126816 7.956342 13,025 316 354 2368
2022-05-21 17:46:34 GMT 50.124237 7.960337 12,900 316 354 2176
2022-05-21 17:46:32 GMT 50.122467 7.962992 12,800 316 354 2112
2022-05-21 17:46:28 GMT 50.114880 7.974590 12,650 316 354 2240
2022-05-21 17:46:26 GMT 50.114880 7.974590 12,550 316 354 2304
2022-05-21 17:46:24 GMT 50.112553 7.978153 12,550 316 354 2304
2022-05-21 17:46:22 GMT 50.110924 7.980677 12,500 316 354 2240
2022-05-21 17:46:19 GMT 50.102962 7.992776 12,325 316 353 1920
2022-05-21 17:46:16 GMT 50.101242 7.995449 12,200 316 353 1856
2022-05-21 17:46:14 GMT 50.101242 7.995449 12,200 316 353 1856
2022-05-21 17:46:12 GMT 50.098206 8.000071 12,125 316 352 1728
2022-05-21 17:46:09 GMT 50.094818 8.005247 12,025 316 351 1728
2022-05-21 17:46:06 GMT 50.091339 8.010551 12,000 316 350 1792
2022-05-21 17:46:03 GMT 50.087997 8.015683 11,875 316 350 1984
2022-05-21 17:45:59 GMT 50.083740 8.022188 11,725 316 349 2432
2022-05-21 17:45:57 GMT 50.082016 8.024845 11,675 316 349 2368
2022-05-21 17:45:54 GMT 50.078339 8.030428 11,425 316 349 2304
2022-05-21 17:45:52 GMT 50.075226 8.035198 11,425 316 349 2240
2022-05-21 17:45:49 GMT 50.072239 8.039765 11,350 316 349 2176
2022-05-21 17:45:47 GMT 50.068314 8.045751 11,250 316 348 2112
2022-05-21 17:45:45 GMT 50.068314 8.045751 11,150 316 348 2112
2022-05-21 17:45:43 GMT 50.065674 8.049787 11,150 316 347 2048
2022-05-21 17:45:39 GMT 50.060303 8.058038 10,850 316 347 2240
2022-05-21 17:45:37 GMT 50.056641 8.063603 10,875 316 347 2432
2022-05-21 17:45:35 GMT 50.056641 8.063603 10,850 316 347 2560
2022-05-21 17:45:33 GMT 50.054131 8.067454 10,725 316 347 2560
2022-05-21 17:45:31 GMT 50.051708 8.071165 10,700 316 347 2560
2022-05-21 17:45:27 GMT 50.046661 8.078782 10,475 316 348 2368
2022-05-21 17:45:25 GMT 50.044819 8.081632 10,400 316 347 2304
2022-05-21 17:45:23 GMT 50.042633 8.084926 10,350 316 347 2240
2022-05-21 17:45:20 GMT 50.035767 8.095406 10,125 316 347 2112
2022-05-21 17:45:17 GMT 50.035767 8.095406 10,150 316 347 2112
2022-05-21 17:45:15 GMT 50.030869 8.102923 10,000 316 345 2240
2022-05-21 17:45:13 GMT 50.030869 8.102923 9,975 316 345 2304
2022-05-21 17:45:10 GMT 50.028713 8.106277 9,900 316 345 2368
2022-05-21 17:45:07 GMT 50.024754 8.112364 9,750 316 344 2432
2022-05-21 17:45:05 GMT 50.022079 8.116584 9,650 316 344 2432
2022-05-21 17:45:03 GMT 50.019821 8.120010 9,600 316 344 2432
2022-05-21 17:45:01 GMT 50.017319 8.123884 9,450 316 344 2112
2022-05-21 17:44:58 GMT 50.013840 8.129305 9,400 315 345 1792
2022-05-21 17:44:55 GMT 50.011024 8.133669 9,325 315 345 1536
2022-05-21 17:44:53 GMT 50.009216 8.136460 9,225 315 344 1216
2022-05-21 17:44:51 GMT 50.006042 8.141389 9,000 320 344 960
2022-05-21 17:44:48 GMT 50.001114 8.149037 9,125 315 346 896
2022-05-21 17:44:44 GMT 49.998734 8.152723 9,125 315 345 896
2022-05-21 17:44:42 GMT 49.996124 8.156770 9,075 316 346 960
2022-05-21 17:44:39 GMT 49.992588 8.162174 9,025 316 347 1024
2022-05-21 17:44:37 GMT 49.990398 8.165440 9,000 317 346 1088
2022-05-21 17:44:35 GMT 49.987747 8.169374 8,950 317 345 1088
2022-05-21 17:44:32 GMT 49.984589 8.173973 8,900 319 345 1024
2022-05-21 17:44:28 GMT 49.979599 8.180583 8,800 324 342 896
2022-05-21 17:44:25 GMT 49.975479 8.185465 8,775 325 341 960
2022-05-21 17:44:23 GMT 49.974060 8.187055 8,775 326 340 960
2022-05-21 17:44:20 GMT 49.969574 8.191898 8,700 327 337 960
2022-05-21 17:44:17 GMT 49.965546 8.196090 8,650 327 335 960
2022-05-21 17:44:15 GMT 49.962982 8.198764 8,625 327 332 1024
2022-05-21 17:44:12 GMT 49.958607 8.203224 8,575 327 329 1024
2022-05-21 17:44:09 GMT 49.954926 8.207010 8,525 327 327 1024
2022-05-21 17:44:06 GMT 49.951248 8.210647 8,475 328 324 1024
2022-05-21 17:44:04 GMT 49.949478 8.212429 8,450 328 323 1024
2022-05-21 17:44:02 GMT 49.946732 8.215244 8,400 328 318 1024
2022-05-21 17:44:00 GMT 49.944122 8.217846 8,375 328 318 1024
2022-05-21 17:43:56 GMT 49.938538 8.223339 8,300 328 314 1024
2022-05-21 17:43:53 GMT 49.935516 8.226384 8,075 326 302 1216
2022-05-21 17:43:51 GMT 49.933090 8.228832 8,225 327 309 1088
2022-05-21 17:43:47 GMT 49.927963 8.234036 8,125 326 305 1152
2022-05-21 17:43:45 GMT 49.926315 8.235771 8,100 326 304 1216
2022-05-21 17:43:43 GMT 49.920593 8.241914 8,000 325 300 1216
2022-05-21 17:43:40 GMT 49.920593 8.241914 7,550 325 297 1216
2022-05-21 17:43:37 GMT 49.917873 8.244868 7,950 325 297 1216
2022-05-21 17:43:35 GMT 49.912472 8.251029 7,875 324 292 1344
2022-05-21 17:43:33 GMT 49.912472 8.251029 7,850 324 291 1472
2022-05-21 17:43:30 GMT 49.904324 8.260531 7,600 319 287 1664
2022-05-21 17:43:25 GMT 49.904324 8.260531 7,625 322 288 1856
2022-05-21 17:43:23 GMT 49.901871 8.263670 7,550 316 284 1472
2022-05-21 17:43:20 GMT 49.899216 8.267573 7,475 314 283 1408
2022-05-21 17:43:18 GMT 49.897385 8.270681 7,450 309 279 1344
2022-05-21 17:43:15 GMT 49.895279 8.274946 7,400 305 276 1280
2022-05-21 17:43:13 GMT 49.893337 8.279609 7,300 298 272 1216
2022-05-21 17:43:11 GMT 49.892395 8.282174 7,300 289 267 1216
2022-05-21 17:43:08 GMT 49.890869 8.287403 6,650 282 261 1920
2022-05-21 17:43:05 GMT 49.889694 8.292871 6,975 282 261 1792
2022-05-21 17:43:03 GMT 49.888962 8.297647 7,075 274 257 1792
2022-05-21 17:42:59 GMT 49.887894 8.309821 7,000 276 260 2496
2022-05-21 17:42:56 GMT 49.887894 8.309821 6,850 274 259 2496
2022-05-21 17:42:54 GMT 49.887753 8.313161 6,775 274 259 2368
2022-05-21 17:42:52 GMT 49.887520 8.318209 6,675 274 259 2304
2022-05-21 17:42:50 GMT 49.887451 8.319831 6,575 274 259 2112
2022-05-21 17:42:48 GMT 49.887196 8.326152 6,575 274 259 1984
2022-05-21 17:42:44 GMT 49.886993 8.332407 6,450 273 255 1472
2022-05-21 17:42:42 GMT 49.886856 8.335876 6,400 273 253 1344
2022-05-21 17:42:38 GMT 49.886673 8.343249 6,275 273 249 1216
2022-05-21 17:42:35 GMT 49.886536 8.348597 6,275 273 248 1216
2022-05-21 17:42:33 GMT 49.886490 8.350188 6,225 273 246 1280
2022-05-21 17:42:31 GMT 49.886444 8.353368 6,175 273 245 1408
2022-05-21 17:42:28 GMT 49.886353 8.359801 6,075 267 241 2368
2022-05-21 17:42:25 GMT 49.886444 8.365800 5,925 266 241 2368
2022-05-21 17:42:23 GMT 49.886581 8.368402 5,875 262 242 2432
2022-05-21 17:42:21 GMT 49.886810 8.371148 5,800 262 242 2432
2022-05-21 17:42:20 GMT 49.887054 8.373215 5,675 255 243 2432
2022-05-21 17:42:18 GMT 49.888733 8.382568 5,600 252 243 2432
2022-05-21 17:42:15 GMT 49.889427 8.385166 5,500 246 243 2240
2022-05-21 17:42:10 GMT 49.890610 8.389073 5,375 241 243 2176
2022-05-21 17:42:09 GMT 49.891289 8.390882 5,350 240 243 2176
2022-05-21 17:42:08 GMT 49.891850 8.392441 5,300 240 243 2112
2022-05-21 17:42:05 GMT 49.894043 8.398108 5,175 239 242 2112
2022-05-21 17:42:03 GMT 49.894913 8.400277 5,125 239 242 2176
2022-05-21 17:41:59 GMT 49.897110 8.405697 4,975 238 241 2176
2022-05-21 17:41:58 GMT 49.899124 8.410540 4,850 238 240 2368
2022-05-21 17:41:56 GMT 49.899124 8.410540 4,850 238 240 2368
2022-05-21 17:41:54 GMT 49.900635 8.414154 4,800 238 240 2496
2022-05-21 17:41:52 GMT 49.901859 8.417012 4,675 237 241 2496
2022-05-21 17:41:50 GMT 49.902973 8.419610 4,600 237 240 2560
2022-05-21 17:41:47 GMT 49.904789 8.423767 4,500 236 241 2560
2022-05-21 17:41:45 GMT 49.906235 8.427033 4,375 236 241 2560
2022-05-21 17:41:43 GMT 49.907455 8.429694 4,200 235 241 2560
2022-05-21 17:41:39 GMT 49.910095 8.435273 4,125 234 241 2368
2022-05-21 17:41:35 GMT 49.912949 8.440608 3,925 225 243 2048
2022-05-21 17:41:33 GMT 49.914459 8.442993 3,925 224 242 2048
2022-05-21 17:41:31 GMT 49.916336 8.445666 3,850 215 243 1856
2022-05-21 17:41:28 GMT 49.918259 8.448125 3,775 217 242 1920
2022-05-21 17:41:25 GMT 49.921875 8.451827 3,650 209 242 1728
2022-05-21 17:41:23 GMT 49.923458 8.453237 3,600 205 241 1664
2022-05-21 17:41:21 GMT 49.925041 8.454351 3,575 202 240 1600
2022-05-21 17:41:15 GMT 49.931763 8.458027 3,350 196 237 1728
2022-05-21 17:41:13 GMT 49.933868 8.458967 3,350 196 237 1728
2022-05-21 17:41:11 GMT 49.935333 8.459617 3,300 195 234 1536
2022-05-21 17:41:09 GMT 49.937576 8.460557 3,250 195 234 1536
2022-05-21 17:41:05 GMT 49.942520 8.462508 3,125 195 232 1280
2022-05-21 17:41:03 GMT 49.944489 8.463303 3,100 195 229 1152
2022-05-21 17:41:00 GMT 49.946732 8.464171 3,025 195 225 1536
2022-05-21 17:40:55 GMT 49.952820 8.466556 2,875 195 223 1856
2022-05-21 17:40:53 GMT 49.954742 8.467267 2,825 195 223 2048
2022-05-21 17:40:51 GMT 49.956043 8.467787 2,775 195 222 2176
2022-05-21 17:40:48 GMT 49.958931 8.468900 2,625 193 222 2176
2022-05-21 17:40:46 GMT 49.960934 8.469568 2,475 190 221 1984
2022-05-21 17:40:43 GMT 49.965214 8.470682 2,450 188 221 1920
2022-05-21 17:40:39 GMT 49.971268 8.471832 2,225 187 219 1664
2022-05-21 17:40:37 GMT 49.974850 8.472463 2,225 187 216 1216
2022-05-21 17:40:33 GMT 49.974850 8.472463 2,225 187 216 1216
2022-05-21 17:40:31 GMT 49.975967 8.472686 2,125 187 214 1280
2022-05-21 17:40:26 GMT 49.981247 8.473712 2,100 189 209 1024
2022-05-21 17:40:23 GMT 49.984589 8.474507 2,025 189 207 896
2022-05-21 17:40:22 GMT 49.985550 8.474723 2,000 190 206 896
2022-05-21 17:40:19 GMT 49.988663 8.475518 1,950 191 203 768
2022-05-21 17:40:17 GMT 49.990120 8.475878 1,925 192 199 832
2022-05-21 17:40:14 GMT 49.993240 8.476819 1,900 192 199 832
2022-05-21 17:40:12 GMT 49.994705 8.477325 1,875 193 197 896
2022-05-21 17:40:10 GMT 49.996639 8.477956 1,850 193 196 960
2022-05-21 17:40:09 GMT 49.997707 8.478402 1,825 195 195 960
2022-05-21 17:40:07 GMT 49.999336 8.479070 1,800 195 194 960
2022-05-21 17:40:06 GMT 50.000221 8.479441 1,750 197 193 1088
2022-05-21 17:40:05 GMT 50.000732 8.479664 1,750 198 191 1088
2022-05-21 17:40:03 GMT 50.002689 8.480629 1,700 200 191 1024
2022-05-21 17:40:01 GMT 50.004227 8.481520 1,650 204 188 1024
2022-05-21 17:39:59 GMT 50.005463 8.482313 1,650 204 188 1024
2022-05-21 17:39:58 GMT 50.007751 8.483975 1,625 208 186 960
2022-05-21 17:39:56 GMT 50.008530 8.484553 1,600 210 184 896
2022-05-21 17:39:54 GMT 50.009583 8.485421 1,575 211 183 960
2022-05-21 17:39:53 GMT 50.010323 8.486122 1,550 212 183 960
2022-05-21 17:39:51 GMT 50.012047 8.487829 1,525 215 181 1088
2022-05-21 17:39:49 GMT 50.012878 8.488673 1,475 215 181 1088
2022-05-21 17:39:47 GMT 50.014187 8.490130 1,475 217 180 1088
2022-05-21 17:39:46 GMT 50.014755 8.490769 1,450 218 179 1152
2022-05-21 17:39:44 GMT 50.016098 8.492357 1,425 220 177 1280
2022-05-21 17:39:43 GMT 50.016907 8.493444 1,375 220 178 1408
2022-05-21 17:39:42 GMT 50.017593 8.494311 1,325 222 177 1728
2022-05-21 17:39:39 GMT 50.019913 8.497554 1,250 228 179 1984
2022-05-21 17:39:37 GMT 50.020752 8.498816 1,200 227 178 1984
2022-05-21 17:39:35 GMT 50.021851 8.500671 1,125 230 179 1984
2022-05-21 17:39:34 GMT 50.022987 8.502750 1,050 239 180 1728
2022-05-21 17:39:31 GMT 50.024151 8.505125 1,000 236 180 1728
2022-05-21 17:39:30 GMT 50.024689 8.506237 975 239 180 1728
2022-05-21 17:39:29 GMT 50.025055 8.507104 950 239 180 1728
2022-05-21 17:39:27 GMT 50.025826 8.509060 900 246 180 1600
2022-05-21 17:39:25 GMT 50.026665 8.511509 850 246 180 1600
2022-05-21 17:39:23 GMT 50.027664 8.515055 775 249 180 1344
2022-05-21 17:39:20 GMT 50.028397 8.517946 725 250 179 1088
2022-05-21 17:39:18 GMT 50.029366 8.521976 675 250 177 1088
2022-05-21 17:39:16 GMT 50.029366 8.521976 650 250 177 1024
2022-05-21 17:39:13 GMT 50.030296 8.525688 600 249 175 1024
2022-05-21 17:39:10 GMT 50.031143 8.529221 550 249 175 1152
2022-05-21 17:39:08 GMT 50.031693 8.531317 500 249 174 1216
2022-05-21 17:39:07 GMT 50.032249 8.533556 450 249 174 1280
2022-05-21 17:39:05 GMT 50.032578 8.534818 425 249 174 1216
2022-05-21 17:39:04 GMT 50.033321 8.537713 375 249 173 1216
2022-05-21 17:39:01 GMT 50.033600 8.538901 350 249 174 1280
2022-05-21 17:39:00 GMT 50.034027 8.540641 325 249 174 1472
2022-05-21 17:38:59 GMT 50.034393 8.542159 275 250 176 1472
2022-05-21 17:38:57 GMT 50.034805 8.543822 225 250 176 1472
2022-05-21 17:38:55 GMT 50.035370 8.546027 175 250 177 1088
2022-05-21 17:38:54 GMT 50.035648 8.547363 150 250 174 384
2022-05-21 17:38:53 GMT 50.035976 8.548551 100 250 174 384
2022-05-21 17:38:52 GMT 50.036362 8.550182 75 250 165 -64
2022-05-21 17:38:46 GMT 50.038162 8.557756 150 250 154 -128
2022-05-21 17:38:44 GMT 50.038395 8.558869 150 250 154 -128
2022-05-21 17:38:42 GMT 50.038860 8.560799 150 250 151 -64
2022-05-21 17:38:37 GMT 50.040119 8.565921 150 250 138 0
2022-05-21 17:38:35 GMT 50.040527 8.567674 175 250 126 -64
2022-05-21 17:38:34 GMT 50.041374 8.571192 175 250 126 -64
2022-05-21 17:38:31 GMT 50.041374 8.571192 175 250 107 0
2022-05-21 17:38:30 GMT 50.041580 8.572155 175 250 107 0
2022-05-21 17:38:26 GMT 50.042496 8.575841 200 250 96
2022-05-21 17:38:24 GMT 50.042690 8.576781 0 250 96
2022-05-21 17:38:21 GMT 50.043133 8.578652 0 250 86
2022-05-21 17:38:20 GMT 50.043644 8.580786 0 250 74
2022-05-21 17:38:17 GMT 50.043968 8.582197 0 250 60
2022-05-21 17:38:14 GMT 50.043968 8.582197 0 250 60
2022-05-21 17:38:12 GMT 50.044144 8.582920 0 250 52
2022-05-21 17:38:10 GMT 50.044296 8.583533 0 250 44
2022-05-21 17:38:09 GMT 50.044373 8.583864 0 250 40
2022-05-21 17:38:07 GMT 50.044483 8.584294 0 250 32
2022-05-21 17:38:04 GMT 50.044643 8.584980 0 250 20
2022-05-21 17:38:01 GMT 50.044704 8.585219 0 250 10
2022-05-21 17:37:53 GMT 50.044750 8.585407 0 250 0
2022-05-21 17:37:49 GMT 50.044750 8.585418 0 250 0
2022-05-21 17:37:47 GMT 50.044750 8.585407 0 250 0
2022-05-21 17:37:44 GMT 50.044750 8.585418 0 250 0
2022-05-21 17:37:43 GMT 50.044750 8.585418 0 250 0
2022-05-21 17:37:34 GMT 50.044750 8.585407 0 250 0
2022-05-21 17:37:30 GMT 50.044750 8.585418 0 250 0
2022-05-21 17:37:27 GMT 50.044750 8.585426 0 250 0
2022-05-21 17:37:24 GMT 50.044739 8.585418 0 250 1
2022-05-21 17:37:22 GMT 50.044750 8.585426 0 250 3
2022-05-21 17:37:20 GMT 50.044750 8.585472 0 247 5
2022-05-21 17:37:17 GMT 50.044750 8.585723 0 233 7
2022-05-21 17:37:13 GMT 50.044750 8.585723 0 230 7
2022-05-21 17:37:10 GMT 50.044750 8.585834 0 222 7
2022-05-21 17:37:04 GMT 50.044807 8.586141 0 196 8
2022-05-21 17:37:02 GMT 50.044830 8.586195 0 185 8
2022-05-21 17:37:00 GMT 50.044888 8.586298 0 177 7
2022-05-21 17:36:59 GMT 50.044910 8.586321 0 174 7
2022-05-21 17:36:57 GMT 50.044971 8.586354 0 168 8
2022-05-21 17:36:55 GMT 50.045025 8.586358 0 165 8
2022-05-21 17:36:53 GMT 50.045120 8.586354 0 160 9
2022-05-21 17:36:50 GMT 50.045204 8.586316 0 157 10
2022-05-21 17:36:48 GMT 50.045300 8.586249 0 157 11
2022-05-21 17:36:47 GMT 50.045364 8.586224 0 157 11
2022-05-21 17:36:46 GMT 50.045460 8.586149 0 157 11
2022-05-21 17:36:41 GMT 50.045643 8.586050 0 157 11
2022-05-21 17:36:38 GMT 50.045780 8.585960 0 157 11
2022-05-21 17:36:37 GMT 50.045872 8.585924 0 154 10
2022-05-21 17:36:35 GMT 50.045891 8.585908 0 151 11
2022-05-21 17:36:32 GMT 50.046005 8.585853 0 149 11
2022-05-21 17:36:31 GMT 50.046089 8.585815 0 143 11
2022-05-21 17:36:18 GMT 50.046555 8.585296 0 84 12
2022-05-21 17:36:15 GMT 50.046577 8.585017 0 73 12
2022-05-21 17:36:11 GMT 50.046535 8.584731 0 70 13
2022-05-21 17:36:09 GMT 50.046494 8.584553 0 67 14
2022-05-21 17:36:05 GMT 50.046387 8.584117 0 67 16
2022-05-21 17:35:32 GMT 50.045296 8.579654 0 67 21
2022-05-21 17:35:31 GMT 50.045254 8.579491 0 70 21
2022-05-21 17:35:29 GMT 50.045197 8.579238 0 70 21
2022-05-21 17:35:27 GMT 50.045143 8.579023 0 70 21
2022-05-21 17:35:25 GMT 50.045082 8.578732 0 70 21
2022-05-21 17:35:19 GMT 50.044888 8.577955 0 70 20
2022-05-21 17:35:18 GMT 50.044865 8.577835 0 70 20
2022-05-21 17:35:17 GMT 50.044773 8.577501 0 70 20
2022-05-21 17:35:15 GMT 50.044750 8.577372 0 70 19
2022-05-21 17:35:13 GMT 50.044693 8.577124 0 70 19
2022-05-21 17:35:10 GMT 50.044586 8.576703 0 70 19
2022-05-21 17:35:08 GMT 50.044529 8.576481 0 70 19
2022-05-21 17:35:04 GMT 50.044422 8.576017 0 70 19
2022-05-21 17:35:02 GMT 50.044304 8.575552 0 70 19
2022-05-21 17:35:00 GMT 50.044304 8.575552 0 70 19
2022-05-21 17:34:59 GMT 50.044235 8.575209 0 70 19
2022-05-21 17:34:55 GMT 50.044144 8.574848 0 70 18
2022-05-21 17:34:53 GMT 50.044121 8.574755 0 70 18
2022-05-21 17:34:50 GMT 50.044041 8.574395 0 70 18
2022-05-21 17:34:47 GMT 50.043957 8.574050 0 70 18
2022-05-21 17:34:45 GMT 50.043892 8.573817 0 70 18
2022-05-21 17:34:43 GMT 50.043846 8.573564 0 70 17
2022-05-21 17:34:41 GMT 50.043785 8.573326 0 70 17
2022-05-21 17:34:39 GMT 50.043724 8.573103 0 70 17
2022-05-21 17:34:37 GMT 50.043678 8.572862 0 70 17
2022-05-21 17:34:35 GMT 50.043633 8.572676 0 70 17
2022-05-21 17:34:34 GMT 50.043610 8.572565 0 70 17
2022-05-21 17:34:33 GMT 50.043583 8.572480 0 70 17
2022-05-21 17:34:31 GMT 50.043526 8.572227 0 70 16
2022-05-21 17:34:28 GMT 50.043446 8.571915 0 70 16
2022-05-21 17:34:26 GMT 50.043388 8.571674 0 70 16
2022-05-21 17:34:25 GMT 50.043365 8.571581 0 70 16
2022-05-21 17:34:23 GMT 50.043331 8.571414 0 70 16
2022-05-21 17:34:20 GMT 50.043240 8.571034 0 70 16
2022-05-21 17:34:18 GMT 50.043205 8.570890 0 70 15
2022-05-21 17:34:17 GMT 50.043167 8.570728 0 70 15
2022-05-21 17:34:15 GMT 50.043133 8.570598 0 70 15
2022-05-21 17:34:14 GMT 50.043102 8.570456 0 70 15
2022-05-21 17:34:12 GMT 50.043037 8.570227 0 70 15
2022-05-21 17:34:09 GMT 50.042988 8.569968 0 70 15
2022-05-21 17:34:08 GMT 50.042953 8.569824 0 70 14
2022-05-21 17:34:07 GMT 50.042934 8.569744 0 70 14
2022-05-21 17:34:05 GMT 50.042873 8.569517 0 70 14
2022-05-21 17:34:03 GMT 50.042854 8.569429 0 70 13
2022-05-21 17:34:00 GMT 50.042782 8.569132 0 70 12
2022-05-21 17:33:57 GMT 50.042690 8.568740 0 70 12
2022-05-21 17:33:55 GMT 50.042690 8.568740 0 70 11
2022-05-21 17:33:52 GMT 50.042645 8.568505 0 70 12
2022-05-21 17:33:50 GMT 50.042610 8.568414 0 70 11
2022-05-21 17:33:46 GMT 50.042526 8.568037 0 70 13
2022-05-21 17:33:44 GMT 50.042496 8.567890 0 67 14
2022-05-21 17:33:43 GMT 50.042427 8.567655 0 70 15
2022-05-21 17:33:39 GMT 50.042358 8.567384 0 70 17
2022-05-21 17:33:37 GMT 50.042313 8.567150 0 70 17
2022-05-21 17:33:31 GMT 50.042072 8.566138 0 70 19
2022-05-21 17:33:29 GMT 50.042072 8.566138 0 70 19
2022-05-21 17:33:25 GMT 50.041958 8.565643 0 70 19
2022-05-21 17:33:22 GMT 50.041912 8.565469 0 70 18
2022-05-21 17:33:21 GMT 50.041862 8.565290 0 70 18
2022-05-21 17:33:20 GMT 50.041843 8.565180 0 70 18
2022-05-21 17:33:15 GMT 50.041683 8.564547 0 70 18
2022-05-21 17:33:13 GMT 50.041649 8.564385 0 70 18
2022-05-21 17:33:12 GMT 50.041615 8.564204 0 67 18
2022-05-21 17:33:07 GMT 50.041477 8.563680 0 70 18
2022-05-21 17:33:01 GMT 50.041317 8.562994 0 70 17
2022-05-21 17:33:00 GMT 50.041283 8.562822 0 70 18
2022-05-21 17:32:59 GMT 50.041248 8.562711 0 70 18
2022-05-21 17:32:52 GMT 50.041023 8.561801 0 70 23
2022-05-21 17:32:50 GMT 50.040955 8.561486 0 70 24
2022-05-21 17:32:46 GMT 50.040806 8.560873 0 70 24
2022-05-21 17:32:45 GMT 50.040745 8.560632 0 70 24
2022-05-21 17:32:44 GMT 50.040722 8.560521 0 70 24
2022-05-21 17:32:33 GMT 50.040298 8.558783 0 70 23
2022-05-21 17:32:31 GMT 50.040234 8.558480 0 70 23
2022-05-21 17:32:27 GMT 50.040119 8.557960 0 70 22
2022-05-21 17:32:26 GMT 50.040058 8.557756 0 70 22
2022-05-21 17:32:23 GMT 50.039955 8.557292 0 67 22
2022-05-21 17:32:19 GMT 50.039814 8.556717 0 70 22
2022-05-21 17:32:17 GMT 50.039761 8.556507 0 70 22
2022-05-21 17:32:16 GMT 50.039715 8.556290 0 67 21
2022-05-21 17:32:15 GMT 50.039677 8.556123 0 70 21
2022-05-21 17:32:14 GMT 50.039536 8.555547 0 70 20
2022-05-21 17:32:11 GMT 50.039536 8.555547 0 70 20
2022-05-21 17:32:09 GMT 50.039478 8.555325 0 70 20
2022-05-21 17:32:08 GMT 50.039455 8.555195 0 70 20
2022-05-21 17:32:07 GMT 50.039406 8.555025 0 70 20
2022-05-21 17:32:05 GMT 50.039337 8.554754 0 70 20
2022-05-21 17:32:03 GMT 50.039291 8.554573 0 70 19
2022-05-21 17:32:02 GMT 50.039085 8.553652 0 67 19
2022-05-21 17:31:56 GMT 50.039085 8.553652 0 67 19
2022-05-21 17:31:49 GMT 50.038902 8.552893 0 70 18
2022-05-21 17:31:45 GMT 50.038780 8.552392 0 70 17
2022-05-21 17:31:40 GMT 50.038628 8.551780 0 70 17
2022-05-21 17:31:34 GMT 50.038486 8.551205 0 70 16
2022-05-21 17:31:33 GMT 50.038464 8.551093 0 70 16
2022-05-21 17:31:32 GMT 50.038456 8.551031 0 70 16
2022-05-21 17:31:27 GMT 50.038342 8.550562 0 70 16
2022-05-21 17:31:23 GMT 50.038242 8.550147 0 67 15
2022-05-21 17:31:15 GMT 50.038055 8.549351 0 70 14
2022-05-21 17:31:11 GMT 50.037952 8.548959 0 70 14
2022-05-21 17:31:03 GMT 50.037804 8.548310 0 67 13
2022-05-21 17:30:58 GMT 50.037689 8.547851 0 67 12
2022-05-21 17:30:54 GMT 50.037609 8.547580 0 67 12
2022-05-21 17:30:53 GMT 50.037575 8.547454 0 67 12
2022-05-21 17:30:51 GMT 50.037533 8.547270 0 67 12
2022-05-21 17:30:49 GMT 50.037498 8.547159 0 67 12
2022-05-21 17:30:33 GMT 50.037220 8.545900 0 120 12
2022-05-21 17:30:31 GMT 50.037231 8.545737 0 126 12
2022-05-21 17:30:29 GMT 50.037254 8.545619 0 137 11
2022-05-21 17:30:28 GMT 50.037289 8.545520 0 140 11
2022-05-21 17:30:26 GMT 50.037323 8.545430 0 146 10
2022-05-21 17:30:17 GMT 50.037598 8.545123 0 157 6
2022-05-21 17:29:38 GMT 50.037788 8.545006 0 160 0
2022-05-21 17:29:13 GMT 50.037792 8.544996 0 160 0
2022-05-21 17:26:42 GMT 50.037792 8.544996 0 160 0
We lost coverage of the aircraft here for a total of 90 minutes
2022-05-21 15:57:11 GMT 50.037792 8.545014 0 160 0 0
2022-05-21 15:57:05 GMT 50.037792 8.545014 0 160 0 0
2022-05-21 15:57:01 GMT 50.037792 8.545014 0 160 0 0
2022-05-21 15:56:52 GMT 50.037792 8.545014 0 160 0 0
2022-05-21 15:56:44 GMT 50.037884 8.544960 0 157 4 0
2022-05-21 15:56:36 GMT 50.038010 8.544877 0 157 7 0
2022-05-21 15:56:33 GMT 50.038090 8.544852 0 154 6 0
2022-05-21 15:56:29 GMT 50.038170 8.544815 0 151 6 0
2022-05-21 15:56:26 GMT 50.038319 8.544761 0 140 6 0
2022-05-21 15:56:24 GMT 50.038319 8.544761 0 140 6 0
2022-05-21 15:56:23 GMT 50.038342 8.544761 0 140 6 0
2022-05-21 15:56:21 GMT 50.038387 8.544743 0 135 6 0
2022-05-21 15:55:33 GMT 50.038250 8.543261 0 343 7 0
2022-05-21 15:55:28 GMT 50.038101 8.543316 0 340 7 0
2022-05-21 15:55:14 GMT 50.037651 8.543559 0 340 8 0
2022-05-21 15:55:07 GMT 50.037437 8.543767 0 354 8 0
2022-05-21 15:54:36 GMT 50.036568 8.543243 0 11 8 0
2022-05-21 15:54:22 GMT 50.036190 8.543045 0 340 8 0
2022-05-21 15:54:17 GMT 50.036011 8.543151 0 340 8 0
2022-05-21 15:54:05 GMT 50.035591 8.543373 0 334 11 0
2022-05-21 15:54:01 GMT 50.035252 8.543478 0 306 10 0
2022-05-21 15:53:58 GMT 50.035252 8.543478 0 306 10 0
2022-05-21 15:53:54 GMT 50.035126 8.543577 0 289 10 0
2022-05-21 15:53:45 GMT 50.034950 8.544264 0 253 16 0
2022-05-21 15:53:35 GMT 50.035336 8.546027 0 250 39 0
2022-05-21 15:53:30 GMT 50.035580 8.547029 0 250 48 0
2022-05-21 15:53:28 GMT 50.035686 8.547508 0 250 50 0
2022-05-21 15:53:26 GMT 50.035938 8.548538 0 250 54 0
2022-05-21 15:53:24 GMT 50.036098 8.549206 0 250 58 0
2022-05-21 15:53:21 GMT 50.036373 8.550345 0 250 63 0
2022-05-21 15:53:20 GMT 50.036476 8.550815 0 250 63 0
2022-05-21 15:53:17 GMT 50.036720 8.551836 0 250 65 0
2022-05-21 15:53:16 GMT 50.036877 8.552495 0 250 66 0
2022-05-21 15:53:14 GMT 50.037056 8.553209 0 250 69 0
2022-05-21 15:53:11 GMT 50.037460 8.554916 0 250 76 0
2022-05-21 15:53:10 GMT 50.037567 8.555362 0 250 78 0
2022-05-21 15:53:09 GMT 50.037815 8.556416 0 250 82 0
2022-05-21 15:53:06 GMT 50.038021 8.557229 0 250 88 0
2022-05-21 15:53:03 GMT 50.038536 8.559389 50 250 96 0
2022-05-21 15:53:01 GMT 50.038860 8.560799 50 250 103 -192
2022-05-21 15:53:00 GMT 50.039001 8.561319 50 250 103 -192
2022-05-21 15:52:40 GMT 50.043514 8.580174 100 250 165 -320
2022-05-21 15:52:34 GMT 50.045563 8.588785 200 250 161 -768
2022-05-21 15:52:32 GMT 50.045563 8.588785 200 250 161 -832
2022-05-21 15:52:31 GMT 50.045837 8.590008 225 251 161 -768
2022-05-21 15:52:30 GMT 50.046112 8.591236 250 250 160 -832
2022-05-21 15:52:28 GMT 50.046707 8.593838 275 250 160 -832
2022-05-21 15:52:27 GMT 50.046982 8.594995 300 250 159 -832
2022-05-21 15:52:26 GMT 50.047256 8.596079 300 250 159 -832
2022-05-21 15:52:24 GMT 50.047760 8.598247 350 250 159 -768
2022-05-21 15:52:23 GMT 50.048031 8.599326 350 250 159 -768
2022-05-21 15:52:20 GMT 50.048683 8.602072 375 250 158 -704
2022-05-21 15:52:19 GMT 50.049545 8.605475 425 250 158 -768
2022-05-21 15:52:17 GMT 50.049545 8.605475 425 250 158 -768
2022-05-21 15:52:14 GMT 50.050266 8.608456 475 250 157 -960
2022-05-21 15:52:12 GMT 50.050873 8.611041 500 250 158 -896
2022-05-21 15:52:11 GMT 50.051617 8.614246 550 250 159 -832
2022-05-21 15:52:09 GMT 50.051617 8.614246 550 250 159 -832
2022-05-21 15:52:07 GMT 50.051991 8.615805 550 250 159 -832
2022-05-21 15:52:06 GMT 50.052246 8.616823 600 250 159 -896
2022-05-21 15:52:03 GMT 50.052933 8.619569 625 250 159 -896
2022-05-21 15:52:02 GMT 50.053207 8.620726 625 250 159 -896
2022-05-21 15:52:00 GMT 50.053711 8.622894 675 250 160 -768
2022-05-21 15:51:58 GMT 50.054317 8.625233 700 250 160 -768
2022-05-21 15:51:57 GMT 50.054550 8.626346 700 250 160 -768
2022-05-21 15:51:55 GMT 50.055038 8.628387 725 250 159 -768
2022-05-21 15:51:54 GMT 50.055340 8.629687 750 250 159 -832
2022-05-21 15:51:52 GMT 50.055851 8.631988 775 250 159 -768
2022-05-21 15:51:51 GMT 50.056084 8.632804 775 250 159 -768
2022-05-21 15:51:49 GMT 50.056549 8.634893 800 251 159 -832
2022-05-21 15:51:47 GMT 50.057053 8.636916 825 251 158 -832
2022-05-21 15:51:45 GMT 50.057556 8.639157 850 250 159 -832
2022-05-21 15:51:44 GMT 50.057831 8.640241 875 250 159 -832
2022-05-21 15:51:42 GMT 50.058319 8.642306 900 250 161 -768
2022-05-21 15:51:41 GMT 50.058609 8.643566 925 250 161 -768
2022-05-21 15:51:38 GMT 50.059345 8.646611 950 250 162 -896
2022-05-21 15:51:37 GMT 50.059715 8.648170 975 250 162 -896
2022-05-21 15:51:36 GMT 50.060028 8.649493 1,000 250 163 -896
2022-05-21 15:51:35 GMT 50.060276 8.650471 1,050 250 163 -768
2022-05-21 15:51:33 GMT 50.060806 8.652528 1,050 250 164 -832
2022-05-21 15:51:31 GMT 50.061722 8.656431 1,075 250 164 -832
2022-05-21 15:51:28 GMT 50.062683 8.660551 1,125 250 164 -896
2022-05-21 15:51:26 GMT 50.062683 8.660551 1,125 250 164 -896
2022-05-21 15:51:24 GMT 50.063114 8.662274 1,150 251 163 -832
2022-05-21 15:51:23 GMT 50.063625 8.664576 1,200 251 163 -768
2022-05-21 15:51:21 GMT 50.064419 8.667916 1,225 251 163 -768
2022-05-21 15:51:19 GMT 50.064697 8.669104 1,275 250 161 -896
2022-05-21 15:51:16 GMT 50.065254 8.671405 1,275 250 161 -832
2022-05-21 15:51:14 GMT 50.065567 8.672839 1,300 250 159 -896
2022-05-21 15:51:13 GMT 50.066025 8.674646 1,325 250 159 -896
2022-05-21 15:51:12 GMT 50.066280 8.675859 1,325 250 159 -896
2022-05-21 15:51:11 GMT 50.066528 8.676814 1,350 250 158 -896
2022-05-21 15:51:09 GMT 50.067120 8.679125 1,400 250 157 -832
2022-05-21 15:51:07 GMT 50.067768 8.681872 1,450 250 157 -768
2022-05-21 15:51:04 GMT 50.068222 8.683825 1,450 250 157 -768
2022-05-21 15:51:03 GMT 50.068935 8.686771 1,450 251 158 -768
2022-05-21 15:51:02 GMT 50.068935 8.686771 1,475 251 158 -768
2022-05-21 15:51:01 GMT 50.069447 8.689072 1,500 251 158 -832
2022-05-21 15:50:58 GMT 50.069817 8.690557 1,500 251 159 -832
2022-05-21 15:50:57 GMT 50.070053 8.691487 1,550 250 159 -832
2022-05-21 15:50:56 GMT 50.070332 8.692784 1,550 250 159 -896
2022-05-21 15:50:54 GMT 50.070934 8.695382 1,600 250 160 -896
2022-05-21 15:50:52 GMT 50.071335 8.697124 1,600 250 161 -896
2022-05-21 15:50:51 GMT 50.071587 8.698128 1,625 250 162 -896
2022-05-21 15:50:49 GMT 50.072098 8.700207 1,650 250 165 -1024
2022-05-21 15:50:47 GMT 50.072662 8.702617 1,675 250 165 -1024
2022-05-21 15:50:46 GMT 50.072891 8.703622 1,700 250 165 -1024
2022-05-21 15:50:44 GMT 50.073532 8.706304 1,725 250 167 -896
2022-05-21 15:50:42 GMT 50.074055 8.708447 1,750 250 167 -896
2022-05-21 15:50:41 GMT 50.074310 8.709556 1,775 250 168 -1088
2022-05-21 15:50:39 GMT 50.074799 8.711490 1,800 250 167 -1024
2022-05-21 15:50:38 GMT 50.075043 8.712520 1,850 250 168 -960
2022-05-21 15:50:37 GMT 50.075317 8.713748 1,850 250 168 -960
2022-05-21 15:50:35 GMT 50.075916 8.716167 1,875 250 169 -960
2022-05-21 15:50:34 GMT 50.076195 8.717429 1,875 251 170 -960
2022-05-21 15:50:32 GMT 50.076691 8.719603 1,950 250 171 -1024
2022-05-21 15:50:30 GMT 50.077148 8.721554 1,950 250 171 -1024
2022-05-21 15:50:29 GMT 50.077560 8.723145 1,975 250 171 -1024
2022-05-21 15:50:27 GMT 50.078156 8.725602 2,025 250 173 -896
2022-05-21 15:50:25 GMT 50.079254 8.730372 2,075 250 174 -896
2022-05-21 15:50:23 GMT 50.079254 8.730372 2,075 250 174 -896
2022-05-21 15:50:21 GMT 50.079594 8.731681 2,075 251 175 -896
2022-05-21 15:50:20 GMT 50.080105 8.733908 2,100 250 174 -960
2022-05-21 15:50:18 GMT 50.080620 8.736061 2,175 250 173 -960
2022-05-21 15:50:16 GMT 50.081177 8.738395 2,175 250 173 -896
2022-05-21 15:50:15 GMT 50.081451 8.739552 2,175 250 171 -896
2022-05-21 15:50:13 GMT 50.081955 8.741720 2,200 250 169 -832
2022-05-21 15:50:12 GMT 50.082550 8.744178 2,225 251 167 -1024
2022-05-21 15:50:10 GMT 50.082825 8.745262 2,250 251 167 -1024
2022-05-21 15:50:09 GMT 50.083557 8.748587 2,300 250 169 -1088
2022-05-21 15:50:07 GMT 50.083557 8.748587 2,300 251 170 -1088
2022-05-21 15:50:06 GMT 50.083878 8.749868 2,325 250 170 -960
2022-05-21 15:50:05 GMT 50.084435 8.752243 2,350 250 170 -896
2022-05-21 15:50:03 GMT 50.084702 8.753285 2,400 250 170 -896
2022-05-21 15:50:02 GMT 50.085228 8.755584 2,425 250 169 -832
2022-05-21 15:50:00 GMT 50.085461 8.756475 2,425 250 169 -832
2022-05-21 15:49:58 GMT 50.086063 8.758999 2,450 250 170 -896
2022-05-21 15:49:56 GMT 50.086578 8.761226 2,475 250 171 -960
2022-05-21 15:49:55 GMT 50.087448 8.764921 2,550 250 172 -1088
2022-05-21 15:49:53 GMT 50.087448 8.764921 2,550 250 171 -1088
2022-05-21 15:49:51 GMT 50.088043 8.767234 2,575 250 171 -1024
2022-05-21 15:49:50 GMT 50.088547 8.769403 2,600 251 170 -832
2022-05-21 15:49:48 GMT 50.089096 8.771860 2,625 250 169 -768
2022-05-21 15:49:46 GMT 50.089371 8.772944 2,650 250 169 -768
2022-05-21 15:49:45 GMT 50.089882 8.775107 2,675 250 169 -832
2022-05-21 15:49:43 GMT 50.090195 8.776486 2,675 251 168 -960
2022-05-21 15:49:42 GMT 50.090424 8.777426 2,700 251 170 -960
2022-05-21 15:49:41 GMT 50.090954 8.779709 2,725 251 171 -1024
2022-05-21 15:49:39 GMT 50.091293 8.781184 2,750 251 171 -1024
2022-05-21 15:49:37 GMT 50.091751 8.783063 2,775 251 171 -960
2022-05-21 15:49:36 GMT 50.092346 8.785738 2,800 250 171 -832
2022-05-21 15:49:34 GMT 50.092621 8.786894 2,825 250 171 -832
2022-05-21 15:49:33 GMT 50.092896 8.788051 2,825 250 171 -832
2022-05-21 15:49:32 GMT 50.093491 8.790508 2,875 250 173 -896
2022-05-21 15:49:29 GMT 50.093979 8.792551 2,900 250 174 -832
2022-05-21 15:49:28 GMT 50.094257 8.793739 2,900 250 175 -832
2022-05-21 15:49:27 GMT 50.094490 8.794704 2,925 250 176 -832
2022-05-21 15:49:26 GMT 50.095097 8.797228 2,950 250 177 -1024
2022-05-21 15:49:23 GMT 50.095642 8.799543 3,000 250 177 -1216
2022-05-21 15:49:22 GMT 50.095963 8.800772 3,025 250 177 -1216
2022-05-21 15:49:20 GMT 50.096539 8.803167 3,050 251 177 -1152
2022-05-21 15:49:18 GMT 50.097050 8.805542 3,100 251 176 -1088
2022-05-21 15:49:16 GMT 50.097656 8.808066 3,125 251 175 -1024
2022-05-21 15:49:15 GMT 50.098495 8.811777 3,175 250 174 -1024
2022-05-21 15:49:13 GMT 50.098495 8.811777 3,200 250 174 -960
2022-05-21 15:49:11 GMT 50.099030 8.813999 3,225 250 174 -960
2022-05-21 15:49:09 GMT 50.099625 8.816456 3,250 250 174 -832
2022-05-21 15:49:07 GMT 50.100037 8.818118 3,275 250 174 -896
2022-05-21 15:49:06 GMT 50.100403 8.819646 3,275 250 175 -832
2022-05-21 15:49:04 GMT 50.100723 8.821082 3,300 250 176 -832
2022-05-21 15:49:03 GMT 50.101147 8.822838 3,350 250 177 -896
2022-05-21 15:49:01 GMT 50.101753 8.825362 3,350 251 178 -1024
2022-05-21 15:49:00 GMT 50.102310 8.827737 3,400 251 178 -1088
2022-05-21 15:48:58 GMT 50.102684 8.829296 3,425 251 179 -1088
2022-05-21 15:48:56 GMT 50.103241 8.831635 3,450 251 180 -1088
2022-05-21 15:48:55 GMT 50.103523 8.832859 3,475 251 180 -1088
2022-05-21 15:48:52 GMT 50.104156 8.835682 3,500 251 181 -960
2022-05-21 15:48:51 GMT 50.104706 8.837995 3,525 250 183 -960
2022-05-21 15:48:50 GMT 50.105026 8.839224 3,550 250 183 -960
2022-05-21 15:48:49 GMT 50.105572 8.841693 3,575 250 184 -896
2022-05-21 15:48:46 GMT 50.105988 8.843475 3,600 250 184 -896
2022-05-21 15:48:45 GMT 50.106316 8.844662 3,625 250 185 -896
2022-05-21 15:48:44 GMT 50.106903 8.847174 3,650 250 186 -896
2022-05-21 15:48:42 GMT 50.107338 8.849116 3,675 251 187 -960
2022-05-21 15:48:41 GMT 50.107635 8.850355 3,700 251 188 -960
2022-05-21 15:48:39 GMT 50.108177 8.852754 3,725 251 189 -1152
2022-05-21 15:48:38 GMT 50.108505 8.854041 3,750 250 189 -1152
2022-05-21 15:48:36 GMT 50.109100 8.856643 3,775 250 189 -1216
2022-05-21 15:48:34 GMT 50.109650 8.859028 3,825 251 190 -1152
2022-05-21 15:48:33 GMT 50.109993 8.860474 3,825 251 190 -1088
2022-05-21 15:48:32 GMT 50.110336 8.861919 3,875 250 191 -896
2022-05-21 15:48:31 GMT 50.110878 8.864185 3,900 250 192 -832
2022-05-21 15:48:29 GMT 50.111206 8.865605 3,900 250 193 -832
2022-05-21 15:48:27 GMT 50.111938 8.868641 3,950 250 194 -1024
2022-05-21 15:48:26 GMT 50.112411 8.870718 3,975 250 194 -1088
2022-05-21 15:48:24 GMT 50.112854 8.872400 4,000 250 195 -1088
2022-05-21 15:48:23 GMT 50.113495 8.875218 4,025 250 196 -1024
2022-05-21 15:48:21 GMT 50.113762 8.876359 4,050 250 197 -960
2022-05-21 15:48:19 GMT 50.114365 8.878905 4,075 250 199 -960
2022-05-21 15:48:18 GMT 50.114731 8.880350 4,125 250 200 -1088
2022-05-21 15:48:16 GMT 50.115372 8.883097 4,150 251 200 -1280
2022-05-21 15:48:15 GMT 50.115875 8.885410 4,200 251 201 -1408
2022-05-21 15:48:13 GMT 50.116371 8.887420 4,225 252 201 -1344
2022-05-21 15:48:12 GMT 50.116608 8.888662 4,250 252 201 -1216
2022-05-21 15:48:10 GMT 50.117157 8.890975 4,275 252 202 -1152
2022-05-21 15:48:09 GMT 50.117752 8.893939 4,300 252 203 -1088
2022-05-21 15:48:07 GMT 50.118046 8.895140 4,300 252 203 -1216
2022-05-21 15:48:05 GMT 50.118713 8.898203 4,350 252 203 -1280
2022-05-21 15:48:04 GMT 50.118988 8.899576 4,375 252 203 -1280
2022-05-21 15:48:01 GMT 50.119862 8.903454 4,425 250 203 -1536
2022-05-21 15:47:59 GMT 50.120544 8.906370 4,500 250 204 -1600
2022-05-21 15:47:58 GMT 50.120888 8.907685 4,525 249 203 -1664
2022-05-21 15:47:57 GMT 50.121586 8.910432 4,575 249 203 -1536
2022-05-21 15:47:54 GMT 50.122284 8.913165 4,600 248 204 -1280
2022-05-21 15:47:53 GMT 50.122787 8.915044 4,625 247 204 -896
2022-05-21 15:47:51 GMT 50.123306 8.917113 4,650 247 204 -768
2022-05-21 15:47:50 GMT 50.124298 8.920609 4,675 246 203 -768
2022-05-21 15:47:48 GMT 50.124619 8.921694 4,700 246 204 -832
2022-05-21 15:47:46 GMT 50.125122 8.923274 4,725 245 204 -832
2022-05-21 15:47:45 GMT 50.126038 8.926175 4,725 244 205 -768
2022-05-21 15:47:43 GMT 50.126450 8.927476 4,750 243 206 -512
2022-05-21 15:47:41 GMT 50.127357 8.930252 4,775 242 208 -128
2022-05-21 15:47:40 GMT 50.127914 8.931812 4,775 241 209 -64
2022-05-21 15:47:39 GMT 50.128418 8.933113 4,775 238 210 64
2022-05-21 15:47:37 GMT 50.129471 8.935860 4,775 237 212 64
2022-05-21 15:47:36 GMT 50.130020 8.937089 4,775 233 214 0
2022-05-21 15:47:35 GMT 50.131851 8.940920 4,775 232 215 -64
2022-05-21 15:47:33 GMT 50.131851 8.940920 4,775 230 217 -64
2022-05-21 15:47:31 GMT 50.132904 8.942799 4,775 226 217 0
2022-05-21 15:47:29 GMT 50.134571 8.945469 4,775 223 218 0
2022-05-21 15:47:28 GMT 50.135239 8.946485 4,775 222 218 128
2022-05-21 15:47:26 GMT 50.136761 8.948587 4,775 221 219 64
2022-05-21 15:47:24 GMT 50.138214 8.950533 4,775 221 220 64
2022-05-21 15:47:23 GMT 50.138992 8.951617 4,775 222 221 -128
2022-05-21 15:47:21 GMT 50.140274 8.953351 4,775 222 221 -192
2022-05-21 15:47:20 GMT 50.141830 8.955448 4,775 222 223 -64
2022-05-21 15:47:17 GMT 50.143478 8.957688 4,775 222 223 0
2022-05-21 15:47:16 GMT 50.144161 8.958682 4,775 222 224 0
2022-05-21 15:47:13 GMT 50.146442 8.961726 4,800 222 225 -192
2022-05-21 15:47:11 GMT 50.148071 8.964027 4,800 222 225 -192
2022-05-21 15:47:09 GMT 50.149567 8.966072 4,800 222 225 -192
2022-05-21 15:47:07 GMT 50.151947 8.969325 4,825 222 223 -128
2022-05-21 15:47:04 GMT 50.153519 8.971450 4,825 222 221 64
2022-05-21 15:47:02 GMT 50.155056 8.973603 4,825 222 220 128
2022-05-21 15:47:01 GMT 50.155792 8.974674 4,800 222 219 192
2022-05-21 15:47:00 GMT 50.156639 8.975830 4,800 222 219 192
2022-05-21 15:46:58 GMT 50.158268 8.977983 4,800 221 219 0
2022-05-21 15:46:56 GMT 50.159801 8.980061 4,800 221 219 -64
2022-05-21 15:46:55 GMT 50.160549 8.981101 4,800 221 221 -64
2022-05-21 15:46:53 GMT 50.162037 8.983031 4,800 221 222 -64
2022-05-21 15:46:51 GMT 50.163620 8.985109 4,800 221 225 0
2022-05-21 15:46:49 GMT 50.165298 8.987336 4,800 220 227 0
2022-05-21 15:46:48 GMT 50.166183 8.988479 4,800 220 230 -64
2022-05-21 15:46:47 GMT 50.168648 8.991641 4,800 220 232 -64
2022-05-21 15:46:45 GMT 50.168648 8.991641 4,800 220 233 -64
2022-05-21 15:46:43 GMT 50.170231 8.993720 4,800 220 235 0
2022-05-21 15:46:42 GMT 50.171070 8.994759 4,800 219 236 64
2022-05-21 15:46:40 GMT 50.172958 8.997080 4,800 219 239 192
2022-05-21 15:46:37 GMT 50.177261 9.002067 4,775 215 244 192
2022-05-21 15:46:35 GMT 50.177261 9.002067 4,775 214 246 64
2022-05-21 15:46:33 GMT 50.179260 9.004112 4,775 211 249 -64
2022-05-21 15:46:32 GMT 50.181358 9.005968 4,775 207 252 -192
2022-05-21 15:46:30 GMT 50.182297 9.006693 4,775 205 252 -256
2022-05-21 15:46:29 GMT 50.185410 9.008789 4,800 199 256 -448
2022-05-21 15:46:27 GMT 50.185410 9.008789 4,800 199 256 -448
2022-05-21 15:46:25 GMT 50.187874 9.010051 4,825 196 257 -576
2022-05-21 15:46:24 GMT 50.189037 9.010571 4,825 194 258 -512
2022-05-21 15:46:23 GMT 50.191227 9.011387 4,850 192 259 -512
2022-05-21 15:46:21 GMT 50.192551 9.011825 4,850 191 259 -512
2022-05-21 15:46:19 GMT 50.195114 9.012548 4,875 190 259 -512
2022-05-21 15:46:18 GMT 50.196167 9.012837 4,875 190 259 -448
2022-05-21 15:46:17 GMT 50.199371 9.013632 4,900 189 259 -448
2022-05-21 15:46:14 GMT 50.200562 9.013921 4,900 189 259 -448
2022-05-21 15:46:13 GMT 50.201752 9.014138 4,925 189 259 -448
2022-05-21 15:46:12 GMT 50.204121 9.014728 4,925 189 258 -512
2022-05-21 15:46:10 GMT 50.205414 9.015077 4,950 189 259 -576
2022-05-21 15:46:08 GMT 50.208847 9.015872 4,975 189 258 -512
2022-05-21 15:46:05 GMT 50.211227 9.016451 5,000 189 258 -512
2022-05-21 15:46:04 GMT 50.214661 9.017246 5,000 189 259 -512
2022-05-21 15:46:02 GMT 50.214661 9.017246 5,000 189 259 -448
2022-05-21 15:46:01 GMT 50.215942 9.017535 5,025 189 259 -448
2022-05-21 15:46:00 GMT 50.218227 9.018068 5,025 189 259 -512
2022-05-21 15:45:57 GMT 50.220474 9.018619 5,050 189 259 -512
2022-05-21 15:45:56 GMT 50.222137 9.018959 5,050 189 259 -512
2022-05-21 15:45:54 GMT 50.224640 9.019559 5,075 189 259 -576
2022-05-21 15:45:51 GMT 50.230087 9.020787 5,125 188 259 -576
2022-05-21 15:45:49 GMT 50.230087 9.020787 5,150 188 259 -576
2022-05-21 15:45:48 GMT 50.234100 9.021631 5,150 189 258 -512
2022-05-21 15:45:46 GMT 50.234100 9.021631 5,150 188 258 -512
2022-05-21 15:45:45 GMT 50.235168 9.021871 5,175 188 258 -512
2022-05-21 15:45:43 GMT 50.237640 9.022377 5,200 188 258 -512
2022-05-21 15:45:41 GMT 50.240021 9.022883 5,200 187 256 -512
2022-05-21 15:45:40 GMT 50.241302 9.023100 5,225 187 256 -576
2022-05-21 15:45:38 GMT 50.243179 9.023462 5,225 186 256 -576
2022-05-21 15:45:35 GMT 50.247181 9.024007 5,275 185 255 -512
2022-05-21 15:45:33 GMT 50.249313 9.024257 5,275 184 254 -512
2022-05-21 15:45:32 GMT 50.251556 9.024378 5,300 183 254 -512
2022-05-21 15:45:30 GMT 50.252815 9.024452 5,325 179 253 -512
2022-05-21 15:45:29 GMT 50.254025 9.024452 5,325 178 253 -512
2022-05-21 15:45:27 GMT 50.256351 9.024304 5,350 175 251 -448
2022-05-21 15:45:26 GMT 50.258652 9.023968 5,350 169 251 -576
2022-05-21 15:45:24 GMT 50.259937 9.023635 5,350 169 251 -576
2022-05-21 15:45:22 GMT 50.262222 9.022956 5,375 165 252 -704
2022-05-21 15:45:21 GMT 50.265244 9.021631 5,425 159 254 -832
2022-05-21 15:45:19 GMT 50.267441 9.020281 5,425 159 254 -832
2022-05-21 15:45:17 GMT 50.267441 9.020281 5,425 153 256 -1088
2022-05-21 15:45:15 GMT 50.269436 9.018810 5,475 153 256 -1088
2022-05-21 15:45:14 GMT 50.270508 9.017896 5,500 148 257 -1152
2022-05-21 15:45:13 GMT 50.272461 9.016138 5,550 144 259 -1344
2022-05-21 15:45:11 GMT 50.273438 9.015077 5,550 143 260 -1344
2022-05-21 15:45:10 GMT 50.274399 9.013993 5,575 141 260 -1344
2022-05-21 15:45:08 GMT 50.276093 9.011825 5,625 137 260 -1280
2022-05-21 15:45:07 GMT 50.277348 9.010125 5,650 133 261 -1216
2022-05-21 15:45:05 GMT 50.278885 9.007750 5,700 131 262 -1216
2022-05-21 15:45:04 GMT 50.280746 9.004484 5,725 129 262 -1152
2022-05-21 15:45:02 GMT 50.281403 9.003151 5,750 125 264 -960
2022-05-21 15:45:01 GMT 50.282135 9.001633 5,750 124 264 -896
2022-05-21 15:44:58 GMT 50.284058 8.996935 5,800 116 267 -576
2022-05-21 15:44:57 GMT 50.285213 8.993572 5,800 114 269 -512
2022-05-21 15:44:55 GMT 50.285774 8.991790 5,825 112 269 -512
2022-05-21 15:44:53 GMT 50.287216 8.985851 5,900 106 271 -512
2022-05-21 15:44:50 GMT 50.287766 8.983058 5,900 105 272 -576
2022-05-21 15:44:48 GMT 50.288425 8.978799 5,900 97 274 -704
2022-05-21 15:44:46 GMT 50.288864 8.974312 5,925 95 275 -704
2022-05-21 15:44:44 GMT 50.289093 8.966578 5,950 89 276 -640
2022-05-21 15:44:42 GMT 50.289093 8.966578 5,950 87 276 -576
2022-05-21 15:44:41 GMT 50.288845 8.960241 5,975 84 277 -512
2022-05-21 15:44:39 GMT 50.288612 8.956827 6,000 80 278 -256
2022-05-21 15:44:37 GMT 50.288612 8.956827 6,000 80 278 -256
2022-05-21 15:44:36 GMT 50.287914 8.950665 6,000 79 280 -128
2022-05-21 15:44:34 GMT 50.287914 8.950665 6,000 78 280 -64
2022-05-21 15:44:32 GMT 50.287403 8.946508 6,000 77 282 0
2022-05-21 15:44:31 GMT 50.287125 8.944504 6,000 77 283 64
2022-05-21 15:44:28 GMT 50.286427 8.939531 6,000 77 286 128
2022-05-21 15:44:27 GMT 50.285820 8.934854 6,000 77 287 64
2022-05-21 15:44:25 GMT 50.285496 8.932850 6,000 77 288 0
2022-05-21 15:44:24 GMT 50.285248 8.931017 6,000 77 289 0
2022-05-21 15:44:22 GMT 50.284702 8.926911 6,000 77 290 0
2022-05-21 15:44:21 GMT 50.284378 8.924657 6,000 77 293 -64
2022-05-21 15:44:19 GMT 50.283817 8.920750 6,000 77 295 0
2022-05-21 15:44:18 GMT 50.283493 8.918449 6,000 77 296 64
2022-05-21 15:44:16 GMT 50.282887 8.914292 6,000 77 297 0
2022-05-21 15:44:15 GMT 50.282272 8.910129 6,000 77 299 -64
2022-05-21 15:44:13 GMT 50.281952 8.908033 6,000 77 300 -64
2022-05-21 15:44:11 GMT 50.281399 8.903974 6,000 77 302 -64
2022-05-21 15:44:10 GMT 50.281120 8.902044 6,000 77 304 -64
2022-05-21 15:44:08 GMT 50.280167 8.895673 6,000 77 305 -64
2022-05-21 15:44:06 GMT 50.279755 8.892638 6,000 77 306 -64
2022-05-21 15:44:04 GMT 50.279209 8.888979 6,000 77 309 0
2022-05-21 15:44:03 GMT 50.278885 8.886603 6,000 77 310 64
2022-05-21 15:44:01 GMT 50.278244 8.882013 6,000 77 312 -64
2022-05-21 15:44:00 GMT 50.277924 8.879772 6,000 77 313 -64
2022-05-21 15:43:59 GMT 50.277283 8.875146 6,000 77 315 0
2022-05-21 15:43:57 GMT 50.276642 8.870737 6,000 77 315 0
2022-05-21 15:43:55 GMT 50.276325 8.868491 6,000 77 317 -64
2022-05-21 15:43:54 GMT 50.275673 8.863963 6,000 77 319 -128
2022-05-21 15:43:52 GMT 50.275406 8.861991 6,000 77 320 -128
2022-05-21 15:43:51 GMT 50.275066 8.859731 6,000 77 321 -128
2022-05-21 15:43:49 GMT 50.274414 8.854980 6,000 77 323 -128
2022-05-21 15:43:47 GMT 50.273811 8.850823 6,000 77 324 0
2022-05-21 15:43:46 GMT 50.273438 8.848331 6,025 77 326 0
2022-05-21 15:43:44 GMT 50.272694 8.843252 6,000 77 330 -128
2022-05-21 15:43:42 GMT 50.272041 8.838649 6,025 77 330 -128
2022-05-21 15:43:40 GMT 50.271149 8.832646 6,025 76 332 -128
2022-05-21 15:43:38 GMT 50.270782 8.830044 6,025 77 334 -192
2022-05-21 15:43:36 GMT 50.270233 8.826286 6,025 77 334 -192
2022-05-21 15:43:35 GMT 50.269547 8.821588 6,025 77 336 -256
2022-05-21 15:43:33 GMT 50.269135 8.818986 6,025 77 338 -320
2022-05-21 15:43:32 GMT 50.267944 8.810887 6,050 77 339 -384
2022-05-21 15:43:30 GMT 50.267944 8.810887 6,050 77 341 -448
2022-05-21 15:43:28 GMT 50.267258 8.806048 6,075 77 343 -576
2022-05-21 15:43:26 GMT 50.266571 8.801205 6,100 76 344 -896
2022-05-21 15:43:24 GMT 50.266037 8.797822 6,125 76 345 -1088
2022-05-21 15:43:22 GMT 50.265339 8.792997 6,150 76 345 -1152
2022-05-21 15:43:21 GMT 50.264965 8.790547 6,175 77 346 -1280
2022-05-21 15:43:18 GMT 50.263596 8.781256 6,250 77 347 -1408
2022-05-21 15:43:17 GMT 50.263275 8.779088 6,275 77 347 -1408
2022-05-21 15:43:16 GMT 50.262955 8.776631 6,300 77 348 -1408
2022-05-21 15:43:14 GMT 50.262177 8.771499 6,350 77 348 -1472
2022-05-21 15:43:13 GMT 50.261810 8.769041 6,375 77 349 -1472
2022-05-21 15:43:12 GMT 50.261032 8.763331 6,425 77 350 -1472
2022-05-21 15:43:09 GMT 50.260025 8.756465 6,475 77 350 -1536
2022-05-21 15:43:07 GMT 50.259609 8.753505 6,500 77 351 -1600
2022-05-21 15:43:06 GMT 50.259331 8.751501 6,525 77 351 -1600
2022-05-21 15:43:04 GMT 50.258774 8.747790 6,575 77 352 -1536
2022-05-21 15:43:03 GMT 50.258030 8.742371 6,650 77 352 -1600
2022-05-21 15:43:01 GMT 50.257690 8.739841 6,650 77 352 -1664
2022-05-21 15:42:59 GMT 50.256912 8.734131 6,725 77 352 -1536
2022-05-21 15:42:57 GMT 50.256546 8.731457 6,750 77 352 -1536
2022-05-21 15:42:55 GMT 50.255814 8.726180 6,800 77 352 -1664
2022-05-21 15:42:54 GMT 50.255310 8.722711 6,850 77 352 -1728
2022-05-21 15:42:53 GMT 50.254955 8.719953 6,875 77 352 -1664
2022-05-21 15:42:51 GMT 50.254257 8.714756 6,950 78 352 -1472
2022-05-21 15:42:50 GMT 50.253887 8.712307 6,975 78 351 -1344
2022-05-21 15:42:49 GMT 50.252930 8.705075 7,050 77 350 -1344
2022-05-21 15:42:47 GMT 50.252930 8.705075 7,050 77 350 -1280
2022-05-21 15:42:45 GMT 50.252350 8.700875 7,075 77 349 -960
2022-05-21 15:42:44 GMT 50.251968 8.698208 7,100 77 348 -960
2022-05-21 15:42:42 GMT 50.251236 8.693004 7,125 77 349 -1280
2022-05-21 15:42:41 GMT 50.250069 8.684618 7,200 77 351 -1600
2022-05-21 15:42:39 GMT 50.250069 8.684618 7,200 77 353 -1792
2022-05-21 15:42:38 GMT 50.249771 8.682379 7,225 77 354 -2048
2022-05-21 15:42:36 GMT 50.249043 8.677418 7,300 77 355 -2560
2022-05-21 15:42:35 GMT 50.247974 8.669623 7,450 77 356 -3328
2022-05-21 15:42:33 GMT 50.247974 8.669623 7,475 77 355 -3520
2022-05-21 15:42:30 GMT 50.247070 8.663081 7,625 77 356 -3776
2022-05-21 15:42:29 GMT 50.246796 8.661130 7,675 77 356 -3776
2022-05-21 15:42:28 GMT 50.246204 8.656855 7,775 77 356 -3776
2022-05-21 15:42:26 GMT 50.245693 8.653070 7,875 77 356 -3712
2022-05-21 15:42:24 GMT 50.244949 8.647502 8,025 77 356 -3648
2022-05-21 15:42:23 GMT 50.244576 8.644756 8,075 77 356 -3584
2022-05-21 15:42:21 GMT 50.243877 8.639708 8,200 77 357 -3456
2022-05-21 15:42:19 GMT 50.243179 8.634676 8,300 77 357 -3392
2022-05-21 15:42:18 GMT 50.242813 8.632146 8,375 77 358 -3392
2022-05-21 15:42:17 GMT 50.242203 8.627608 8,450 78 358 -3392
2022-05-21 15:42:15 GMT 50.241875 8.625084 8,525 78 359 -3328
2022-05-21 15:42:13 GMT 50.241165 8.620003 8,650 78 360 -3200
2022-05-21 15:42:12 GMT 50.240433 8.614617 8,750 78 361 -3136
2022-05-21 15:42:09 GMT 50.239746 8.609523 8,850 78 362 -3072
2022-05-21 15:42:08 GMT 50.238693 8.601572 9,000 78 363 -3136
2022-05-21 15:42:06 GMT 50.238693 8.601572 9,000 78 363 -3136
2022-05-21 15:42:04 GMT 50.238152 8.597470 9,050 78 364 -3136
2022-05-21 15:42:03 GMT 50.237778 8.594946 9,175 78 365 -3072
2022-05-21 15:42:02 GMT 50.237080 8.589750 9,250 78 366 -3008
2022-05-21 15:42:00 GMT 50.236710 8.586929 9,325 78 367 -3008
2022-05-21 15:41:59 GMT 50.236038 8.581985 9,425 78 369 -2816
2022-05-21 15:41:56 GMT 50.235214 8.575480 9,475 78 369 -2816
2022-05-21 15:41:54 GMT 50.234707 8.571786 9,550 78 370 -2752
2022-05-21 15:41:53 GMT 50.234241 8.568148 9,650 78 373 -2688
2022-05-21 15:41:51 GMT 50.233566 8.563120 9,725 78 373 -2688
2022-05-21 15:41:49 GMT 50.232697 8.556543 9,825 78 375 -2688
2022-05-21 15:41:47 GMT 50.232101 8.551989 9,875 78 375 -2688
2022-05-21 15:41:45 GMT 50.231461 8.547219 10,050 78 377 -2752
2022-05-21 15:41:43 GMT 50.230774 8.542159 10,075 78 379 -2816
2022-05-21 15:41:42 GMT 50.230408 8.539485 10,125 78 380 -2880
2022-05-21 15:41:40 GMT 50.229675 8.533847 10,225 78 381 -2880
2022-05-21 15:41:39 GMT 50.229259 8.530884 10,275 78 382 -2880
2022-05-21 15:41:38 GMT 50.228420 8.524648 10,425 78 383 -2944
2022-05-21 15:41:36 GMT 50.228096 8.521976 10,450 78 384 -3008
2022-05-21 15:41:35 GMT 50.227772 8.519823 10,475 78 384 -3072
2022-05-21 15:41:33 GMT 50.227119 8.514627 10,575 78 384 -3136
2022-05-21 15:41:31 GMT 50.226372 8.509208 10,700 78 385 -3200
2022-05-21 15:41:30 GMT 50.226013 8.506454 10,750 78 386 -3200
2022-05-21 15:41:27 GMT 50.224731 8.496335 10,900 78 388 -3072
2022-05-21 15:41:25 GMT 50.224365 8.493588 11,000 78 389 -2944
2022-05-21 15:41:23 GMT 50.223675 8.488126 11,075 78 391 -2816
2022-05-21 15:41:22 GMT 50.222977 8.482559 11,200 78 392 -2816
2022-05-21 15:41:19 GMT 50.222214 8.476458 11,275 79 394 -2944
2022-05-21 15:41:18 GMT 50.221848 8.473712 11,350 78 394 -3008
2022-05-21 15:41:17 GMT 50.221485 8.470607 11,400 78 395 -3072
2022-05-21 15:41:14 GMT 50.220463 8.462516 11,550 78 396 -3200
2022-05-21 15:41:12 GMT 50.219856 8.457765 11,675 78 397 -3328
2022-05-21 15:41:11 GMT 50.219482 8.454945 11,725 78 397 -3392
2022-05-21 15:41:09 GMT 50.218735 8.448775 11,850 78 398 -3456
2022-05-21 15:41:08 GMT 50.218414 8.446259 11,925 78 398 -3584
2022-05-21 15:41:06 GMT 50.217636 8.440030 12,000 78 399 -3648
2022-05-21 15:41:05 GMT 50.217297 8.437500 12,075 78 399 -3712
2022-05-21 15:41:03 GMT 50.216644 8.432081 12,150 78 399 -3776
2022-05-21 15:41:01 GMT 50.215393 8.422466 12,400 78 401 -3712
2022-05-21 15:40:58 GMT 50.214752 8.417117 12,475 78 401 -3648
2022-05-21 15:40:57 GMT 50.214317 8.413968 12,550 78 401 -3584
2022-05-21 15:40:56 GMT 50.214020 8.411407 12,650 78 403 -3520
2022-05-21 15:40:54 GMT 50.213291 8.405729 12,775 78 403 -3456
2022-05-21 15:40:53 GMT 50.212967 8.403168 12,825 78 403 -3456
2022-05-21 15:40:51 GMT 50.212315 8.398009 12,900 78 404 -3456
2022-05-21 15:40:50 GMT 50.212006 8.395434 13,000 78 404 -3456
2022-05-21 15:40:48 GMT 50.211227 8.389435 13,125 78 405 -3520
2022-05-21 15:40:46 GMT 50.210499 8.383459 13,150 78 405 -3520
2022-05-21 15:40:45 GMT 50.209988 8.379673 13,275 78 406 -3456
2022-05-21 15:40:44 GMT 50.209335 8.374551 13,400 78 407 -3328
2022-05-21 15:40:42 GMT 50.208961 8.371359 13,475 78 408 -3328
2022-05-21 15:40:40 GMT 50.208218 8.365569 13,575 78 408 -3392
2022-05-21 15:40:39 GMT 50.207840 8.362692 13,625 78 409 -3392
2022-05-21 15:40:37 GMT 50.207291 8.358066 13,725 78 410 -3392
2022-05-21 15:40:36 GMT 50.206833 8.354597 13,775 78 410 -3392
2022-05-21 15:40:35 GMT 50.206055 8.348525 13,825 78 411 -3200
2022-05-21 15:40:33 GMT 50.205750 8.345898 13,950 78 412 -3008
2022-05-21 15:40:32 GMT 50.204956 8.339418 14,025 79 414 -2560
2022-05-21 15:40:30 GMT 50.204590 8.336527 14,075 79 415 -2368
2022-05-21 15:40:28 GMT 50.203842 8.330680 14,150 79 416 -2240
2022-05-21 15:40:26 GMT 50.203236 8.325929 14,200 79 417 -2176
2022-05-21 15:40:25 GMT 50.202866 8.322663 14,250 78 418 -2048
2022-05-21 15:40:24 GMT 50.202164 8.317084 14,325 79 420 -1920
2022-05-21 15:40:22 GMT 50.201748 8.313830 14,350 79 421 -1856
2022-05-21 15:40:20 GMT 50.201019 8.307832 14,450 79 423 -1728
2022-05-21 15:40:18 GMT 50.200256 8.301878 14,450 79 424 -1728
2022-05-21 15:40:17 GMT 50.199783 8.297930 14,525 79 426 -1600
2022-05-21 15:40:16 GMT 50.199417 8.295256 14,525 79 427 -1536
2022-05-21 15:40:15 GMT 50.199001 8.291931 14,550 78 428 -1408
2022-05-21 15:40:13 GMT 50.198318 8.286149 14,600 79 430 -1216
2022-05-21 15:40:12 GMT 50.197929 8.283098 14,625 79 431 -1280
2022-05-21 15:40:11 GMT 50.197231 8.277604 14,625 78 433 -1280
2022-05-21 15:40:09 GMT 50.196762 8.273934 14,675 78 434 -1280
2022-05-21 15:40:08 GMT 50.196068 8.268103 14,725 79 435 -1472
2022-05-21 15:40:06 GMT 50.195618 8.264754 14,750 79 435 -1664
2022-05-21 15:40:05 GMT 50.194859 8.258527 14,800 79 436 -1920
2022-05-21 15:40:01 GMT 50.193600 8.248357 14,900 79 437 -1984
2022-05-21 15:40:00 GMT 50.193367 8.246501 14,925 79 437 -2048
2022-05-21 15:39:59 GMT 50.192345 8.238113 15,025 79 438 -2176
2022-05-21 15:39:56 GMT 50.191784 8.233808 15,050 79 438 -2176
2022-05-21 15:39:55 GMT 50.191406 8.230711 15,125 79 439 -2304
2022-05-21 15:39:54 GMT 50.191040 8.227869 15,200 79 439 -2304
2022-05-21 15:39:51 GMT 50.189758 8.217340 15,275 79 440 -2240
2022-05-21 15:39:49 GMT 50.189026 8.211413 15,350 79 441 -1984
2022-05-21 15:39:48 GMT 50.188618 8.207975 15,375 79 441 -1856
2022-05-21 15:39:46 GMT 50.188019 8.203245 15,450 79 442 -1664
2022-05-21 15:39:44 GMT 50.187222 8.196395 15,475 79 443 -1664
2022-05-21 15:39:41 GMT 50.186012 8.186670 15,550 79 444 -1664
2022-05-21 15:39:40 GMT 50.185734 8.184146 15,575 79 444 -1664
2022-05-21 15:39:38 GMT 50.185173 8.179470 15,625 79 445 -1792
2022-05-21 15:39:37 GMT 50.184586 8.174695 15,675 79 445 -1856
2022-05-21 15:39:36 GMT 50.184174 8.171226 15,700 79 445 -1856
2022-05-21 15:39:34 GMT 50.183357 8.164623 15,775 79 446 -1728
2022-05-21 15:39:33 GMT 50.182335 8.156087 15,850 79 446 -1536
2022-05-21 15:39:30 GMT 50.181774 8.151336 15,850 79 446 -1344
2022-05-21 15:39:28 GMT 50.181244 8.146579 15,900 79 446 -1088
2022-05-21 15:39:27 GMT 50.180611 8.141537 15,950 79 446 -1024
2022-05-21 15:39:25 GMT 50.180008 8.136489 15,950 79 446 -704
2022-05-21 15:39:24 GMT 50.179688 8.133641 15,975 79 447 -512
2022-05-21 15:39:22 GMT 50.178955 8.127642 15,975 79 447 -192
2022-05-21 15:39:21 GMT 50.178471 8.123499 16,000 79 447 -192
2022-05-21 15:39:19 GMT 50.177681 8.116892 16,000 79 447 -64
2022-05-21 15:39:17 GMT 50.176933 8.110583 16,000 79 447 0
2022-05-21 15:39:16 GMT 50.176517 8.107094 16,000 79 447 0
2022-05-21 15:39:14 GMT 50.175797 8.101044 16,000 79 447 0
2022-05-21 15:39:12 GMT 50.174885 8.093509 16,000 79 447 0
2022-05-21 15:39:11 GMT 50.174465 8.090317 16,000 79 446 0
2022-05-21 15:39:09 GMT 50.173534 8.082449 16,000 79 446 0
2022-05-21 15:39:06 GMT 50.172886 8.076733 16,000 79 446 0
2022-05-21 15:39:04 GMT 50.172134 8.070398 16,000 79 446 0
2022-05-21 15:39:02 GMT 50.171303 8.063816 16,000 79 445 -64
2022-05-21 15:38:59 GMT 50.169434 8.047774 16,000 79 444 0
2022-05-21 15:38:55 GMT 50.168369 8.038949 16,000 79 443 0
2022-05-21 15:38:53 GMT 50.168015 8.035776 16,000 79 443 0
2022-05-21 15:38:51 GMT 50.167419 8.030789 16,000 79 443 0
2022-05-21 15:38:49 GMT 50.166458 8.022332 16,000 79 443 0
2022-05-21 15:38:47 GMT 50.165714 8.016085 16,000 79 443 0
2022-05-21 15:38:45 GMT 50.165085 8.010768 16,000 79 443 0
2022-05-21 15:38:44 GMT 50.164169 8.002890 16,000 79 443 0
2022-05-21 15:38:41 GMT 50.163620 7.998195 16,000 79 443 0
2022-05-21 15:38:39 GMT 50.162830 7.991589 16,000 79 443 0
2022-05-21 15:38:38 GMT 50.162502 7.988471 16,000 79 443 0
2022-05-21 15:38:37 GMT 50.161713 7.981939 16,000 79 443 0
2022-05-21 15:38:35 GMT 50.161377 7.979110 16,000 79 443 0
2022-05-21 15:38:33 GMT 50.160736 7.973476 16,000 79 443 0
2022-05-21 15:38:31 GMT 50.159958 7.966823 16,000 79 443 0
2022-05-21 15:38:30 GMT 50.159618 7.963752 16,000 79 443 0
2022-05-21 15:38:29 GMT 50.158447 7.953668 16,000 79 443 -64
2022-05-21 15:38:27 GMT 50.158447 7.953668 16,000 79 443 -64
2022-05-21 15:38:26 GMT 50.158127 7.951210 16,000 79 443 -64
2022-05-21 15:38:25 GMT 50.156918 7.940517 16,000 79 443 -64
2022-05-21 15:38:23 GMT 50.156918 7.940517 16,000 79 443 -64
2022-05-21 15:38:20 GMT 50.155846 7.931387 16,000 79 443 -64
2022-05-21 15:38:18 GMT 50.155197 7.925768 16,000 79 444 0
2022-05-21 15:38:15 GMT 50.154030 7.915724 16,000 79 444 0
2022-05-21 15:38:13 GMT 50.153332 7.909414 16,000 79 444 0
2022-05-21 15:38:12 GMT 50.152401 7.901545 16,000 79 444 64
2022-05-21 15:38:10 GMT 50.152401 7.901545 16,000 79 444 64
2022-05-21 15:38:09 GMT 50.151215 7.891508 16,000 79 444 64
2022-05-21 15:38:07 GMT 50.150528 7.885871 16,000 79 444 64
2022-05-21 15:38:04 GMT 50.149246 7.874884 16,000 79 444 0
2022-05-21 15:38:02 GMT 50.149246 7.874884 16,000 79 444 0
2022-05-21 15:38:00 GMT 50.148582 7.869254 16,000 79 444 0
2022-05-21 15:37:58 GMT 50.147980 7.864207 16,000 79 445 -64
2022-05-21 15:37:57 GMT 50.147644 7.861368 16,000 79 445 -64
2022-05-21 15:37:56 GMT 50.146957 7.855369 16,000 79 445 -64
2022-05-21 15:37:53 GMT 50.145859 7.846262 16,000 79 445 -64
2022-05-21 15:37:51 GMT 50.145325 7.841492 16,000 79 445 -64
2022-05-21 15:37:50 GMT 50.144768 7.836815 16,000 79 445 0
2022-05-21 15:37:48 GMT 50.144207 7.832064 16,000 79 445 0
2022-05-21 15:37:46 GMT 50.143616 7.827325 16,000 79 445 0
2022-05-21 15:37:45 GMT 50.143250 7.824217 16,000 79 445 0
2022-05-21 15:37:43 GMT 50.141968 7.813159 16,000 79 445 0
2022-05-21 15:37:42 GMT 50.141968 7.813159 16,000 79 445 0
2022-05-21 15:37:40 GMT 50.141006 7.805280 16,000 79 445 0
2022-05-21 15:37:39 GMT 50.140640 7.802100 16,000 79 446 0
2022-05-21 15:37:37 GMT 50.140205 7.798363 16,000 79 446 0
2022-05-21 15:37:35 GMT 50.139450 7.792053 16,000 79 446 0
2022-05-21 15:37:33 GMT 50.138435 7.783517 16,000 79 446 0
2022-05-21 15:37:32 GMT 50.137459 7.774980 16,000 79 446 -64
2022-05-21 15:37:30 GMT 50.137459 7.774980 16,000 79 446 -64
2022-05-21 15:37:27 GMT 50.136337 7.765527 16,000 79 445 0
2022-05-21 15:37:25 GMT 50.135559 7.758227 16,000 80 446 0
2022-05-21 15:37:23 GMT 50.135036 7.753527 16,000 80 446 0
2022-05-21 15:37:22 GMT 50.134644 7.749698 16,000 80 446 64
2022-05-21 15:37:20 GMT 50.134140 7.744639 16,000 81 447 64
2022-05-21 15:37:19 GMT 50.133820 7.741458 16,000 82 447 64
2022-05-21 15:37:17 GMT 50.133270 7.735117 16,000 82 447 64
2022-05-21 15:37:16 GMT 50.132904 7.730327 16,000 83 447 0
2022-05-21 15:37:14 GMT 50.132385 7.721978 16,000 86 448 0
2022-05-21 15:37:12 GMT 50.132244 7.718786 16,000 86 448 0
2022-05-21 15:37:10 GMT 50.131989 7.712330 16,000 87 448 0
2022-05-21 15:37:09 GMT 50.131966 7.709433 16,000 88 449 0
2022-05-21 15:37:06 GMT 50.131870 7.696814 16,000 91 450 -64
2022-05-21 15:37:03 GMT 50.132217 7.682262 16,000 93 449 -128
2022-05-21 15:37:01 GMT 50.132477 7.677439 16,000 95 450 -128
2022-05-21 15:36:58 GMT 50.132755 7.672614 16,000 95 450 -64
2022-05-21 15:36:56 GMT 50.133087 7.667807 16,000 96 450 -64
2022-05-21 15:36:54 GMT 50.133545 7.661301 16,000 96 451 0
2022-05-21 15:36:52 GMT 50.134060 7.654873 16,000 96 450 0
2022-05-21 15:36:51 GMT 50.134460 7.649737 16,000 97 450 0
2022-05-21 15:36:49 GMT 50.134918 7.643955 16,000 96 450 0
2022-05-21 15:36:47 GMT 50.135502 7.636240 16,000 96 450 0
2022-05-21 15:36:46 GMT 50.135643 7.634310 16,000 96 450 0
2022-05-21 15:36:45 GMT 50.136482 7.623695 16,000 96 450 0
2022-05-21 15:36:43 GMT 50.136715 7.620503 16,000 96 450 0
2022-05-21 15:36:41 GMT 50.136978 7.617284 16,000 96 450 0
2022-05-21 15:36:38 GMT 50.137737 7.607661 16,000 96 450 0
2022-05-21 15:36:36 GMT 50.138260 7.600949 16,000 96 450 0
2022-05-21 15:36:34 GMT 50.138531 7.597046 16,000 96 450 0
2022-05-21 15:36:33 GMT 50.138901 7.592276 16,000 96 450 64
2022-05-21 15:36:32 GMT 50.139229 7.588435 16,000 96 450 64
2022-05-21 15:36:30 GMT 50.139599 7.583313 16,000 96 450 64
2022-05-21 15:36:29 GMT 50.139816 7.580422 16,000 96 450 64
2022-05-21 15:36:27 GMT 50.140366 7.573628 16,000 96 450 64
2022-05-21 15:36:25 GMT 50.140858 7.567205 16,000 96 450 64
2022-05-21 15:36:23 GMT 50.141327 7.561123 16,000 96 450 0
2022-05-21 15:36:22 GMT 50.141556 7.558223 16,000 96 449 0
2022-05-21 15:36:20 GMT 50.142021 7.552136 16,000 96 449 0
2022-05-21 15:36:17 GMT 50.142952 7.539590 16,000 96 449 -64
2022-05-21 15:36:16 GMT 50.143230 7.536398 16,000 96 449 -64
2022-05-21 15:36:14 GMT 50.143707 7.529971 16,000 96 449 -64
2022-05-21 15:36:13 GMT 50.143936 7.526791 16,000 96 449 -64
2022-05-21 15:36:12 GMT 50.144485 7.520069 16,000 96 449 -128
2022-05-21 15:36:10 GMT 50.144806 7.515588 16,000 96 449 -128
2022-05-21 15:36:07 GMT 50.145584 7.505614 16,025 96 449 -256
2022-05-21 15:36:04 GMT 50.146072 7.499208 16,025 96 449 -256
2022-05-21 15:36:02 GMT 50.146584 7.492453 16,050 96 450 -448
2022-05-21 15:36:01 GMT 50.146816 7.489261 16,050 96 450 -576
2022-05-21 15:35:59 GMT 50.147327 7.482506 16,075 96 451 -768
2022-05-21 15:35:58 GMT 50.147690 7.477353 16,075 96 451 -960
2022-05-21 15:35:56 GMT 50.147964 7.474172 16,100 96 451 -960
2022-05-21 15:35:54 GMT 50.148376 7.468318 16,125 96 451 -1024
2022-05-21 15:35:52 GMT 50.148972 7.460946 16,200 96 451 -960
2022-05-21 15:35:50 GMT 50.149654 7.451922 16,225 96 451 -960
2022-05-21 15:35:48 GMT 50.150448 7.441233 16,275 96 451 -960
2022-05-21 15:35:46 GMT 50.150448 7.441233 16,275 96 451 -960
2022-05-21 15:35:44 GMT 50.151005 7.433884 16,325 96 451 -960
2022-05-21 15:35:43 GMT 50.151215 7.430950 16,325 96 451 -960
2022-05-21 15:35:41 GMT 50.151657 7.425125 16,350 96 451 -1024
2022-05-21 15:35:39 GMT 50.151981 7.420671 16,375 96 451 -1024
2022-05-21 15:35:38 GMT 50.152405 7.415482 16,400 96 451 -1024
2022-05-21 15:35:36 GMT 50.152866 7.409388 16,475 96 451 -1024
2022-05-21 15:35:34 GMT 50.153332 7.403226 16,475 96 452 -960
2022-05-21 15:35:32 GMT 50.153847 7.396471 16,500 96 452 -960
2022-05-21 15:35:29 GMT 50.155289 7.377392 16,600 96 452 -960
2022-05-21 15:35:26 GMT 50.155289 7.377392 16,600 96 452 -960
2022-05-21 15:35:25 GMT 50.155518 7.374139 16,625 96 452 -1024
2022-05-21 15:35:23 GMT 50.156078 7.367075 16,650 96 452 -1152
2022-05-21 15:35:21 GMT 50.156544 7.360617 16,700 96 453 -1344
2022-05-21 15:35:19 GMT 50.157028 7.354118 16,725 96 454 -1536
2022-05-21 15:35:18 GMT 50.157303 7.350865 16,775 96 454 -1600
2022-05-21 15:35:17 GMT 50.157757 7.344360 16,850 96 456 -1664
2022-05-21 15:35:14 GMT 50.158127 7.339518 16,850 96 456 -1664
2022-05-21 15:35:12 GMT 50.159199 7.325134 17,075 96 458 -1664
2022-05-21 15:35:10 GMT 50.159199 7.325134 17,075 96 460 -1792
2022-05-21 15:35:07 GMT 50.159943 7.315039 17,075 96 460 -1792
2022-05-21 15:35:04 GMT 50.160686 7.305537 17,200 96 460 -1792
2022-05-21 15:35:02 GMT 50.161156 7.299302 17,225 96 460 -1856
2022-05-21 15:35:01 GMT 50.161377 7.296295 17,275 96 461 -1856
2022-05-21 15:34:59 GMT 50.161854 7.289429 17,300 96 461 -1984
2022-05-21 15:34:58 GMT 50.162132 7.285791 17,350 96 461 -1984
2022-05-21 15:34:56 GMT 50.162659 7.278876 17,425 96 462 -2048
2022-05-21 15:34:55 GMT 50.162922 7.274879 17,475 96 462 -2048
2022-05-21 15:34:53 GMT 50.163391 7.268613 17,525 96 462 -1984
2022-05-21 15:34:52 GMT 50.163666 7.264999 17,550 96 462 -1984
2022-05-21 15:34:50 GMT 50.164124 7.259072 17,625 96 463 -1728
2022-05-21 15:34:49 GMT 50.164413 7.255430 17,650 96 463 -1600
2022-05-21 15:34:46 GMT 50.165016 7.247117 17,700 96 464 -1472
2022-05-21 15:34:45 GMT 50.165405 7.242159 17,750 96 465 -1280
2022-05-21 15:34:44 GMT 50.165623 7.238803 17,750 96 466 -1280
2022-05-21 15:34:42 GMT 50.166180 7.231528 17,800 96 467 -1216
2022-05-21 15:34:40 GMT 50.166599 7.225812 17,850 96 468 -1344
2022-05-21 15:34:39 GMT 50.166832 7.222471 17,875 96 469 -1472
2022-05-21 15:34:36 GMT 50.167374 7.215126 17,925 96 469 -1664
2022-05-21 15:34:35 GMT 50.167648 7.211729 17,950 96 470 -1728
2022-05-21 15:34:32 GMT 50.168510 7.199682 18,075 96 471 -1920
2022-05-21 15:34:30 GMT 50.169022 7.192937 18,100 96 471 -1920
2022-05-21 15:34:28 GMT 50.169765 7.182832 18,200 96 472 -1792
2022-05-21 15:34:26 GMT 50.170044 7.179491 18,300 96 472 -1792
2022-05-21 15:34:24 GMT 50.170532 7.172699 18,300 96 472 -1792
2022-05-21 15:34:22 GMT 50.171539 7.158822 18,500 96 474 -1728
2022-05-21 15:34:20 GMT 50.171539 7.158822 18,500 96 474 -1856
2022-05-21 15:34:18 GMT 50.172089 7.151738 18,500 96 474 -1856
2022-05-21 15:34:16 GMT 50.172558 7.145270 18,650 96 474 -1856
2022-05-21 15:34:14 GMT 50.173141 7.137138 18,650 96 476 -1920
2022-05-21 15:34:12 GMT 50.173584 7.130647 18,650 96 476 -1920
2022-05-21 15:34:10 GMT 50.174282 7.121442 18,825 96 477 -1920
2022-05-21 15:34:07 GMT 50.175018 7.111190 18,875 96 478 -1984
2022-05-21 15:34:04 GMT 50.175537 7.103700 18,950 96 478 -2048
2022-05-21 15:34:02 GMT 50.176003 7.097539 19,025 96 479 -2112
2022-05-21 15:34:01 GMT 50.176529 7.090663 19,225 96 479 -2048
2022-05-21 15:33:58 GMT 50.177216 7.080763 19,225 96 480 -1984
2022-05-21 15:33:56 GMT 50.177494 7.076977 19,250 96 480 -1920
2022-05-21 15:33:55 GMT 50.178268 7.066666 19,300 96 481 -1856
2022-05-21 15:33:52 GMT 50.178589 7.061824 19,350 96 482 -1856
2022-05-21 15:33:50 GMT 50.178982 7.056712 19,400 96 482 -1920
2022-05-21 15:33:48 GMT 50.179401 7.050847 19,500 96 483 -1984
2022-05-21 15:33:46 GMT 50.180099 7.041152 19,575 96 483 -2176
2022-05-21 15:33:44 GMT 50.180283 7.038406 19,600 96 483 -2176
2022-05-21 15:33:42 GMT 50.180786 7.031178 19,675 96 484 -2112
2022-05-21 15:33:40 GMT 50.181496 7.021451 19,775 96 484 -2112
2022-05-21 15:33:39 GMT 50.182011 7.014548 19,875 96 486 -1728
2022-05-21 15:33:34 GMT 50.183487 6.994027 20,025 96 486 -1728
2022-05-21 15:33:31 GMT 50.183853 6.989184 20,025 96 487 -1728
2022-05-21 15:33:29 GMT 50.184586 6.979065 20,125 96 488 -1600
2022-05-21 15:33:26 GMT 50.185081 6.972087 20,175 96 488 -1600
2022-05-21 15:33:24 GMT 50.185688 6.963699 20,250 96 489 -1600
2022-05-21 15:33:22 GMT 50.185921 6.960210 20,275 96 490 -1600
2022-05-21 15:33:19 GMT 50.186943 6.946106 20,375 96 492 -1472
2022-05-21 15:33:16 GMT 50.187515 6.937649 20,425 96 494 -1408
2022-05-21 15:33:14 GMT 50.188019 6.930566 20,475 96 495 -1408
2022-05-21 15:33:13 GMT 50.188339 6.926286 20,500 96 497 -1408
2022-05-21 15:33:12 GMT 50.188572 6.922797 20,525 96 497 -1472
2022-05-21 15:33:10 GMT 50.189026 6.916400 20,575 96 498 -1600
2022-05-21 15:33:09 GMT 50.189621 6.907798 20,650 96 499 -2048
2022-05-21 15:33:06 GMT 50.190018 6.902161 20,700 96 499 -2048
2022-05-21 15:33:05 GMT 50.190674 6.892837 20,800 96 498 -2496
2022-05-21 15:33:03 GMT 50.190674 6.892837 21,225 96 498 -2752
2022-05-21 15:32:59 GMT 50.192112 6.872171 21,175 96 497 -3008
2022-05-21 15:32:57 GMT 50.192623 6.864674 21,175 96 497 -3008
2022-05-21 15:32:55 GMT 50.192623 6.864674 21,300 95 497 -3008
2022-05-21 15:32:53 GMT 50.193192 6.856842 21,300 95 496 -2944
2022-05-21 15:32:52 GMT 50.193462 6.852945 21,425 95 496 -2944
2022-05-21 15:32:50 GMT 50.193695 6.849036 21,425 95 496 -2944
2022-05-21 15:32:49 GMT 50.194672 6.834461 21,625 95 496 -2944
2022-05-21 15:32:47 GMT 50.194672 6.834461 21,625 95 496 -2944
2022-05-21 15:32:46 GMT 50.194885 6.831255 21,650 96 496 -2560
2022-05-21 15:32:44 GMT 50.195370 6.824143 21,825 96 496 -2560
2022-05-21 15:32:41 GMT 50.195976 6.814938 21,850 96 496 -2432
2022-05-21 15:32:39 GMT 50.196812 6.803135 22,000 96 497 -2176
2022-05-21 15:32:36 GMT 50.197372 6.794970 22,050 96 498 -2048
2022-05-21 15:32:35 GMT 50.197632 6.791791 22,100 97 498 -2048
2022-05-21 15:32:33 GMT 50.198044 6.786443 22,150 97 499 -2048
2022-05-21 15:32:32 GMT 50.198486 6.781088 22,200 98 499 -2048
2022-05-21 15:32:31 GMT 50.198860 6.777228 22,250 98 498 -2048
2022-05-21 15:32:28 GMT 50.200562 6.760856 22,375 100 499 -2048
2022-05-21 15:32:26 GMT 50.200562 6.760856 22,450 100 499 -2112
2022-05-21 15:32:24 GMT 50.201653 6.751692 22,500 101 499 -2112
2022-05-21 15:32:22 GMT 50.202347 6.746401 22,550 102 500 -2112
2022-05-21 15:32:21 GMT 50.202957 6.741820 22,775 104 501 -2112
2022-05-21 15:32:19 GMT 50.204086 6.734113 22,775 104 501 -2112
2022-05-21 15:32:16 GMT 50.205612 6.724301 22,775 104 502 -2048
2022-05-21 15:32:15 GMT 50.206146 6.721175 23,000 104 502 -2048
2022-05-21 15:32:11 GMT 50.208591 6.706485 23,000 104 502 -2048
2022-05-21 15:32:09 GMT 50.209476 6.701215 23,000 104 503 -2048
2022-05-21 15:32:08 GMT 50.211521 6.688966 23,175 104 503 -2048
2022-05-21 15:32:06 GMT 50.211521 6.688966 23,175 104 503 -2048
2022-05-21 15:32:04 GMT 50.213665 6.675976 23,250 104 504 -2048
2022-05-21 15:32:00 GMT 50.214981 6.668268 23,300 104 504 -2048
2022-05-21 15:31:59 GMT 50.215248 6.666474 23,350 104 504 -2048
2022-05-21 15:31:57 GMT 50.216644 6.658086 23,400 104 505 -2048
2022-05-21 15:31:55 GMT 50.217819 6.651065 23,575 104 505 -2048
2022-05-21 15:31:53 GMT 50.218552 6.646801 23,575 104 506 -2112
2022-05-21 15:31:51 GMT 50.219650 6.640151 23,600 104 506 -2112
2022-05-21 15:31:49 GMT 50.221481 6.629165 23,700 104 507 -2112
2022-05-21 15:31:46 GMT 50.222694 6.621787 23,925 104 508 -2048
2022-05-21 15:31:44 GMT 50.224548 6.610806 23,925 104 508 -2048
2022-05-21 15:31:41 GMT 50.227386 6.593387 24,000 104 508 -2112
2022-05-21 15:31:39 GMT 50.227386 6.593387 24,050 104 509 -2112
2022-05-21 15:31:38 GMT 50.227982 6.589845 24,225 104 509 -2112
2022-05-21 15:31:36 GMT 50.228668 6.585942 24,225 104 510 -2112
2022-05-21 15:31:34 GMT 50.231186 6.570692 24,275 104 510 -2112
2022-05-21 15:31:30 GMT 50.232613 6.562104 24,375 104 511 -2112
2022-05-21 15:31:29 GMT 50.233727 6.555349 24,400 104 512 -2112
2022-05-21 15:31:27 GMT 50.234299 6.552116 24,475 104 512 -2112
2022-05-21 15:31:24 GMT 50.235809 6.542864 24,550 104 512 -2112
2022-05-21 15:31:23 GMT 50.236660 6.537830 24,600 104 513 -2112
2022-05-21 15:31:21 GMT 50.237823 6.530704 24,675 104 514 -2112
2022-05-21 15:31:19 GMT 50.238991 6.523875 24,750 104 514 -2112
2022-05-21 15:31:17 GMT 50.240246 6.516377 24,825 104 514 -2112
2022-05-21 15:31:15 GMT 50.241348 6.509544 24,925 104 515 -2048
2022-05-21 15:31:14 GMT 50.241966 6.505911 24,925 104 515 -2048
2022-05-21 15:31:13 GMT 50.242527 6.502347 25,025 104 516 -2048
2022-05-21 15:31:11 GMT 50.243599 6.495889 25,025 104 517 -2048
2022-05-21 15:31:10 GMT 50.245461 6.484680 25,075 104 517 -2048
2022-05-21 15:31:08 GMT 50.245461 6.484680 25,125 104 517 -2048
2022-05-21 15:31:07 GMT 50.246716 6.477109 25,200 104 519 -2048
2022-05-21 15:31:05 GMT 50.247253 6.473838 25,250 104 519 -2048
2022-05-21 15:31:02 GMT 50.249084 6.462635 25,375 104 519 -2048
2022-05-21 15:31:00 GMT 50.250393 6.454690 25,525 104 519 -2048
2022-05-21 15:30:58 GMT 50.252628 6.441329 25,525 104 520 -2048
2022-05-21 15:30:56 GMT 50.252628 6.441329 25,525 104 520 -2048
2022-05-21 15:30:55 GMT 50.254623 6.428953 25,650 104 520 -2048
2022-05-21 15:30:53 GMT 50.254623 6.428953 25,650 104 521 -2048
2022-05-21 15:30:52 GMT 50.255283 6.424923 25,675 104 521 -2048
2022-05-21 15:30:50 GMT 50.256538 6.417352 25,825 104 521 -2048
2022-05-21 15:30:49 GMT 50.257145 6.413714 25,825 104 522 -2048
2022-05-21 15:30:47 GMT 50.258217 6.407108 25,850 104 523 -2048
2022-05-21 15:30:46 GMT 50.258865 6.403099 25,875 104 523 -2048
2022-05-21 15:30:44 GMT 50.260025 6.396211 25,950 104 523 -2048
2022-05-21 15:30:43 GMT 50.260731 6.391816 25,975 104 524 -2048
2022-05-21 15:30:41 GMT 50.261566 6.386694 26,025 104 524 -2048
2022-05-21 15:30:38 GMT 50.263802 6.373184 26,150 104 525 -2048
2022-05-21 15:30:36 GMT 50.264454 6.369101 26,250 104 525 -2048
2022-05-21 15:30:34 GMT 50.266918 6.354106 26,325 104 525 -2048
2022-05-21 15:30:32 GMT 50.267525 6.350395 26,350 104 526 -2112
2022-05-21 15:30:30 GMT 50.269043 6.341280 26,450 104 528 -2048
2022-05-21 15:30:27 GMT 50.270599 6.331667 26,600 104 528 -2048
2022-05-21 15:30:24 GMT 50.271809 6.324339 26,750 104 528 -1984
2022-05-21 15:30:22 GMT 50.274742 6.306227 26,750 104 529 -1792
2022-05-21 15:30:19 GMT 50.274742 6.306227 26,750 104 529 -1600
2022-05-21 15:30:18 GMT 50.275673 6.300659 26,800 104 529 -1472
2022-05-21 15:30:16 GMT 50.276928 6.292939 26,850 104 530 -1088
2022-05-21 15:30:14 GMT 50.277832 6.287360 26,875 104 530 -1088
2022-05-21 15:30:12 GMT 50.279480 6.277386 26,925 104 530 -896
2022-05-21 15:30:10 GMT 50.280441 6.271459 26,950 104 530 -704
2022-05-21 15:30:09 GMT 50.281166 6.266958 26,975 104 530 -576
2022-05-21 15:30:07 GMT 50.282516 6.258867 27,000 104 530 -384
2022-05-21 15:30:05 GMT 50.284332 6.247751 27,000 104 530 -64
2022-05-21 15:30:02 GMT 50.285309 6.241793 27,000 104 530 0
2022-05-21 15:30:00 GMT 50.286072 6.236982 27,000 104 530 64
2022-05-21 15:29:59 GMT 50.287811 6.226212 27,000 104 530 64
2022-05-21 15:29:57 GMT 50.287811 6.226212 27,000 104 530 0
2022-05-21 15:29:56 GMT 50.290478 6.209948 27,000 104 530 0
2022-05-21 15:29:54 GMT 50.290478 6.209948 27,000 104 530 0
2022-05-21 15:29:51 GMT 50.291656 6.202505 27,000 104 530 0
2022-05-21 15:29:48 GMT 50.293533 6.191013 27,000 104 530 0
2022-05-21 15:29:46 GMT 50.294666 6.183967 27,000 104 531 -64
2022-05-21 15:29:44 GMT 50.295830 6.176915 27,000 104 531 -64
2022-05-21 15:29:42 GMT 50.297318 6.167710 27,000 104 531 -128
2022-05-21 15:29:39 GMT 50.299088 6.156946 27,025 104 531 -192
2022-05-21 15:29:37 GMT 50.300354 6.149091 27,025 104 531 -192
2022-05-21 15:29:34 GMT 50.302185 6.137599 27,050 104 531 -192
2022-05-21 15:29:32 GMT 50.304520 6.123143 27,050 104 531 -320
2022-05-21 15:29:30 GMT 50.304520 6.123143 27,050 104 531 0
2022-05-21 15:29:28 GMT 50.305420 6.117603 27,075 104 531 -640
2022-05-21 15:29:26 GMT 50.306625 6.110133 27,075 104 532 -832
2022-05-21 15:29:25 GMT 50.307140 6.106765 27,100 104 532 -832
2022-05-21 15:29:24 GMT 50.308365 6.099364 27,125 104 532 -960
2022-05-21 15:29:21 GMT 50.311066 6.082595 27,200 104 532 -960
2022-05-21 15:29:19 GMT 50.311066 6.082595 27,200 104 532 -960
2022-05-21 15:29:15 GMT 50.315334 6.056213 27,325 104 532 -960
2022-05-21 15:29:12 GMT 50.315334 6.056213 27,325 104 532 -960
2022-05-21 15:29:10 GMT 50.316513 6.048769 27,350 104 533 -960
2022-05-21 15:29:09 GMT 50.317108 6.045010 27,375 104 533 -960
2022-05-21 15:29:08 GMT 50.318920 6.033795 27,450 104 533 -960
2022-05-21 15:29:06 GMT 50.318920 6.033795 27,450 104 533 -960
2022-05-21 15:29:05 GMT 50.320175 6.026001 27,450 104 533 -1024
2022-05-21 15:29:02 GMT 50.321247 6.019320 27,475 104 533 -1024
2022-05-21 15:29:00 GMT 50.322411 6.012194 27,525 104 534 -960
2022-05-21 15:28:58 GMT 50.324368 5.999871 27,575 104 534 -960
2022-05-21 15:28:54 GMT 50.326172 5.988705 27,625 104 534 -960
2022-05-21 15:28:53 GMT 50.326767 5.984947 27,650 104 534 -960
2022-05-21 15:28:51 GMT 50.328049 5.977068 27,700 104 534 -960
2022-05-21 15:28:48 GMT 50.329906 5.965502 27,750 104 534 -960
2022-05-21 15:28:46 GMT 50.331116 5.957987 27,775 103 534 -1024
2022-05-21 15:28:45 GMT 50.331711 5.954228 27,800 103 534 -1024
2022-05-21 15:28:43 GMT 50.332809 5.947145 27,825 104 535 -1024
2022-05-21 15:28:40 GMT 50.335052 5.933340 27,900 104 535 -960
2022-05-21 15:28:38 GMT 50.335770 5.928831 27,925 103 534 -960
2022-05-21 15:28:36 GMT 50.337799 5.916065 27,975 104 535 -960
2022-05-21 15:28:34 GMT 50.337799 5.916065 27,975 104 535 -960
2022-05-21 15:28:32 GMT 50.340225 5.900670 28,000 104 536 -1152
2022-05-21 15:28:29 GMT 50.341125 5.895056 28,100 104 536 -1600
2022-05-21 15:28:27 GMT 50.342331 5.887588 28,100 104 536 -1600
2022-05-21 15:28:24 GMT 50.344151 5.876275 28,175 104 536 -1920
2022-05-21 15:28:23 GMT 50.344894 5.871397 28,250 104 536 -2176
2022-05-21 15:28:21 GMT 50.346039 5.864314 28,300 104 536 -2368
2022-05-21 15:28:20 GMT 50.346634 5.860483 28,350 104 536 -2432
2022-05-21 15:28:18 GMT 50.347778 5.853400 28,425 103 537 -2496
2022-05-21 15:28:17 GMT 50.348339 5.849997 28,475 103 537 -2496
2022-05-21 15:28:16 GMT 50.349655 5.841691 28,550 103 537 -2496
2022-05-21 15:28:12 GMT 50.350807 5.834557 28,650 103 537 -2496
2022-05-21 15:28:11 GMT 50.351364 5.830771 28,825 103 537 -2496
2022-05-21 15:28:09 GMT 50.354252 5.812658 28,900 103 537 -2496
2022-05-21 15:28:07 GMT 50.354252 5.812658 28,900 103 537 -2496
2022-05-21 15:28:05 GMT 50.356812 5.796476 29,050 103 537 -2496
2022-05-21 15:28:02 GMT 50.356812 5.796476 29,200 103 537 -2752
2022-05-21 15:28:00 GMT 50.358627 5.785169 29,200 103 537 -3008
2022-05-21 15:27:57 GMT 50.359932 5.776879 29,500 103 537 -2816
2022-05-21 15:27:55 GMT 50.360909 5.770866 29,500 103 537 -2688
2022-05-21 15:27:53 GMT 50.362335 5.761823 29,525 103 537 -2624
2022-05-21 15:27:51 GMT 50.363708 5.753150 29,575 103 538 -2624
2022-05-21 15:27:50 GMT 50.364166 5.750114 29,700 103 539 -2624
2022-05-21 15:27:48 GMT 50.365356 5.742597 29,725 103 539 -2624
2022-05-21 15:27:47 GMT 50.365936 5.738798 29,850 103 539 -2624
2022-05-21 15:27:45 GMT 50.367050 5.731611 29,850 103 539 -2624
2022-05-21 15:27:44 GMT 50.367798 5.727069 30,100 103 539 -2688
2022-05-21 15:27:42 GMT 50.368824 5.720240 30,100 103 539 -2688
2022-05-21 15:27:41 GMT 50.369476 5.716083 30,100 103 539 -2880
2022-05-21 15:27:39 GMT 50.370544 5.709327 30,200 103 539 -3200
2022-05-21 15:27:37 GMT 50.371719 5.701760 30,225 103 538 -3392
2022-05-21 15:27:36 GMT 50.373001 5.693809 30,325 103 538 -3392
2022-05-21 15:27:34 GMT 50.373665 5.689656 30,400 103 538 -3456
2022-05-21 15:27:33 GMT 50.375481 5.677927 30,525 103 538 -3392
2022-05-21 15:27:31 GMT 50.375481 5.677927 30,575 103 537 -3328
2022-05-21 15:27:28 GMT 50.377808 5.663229 30,825 103 537 -3200
2022-05-21 15:27:25 GMT 50.378925 5.656103 30,875 103 537 -3136
2022-05-21 15:27:22 GMT 50.381287 5.640974 31,075 103 537 -3072
2022-05-21 15:27:20 GMT 50.382229 5.634947 31,175 103 537 -3072
2022-05-21 15:27:18 GMT 50.383118 5.629264 31,225 103 537 -3008
2022-05-21 15:27:17 GMT 50.383675 5.625891 31,275 103 537 -2944
2022-05-21 15:27:15 GMT 50.384857 5.618350 31,350 103 537 -2752
2022-05-21 15:27:14 GMT 50.385395 5.614979 31,500 103 538 -2368
2022-05-21 15:27:12 GMT 50.386688 5.606641 31,500 103 538 -2368
2022-05-21 15:27:10 GMT 50.388702 5.593823 31,675 103 539 -2112
2022-05-21 15:27:07 GMT 50.389957 5.585880 31,675 103 540 -1792
2022-05-21 15:27:05 GMT 50.391121 5.578308 31,750 103 540 -1536
2022-05-21 15:27:04 GMT 50.392914 5.566888 31,800 103 542 -1024
2022-05-21 15:27:02 GMT 50.392914 5.566888 31,850 103 542 -1024
2022-05-21 15:26:59 GMT 50.394516 5.556625 31,850 103 542 -960
2022-05-21 15:26:57 GMT 50.395752 5.548602 31,925 103 543 -832
2022-05-21 15:26:56 GMT 50.396427 5.544458 31,925 103 543 -832
2022-05-21 15:26:55 GMT 50.397720 5.536025 31,950 103 543 -704
2022-05-21 15:26:53 GMT 50.398315 5.532267 31,975 103 543 -512
2022-05-21 15:26:52 GMT 50.399460 5.524967 32,000 103 543 -384
2022-05-21 15:26:50 GMT 50.400711 5.516993 32,000 103 543 -192
2022-05-21 15:26:48 GMT 50.401291 5.513185 32,000 103 543 -128
2022-05-21 15:26:47 GMT 50.402481 5.505524 32,000 103 543 0
2022-05-21 15:26:44 GMT 50.403786 5.497098 32,000 103 543 0
2022-05-21 15:26:43 GMT 50.404388 5.493313 32,000 103 544 0
2022-05-21 15:26:41 GMT 50.405273 5.487597 32,000 103 544 0
2022-05-21 15:26:40 GMT 50.406189 5.481816 32,000 103 544 0
2022-05-21 15:26:37 GMT 50.407654 5.472276 32,000 103 544 0
2022-05-21 15:26:35 GMT 50.408859 5.464659 32,000 103 544 0
2022-05-21 15:26:34 GMT 50.410347 5.455083 32,000 103 544 0
2022-05-21 15:26:32 GMT 50.410812 5.452040 32,000 103 544 0
2022-05-21 15:26:31 GMT 50.411362 5.448641 32,000 103 544 0
2022-05-21 15:26:29 GMT 50.412674 5.440237 32,000 103 544 0
2022-05-21 15:26:28 GMT 50.413788 5.432956 32,000 103 544 0
2022-05-21 15:26:25 GMT 50.414864 5.426058 32,000 103 544 0
2022-05-21 15:26:23 GMT 50.416031 5.418428 32,000 103 544 0
2022-05-21 15:26:22 GMT 50.416679 5.414181 32,000 103 544 0
2022-05-21 15:26:21 GMT 50.418400 5.403121 32,000 103 544 0
2022-05-21 15:26:17 GMT 50.419739 5.394287 32,000 103 544 0
2022-05-21 15:26:16 GMT 50.420357 5.390501 32,000 103 544 0
2022-05-21 15:26:14 GMT 50.422405 5.377140 32,000 103 544 0
2022-05-21 15:26:12 GMT 50.422405 5.377140 32,000 103 544 0
2022-05-21 15:26:11 GMT 50.423012 5.373279 32,000 103 544 0
2022-05-21 15:26:09 GMT 50.424042 5.366388 32,000 103 544 0
2022-05-21 15:26:07 GMT 50.425140 5.359521 32,000 103 544 0
2022-05-21 15:26:06 GMT 50.425709 5.355686 32,000 103 544 0
2022-05-21 15:26:05 GMT 50.426872 5.348041 32,000 103 544 0
2022-05-21 15:26:02 GMT 50.429295 5.332378 32,000 103 544 0
2022-05-21 15:26:00 GMT 50.429295 5.332378 32,000 103 544 0
2022-05-21 15:25:59 GMT 50.430412 5.325103 32,000 103 544 0
2022-05-21 15:25:57 GMT 50.430954 5.321647 32,000 103 544 0
2022-05-21 15:25:55 GMT 50.432190 5.313624 32,000 103 544 0
2022-05-21 15:25:54 GMT 50.432831 5.309360 32,000 103 544 0
2022-05-21 15:25:53 GMT 50.433884 5.302493 32,000 103 544 0
2022-05-21 15:25:50 GMT 50.435349 5.292953 32,000 103 544 0
2022-05-21 15:25:48 GMT 50.436790 5.283756 32,000 103 544 0
2022-05-21 15:25:47 GMT 50.437347 5.279970 32,000 103 544 0
2022-05-21 15:25:44 GMT 50.439770 5.264233 32,000 103 544 0
2022-05-21 15:25:42 GMT 50.439770 5.264233 32,000 103 544 0
2022-05-21 15:25:41 GMT 50.442097 5.248941 32,000 103 544 0
2022-05-21 15:25:39 GMT 50.442097 5.248941 32,000 103 544 0
2022-05-21 15:25:38 GMT 50.443169 5.242037 32,000 103 544 0
2022-05-21 15:25:35 GMT 50.444458 5.233612 32,000 103 544 0
2022-05-21 15:25:33 GMT 50.445683 5.225632 32,000 103 544 0
2022-05-21 15:25:30 GMT 50.447067 5.216410 32,000 103 544 0
2022-05-21 15:25:29 GMT 50.447777 5.211825 32,000 103 544 0
2022-05-21 15:25:27 GMT 50.448669 5.206074 32,000 103 544 0
2022-05-21 15:25:25 GMT 50.449905 5.198051 32,000 103 544 0
2022-05-21 15:25:24 GMT 50.450729 5.192702 32,000 103 544 0
2022-05-21 15:25:22 GMT 50.452057 5.183884 32,000 103 544 0
2022-05-21 15:25:20 GMT 50.453220 5.176194 32,000 103 544 0
2022-05-21 15:25:18 GMT 50.455307 5.162418 32,000 103 544 0
2022-05-21 15:25:16 GMT 50.455307 5.162418 32,000 103 543 0
2022-05-21 15:25:15 GMT 50.456131 5.157069 32,000 103 543 0
2022-05-21 15:25:12 GMT 50.457413 5.148654 32,000 103 543 0
2022-05-21 15:25:11 GMT 50.458191 5.143698 32,000 103 543 0
2022-05-21 15:25:08 GMT 50.460159 5.130689 32,000 103 543 0
2022-05-21 15:25:06 GMT 50.461277 5.123415 32,000 103 544 0
2022-05-21 15:25:04 GMT 50.462448 5.115726 32,000 103 544 0
2022-05-21 15:25:02 GMT 50.463650 5.107678 32,000 103 544 0
2022-05-21 15:25:00 GMT 50.464767 5.100403 32,000 103 544 0
2022-05-21 15:24:57 GMT 50.466492 5.089342 32,000 103 543 0
2022-05-21 15:24:55 GMT 50.467514 5.082439 32,000 103 544 0
2022-05-21 15:24:53 GMT 50.468582 5.075535 32,000 103 544 0
2022-05-21 15:24:51 GMT 50.469727 5.067878 32,000 103 544 0
2022-05-21 15:24:50 GMT 50.471470 5.056383 32,000 103 544 0
2022-05-21 15:24:48 GMT 50.471470 5.056383 32,000 103 544 0
2022-05-21 15:24:47 GMT 50.472031 5.052523 32,000 103 544 0
2022-05-21 15:24:44 GMT 50.473846 5.040646 32,000 103 544 0
2022-05-21 15:24:42 GMT 50.475056 5.032555 32,000 103 544 0
2022-05-21 15:24:40 GMT 50.477524 5.016075 32,000 103 544 0
2022-05-21 15:24:38 GMT 50.477524 5.016075 32,000 103 544 0
2022-05-21 15:24:37 GMT 50.478241 5.011500 32,000 103 544 0
2022-05-21 15:24:34 GMT 50.479572 5.002639 32,000 103 544 0
2022-05-21 15:24:33 GMT 50.480129 4.998779 32,000 103 545 0
2022-05-21 15:24:31 GMT 50.481400 4.990395 32,000 103 545 0
2022-05-21 15:24:29 GMT 50.482635 4.982300 32,000 103 545 0
2022-05-21 15:24:28 GMT 50.483154 4.978885 32,000 103 545 0
2022-05-21 15:24:26 GMT 50.484367 4.970794 32,000 103 545 0
2022-05-21 15:24:24 GMT 50.485481 4.963519 32,000 103 545 0
2022-05-21 15:24:23 GMT 50.486275 4.958100 32,000 103 545 0
2022-05-21 15:24:21 GMT 50.487438 4.950454 32,000 103 545 0
2022-05-21 15:24:19 GMT 50.488647 4.942363 32,000 103 545 0
2022-05-21 15:24:18 GMT 50.489254 4.938503 32,000 103 545 0
2022-05-21 15:24:16 GMT 50.490051 4.933150 32,000 103 545 0
2022-05-21 15:24:15 GMT 50.492001 4.920093 32,000 103 545 0
2022-05-21 15:24:13 GMT 50.492001 4.920093 32,000 103 545 0
2022-05-21 15:24:11 GMT 50.492889 4.914286 32,000 103 545 0
2022-05-21 15:24:09 GMT 50.493851 4.907781 32,000 103 545 0
2022-05-21 15:24:08 GMT 50.496094 4.892819 32,000 103 545 0
2022-05-21 15:24:06 GMT 50.496094 4.892819 32,000 103 545 0
2022-05-21 15:24:05 GMT 50.496609 4.889361 32,000 103 545 0
2022-05-21 15:24:04 GMT 50.497818 4.881270 32,000 103 545 0
2022-05-21 15:24:02 GMT 50.498425 4.877410 32,000 103 545 0
2022-05-21 15:24:00 GMT 50.500519 4.863158 32,000 103 545 0
2022-05-21 15:23:58 GMT 50.500519 4.863158 32,000 103 546 0
2022-05-21 15:23:57 GMT 50.502426 4.850464 32,000 103 546 0
2022-05-21 15:23:55 GMT 50.502426 4.850464 32,000 103 546 0
2022-05-21 15:23:53 GMT 50.503544 4.843189 32,000 103 546 0
2022-05-21 15:23:50 GMT 50.505081 4.832797 32,000 103 546 0
2022-05-21 15:23:49 GMT 50.505844 4.827768 32,000 103 546 0
2022-05-21 15:23:47 GMT 50.506523 4.823147 32,000 103 546 0
2022-05-21 15:23:46 GMT 50.507721 4.815047 32,000 103 546 0
2022-05-21 15:23:44 GMT 50.508293 4.811195 32,000 103 546 0
2022-05-21 15:23:42 GMT 50.509506 4.803121 32,000 103 546 0
2022-05-21 15:23:41 GMT 50.510201 4.798502 32,000 103 546 0
2022-05-21 15:23:40 GMT 50.511749 4.788088 32,000 103 546 0
2022-05-21 15:23:38 GMT 50.511749 4.788088 32,000 103 546 0
2022-05-21 15:23:36 GMT 50.512901 4.780389 32,000 103 546 0
2022-05-21 15:23:35 GMT 50.514084 4.772331 32,000 103 546 0
2022-05-21 15:23:33 GMT 50.514671 4.768438 32,000 103 546 0
2022-05-21 15:23:32 GMT 50.515869 4.760405 32,000 103 546 0
2022-05-21 15:23:30 GMT 50.516441 4.756560 32,000 103 546 0
2022-05-21 15:23:28 GMT 50.517517 4.749202 32,000 103 546 0
2022-05-21 15:23:27 GMT 50.518112 4.744937 32,000 103 546 0
2022-05-21 15:23:25 GMT 50.519165 4.738071 32,000 103 546 0
2022-05-21 15:23:24 GMT 50.519760 4.733806 32,000 103 546 0
2022-05-21 15:23:21 GMT 50.521606 4.721523 32,000 103 546 0
2022-05-21 15:23:19 GMT 50.522820 4.713432 32,000 103 546 0
2022-05-21 15:23:17 GMT 50.524246 4.703811 32,000 103 546 0
2022-05-21 15:23:15 GMT 50.526443 4.688777 32,000 103 546 0
2022-05-21 15:23:13 GMT 50.526443 4.688777 32,000 103 546 0
2022-05-21 15:23:11 GMT 50.527382 4.682625 32,000 103 546 0
2022-05-21 15:23:09 GMT 50.528458 4.675261 32,000 103 546 0
2022-05-21 15:23:08 GMT 50.529877 4.665648 32,000 103 546 0
2022-05-21 15:23:05 GMT 50.531010 4.657980 32,000 103 546 0
2022-05-21 15:23:03 GMT 50.532074 4.650614 32,000 103 546 0
2022-05-21 15:23:01 GMT 50.533264 4.642591 32,000 103 546 0
2022-05-21 15:23:00 GMT 50.533806 4.639126 32,000 103 546 0
2022-05-21 15:22:58 GMT 50.534912 4.631388 32,000 103 546 0
2022-05-21 15:22:57 GMT 50.535507 4.627557 32,000 102 545 0
2022-05-21 15:22:55 GMT 50.536560 4.620257 32,000 102 545 0
2022-05-21 15:22:53 GMT 50.537476 4.614041 32,000 103 546 0
2022-05-21 15:22:51 GMT 50.539391 4.600970 32,000 102 545 0
2022-05-21 15:22:49 GMT 50.540085 4.596333 32,000 102 545 0
2022-05-21 15:22:48 GMT 50.540554 4.592879 32,000 102 545 0
2022-05-21 15:22:47 GMT 50.541687 4.585202 32,000 102 545 0
2022-05-21 15:22:45 GMT 50.542282 4.581299 32,000 102 545 0
2022-05-21 15:22:43 GMT 50.543301 4.574395 32,000 102 545 0
2022-05-21 15:22:42 GMT 50.544571 4.565542 32,000 102 545 0
2022-05-21 15:22:40 GMT 50.545116 4.561702 32,000 102 545 0
2022-05-21 15:22:38 GMT 50.546219 4.554339 32,000 102 545 0
2022-05-21 15:22:37 GMT 50.547211 4.547449 32,000 102 545 0
2022-05-21 15:22:34 GMT 50.548653 4.537799 32,000 102 545 0
2022-05-21 15:22:32 GMT 50.549469 4.532005 32,000 102 545 0
2022-05-21 15:22:30 GMT 50.551117 4.520874 32,000 102 545 0
2022-05-21 15:22:28 GMT 50.551666 4.517043 32,000 103 545 0
2022-05-21 15:22:26 GMT 50.552994 4.508153 32,000 102 544 0
2022-05-21 15:22:25 GMT 50.553314 4.505840 32,000 102 545 0
2022-05-21 15:22:24 GMT 50.555218 4.492740 32,000 102 545 0
2022-05-21 15:22:22 GMT 50.555824 4.488880 32,000 102 545 0
2022-05-21 15:22:20 GMT 50.556381 4.485024 32,000 102 545 0
2022-05-21 15:22:19 GMT 50.556931 4.481193 32,000 102 545 0
2022-05-21 15:22:18 GMT 50.558617 4.469654 32,000 102 545 0
2022-05-21 15:22:16 GMT 50.558617 4.469654 32,000 102 545 0
2022-05-21 15:22:14 GMT 50.559826 4.461563 32,000 102 545 0
2022-05-21 15:22:13 GMT 50.560802 4.454585 32,000 102 545 0
2022-05-21 15:22:10 GMT 50.561596 4.449240 32,000 102 545 0
2022-05-21 15:22:08 GMT 50.563065 4.439199 32,000 102 545 0
2022-05-21 15:22:06 GMT 50.564438 4.429940 32,000 102 545 0
2022-05-21 15:22:04 GMT 50.565552 4.422220 32,000 102 545 0
2022-05-21 15:22:02 GMT 50.566158 4.417989 32,000 102 545 0
2022-05-21 15:22:01 GMT 50.566715 4.414128 32,000 102 545 0
2022-05-21 15:22:00 GMT 50.567787 4.406780 32,000 102 545 0
2022-05-21 15:21:58 GMT 50.568420 4.402554 32,000 102 545 0
2022-05-21 15:21:57 GMT 50.570435 4.388677 32,000 102 545 0
2022-05-21 15:21:55 GMT 50.570435 4.388677 32,000 102 545 0
2022-05-21 15:21:54 GMT 50.571625 4.380148 32,000 102 545 0
2022-05-21 15:21:52 GMT 50.573273 4.368945 32,000 102 545 0
2022-05-21 15:21:50 GMT 50.573273 4.368945 32,000 102 545 0
2022-05-21 15:21:48 GMT 50.574257 4.362018 32,000 102 545 0
2022-05-21 15:21:46 GMT 50.575424 4.353911 32,000 102 545 0
2022-05-21 15:21:44 GMT 50.576614 4.345816 32,000 102 545 0
2022-05-21 15:21:42 GMT 50.578674 4.331577 32,000 102 545 0
2022-05-21 15:21:40 GMT 50.578674 4.331577 32,000 102 545 0
2022-05-21 15:21:38 GMT 50.579865 4.323409 32,000 102 545 0
2022-05-21 15:21:37 GMT 50.581009 4.315314 32,000 102 545 0
2022-05-21 15:21:35 GMT 50.581558 4.311483 32,000 102 545 0
2022-05-21 15:21:33 GMT 50.582684 4.303746 32,000 102 545 0
2022-05-21 15:21:31 GMT 50.583710 4.296842 32,000 102 545 0
2022-05-21 15:21:30 GMT 50.584351 4.292185 32,000 102 545 0
2022-05-21 15:21:28 GMT 50.585449 4.284451 32,000 102 545 0
2022-05-21 15:21:26 GMT 50.586594 4.276725 32,000 102 545 0
2022-05-21 15:21:25 GMT 50.587097 4.273248 32,000 102 545 0
2022-05-21 15:21:24 GMT 50.588642 4.262473 32,000 102 545 0
2022-05-21 15:21:22 GMT 50.588642 4.262473 32,000 102 545 0
2022-05-21 15:21:19 GMT 50.590210 4.251637 32,000 102 545 0
2022-05-21 15:21:18 GMT 50.590805 4.247372 32,000 102 545 0
2022-05-21 15:21:16 GMT 50.592224 4.237326 32,000 102 545 0
2022-05-21 15:21:13 GMT 50.593735 4.226917 32,000 102 545 0
2022-05-21 15:21:12 GMT 50.594330 4.222725 32,000 102 545 0
2022-05-21 15:21:11 GMT 50.595337 4.215714 32,000 102 545 0
2022-05-21 15:21:08 GMT 50.596527 4.207619 32,000 102 545 0
2022-05-21 15:21:07 GMT 50.598221 4.195693 32,000 102 545 0
2022-05-21 15:21:05 GMT 50.598221 4.195693 32,000 102 545 0
2022-05-21 15:21:03 GMT 50.599228 4.188754 32,000 102 545 0
2022-05-21 15:21:00 GMT 50.600830 4.177551 32,000 102 545 0
2022-05-21 15:20:59 GMT 50.601242 4.174443 32,000 102 545 0
2022-05-21 15:20:58 GMT 50.602470 4.165971 32,000 102 545 0
2022-05-21 15:20:55 GMT 50.603634 4.157880 32,000 102 545 0
2022-05-21 15:20:54 GMT 50.604191 4.154020 32,000 102 545 0
2022-05-21 15:20:52 GMT 50.605495 4.144741 32,000 102 545 0
2022-05-21 15:20:50 GMT 50.606598 4.137075 32,000 102 545 0
2022-05-21 15:20:48 GMT 50.607311 4.132047 32,000 102 545 0
2022-05-21 15:20:46 GMT 50.609962 4.113489 32,000 102 545 0
2022-05-21 15:20:44 GMT 50.609962 4.113489 32,000 102 545 0
2022-05-21 15:20:42 GMT 50.610847 4.107328 32,000 102 545 0
2022-05-21 15:20:41 GMT 50.611404 4.103466 32,000 102 545 0
2022-05-21 15:20:38 GMT 50.613129 4.091145 32,000 102 545 0
2022-05-21 15:20:37 GMT 50.614525 4.081495 32,000 102 545 0
2022-05-21 15:20:34 GMT 50.615318 4.076076 32,000 102 545 0
2022-05-21 15:20:32 GMT 50.616119 4.070290 32,000 102 545 0
2022-05-21 15:20:31 GMT 50.616714 4.066098 32,000 102 545 0
2022-05-21 15:20:29 GMT 50.617832 4.058335 32,000 102 545 0
2022-05-21 15:20:27 GMT 50.620148 4.042174 32,000 102 544 0
2022-05-21 15:20:25 GMT 50.620148 4.042174 32,000 102 544 0
2022-05-21 15:20:22 GMT 50.621929 4.029830 32,000 102 544 0
2022-05-21 15:20:19 GMT 50.623993 4.015142 32,000 102 544 0
2022-05-21 15:20:17 GMT 50.624626 4.010901 32,000 102 544 0
2022-05-21 15:20:16 GMT 50.626144 4.000108 32,000 102 544 0
2022-05-21 15:20:14 GMT 50.626740 3.995915 32,000 102 544 0
2022-05-21 15:20:11 GMT 50.627838 3.988182 32,000 102 544 0
2022-05-21 15:20:10 GMT 50.628490 3.983583 32,000 102 544 0
2022-05-21 15:20:08 GMT 50.630215 3.971632 32,000 102 543 0
2022-05-21 15:20:05 GMT 50.631332 3.963912 32,000 102 543 0
2022-05-21 15:20:04 GMT 50.631821 3.960499 32,000 102 543 0
2022-05-21 15:20:03 GMT 50.633011 3.952404 32,000 102 543 -64
2022-05-21 15:20:01 GMT 50.633606 3.948139 32,000 102 543 -128
2022-05-21 15:19:59 GMT 50.634682 3.940826 32,025 102 543 -128
2022-05-21 15:19:57 GMT 50.635803 3.933178 32,025 102 542 -128
2022-05-21 15:19:55 GMT 50.636826 3.925831 32,025 102 542 -64
2022-05-21 15:19:54 GMT 50.637497 3.921252 32,025 102 542 0
2022-05-21 15:19:53 GMT 50.638412 3.915108 32,000 103 542 128
2022-05-21 15:19:50 GMT 50.639755 3.905862 32,000 103 542 128
2022-05-21 15:19:48 GMT 50.640976 3.898267 32,000 104 541 64
2022-05-21 15:19:46 GMT 50.642132 3.891016 32,000 105 542 0
2022-05-21 15:19:45 GMT 50.643494 3.883450 32,000 105 541 0
2022-05-21 15:19:43 GMT 50.644691 3.876986 32,000 106 541 0
2022-05-21 15:19:41 GMT 50.645599 3.872536 32,000 108 541 0
2022-05-21 15:19:39 GMT 50.647293 3.864296 32,000 109 541 0
2022-05-21 15:19:37 GMT 50.649765 3.853599 32,000 110 540 0
2022-05-21 15:19:35 GMT 50.650635 3.849913 32,000 111 540 0
2022-05-21 15:19:34 GMT 50.651581 3.846254 32,000 112 539 0
2022-05-21 15:19:32 GMT 50.653564 3.838638 32,000 113 539 0
2022-05-21 15:19:30 GMT 50.655121 3.832892 32,000 115 538 0
2022-05-21 15:19:28 GMT 50.657181 3.825772 32,000 115 538 0
2022-05-21 15:19:26 GMT 50.659561 3.818038 32,000 116 538 0
2022-05-21 15:19:23 GMT 50.662289 3.809658 32,000 117 538 0
2022-05-21 15:19:22 GMT 50.664616 3.802754 32,000 121 535 0
2022-05-21 15:19:20 GMT 50.665920 3.799043 32,000 121 535 0
2022-05-21 15:19:19 GMT 50.667755 3.793969 32,000 121 535 0
2022-05-21 15:19:17 GMT 50.669678 3.788910 32,000 121 535 0
2022-05-21 15:19:15 GMT 50.673832 3.778305 32,000 122 534 0
2022-05-21 15:19:13 GMT 50.675034 3.775363 32,000 124 534 0
2022-05-21 15:19:11 GMT 50.678787 3.766752 32,000 125 533 0
2022-05-21 15:19:09 GMT 50.682491 3.758545 32,000 126 533 0
2022-05-21 15:19:06 GMT 50.685146 3.752899 32,000 127 532 0
2022-05-21 15:19:04 GMT 50.687984 3.747101 32,000 129 531 0
2022-05-21 15:19:01 GMT 50.693478 3.736649 32,000 130 530 0
2022-05-21 15:19:00 GMT 50.694408 3.734894 32,000 131 530 0
2022-05-21 15:18:58 GMT 50.698288 3.728003 32,000 132 529 0
2022-05-21 15:18:57 GMT 50.699615 3.725701 32,000 132 528 0
2022-05-21 15:18:55 GMT 50.703461 3.719243 32,000 134 528 0
2022-05-21 15:18:53 GMT 50.706512 3.714294 32,000 134 528 0
2022-05-21 15:18:51 GMT 50.711540 3.706512 32,000 136 526 0
2022-05-21 15:18:49 GMT 50.714905 3.701576 32,000 137 525 0
2022-05-21 15:18:46 GMT 50.717777 3.697510 32,000 137 525 0
2022-05-21 15:18:45 GMT 50.720341 3.693924 32,000 139 524 0
2022-05-21 15:18:43 GMT 50.724949 3.687820 32,000 140 522 0
2022-05-21 15:18:42 GMT 50.726810 3.685379 32,000 141 521 0
2022-05-21 15:18:40 GMT 50.729828 3.681608 32,000 142 521 0
2022-05-21 15:18:38 GMT 50.733467 3.677216 32,000 142 521 0
2022-05-21 15:18:37 GMT 50.735367 3.674927 32,000 143 519 -64
2022-05-21 15:18:35 GMT 50.739052 3.670731 32,000 144 519 -64
2022-05-21 15:18:34 GMT 50.742966 3.666390 32,000 146 518 -64
2022-05-21 15:18:32 GMT 50.745152 3.664017 32,000 146 517 0
2022-05-21 15:18:31 GMT 50.748550 3.660507 32,000 147 516 0
2022-05-21 15:18:28 GMT 50.753578 3.655548 32,000 148 516 0
2022-05-21 15:18:27 GMT 50.755417 3.653771 32,000 148 515 0
2022-05-21 15:18:26 GMT 50.757477 3.651841 32,000 149 514 0
2022-05-21 15:18:24 GMT 50.760727 3.648797 32,000 150 513 0
2022-05-21 15:18:23 GMT 50.763840 3.646051 32,000 152 512 0
2022-05-21 15:18:21 GMT 50.768009 3.642502 32,000 152 512 0
2022-05-21 15:18:20 GMT 50.769928 3.641003 32,000 153 512 0
2022-05-21 15:18:18 GMT 50.773922 3.637772 32,000 154 511 0
2022-05-21 15:18:16 GMT 50.780731 3.632689 32,000 155 510 0
2022-05-21 15:18:15 GMT 50.780731 3.632689 32,000 155 510 0
2022-05-21 15:18:13 GMT 50.784393 3.630165 32,000 157 509 0
2022-05-21 15:18:12 GMT 50.786545 3.628680 32,000 157 508 0
2022-05-21 15:18:11 GMT 50.791752 3.625259 32,000 158 508 0
2022-05-21 15:18:08 GMT 50.800095 3.620292 32,000 160 507 0
2022-05-21 15:18:06 GMT 50.800095 3.620292 32,000 160 507 0
2022-05-21 15:18:05 GMT 50.802734 3.618851 32,000 161 506 0
2022-05-21 15:18:03 GMT 50.806961 3.616580 32,000 162 506 0
2022-05-21 15:18:02 GMT 50.811859 3.614197 32,000 163 504 0
2022-05-21 15:18:00 GMT 50.814095 3.613129 32,000 163 504 0
2022-05-21 15:17:58 GMT 50.820148 3.610458 32,000 165 504 0
2022-05-21 15:17:55 GMT 50.825089 3.608415 32,000 166 502 0
2022-05-21 15:17:53 GMT 50.828247 3.607301 32,000 167 501 0
2022-05-21 15:17:52 GMT 50.831635 3.606040 32,000 168 501 0
2022-05-21 15:17:50 GMT 50.835278 3.604889 32,000 169 500 0
2022-05-21 15:17:48 GMT 50.839142 3.603664 32,000 170 499 0
2022-05-21 15:17:47 GMT 50.844585 3.602142 32,000 171 498 0
2022-05-21 15:17:45 GMT 50.846401 3.601761 32,000 171 498 0
2022-05-21 15:17:44 GMT 50.850952 3.600695 32,000 172 497 0
2022-05-21 15:17:42 GMT 50.853012 3.600235 32,000 173 496 0
2022-05-21 15:17:40 GMT 50.863266 3.598468 32,000 174 494 0
2022-05-21 15:17:38 GMT 50.863266 3.598468 32,000 175 494 0
2022-05-21 15:17:36 GMT 50.867584 3.597946 32,000 175 494 0
2022-05-21 15:17:35 GMT 50.869858 3.597726 32,000 177 493 0
2022-05-21 15:17:34 GMT 50.875080 3.597336 32,000 178 492 0
2022-05-21 15:17:31 GMT 50.879608 3.597132 32,000 179 491 0
2022-05-21 15:17:28 GMT 50.886658 3.597057 32,000 181 490 -64
2022-05-21 15:17:27 GMT 50.892288 3.597206 32,000 182 489 -64
2022-05-21 15:17:24 GMT 50.895702 3.597412 32,000 183 487 -64
2022-05-21 15:17:22 GMT 50.899292 3.597726 32,000 185 486 0
2022-05-21 15:17:20 GMT 50.904873 3.598328 32,000 187 484 64
2022-05-21 15:17:18 GMT 50.908447 3.598839 32,000 187 484 64
2022-05-21 15:17:15 GMT 50.914696 3.599854 32,000 188 483 128
2022-05-21 15:17:14 GMT 50.918884 3.600769 32,000 190 481 64
2022-05-21 15:17:12 GMT 50.921539 3.601379 32,000 190 481 64
2022-05-21 15:17:10 GMT 50.925705 3.602476 32,000 192 479 0
2022-05-21 15:17:08 GMT 50.928955 3.603516 32,000 192 479 0
2022-05-21 15:17:06 GMT 50.937744 3.606782 32,000 196 476 -64
2022-05-21 15:17:03 GMT 50.940948 3.608118 32,000 196 475 -64
2022-05-21 15:17:01 GMT 50.945141 3.610153 32,000 199 474 -64
2022-05-21 15:16:58 GMT 50.950539 3.613052 32,000 200 472 0
2022-05-21 15:16:57 GMT 50.956055 3.616209 32,000 201 471 0
2022-05-21 15:16:56 GMT 50.956055 3.616209 32,000 202 471 0
2022-05-21 15:16:54 GMT 50.959476 3.618393 32,000 203 470 0
2022-05-21 15:16:53 GMT 50.961525 3.619614 32,000 203 470 0
2022-05-21 15:16:51 GMT 50.965118 3.621999 32,000 203 470 0
2022-05-21 15:16:50 GMT 50.967133 3.623336 32,000 204 469 0
2022-05-21 15:16:49 GMT 50.974003 3.628235 32,000 205 468 0
2022-05-21 15:16:47 GMT 50.974003 3.628235 32,000 206 466 0
2022-05-21 15:16:45 GMT 50.977539 3.630905 32,000 207 466 0
2022-05-21 15:16:44 GMT 50.979263 3.632278 32,000 207 466 0
2022-05-21 15:16:43 GMT 50.983658 3.635807 32,000 208 465 0
2022-05-21 15:16:41 GMT 50.985214 3.637068 32,000 209 465 0
2022-05-21 15:16:40 GMT 50.991226 3.642273 32,000 210 464 0
2022-05-21 15:16:38 GMT 50.991226 3.642273 32,000 210 464 0
2022-05-21 15:16:36 GMT 50.994019 3.644791 32,000 212 462 0
2022-05-21 15:16:34 GMT 50.996750 3.647387 32,000 212 462 0
2022-05-21 15:16:32 GMT 51.002014 3.652583 32,000 213 461 0
2022-05-21 15:16:31 GMT 51.003841 3.654404 32,000 213 461 0
2022-05-21 15:16:30 GMT 51.005238 3.655853 32,000 214 460 0
2022-05-21 15:16:28 GMT 51.008965 3.659744 32,000 215 459 0
2022-05-21 15:16:25 GMT 51.013153 3.664398 32,000 216 459 0
2022-05-21 15:16:24 GMT 51.017578 3.669508 32,000 217 458 0
2022-05-21 15:16:21 GMT 51.020782 3.673294 32,000 218 456 0
2022-05-21 15:16:19 GMT 51.023941 3.677228 32,000 222 454 0
2022-05-21 15:16:17 GMT 51.027557 3.681830 32,000 221 455 0
2022-05-21 15:16:15 GMT 51.033310 3.689651 32,000 221 454 0
2022-05-21 15:16:13 GMT 51.033310 3.689651 32,000 222 454 0
2022-05-21 15:16:12 GMT 51.036713 3.694524 32,000 223 452 0
2022-05-21 15:16:10 GMT 51.038292 3.696747 32,000 224 453 0
2022-05-21 15:16:09 GMT 51.041473 3.701576 32,000 225 451 0
2022-05-21 15:16:06 GMT 51.045925 3.708496 32,000 226 451 0
2022-05-21 15:16:04 GMT 51.047653 3.711300 32,000 227 450 0
2022-05-21 15:16:03 GMT 51.049118 3.713676 32,000 227 449 0
2022-05-21 15:16:02 GMT 51.051819 3.718278 32,000 228 449 0
2022-05-21 15:15:59 GMT 51.054611 3.723103 32,000 228 449 0
2022-05-21 15:15:58 GMT 51.056122 3.725850 32,000 229 448 0
2022-05-21 15:15:57 GMT 51.057220 3.727854 32,000 230 448 0
2022-05-21 15:15:55 GMT 51.060059 3.733050 32,000 231 448 0
2022-05-21 15:15:54 GMT 51.062824 3.738403 32,000 232 447 0
2022-05-21 15:15:52 GMT 51.064220 3.741150 32,000 233 446 0
2022-05-21 15:15:49 GMT 51.068069 3.748936 32,000 233 446 0
2022-05-21 15:15:48 GMT 51.069157 3.751297 32,000 234 446 0
2022-05-21 15:15:46 GMT 51.071594 3.756508 32,000 235 445 0
2022-05-21 15:15:44 GMT 51.074020 3.761852 32,000 236 444 0
2022-05-21 15:15:42 GMT 51.076324 3.767166 32,000 237 444 0
2022-05-21 15:15:40 GMT 51.078598 3.772616 32,000 237 443 0
2022-05-21 15:15:38 GMT 51.080841 3.778109 32,000 238 443 0
2022-05-21 15:15:37 GMT 51.081802 3.780559 32,000 240 442 0
2022-05-21 15:15:35 GMT 51.084183 3.786646 32,000 241 442 0
2022-05-21 15:15:34 GMT 51.087215 3.795090 32,000 241 442 0
2022-05-21 15:15:32 GMT 51.087215 3.795090 32,000 242 442 0
2022-05-21 15:15:29 GMT 51.091003 3.806243 32,000 244 440 0
2022-05-21 15:15:26 GMT 51.092285 3.810252 32,000 244 440 0
2022-05-21 15:15:25 GMT 51.093613 3.814631 32,000 246 441 -64
2022-05-21 15:15:24 GMT 51.095222 3.820190 32,000 247 440 0
2022-05-21 15:15:21 GMT 51.098557 3.832298 32,000 248 439 0
2022-05-21 15:15:19 GMT 51.099289 3.835342 32,000 249 439 -64
2022-05-21 15:15:16 GMT 51.100716 3.841019 32,000 250 438 0
2022-05-21 15:15:15 GMT 51.101509 3.844299 32,000 250 438 0
2022-05-21 15:15:14 GMT 51.102127 3.847071 32,000 251 438 0
2022-05-21 15:15:12 GMT 51.103603 3.853683 32,000 252 437 0
2022-05-21 15:15:10 GMT 51.104828 3.859467 32,000 252 437 0
2022-05-21 15:15:09 GMT 51.105515 3.862882 32,000 253 437 0
2022-05-21 15:15:06 GMT 51.107025 3.870825 32,000 255 437 0
2022-05-21 15:15:05 GMT 51.108170 3.877357 32,000 256 437 0
2022-05-21 15:15:03 GMT 51.108719 3.880401 32,000 257 436 0
2022-05-21 15:15:01 GMT 51.110867 3.894424 32,000 258 437 0
2022-05-21 15:14:59 GMT 51.111603 3.899775 32,000 258 436 0
2022-05-21 15:14:57 GMT 51.111603 3.899775 32,000 259 436 0
2022-05-21 15:14:54 GMT 51.112747 3.908906 32,000 260 436 0
2022-05-21 15:14:52 GMT 51.113480 3.915512 32,000 261 436 64
2022-05-21 15:14:51 GMT 51.113892 3.919601 32,000 262 436 64
2022-05-21 15:14:49 GMT 51.114395 3.924717 32,000 263 437 64
2022-05-21 15:14:48 GMT 51.114964 3.931351 32,000 264 437 128
2022-05-21 15:14:45 GMT 51.115429 3.937378 31,975 265 437 128
2022-05-21 15:14:44 GMT 51.115677 3.941568 31,975 265 436 128
2022-05-21 15:14:42 GMT 51.116043 3.948249 31,975 266 436 128
2022-05-21 15:14:41 GMT 51.116219 3.951416 31,975 267 436 64
2022-05-21 15:14:39 GMT 51.116405 3.956528 31,975 268 437 64
2022-05-21 15:14:38 GMT 51.116501 3.960423 31,975 268 437 64
2022-05-21 15:14:37 GMT 51.116684 3.966807 31,975 269 437 0
2022-05-21 15:14:35 GMT 51.116684 3.969702 31,975 271 437 -64
2022-05-21 15:14:34 GMT 51.116730 3.980243 31,975 271 437 -64
2022-05-21 15:14:32 GMT 51.116730 3.980243 31,975 271 437 -64
2022-05-21 15:14:30 GMT 51.116638 3.986701 31,975 273 436 -64
2022-05-21 15:14:29 GMT 51.116455 3.995980 32,000 273 436 -64
2022-05-21 15:14:26 GMT 51.116318 3.999469 32,000 274 435 -128
2022-05-21 15:14:25 GMT 51.116219 4.002380 32,000 274 435 -128
2022-05-21 15:14:22 GMT 51.115906 4.011272 32,000 274 433 -128
2022-05-21 15:14:20 GMT 51.115585 4.018918 32,025 275 433 -64
2022-05-21 15:14:19 GMT 51.115311 4.024262 32,025 275 432 0
2022-05-21 15:14:16 GMT 51.114964 4.030609 32,025 276 431 64
2022-05-21 15:14:15 GMT 51.114822 4.033127 32,025 276 431 192
2022-05-21 15:14:12 GMT 51.114170 4.042892 32,000 278 430 128
2022-05-21 15:14:09 GMT 51.113567 4.050064 32,000 279 431 -64
2022-05-21 15:14:08 GMT 51.113297 4.052842 32,000 280 431 -128
2022-05-21 15:14:06 GMT 51.112637 4.059067 32,000 282 431 -128
2022-05-21 15:14:04 GMT 51.111332 4.068680 32,000 285 431 0
2022-05-21 15:14:02 GMT 51.110493 4.074249 32,000 285 432 64
2022-05-21 15:14:00 GMT 51.109589 4.079714 32,000 286 431 64
2022-05-21 15:13:58 GMT 51.108910 4.083710 32,000 286 432 0
2022-05-21 15:13:56 GMT 51.106071 4.100189 32,000 286 432 0
2022-05-21 15:13:54 GMT 51.106071 4.100189 32,000 286 432 0
2022-05-21 15:13:51 GMT 51.104919 4.106957 32,000 286 432 0
2022-05-21 15:13:47 GMT 51.102905 4.118834 32,000 286 432 0
2022-05-21 15:13:45 GMT 51.101322 4.128036 32,000 286 432 0
2022-05-21 15:13:42 GMT 51.100018 4.135666 32,000 286 432 0
2022-05-21 15:13:39 GMT 51.098904 4.142075 32,000 286 432 0
2022-05-21 15:13:36 GMT 51.097183 4.152164 32,000 286 432 0
2022-05-21 15:13:34 GMT 51.096085 4.158622 32,000 286 432 0
2022-05-21 15:13:31 GMT 51.094292 4.169006 32,000 286 432 0
2022-05-21 15:13:28 GMT 51.092514 4.179333 32,000 286 432 0
2022-05-21 15:13:25 GMT 51.091454 4.185791 32,000 286 432 0
2022-05-21 15:13:23 GMT 51.090271 4.192472 32,000 286 431 0
2022-05-21 15:13:20 GMT 51.087402 4.209290 32,000 286 432 0
2022-05-21 15:13:18 GMT 51.086014 4.217191 32,000 286 431 0
2022-05-21 15:13:15 GMT 51.086014 4.217191 32,000 286 431 0
2022-05-21 15:13:12 GMT 51.084229 4.227584 32,000 286 431 0
2022-05-21 15:13:10 GMT 51.083351 4.232483 32,000 286 431 0
2022-05-21 15:13:08 GMT 51.082077 4.239832 32,000 286 431 0
2022-05-21 15:13:05 GMT 51.080887 4.246826 32,000 286 431 0
2022-05-21 15:13:02 GMT 51.079102 4.257202 32,000 286 431 0
2022-05-21 15:12:59 GMT 51.077301 4.267578 32,000 286 431 0
2022-05-21 15:12:55 GMT 51.074203 4.285559 32,000 286 431 0
2022-05-21 15:12:53 GMT 51.074203 4.285559 32,000 286 431 0
2022-05-21 15:12:51 GMT 51.073380 4.290161 32,000 286 431 0
2022-05-21 15:12:48 GMT 51.071548 4.300851 32,000 286 431 0
2022-05-21 15:12:45 GMT 51.070087 4.309387 32,000 286 431 0
2022-05-21 15:12:42 GMT 51.069077 4.315177 32,000 286 431 0
2022-05-21 15:12:40 GMT 51.067337 4.325199 32,000 286 431 0
2022-05-21 15:12:38 GMT 51.066315 4.330978 32,000 286 431 0
2022-05-21 15:12:36 GMT 51.065460 4.335888 32,000 286 431 0
2022-05-21 15:12:33 GMT 51.063335 4.348068 32,000 286 431 0
2022-05-21 15:12:30 GMT 51.061798 4.356842 32,000 286 431 0
2022-05-21 15:12:27 GMT 51.060917 4.362030 32,000 286 431 0
2022-05-21 15:12:25 GMT 51.059845 4.368134 32,000 286 430 0
2022-05-21 15:12:23 GMT 51.057037 4.384287 32,000 286 430 0
2022-05-21 15:12:20 GMT 51.057037 4.384287 32,000 286 430 0
2022-05-21 15:12:18 GMT 51.054291 4.400099 32,000 286 430 0
2022-05-21 15:12:15 GMT 51.052780 4.408932 32,000 286 430 0
2022-05-21 15:12:12 GMT 51.052780 4.408932 32,000 286 430 0
2022-05-21 15:12:10 GMT 51.051373 4.416809 32,000 286 430 0
2022-05-21 15:12:07 GMT 51.050079 4.424076 32,000 286 431 0
2022-05-21 15:12:05 GMT 51.048798 4.431425 32,000 286 430 0
2022-05-21 15:12:02 GMT 51.047379 4.439590 32,000 286 430 0
2022-05-21 15:12:00 GMT 51.046371 4.445380 32,000 286 430 0
2022-05-21 15:11:57 GMT 51.043304 4.463047 32,000 286 430 0
2022-05-21 15:11:54 GMT 51.043304 4.463047 32,000 286 430 0
2022-05-21 15:11:52 GMT 51.040386 4.479752 32,000 286 430 0
2022-05-21 15:11:49 GMT 51.040386 4.479752 32,000 286 430 0
2022-05-21 15:11:46 GMT 51.038803 4.488602 32,000 286 430 0
2022-05-21 15:11:42 GMT 51.036659 4.501038 32,000 286 430 0
2022-05-21 15:11:39 GMT 51.035065 4.510185 32,000 286 430 0
2022-05-21 15:11:37 GMT 51.033962 4.516220 32,000 286 430 0
2022-05-21 15:11:35 GMT 51.031815 4.528371 32,000 286 430 0
2022-05-21 15:11:33 GMT 51.031815 4.528371 32,000 286 430 0
2022-05-21 15:11:30 GMT 51.030235 4.537506 32,000 286 430 0
2022-05-21 15:11:28 GMT 51.029434 4.542104 32,000 286 430 0
2022-05-21 15:11:25 GMT 51.027584 4.552689 32,000 286 430 0
2022-05-21 15:11:22 GMT 51.025581 4.563980 32,000 286 430 0
2022-05-21 15:11:19 GMT 51.023987 4.573059 32,000 286 430 0
2022-05-21 15:11:16 GMT 51.022789 4.579773 32,000 286 430 0
2022-05-21 15:11:14 GMT 51.021530 4.587097 32,000 286 430 0
2022-05-21 15:11:11 GMT 51.020233 4.594364 32,000 286 430 0
2022-05-21 15:11:08 GMT 51.018356 4.604979 32,000 286 430 0
2022-05-21 15:11:05 GMT 51.015564 4.620790 32,000 286 430 0
2022-05-21 15:11:03 GMT 51.015564 4.620790 32,000 286 430 0
2022-05-21 15:11:00 GMT 51.013916 4.630218 32,000 286 430 0
2022-05-21 15:10:57 GMT 51.010712 4.648405 32,000 286 430 0
2022-05-21 15:10:54 GMT 51.010712 4.648405 32,000 286 430 0
2022-05-21 15:10:51 GMT 51.007706 4.665375 32,000 286 429 0
2022-05-21 15:10:48 GMT 51.006088 4.674460 32,000 286 429 0
2022-05-21 15:10:45 GMT 51.006088 4.674460 32,000 286 429 0
2022-05-21 15:10:43 GMT 51.004761 4.682032 32,000 286 429 0
2022-05-21 15:10:40 GMT 51.002491 4.694748 32,000 286 429 0
2022-05-21 15:10:37 GMT 51.000778 4.704450 32,000 286 429 0
2022-05-21 15:10:35 GMT 51.000778 4.704450 32,000 286 429 0
2022-05-21 15:10:30 GMT 50.997986 4.720261 32,000 286 429 0
2022-05-21 15:10:27 GMT 50.996658 4.727833 32,000 286 429 0
2022